<?xml version='1.0' encoding='UTF-8'?><gpx version="1.1" creator="JPX - https://github.com/jenetics/jpx" xmlns="http://www.topografix.com/GPX/1/1"><trk><trkseg><trkpt lat="42.426224481353934" lon="-8.059777328752036"><ele>408.0</ele><time>2026-04-18T15:35:36.001Z</time></trkpt><trkpt lat="42.42628512442338" lon="-8.059907248251196"><ele>408.0</ele><time>2026-04-18T15:35:37Z</time></trkpt><trkpt lat="42.42634551603573" lon="-8.060039430864212"><ele>408.0</ele><time>2026-04-18T15:35:38Z</time></trkpt><trkpt lat="42.42641512774157" lon="-8.060198016472217"><ele>408.0</ele><time>2026-04-18T15:35:39Z</time></trkpt><trkpt lat="42.426492366979296" lon="-8.060356602080223"><ele>406.75</ele><time>2026-04-18T15:35:40Z</time></trkpt><trkpt lat="42.426569564307506" lon="-8.060527592904922"><ele>405.5</ele><time>2026-04-18T15:35:41Z</time></trkpt><trkpt lat="42.426650407763596" lon="-8.06070243940508"><ele>404.25</ele><time>2026-04-18T15:35:42Z</time></trkpt><trkpt lat="42.426727018358584" lon="-8.060871586211082"><ele>403.0</ele><time>2026-04-18T15:35:43Z</time></trkpt><trkpt lat="42.42680763443895" lon="-8.061043425178417"><ele>401.75</ele><time>2026-04-18T15:35:44Z</time></trkpt><trkpt lat="42.42688183146201" lon="-8.061206094867106"><ele>400.5</ele><time>2026-04-18T15:35:45Z</time></trkpt><trkpt lat="42.42695275745344" lon="-8.061359257195809"><ele>399.25</ele><time>2026-04-18T15:35:46Z</time></trkpt><trkpt lat="42.42702660234902" lon="-8.061520557358048"><ele>398.0</ele><time>2026-04-18T15:35:47Z</time></trkpt><trkpt lat="42.42710076715098" lon="-8.061689061899369"><ele>395.3333333333333</ele><time>2026-04-18T15:35:48Z</time></trkpt><trkpt lat="42.427182528907686" lon="-8.06186247447626"><ele>392.66666666666663</ele><time>2026-04-18T15:35:49Z</time></trkpt><trkpt lat="42.42727809064902" lon="-8.062020715680891"><ele>390.0</ele><time>2026-04-18T15:35:50Z</time></trkpt><trkpt lat="42.42736692676299" lon="-8.062195698779004"><ele>390.0</ele><time>2026-04-18T15:35:51Z</time></trkpt><trkpt lat="42.42746930069353" lon="-8.062357942996941"><ele>390.0</ele><time>2026-04-18T15:35:52Z</time></trkpt><trkpt lat="42.42758609339205" lon="-8.062504457101296"><ele>390.0</ele><time>2026-04-18T15:35:53Z</time></trkpt><trkpt lat="42.42769145664159" lon="-8.06265156089916"><ele>390.0</ele><time>2026-04-18T15:35:54Z</time></trkpt><trkpt lat="42.42778486915412" lon="-8.062760903642175"><ele>390.0</ele><time>2026-04-18T15:35:55Z</time></trkpt><trkpt lat="42.42790487985294" lon="-8.062854643639543"><ele>390.0</ele><time>2026-04-18T15:35:56Z</time></trkpt><trkpt lat="42.428000456996116" lon="-8.062943330296495"><ele>390.0</ele><time>2026-04-18T15:35:57Z</time></trkpt><trkpt lat="42.428151499886354" lon="-8.062899250472782"><ele>390.0</ele><time>2026-04-18T15:35:58Z</time></trkpt><trkpt lat="42.42826401845316" lon="-8.062911891925125"><ele>390.0</ele><time>2026-04-18T15:35:59Z</time></trkpt><trkpt lat="42.42836602699657" lon="-8.062982825046038"><ele>390.0</ele><time>2026-04-18T15:36:00Z</time></trkpt><trkpt lat="42.428414380928466" lon="-8.063104475150952"><ele>390.0</ele><time>2026-04-18T15:36:01Z</time></trkpt><trkpt lat="42.428475779380165" lon="-8.06320087929876"><ele>390.0</ele><time>2026-04-18T15:36:02Z</time></trkpt><trkpt lat="42.428477867787144" lon="-8.063362163130758"><ele>389.8</ele><time>2026-04-18T15:36:03Z</time></trkpt><trkpt lat="42.428433809495594" lon="-8.063464481384628"><ele>389.6</ele><time>2026-04-18T15:36:04Z</time></trkpt><trkpt lat="42.428375213705955" lon="-8.063587507907057"><ele>389.4</ele><time>2026-04-18T15:36:05Z</time></trkpt><trkpt lat="42.42828137929779" lon="-8.063679400767304"><ele>389.2</ele><time>2026-04-18T15:36:06Z</time></trkpt><trkpt lat="42.428192695048075" lon="-8.063752194282607"><ele>389.0</ele><time>2026-04-18T15:36:07Z</time></trkpt><trkpt lat="42.42812470792198" lon="-8.06376486721341"><ele>389.0</ele><time>2026-04-18T15:36:08Z</time></trkpt><trkpt lat="42.428172537868555" lon="-8.063977337021354"><ele>389.0</ele><time>2026-04-18T15:36:09Z</time></trkpt><trkpt lat="42.42817261825522" lon="-8.064126495614198"><ele>389.0</ele><time>2026-04-18T15:36:10Z</time></trkpt><trkpt lat="42.428214595718124" lon="-8.064276646641215"><ele>389.0</ele><time>2026-04-18T15:36:11Z</time></trkpt><trkpt lat="42.42827097228583" lon="-8.064420615389276"><ele>388.75</ele><time>2026-04-18T15:36:12Z</time></trkpt><trkpt lat="42.428333526327805" lon="-8.064572675683044"><ele>388.5</ele><time>2026-04-18T15:36:13Z</time></trkpt><trkpt lat="42.428411847048274" lon="-8.064724999992928"><ele>388.25</ele><time>2026-04-18T15:36:14Z</time></trkpt><trkpt lat="42.42847353461493" lon="-8.06488977504807"><ele>388.0</ele><time>2026-04-18T15:36:15Z</time></trkpt><trkpt lat="42.42853452167976" lon="-8.065055725018029"><ele>387.75</ele><time>2026-04-18T15:36:16Z</time></trkpt><trkpt lat="42.4285972673709" lon="-8.065224949163074"><ele>387.5</ele><time>2026-04-18T15:36:17Z</time></trkpt><trkpt lat="42.42865332963998" lon="-8.065385189706573"><ele>387.25</ele><time>2026-04-18T15:36:18Z</time></trkpt><trkpt lat="42.42871449717636" lon="-8.065531521037606"><ele>387.0</ele><time>2026-04-18T15:36:19Z</time></trkpt><trkpt lat="42.42877329585861" lon="-8.065673077240756"><ele>387.75</ele><time>2026-04-18T15:36:20Z</time></trkpt><trkpt lat="42.42883269594106" lon="-8.065814496648915"><ele>388.5</ele><time>2026-04-18T15:36:21Z</time></trkpt><trkpt lat="42.42888887811817" lon="-8.065952164038672"><ele>389.25</ele><time>2026-04-18T15:36:22Z</time></trkpt><trkpt lat="42.42894037561221" lon="-8.066103558204228"><ele>390.0</ele><time>2026-04-18T15:36:23Z</time></trkpt><trkpt lat="42.42898291647679" lon="-8.066267203620212"><ele>390.0</ele><time>2026-04-18T15:36:24Z</time></trkpt><trkpt lat="42.42904119787264" lon="-8.066424467438582"><ele>390.0</ele><time>2026-04-18T15:36:25Z</time></trkpt><trkpt lat="42.42910053484579" lon="-8.066578076120384"><ele>390.0</ele><time>2026-04-18T15:36:26Z</time></trkpt><trkpt lat="42.42916760766036" lon="-8.066731665249865"><ele>390.0</ele><time>2026-04-18T15:36:27Z</time></trkpt><trkpt lat="42.4292293417154" lon="-8.066884846947106"><ele>389.5</ele><time>2026-04-18T15:36:28Z</time></trkpt><trkpt lat="42.4292889444656" lon="-8.067037252599551"><ele>389.0</ele><time>2026-04-18T15:36:29Z</time></trkpt><trkpt lat="42.429348174953056" lon="-8.067203356326425"><ele>388.5</ele><time>2026-04-18T15:36:30Z</time></trkpt><trkpt lat="42.429405362474114" lon="-8.067347346522352"><ele>388.0</ele><time>2026-04-18T15:36:31Z</time></trkpt><trkpt lat="42.429449884081315" lon="-8.067468117764113"><ele>387.2</ele><time>2026-04-18T15:36:32Z</time></trkpt><trkpt lat="42.42950002731733" lon="-8.06759314408788"><ele>386.4</ele><time>2026-04-18T15:36:33Z</time></trkpt><trkpt lat="42.42954687703656" lon="-8.06771721103311"><ele>385.59999999999997</ele><time>2026-04-18T15:36:34Z</time></trkpt><trkpt lat="42.42958026886302" lon="-8.0678347546523"><ele>384.79999999999995</ele><time>2026-04-18T15:36:35Z</time></trkpt><trkpt lat="42.429604111321176" lon="-8.067944964751572"><ele>384.0</ele><time>2026-04-18T15:36:36Z</time></trkpt><trkpt lat="42.42961547441825" lon="-8.068060329946505"><ele>384.0</ele><time>2026-04-18T15:36:37Z</time></trkpt><trkpt lat="42.42962092161559" lon="-8.068155269521279"><ele>384.0</ele><time>2026-04-18T15:36:38Z</time></trkpt><trkpt lat="42.42962763028316" lon="-8.068268842734646"><ele>384.0</ele><time>2026-04-18T15:36:40Z</time></trkpt><trkpt lat="42.42966254362718" lon="-8.068349127519458"><ele>384.0</ele><time>2026-04-18T15:53:27Z</time></trkpt><trkpt lat="42.429638552501686" lon="-8.068528340474769"><ele>384.0</ele><time>2026-04-18T15:53:31Z</time></trkpt><trkpt lat="42.4296323658617" lon="-8.068663250725507"><ele>383.79999999999995</ele><time>2026-04-18T15:53:32Z</time></trkpt><trkpt lat="42.429629958260364" lon="-8.068804523275382"><ele>383.59999999999997</ele><time>2026-04-18T15:53:33Z</time></trkpt><trkpt lat="42.42963473815737" lon="-8.068945197377062"><ele>383.4</ele><time>2026-04-18T15:53:34Z</time></trkpt><trkpt lat="42.429631911468356" lon="-8.069084122680165"><ele>383.2</ele><time>2026-04-18T15:53:35Z</time></trkpt><trkpt lat="42.42963507769866" lon="-8.06923469138112"><ele>383.0</ele><time>2026-04-18T15:53:36Z</time></trkpt><trkpt lat="42.42963420142366" lon="-8.069376607098297"><ele>383.0</ele><time>2026-04-18T15:53:37Z</time></trkpt><trkpt lat="42.42963317424179" lon="-8.069533256544188"><ele>383.0</ele><time>2026-04-18T15:53:38Z</time></trkpt><trkpt lat="42.42963521348601" lon="-8.069684614652461"><ele>383.0</ele><time>2026-04-18T15:53:39Z</time></trkpt><trkpt lat="42.42963781571295" lon="-8.069847250026884"><ele>383.0</ele><time>2026-04-18T15:53:40Z</time></trkpt><trkpt lat="42.42963423524617" lon="-8.069986534353607"><ele>383.2</ele><time>2026-04-18T15:53:41Z</time></trkpt><trkpt lat="42.42962186134716" lon="-8.070126538801214"><ele>383.4</ele><time>2026-04-18T15:53:42Z</time></trkpt><trkpt lat="42.42963919083893" lon="-8.07025233864875"><ele>383.59999999999997</ele><time>2026-04-18T15:53:43Z</time></trkpt><trkpt lat="42.429648614528105" lon="-8.070384853591408"><ele>383.79999999999995</ele><time>2026-04-18T15:53:44Z</time></trkpt><trkpt lat="42.42966243026165" lon="-8.070520986990013"><ele>384.0</ele><time>2026-04-18T15:53:45Z</time></trkpt><trkpt lat="42.429664854974206" lon="-8.070656836775957"><ele>385.0</ele><time>2026-04-18T15:53:46Z</time></trkpt><trkpt lat="42.42968080056458" lon="-8.070799031775074"><ele>386.0</ele><time>2026-04-18T15:53:47Z</time></trkpt><trkpt lat="42.42970345342037" lon="-8.070931546091357"><ele>387.0</ele><time>2026-04-18T15:53:48Z</time></trkpt><trkpt lat="42.429725305122346" lon="-8.071064918166824"><ele>388.0</ele><time>2026-04-18T15:53:49Z</time></trkpt><trkpt lat="42.42975849355175" lon="-8.071202778045548"><ele>389.0</ele><time>2026-04-18T15:53:50Z</time></trkpt><trkpt lat="42.42978729946253" lon="-8.071328315219889"><ele>388.99999999999994</ele><time>2026-04-18T15:53:51Z</time></trkpt><trkpt lat="42.42981481424707" lon="-8.071450686658284"><ele>389.0</ele><time>2026-04-18T15:53:52Z</time></trkpt><trkpt lat="42.42983923158084" lon="-8.071573493088106"><ele>389.0</ele><time>2026-04-18T15:53:53Z</time></trkpt><trkpt lat="42.42987138000393" lon="-8.071680903608225"><ele>389.0</ele><time>2026-04-18T15:53:54Z</time></trkpt><trkpt lat="42.429886343696616" lon="-8.071788011828005"><ele>388.99999999999994</ele><time>2026-04-18T15:53:55Z</time></trkpt><trkpt lat="42.429894357621535" lon="-8.071881400023528"><ele>389.0</ele><time>2026-04-18T15:53:56Z</time></trkpt><trkpt lat="42.429928348294254" lon="-8.071958170223477"><ele>389.2</ele><time>2026-04-18T15:53:57Z</time></trkpt><trkpt lat="42.42997095831228" lon="-8.072125627195128"><ele>389.4</ele><time>2026-04-18T15:53:59Z</time></trkpt><trkpt lat="42.43000287125153" lon="-8.07224314957896"><ele>389.6</ele><time>2026-04-18T15:54:00Z</time></trkpt><trkpt lat="42.430024083376765" lon="-8.072386704830842"><ele>389.8</ele><time>2026-04-18T15:54:01Z</time></trkpt><trkpt lat="42.43004417997202" lon="-8.072542540630307"><ele>390.0</ele><time>2026-04-18T15:54:02Z</time></trkpt><trkpt lat="42.43008007645492" lon="-8.072704738674751"><ele>391.0</ele><time>2026-04-18T15:54:03Z</time></trkpt><trkpt lat="42.430109510432416" lon="-8.072859092395461"><ele>392.0</ele><time>2026-04-18T15:54:04Z</time></trkpt><trkpt lat="42.4301498495548" lon="-8.073036493698764"><ele>393.0</ele><time>2026-04-18T15:54:05Z</time></trkpt><trkpt lat="42.430186222861806" lon="-8.073204201365042"><ele>394.0</ele><time>2026-04-18T15:54:06Z</time></trkpt><trkpt lat="42.43021837796375" lon="-8.073370778412693"><ele>394.75</ele><time>2026-04-18T15:54:07Z</time></trkpt><trkpt lat="42.43026353379292" lon="-8.073533901078106"><ele>395.5</ele><time>2026-04-18T15:54:08Z</time></trkpt><trkpt lat="42.43030205481862" lon="-8.073715689525603"><ele>396.25</ele><time>2026-04-18T15:54:09Z</time></trkpt><trkpt lat="42.43032733201666" lon="-8.073877823084263"><ele>397.0</ele><time>2026-04-18T15:54:10Z</time></trkpt><trkpt lat="42.430367251119215" lon="-8.0740186040027"><ele>397.0</ele><time>2026-04-18T15:54:11Z</time></trkpt><trkpt lat="42.43040691757271" lon="-8.07420220512834"><ele>397.0</ele><time>2026-04-18T15:54:12Z</time></trkpt><trkpt lat="42.43043967759123" lon="-8.0743538388274"><ele>397.0</ele><time>2026-04-18T15:54:13Z</time></trkpt><trkpt lat="42.43046329859684" lon="-8.074478903147732"><ele>397.0</ele><time>2026-04-18T15:54:14Z</time></trkpt><trkpt lat="42.430493189357975" lon="-8.07460337491466"><ele>397.6666666666667</ele><time>2026-04-18T15:54:15Z</time></trkpt><trkpt lat="42.43050645818478" lon="-8.074699003113803"><ele>398.33333333333337</ele><time>2026-04-18T15:54:16Z</time></trkpt><trkpt lat="42.43051988883094" lon="-8.07478763609742"><ele>399.0</ele><time>2026-04-18T15:54:20Z</time></trkpt><trkpt lat="42.43055194840787" lon="-8.074893415000448"><ele>399.66666666666663</ele><time>2026-04-18T15:54:22Z</time></trkpt><trkpt lat="42.43059085072618" lon="-8.074988253729888"><ele>400.3333333333333</ele><time>2026-04-18T15:54:23Z</time></trkpt><trkpt lat="42.43060835949334" lon="-8.075097638010831"><ele>401.0</ele><time>2026-04-18T15:54:24Z</time></trkpt><trkpt lat="42.43063852935315" lon="-8.075195915601125"><ele>401.49999999999994</ele><time>2026-04-18T15:54:25Z</time></trkpt><trkpt lat="42.430664689705466" lon="-8.075295889698435"><ele>402.0</ele><time>2026-04-18T15:54:27Z</time></trkpt><trkpt lat="42.430670898631746" lon="-8.075422180914689"><ele>402.5</ele><time>2026-04-18T15:54:36.999Z</time></trkpt><trkpt lat="42.43068623067392" lon="-8.07551280536498"><ele>403.0</ele><time>2026-04-18T15:54:37.999Z</time></trkpt><trkpt lat="42.43070494807717" lon="-8.075623993832751"><ele>403.49999999999994</ele><time>2026-04-18T15:54:38.999Z</time></trkpt><trkpt lat="42.4307423934027" lon="-8.075730944507807"><ele>404.0</ele><time>2026-04-18T15:54:39.999Z</time></trkpt><trkpt lat="42.430766691857414" lon="-8.075837114081489"><ele>404.0</ele><time>2026-04-18T15:54:40.999Z</time></trkpt><trkpt lat="42.43079950226586" lon="-8.075980475758492"><ele>404.0</ele><time>2026-04-18T15:54:42.999Z</time></trkpt><trkpt lat="42.43084358396046" lon="-8.076173087186797"><ele>404.0</ele><time>2026-04-18T15:54:44.999Z</time></trkpt><trkpt lat="42.43086535807964" lon="-8.07627498514905"><ele>404.0</ele><time>2026-04-18T15:54:45.999Z</time></trkpt><trkpt lat="42.43088793361281" lon="-8.076378844945445"><ele>404.0</ele><time>2026-04-18T15:54:46.999Z</time></trkpt><trkpt lat="42.43091303705963" lon="-8.076494334506952"><ele>404.3333333333333</ele><time>2026-04-18T15:54:47.999Z</time></trkpt><trkpt lat="42.43093923889595" lon="-8.076614877244957"><ele>404.66666666666663</ele><time>2026-04-18T15:54:48.999Z</time></trkpt><trkpt lat="42.43096513671038" lon="-8.076735090431967"><ele>405.0</ele><time>2026-04-18T15:54:49.999Z</time></trkpt><trkpt lat="42.43099180766796" lon="-8.076859711891988"><ele>405.33333333333337</ele><time>2026-04-18T15:54:50.999Z</time></trkpt><trkpt lat="42.43101251206052" lon="-8.07695645428605"><ele>405.6666666666667</ele><time>2026-04-18T15:54:51.999Z</time></trkpt><trkpt lat="42.43103463289441" lon="-8.077049303283955"><ele>406.0</ele><time>2026-04-18T15:54:52.999Z</time></trkpt><trkpt lat="42.431059948102124" lon="-8.077137195779459"><ele>406.00000000000006</ele><time>2026-04-18T15:54:53.999Z</time></trkpt><trkpt lat="42.431076897841976" lon="-8.077242101012965"><ele>406.0</ele><time>2026-04-18T15:54:54.999Z</time></trkpt><trkpt lat="42.43112300917523" lon="-8.077322558528538"><ele>406.0</ele><time>2026-04-18T15:54:56Z</time></trkpt><trkpt lat="42.431180159235" lon="-8.077469173744372"><ele>406.0</ele><time>2026-04-18T15:54:58Z</time></trkpt><trkpt lat="42.43124823465463" lon="-8.077557491622285"><ele>406.00000000000006</ele><time>2026-04-18T15:55:00Z</time></trkpt><trkpt lat="42.43130092516424" lon="-8.077622242804175"><ele>406.0</ele><time>2026-04-18T15:55:02Z</time></trkpt><trkpt lat="42.431391339602726" lon="-8.077713384616661"><ele>406.50000000000006</ele><time>2026-04-18T15:55:04Z</time></trkpt><trkpt lat="42.4314047137587" lon="-8.077844323440804"><ele>407.0</ele><time>2026-04-18T15:55:05Z</time></trkpt><trkpt lat="42.43141252299722" lon="-8.077945134906992"><ele>407.5</ele><time>2026-04-18T15:55:06Z</time></trkpt><trkpt lat="42.43143656256315" lon="-8.078033350955259"><ele>408.0</ele><time>2026-04-18T15:55:07Z</time></trkpt><trkpt lat="42.43145093883327" lon="-8.078118399604916"><ele>408.50000000000006</ele><time>2026-04-18T15:55:08Z</time></trkpt><trkpt lat="42.43146044372298" lon="-8.078278714136482"><ele>409.0</ele><time>2026-04-18T15:55:10Z</time></trkpt><trkpt lat="42.43144527906302" lon="-8.078431966187182"><ele>409.0</ele><time>2026-04-18T15:55:12Z</time></trkpt><trkpt lat="42.43140044277434" lon="-8.078531586614435"><ele>409.0</ele><time>2026-04-18T15:55:14Z</time></trkpt><trkpt lat="42.431374140717" lon="-8.078621164293326"><ele>409.0</ele><time>2026-04-18T15:55:16Z</time></trkpt><trkpt lat="42.43118845452792" lon="-8.078819739001734"><ele>409.0</ele><time>2026-04-18T15:56:46.999Z</time></trkpt><trkpt lat="42.43111595679328" lon="-8.07888181574653"><ele>408.83333333333337</ele><time>2026-04-18T15:56:47.999Z</time></trkpt><trkpt lat="42.431055830355504" lon="-8.078934468771994"><ele>408.6666666666667</ele><time>2026-04-18T15:56:48.999Z</time></trkpt><trkpt lat="42.431001270841385" lon="-8.078987950834712"><ele>408.5</ele><time>2026-04-18T15:56:49.999Z</time></trkpt><trkpt lat="42.4309402252868" lon="-8.07905053920387"><ele>408.33333333333337</ele><time>2026-04-18T15:56:50.999Z</time></trkpt><trkpt lat="42.43088492279197" lon="-8.079103052897212"><ele>408.1666666666667</ele><time>2026-04-18T15:56:51.999Z</time></trkpt><trkpt lat="42.430832232531145" lon="-8.07915000537136"><ele>408.0</ele><time>2026-04-18T15:56:52.999Z</time></trkpt><trkpt lat="42.43072573212063" lon="-8.079238132990307"><ele>407.2</ele><time>2026-04-18T15:56:54.999Z</time></trkpt><trkpt lat="42.4306347214284" lon="-8.079294147653897"><ele>406.4</ele><time>2026-04-18T15:56:56.999Z</time></trkpt><trkpt lat="42.43056581794686" lon="-8.079389145080555"><ele>405.59999999999997</ele><time>2026-04-18T15:56:58.999Z</time></trkpt><trkpt lat="42.43045470349732" lon="-8.079444041061079"><ele>404.79999999999995</ele><time>2026-04-18T15:57:00.999Z</time></trkpt><trkpt lat="42.43036825436656" lon="-8.079527538721402"><ele>404.0</ele><time>2026-04-18T15:57:02.999Z</time></trkpt><trkpt lat="42.430309874481296" lon="-8.079574359982812"><ele>403.85714285714283</ele><time>2026-04-18T15:57:03.999Z</time></trkpt><trkpt lat="42.43024085702398" lon="-8.079607966741957"><ele>403.71428571428567</ele><time>2026-04-18T15:57:04.999Z</time></trkpt><trkpt lat="42.430182027779196" lon="-8.079667728434865"><ele>403.57142857142856</ele><time>2026-04-18T15:57:05.999Z</time></trkpt><trkpt lat="42.430118109191625" lon="-8.079719533974757"><ele>403.42857142857144</ele><time>2026-04-18T15:57:06.999Z</time></trkpt><trkpt lat="42.43006196262776" lon="-8.079765851146929"><ele>403.2857142857143</ele><time>2026-04-18T15:57:07.999Z</time></trkpt><trkpt lat="42.4299988968991" lon="-8.079808186591148"><ele>403.14285714285717</ele><time>2026-04-18T15:57:08.999Z</time></trkpt><trkpt lat="42.429951200711294" lon="-8.07987099813161"><ele>403.0</ele><time>2026-04-18T15:57:09.999Z</time></trkpt><trkpt lat="42.42983917780682" lon="-8.079960861092758"><ele>402.59999999999997</ele><time>2026-04-18T15:57:12Z</time></trkpt><trkpt lat="42.42975286917247" lon="-8.080050186586204"><ele>402.2</ele><time>2026-04-18T15:57:14Z</time></trkpt><trkpt lat="42.42971975958431" lon="-8.080145473427168"><ele>401.8</ele><time>2026-04-18T15:57:16Z</time></trkpt><trkpt lat="42.42983203505995" lon="-8.080320592450494"><ele>401.4</ele><time>2026-04-18T15:57:18Z</time></trkpt><trkpt lat="42.42987052723639" lon="-8.080423674163722"><ele>401.0</ele><time>2026-04-18T15:57:19Z</time></trkpt><trkpt lat="42.42990928897165" lon="-8.080527478066491"><ele>400.99999999999994</ele><time>2026-04-18T15:57:20Z</time></trkpt><trkpt lat="42.42994872909179" lon="-8.080633098691765"><ele>401.0</ele><time>2026-04-18T15:57:21Z</time></trkpt><trkpt lat="42.42998572833569" lon="-8.080732182641016"><ele>401.0</ele><time>2026-04-18T15:57:22Z</time></trkpt><trkpt lat="42.430019402775144" lon="-8.08083750669445"><ele>401.0</ele><time>2026-04-18T15:57:23Z</time></trkpt><trkpt lat="42.430052710880744" lon="-8.08094122450537"><ele>400.99999999999994</ele><time>2026-04-18T15:57:24Z</time></trkpt><trkpt lat="42.4301014482867" lon="-8.081034937274584"><ele>401.0</ele><time>2026-04-18T15:57:25Z</time></trkpt><trkpt lat="42.43014760885275" lon="-8.081146185776221"><ele>399.66666666666663</ele><time>2026-04-18T15:57:26Z</time></trkpt><trkpt lat="42.43018468557447" lon="-8.08124993549877"><ele>398.3333333333333</ele><time>2026-04-18T15:57:27Z</time></trkpt><trkpt lat="42.430217881766" lon="-8.081354466321216"><ele>397.0</ele><time>2026-04-18T15:57:28Z</time></trkpt><trkpt lat="42.43025773867004" lon="-8.081458667361398"><ele>395.66666666666663</ele><time>2026-04-18T15:57:29Z</time></trkpt><trkpt lat="42.430296852553845" lon="-8.081531896541629"><ele>394.3333333333333</ele><time>2026-04-18T15:57:30Z</time></trkpt><trkpt lat="42.43032198105856" lon="-8.081611525191645"><ele>393.0</ele><time>2026-04-18T15:57:32Z</time></trkpt><trkpt lat="42.430364523415044" lon="-8.081701111987375"><ele>392.0</ele><time>2026-04-18T15:57:37Z</time></trkpt><trkpt lat="42.4304306052377" lon="-8.081857972071653"><ele>391.0</ele><time>2026-04-18T15:57:39Z</time></trkpt><trkpt lat="42.43045864076357" lon="-8.081964630468647"><ele>390.0</ele><time>2026-04-18T15:57:40Z</time></trkpt><trkpt lat="42.430501591419684" lon="-8.082073149556733"><ele>389.0</ele><time>2026-04-18T15:57:41Z</time></trkpt><trkpt lat="42.43054413835689" lon="-8.082185569726164"><ele>388.0</ele><time>2026-04-18T15:57:42Z</time></trkpt><trkpt lat="42.43059654607868" lon="-8.082301207263317"><ele>388.0</ele><time>2026-04-18T15:57:43Z</time></trkpt><trkpt lat="42.43064248688612" lon="-8.082430047757681"><ele>388.0</ele><time>2026-04-18T15:57:44Z</time></trkpt><trkpt lat="42.43069192413498" lon="-8.082555302322278"><ele>388.0</ele><time>2026-04-18T15:57:45Z</time></trkpt><trkpt lat="42.430735201270416" lon="-8.082687252892576"><ele>388.0</ele><time>2026-04-18T15:57:46Z</time></trkpt><trkpt lat="42.430791693809056" lon="-8.082826809998132"><ele>388.0</ele><time>2026-04-18T15:57:47Z</time></trkpt><trkpt lat="42.43083974697345" lon="-8.082973725344925"><ele>385.75</ele><time>2026-04-18T15:57:48Z</time></trkpt><trkpt lat="42.43089217519721" lon="-8.083105802348364"><ele>383.5</ele><time>2026-04-18T15:57:49Z</time></trkpt><trkpt lat="42.430940371812845" lon="-8.083255381427657"><ele>381.25</ele><time>2026-04-18T15:57:50Z</time></trkpt><trkpt lat="42.431009320282314" lon="-8.083398956031768"><ele>379.0</ele><time>2026-04-18T15:57:51Z</time></trkpt><trkpt lat="42.43105368889124" lon="-8.083559684187103"><ele>376.75</ele><time>2026-04-18T15:57:52Z</time></trkpt><trkpt lat="42.431115750130125" lon="-8.083712638313948"><ele>374.5</ele><time>2026-04-18T15:57:53Z</time></trkpt><trkpt lat="42.43117894437292" lon="-8.083864109361985"><ele>372.25</ele><time>2026-04-18T15:57:54Z</time></trkpt><trkpt lat="42.43124429158333" lon="-8.084013878387719"><ele>370.0</ele><time>2026-04-18T15:57:55Z</time></trkpt><trkpt lat="42.43130608477521" lon="-8.084169885964132"><ele>370.25</ele><time>2026-04-18T15:57:56Z</time></trkpt><trkpt lat="42.43136820189563" lon="-8.084334043514117"><ele>370.5</ele><time>2026-04-18T15:57:57Z</time></trkpt><trkpt lat="42.431428854086505" lon="-8.084509901799608"><ele>370.75</ele><time>2026-04-18T15:57:58Z</time></trkpt><trkpt lat="42.43150251492544" lon="-8.084690170606013"><ele>371.0</ele><time>2026-04-18T15:57:59Z</time></trkpt><trkpt lat="42.43157803000506" lon="-8.084874376432882"><ele>372.33333333333337</ele><time>2026-04-18T15:58:00Z</time></trkpt><trkpt lat="42.431656357588935" lon="-8.08505340375291"><ele>373.6666666666667</ele><time>2026-04-18T15:58:01Z</time></trkpt><trkpt lat="42.43174075467647" lon="-8.085228007275028"><ele>375.0</ele><time>2026-04-18T15:58:02Z</time></trkpt><trkpt lat="42.4318418267414" lon="-8.085380592917947"><ele>375.0</ele><time>2026-04-18T15:58:03Z</time></trkpt><trkpt lat="42.431938144369816" lon="-8.085513615094662"><ele>375.0</ele><time>2026-04-18T15:58:04Z</time></trkpt><trkpt lat="42.432029021181386" lon="-8.085632017288683"><ele>375.0</ele><time>2026-04-18T15:58:05Z</time></trkpt><trkpt lat="42.43210757433565" lon="-8.085754118243383"><ele>375.0</ele><time>2026-04-18T15:58:06Z</time></trkpt><trkpt lat="42.432182885941344" lon="-8.08586879471215"><ele>376.6666666666667</ele><time>2026-04-18T15:58:07Z</time></trkpt><trkpt lat="42.43226233548611" lon="-8.085974405209658"><ele>378.33333333333337</ele><time>2026-04-18T15:58:08Z</time></trkpt><trkpt lat="42.43233096376342" lon="-8.086070517824643"><ele>380.0</ele><time>2026-04-18T15:58:09Z</time></trkpt><trkpt lat="42.43239521028916" lon="-8.08614952111168"><ele>381.6666666666667</ele><time>2026-04-18T15:58:10Z</time></trkpt><trkpt lat="42.43244757397433" lon="-8.086209561478883"><ele>383.33333333333337</ele><time>2026-04-18T15:58:11Z</time></trkpt><trkpt lat="42.432502340393825" lon="-8.086272649151695"><ele>385.0</ele><time>2026-04-18T15:58:14Z</time></trkpt><trkpt lat="42.43258191850282" lon="-8.086377603051266"><ele>385.0</ele><time>2026-04-18T15:58:16Z</time></trkpt><trkpt lat="42.43261812859522" lon="-8.086477843609574"><ele>385.0</ele><time>2026-04-18T15:58:17Z</time></trkpt><trkpt lat="42.43264692533045" lon="-8.086599990840298"><ele>385.0</ele><time>2026-04-18T15:58:18Z</time></trkpt><trkpt lat="42.43266397642509" lon="-8.086742074598284"><ele>385.0</ele><time>2026-04-18T15:58:19Z</time></trkpt><trkpt lat="42.43265519201354" lon="-8.086882219566979"><ele>385.0</ele><time>2026-04-18T15:58:20Z</time></trkpt><trkpt lat="42.4326755509983" lon="-8.086997945832783"><ele>385.50000000000006</ele><time>2026-04-18T15:58:21Z</time></trkpt><trkpt lat="42.43268448175641" lon="-8.087105655592179"><ele>386.0</ele><time>2026-04-18T15:58:22Z</time></trkpt><trkpt lat="42.43268533895396" lon="-8.08722555797071"><ele>386.5</ele><time>2026-04-18T15:58:23Z</time></trkpt><trkpt lat="42.43272629560023" lon="-8.087320545527689"><ele>387.0</ele><time>2026-04-18T15:58:24Z</time></trkpt><trkpt lat="42.43278643380457" lon="-8.087393162588675"><ele>387.50000000000006</ele><time>2026-04-18T15:58:25Z</time></trkpt><trkpt lat="42.43285093464606" lon="-8.087440444207227"><ele>388.0</ele><time>2026-04-18T15:58:26Z</time></trkpt><trkpt lat="42.4329250934451" lon="-8.08747223955399"><ele>389.1666666666667</ele><time>2026-04-18T15:58:27Z</time></trkpt><trkpt lat="42.43300872917287" lon="-8.087513448543826"><ele>390.33333333333337</ele><time>2026-04-18T15:58:28Z</time></trkpt><trkpt lat="42.43308284344495" lon="-8.087558463065339"><ele>391.5</ele><time>2026-04-18T15:58:29Z</time></trkpt><trkpt lat="42.433150887988305" lon="-8.08760919592541"><ele>392.66666666666663</ele><time>2026-04-18T15:58:30Z</time></trkpt><trkpt lat="42.433216903132355" lon="-8.087677284457216"><ele>393.8333333333333</ele><time>2026-04-18T15:58:31Z</time></trkpt><trkpt lat="42.43326478156631" lon="-8.087750994744633"><ele>395.0</ele><time>2026-04-18T15:58:32Z</time></trkpt><trkpt lat="42.43330374653237" lon="-8.087856658697287"><ele>394.99999999999994</ele><time>2026-04-18T15:58:33Z</time></trkpt><trkpt lat="42.43332895244602" lon="-8.08795309767673"><ele>395.0</ele><time>2026-04-18T15:58:34Z</time></trkpt><trkpt lat="42.433345669661655" lon="-8.088073080239386"><ele>395.0</ele><time>2026-04-18T15:58:35Z</time></trkpt><trkpt lat="42.433360526944966" lon="-8.088192090531127"><ele>395.0</ele><time>2026-04-18T15:58:36Z</time></trkpt><trkpt lat="42.433379517831426" lon="-8.08830710698509"><ele>394.99999999999994</ele><time>2026-04-18T15:58:37Z</time></trkpt><trkpt lat="42.43339976152618" lon="-8.088438118854475"><ele>395.0</ele><time>2026-04-18T15:58:38Z</time></trkpt><trkpt lat="42.43340707746231" lon="-8.08854185100662"><ele>396.8</ele><time>2026-04-18T15:58:39Z</time></trkpt><trkpt lat="42.43341209680493" lon="-8.088669106740097"><ele>398.6</ele><time>2026-04-18T15:58:40Z</time></trkpt><trkpt lat="42.43341132204488" lon="-8.088782950206292"><ele>400.4</ele><time>2026-04-18T15:58:41Z</time></trkpt><trkpt lat="42.433403341236755" lon="-8.08890774793332"><ele>402.2</ele><time>2026-04-18T15:58:42Z</time></trkpt><trkpt lat="42.43341033251705" lon="-8.089031498473316"><ele>404.0</ele><time>2026-04-18T15:58:42.999Z</time></trkpt><trkpt lat="42.43339964122732" lon="-8.08916498053703"><ele>404.8333333333333</ele><time>2026-04-18T15:58:43.999Z</time></trkpt><trkpt lat="42.43339111206428" lon="-8.089266547090428"><ele>405.66666666666663</ele><time>2026-04-18T15:58:44.999Z</time></trkpt><trkpt lat="42.433379287053725" lon="-8.089391419126997"><ele>406.5</ele><time>2026-04-18T15:58:45.999Z</time></trkpt><trkpt lat="42.43336769055254" lon="-8.08951387816471"><ele>407.33333333333337</ele><time>2026-04-18T15:58:46.999Z</time></trkpt><trkpt lat="42.43334860134241" lon="-8.089632667177835"><ele>408.1666666666667</ele><time>2026-04-18T15:58:47.999Z</time></trkpt><trkpt lat="42.433335054275275" lon="-8.08974112984514"><ele>409.0</ele><time>2026-04-18T15:58:48.999Z</time></trkpt><trkpt lat="42.43332148918876" lon="-8.089849741211946"><ele>409.33333333333337</ele><time>2026-04-18T15:58:49.999Z</time></trkpt><trkpt lat="42.433300112969185" lon="-8.089947326360216"><ele>409.6666666666667</ele><time>2026-04-18T15:58:50.999Z</time></trkpt><trkpt lat="42.43327774169729" lon="-8.090041580314052"><ele>410.0</ele><time>2026-04-18T15:58:51.999Z</time></trkpt><trkpt lat="42.43323602735988" lon="-8.090138532294402"><ele>410.33333333333337</ele><time>2026-04-18T15:58:52.999Z</time></trkpt><trkpt lat="42.43319015223202" lon="-8.090246447901746"><ele>410.6666666666667</ele><time>2026-04-18T15:58:53.999Z</time></trkpt><trkpt lat="42.43313213466338" lon="-8.090333448196308"><ele>411.0</ele><time>2026-04-18T15:58:54.999Z</time></trkpt><trkpt lat="42.43306810666074" lon="-8.090423339751394"><ele>411.0</ele><time>2026-04-18T15:58:55.999Z</time></trkpt><trkpt lat="42.433000215510916" lon="-8.090510093027916"><ele>411.0</ele><time>2026-04-18T15:58:56.999Z</time></trkpt><trkpt lat="42.43292995265782" lon="-8.090599218083689"><ele>411.0</ele><time>2026-04-18T15:58:57.999Z</time></trkpt><trkpt lat="42.43285435923131" lon="-8.090692449285712"><ele>411.0</ele><time>2026-04-18T15:58:58.999Z</time></trkpt><trkpt lat="42.43278290350685" lon="-8.090780577349472"><ele>411.0</ele><time>2026-04-18T15:58:59.999Z</time></trkpt><trkpt lat="42.43271184119967" lon="-8.090868220214167"><ele>411.7142857142857</ele><time>2026-04-18T15:59:00.999Z</time></trkpt><trkpt lat="42.432646820439295" lon="-8.090948411883463"><ele>412.42857142857144</ele><time>2026-04-18T15:59:01.999Z</time></trkpt><trkpt lat="42.432588305982485" lon="-8.0910205644652"><ele>413.1428571428571</ele><time>2026-04-18T15:59:02.999Z</time></trkpt><trkpt lat="42.43253655063596" lon="-8.091083888364137"><ele>413.8571428571429</ele><time>2026-04-18T15:59:03.999Z</time></trkpt><trkpt lat="42.432486682091856" lon="-8.09114490393916"><ele>414.5714285714286</ele><time>2026-04-18T15:59:04.999Z</time></trkpt><trkpt lat="42.432436746639205" lon="-8.091198673518802"><ele>415.2857142857143</ele><time>2026-04-18T15:59:05.999Z</time></trkpt><trkpt lat="42.43239355217746" lon="-8.091268712514426"><ele>416.0</ele><time>2026-04-18T15:59:06.999Z</time></trkpt><trkpt lat="42.43235709681425" lon="-8.091386423034956"><ele>416.0</ele><time>2026-04-18T15:59:07.999Z</time></trkpt><trkpt lat="42.43238378845059" lon="-8.091522363826815"><ele>416.0</ele><time>2026-04-18T15:59:08.999Z</time></trkpt><trkpt lat="42.4324625583417" lon="-8.091639506108205"><ele>416.0</ele><time>2026-04-18T15:59:09.999Z</time></trkpt><trkpt lat="42.43254016516885" lon="-8.091727343578027"><ele>416.0</ele><time>2026-04-18T15:59:11Z</time></trkpt><trkpt lat="42.43261821506458" lon="-8.091820047677347"><ele>416.0</ele><time>2026-04-18T15:59:12Z</time></trkpt><trkpt lat="42.43268304135586" lon="-8.09193810267226"><ele>416.6</ele><time>2026-04-18T15:59:13Z</time></trkpt><trkpt lat="42.43271892601106" lon="-8.092066355658261"><ele>417.20000000000005</ele><time>2026-04-18T15:59:14Z</time></trkpt><trkpt lat="42.43274491468296" lon="-8.092194888743885"><ele>417.79999999999995</ele><time>2026-04-18T15:59:15Z</time></trkpt><trkpt lat="42.432756486088074" lon="-8.092307524613739"><ele>418.4</ele><time>2026-04-18T15:59:16Z</time></trkpt><trkpt lat="42.43278046325155" lon="-8.092449754146509"><ele>419.0</ele><time>2026-04-18T15:59:17Z</time></trkpt><trkpt lat="42.4328231084337" lon="-8.092564243829704"><ele>419.0</ele><time>2026-04-18T15:59:18Z</time></trkpt><trkpt lat="42.43288257789189" lon="-8.092655561748977"><ele>419.0</ele><time>2026-04-18T15:59:19Z</time></trkpt><trkpt lat="42.43296966357754" lon="-8.092740361025017"><ele>419.0</ele><time>2026-04-18T15:59:20Z</time></trkpt><trkpt lat="42.43305400701831" lon="-8.092815800873383"><ele>419.0</ele><time>2026-04-18T15:59:21Z</time></trkpt><trkpt lat="42.43312778397795" lon="-8.092882485799661"><ele>419.0</ele><time>2026-04-18T15:59:22Z</time></trkpt><trkpt lat="42.433185005603065" lon="-8.09295586804711"><ele>422.0</ele><time>2026-04-18T15:59:23Z</time></trkpt><trkpt lat="42.433281805210484" lon="-8.09300224466913"><ele>425.0</ele><time>2026-04-18T15:59:24Z</time></trkpt><trkpt lat="42.43334894323936" lon="-8.093030078317344"><ele>428.0</ele><time>2026-04-18T15:59:25Z</time></trkpt><trkpt lat="42.43343917392181" lon="-8.093083027145562"><ele>431.0</ele><time>2026-04-18T15:59:27Z</time></trkpt><trkpt lat="42.43350289867039" lon="-8.093118242093928"><ele>434.0</ele><time>2026-04-18T15:59:28Z</time></trkpt><trkpt lat="42.43362649962924" lon="-8.093178106288638"><ele>434.0</ele><time>2026-04-18T15:59:30Z</time></trkpt><trkpt lat="42.43370416219021" lon="-8.09321209625523"><ele>434.0</ele><time>2026-04-18T15:59:31Z</time></trkpt><trkpt lat="42.43379427232956" lon="-8.093270853289834"><ele>434.0</ele><time>2026-04-18T15:59:32Z</time></trkpt><trkpt lat="42.433887863215" lon="-8.093327236414229"><ele>434.0</ele><time>2026-04-18T15:59:33Z</time></trkpt><trkpt lat="42.43398551897896" lon="-8.093380447584593"><ele>434.0</ele><time>2026-04-18T15:59:34Z</time></trkpt><trkpt lat="42.43409864336279" lon="-8.093445855805053"><ele>434.8333333333333</ele><time>2026-04-18T15:59:35Z</time></trkpt><trkpt lat="42.43420120185366" lon="-8.093510439651848"><ele>435.66666666666663</ele><time>2026-04-18T15:59:36Z</time></trkpt><trkpt lat="42.43429787780924" lon="-8.09356897446683"><ele>436.5</ele><time>2026-04-18T15:59:37Z</time></trkpt><trkpt lat="42.43436828069643" lon="-8.093621413469034"><ele>437.33333333333337</ele><time>2026-04-18T15:59:38Z</time></trkpt><trkpt lat="42.43443440364142" lon="-8.093663757891663"><ele>438.1666666666667</ele><time>2026-04-18T15:59:39Z</time></trkpt><trkpt lat="42.4344940631511" lon="-8.093706974596536"><ele>439.0</ele><time>2026-04-18T15:59:40Z</time></trkpt><trkpt lat="42.43455740379648" lon="-8.093781833534317"><ele>439.0</ele><time>2026-04-18T15:59:42Z</time></trkpt><trkpt lat="42.43463771781377" lon="-8.093894450296686"><ele>439.0</ele><time>2026-04-18T15:59:45Z</time></trkpt><trkpt lat="42.434702837925414" lon="-8.094043761720656"><ele>439.0</ele><time>2026-04-18T15:59:47Z</time></trkpt><trkpt lat="42.43472301084296" lon="-8.094140258790471"><ele>439.0</ele><time>2026-04-18T15:59:48Z</time></trkpt><trkpt lat="42.43475946902489" lon="-8.09424206516503"><ele>439.0</ele><time>2026-04-18T15:59:49Z</time></trkpt><trkpt lat="42.434810579074345" lon="-8.094341922955076"><ele>440.4</ele><time>2026-04-18T15:59:50Z</time></trkpt><trkpt lat="42.43484167721759" lon="-8.094448209122824"><ele>441.79999999999995</ele><time>2026-04-18T15:59:51Z</time></trkpt><trkpt lat="42.434891198724394" lon="-8.09455653006417"><ele>443.20000000000005</ele><time>2026-04-18T15:59:52Z</time></trkpt><trkpt lat="42.43492062136929" lon="-8.094686240448883"><ele>444.6</ele><time>2026-04-18T15:59:53Z</time></trkpt><trkpt lat="42.434964213314856" lon="-8.094790652294892"><ele>446.0</ele><time>2026-04-18T15:59:54Z</time></trkpt><trkpt lat="42.435003721612674" lon="-8.094900488141647"><ele>446.6</ele><time>2026-04-18T15:59:55Z</time></trkpt><trkpt lat="42.43504209887619" lon="-8.095019473083145"><ele>447.20000000000005</ele><time>2026-04-18T15:59:56Z</time></trkpt><trkpt lat="42.435082236808505" lon="-8.095148094428566"><ele>447.79999999999995</ele><time>2026-04-18T15:59:57Z</time></trkpt><trkpt lat="42.43510997695001" lon="-8.09526722917436"><ele>448.4</ele><time>2026-04-18T15:59:58Z</time></trkpt><trkpt lat="42.435134461658706" lon="-8.09540041448438"><ele>449.0</ele><time>2026-04-18T15:59:59Z</time></trkpt><trkpt lat="42.43516390194312" lon="-8.095534065603912"><ele>449.0</ele><time>2026-04-18T16:00:00Z</time></trkpt><trkpt lat="42.43521086202501" lon="-8.095653385042217"><ele>449.0</ele><time>2026-04-18T16:00:01Z</time></trkpt><trkpt lat="42.43523609152116" lon="-8.09577427958939"><ele>449.0</ele><time>2026-04-18T16:00:02Z</time></trkpt><trkpt lat="42.435266457963884" lon="-8.095878369302607"><ele>449.0</ele><time>2026-04-18T16:00:03Z</time></trkpt><trkpt lat="42.43533507000499" lon="-8.09601408567705"><ele>449.0</ele><time>2026-04-18T16:00:05Z</time></trkpt><trkpt lat="42.435370231344976" lon="-8.096085360953783"><ele>450.1428571428571</ele><time>2026-04-18T16:00:06Z</time></trkpt><trkpt lat="42.435421571797534" lon="-8.096137032996952"><ele>451.2857142857142</ele><time>2026-04-18T16:00:07Z</time></trkpt><trkpt lat="42.435472662308605" lon="-8.096199958346938"><ele>452.42857142857144</ele><time>2026-04-18T16:00:08Z</time></trkpt><trkpt lat="42.435524801004526" lon="-8.096267396065235"><ele>453.57142857142856</ele><time>2026-04-18T16:00:09Z</time></trkpt><trkpt lat="42.43557788193118" lon="-8.096344839467038"><ele>454.7142857142857</ele><time>2026-04-18T16:00:10Z</time></trkpt><trkpt lat="42.43560849690713" lon="-8.096419416270331"><ele>455.8571428571429</ele><time>2026-04-18T16:00:11Z</time></trkpt><trkpt lat="42.43564532194627" lon="-8.096510529401929"><ele>457.00000000000006</ele><time>2026-04-18T16:00:12Z</time></trkpt><trkpt lat="42.43563123648192" lon="-8.09661792557668"><ele>457.83333333333337</ele><time>2026-04-18T16:00:13Z</time></trkpt><trkpt lat="42.43561335140451" lon="-8.096735493776661"><ele>458.6666666666667</ele><time>2026-04-18T16:00:14Z</time></trkpt><trkpt lat="42.43560493219264" lon="-8.096852208759085"><ele>459.5</ele><time>2026-04-18T16:00:15Z</time></trkpt><trkpt lat="42.43558661539823" lon="-8.096963681373724"><ele>460.33333333333337</ele><time>2026-04-18T16:00:16Z</time></trkpt><trkpt lat="42.43558229188058" lon="-8.097065324354867"><ele>461.1666666666667</ele><time>2026-04-18T16:00:17Z</time></trkpt><trkpt lat="42.43560683987894" lon="-8.097183967805769"><ele>462.0</ele><time>2026-04-18T16:00:18Z</time></trkpt><trkpt lat="42.43561946765828" lon="-8.097291553357946"><ele>462.0</ele><time>2026-04-18T16:00:19Z</time></trkpt><trkpt lat="42.435651132502024" lon="-8.0973736920405"><ele>462.0</ele><time>2026-04-18T16:00:20Z</time></trkpt><trkpt lat="42.43568523162499" lon="-8.097447324072979"><ele>462.0</ele><time>2026-04-18T16:00:21Z</time></trkpt><trkpt lat="42.435763125579314" lon="-8.097537308862716"><ele>462.0</ele><time>2026-04-18T16:00:22Z</time></trkpt><trkpt lat="42.43582873381929" lon="-8.097582682799755"><ele>462.0</ele><time>2026-04-18T16:00:23Z</time></trkpt><trkpt lat="42.43590619987387" lon="-8.097649545602282"><ele>462.0</ele><time>2026-04-18T16:00:24Z</time></trkpt><trkpt lat="42.43597383152602" lon="-8.097747404283133"><ele>462.6</ele><time>2026-04-18T16:00:25Z</time></trkpt><trkpt lat="42.436009718419704" lon="-8.097878709381781"><ele>463.20000000000005</ele><time>2026-04-18T16:00:26Z</time></trkpt><trkpt lat="42.43601109710994" lon="-8.097995082703237"><ele>463.8</ele><time>2026-04-18T16:00:27Z</time></trkpt><trkpt lat="42.43598712021511" lon="-8.098097156272381"><ele>464.4</ele><time>2026-04-18T16:00:28Z</time></trkpt><trkpt lat="42.43595020285231" lon="-8.098210217269964"><ele>465.0</ele><time>2026-04-18T16:00:29Z</time></trkpt><trkpt lat="42.435911443353596" lon="-8.09832310125214"><ele>466.0</ele><time>2026-04-18T16:00:30Z</time></trkpt><trkpt lat="42.43582654525995" lon="-8.098397572237051"><ele>467.0</ele><time>2026-04-18T16:00:31Z</time></trkpt><trkpt lat="42.43576452713084" lon="-8.098486120420985"><ele>468.0</ele><time>2026-04-18T16:00:32Z</time></trkpt><trkpt lat="42.435698040705226" lon="-8.098554465937385"><ele>469.0</ele><time>2026-04-18T16:00:33Z</time></trkpt><trkpt lat="42.43563498660731" lon="-8.098620959722009"><ele>470.0</ele><time>2026-04-18T16:00:34Z</time></trkpt><trkpt lat="42.43558042299979" lon="-8.098691188871305"><ele>471.0</ele><time>2026-04-18T16:00:35Z</time></trkpt><trkpt lat="42.43551927602725" lon="-8.098787582980485"><ele>471.0</ele><time>2026-04-18T16:00:36Z</time></trkpt><trkpt lat="42.43549016472086" lon="-8.098877057723191"><ele>471.0</ele><time>2026-04-18T16:00:37Z</time></trkpt><trkpt lat="42.435447483639216" lon="-8.09903867703465"><ele>471.0</ele><time>2026-04-18T16:00:39Z</time></trkpt><trkpt lat="42.43543255611163" lon="-8.099134446628156"><ele>471.0</ele><time>2026-04-18T16:00:40Z</time></trkpt><trkpt lat="42.43542032300618" lon="-8.09923030331315"><ele>471.0</ele><time>2026-04-18T16:00:41Z</time></trkpt><trkpt lat="42.435403332712625" lon="-8.099357818480705"><ele>471.0</ele><time>2026-04-18T16:00:42Z</time></trkpt><trkpt lat="42.43538964687142" lon="-8.099460533315295"><ele>471.6666666666667</ele><time>2026-04-18T16:00:43Z</time></trkpt><trkpt lat="42.43537882631528" lon="-8.099557734673919"><ele>472.33333333333337</ele><time>2026-04-18T16:00:44Z</time></trkpt><trkpt lat="42.435370823259525" lon="-8.099647854519024"><ele>473.0</ele><time>2026-04-18T16:00:45Z</time></trkpt><trkpt lat="42.43536426803425" lon="-8.099759016711332"><ele>473.6666666666667</ele><time>2026-04-18T16:00:46Z</time></trkpt><trkpt lat="42.43537153203452" lon="-8.099902337249334"><ele>474.33333333333337</ele><time>2026-04-18T16:00:47Z</time></trkpt><trkpt lat="42.43538343022069" lon="-8.10001735049601"><ele>475.0</ele><time>2026-04-18T16:00:48Z</time></trkpt><trkpt lat="42.43538960337284" lon="-8.100103568416337"><ele>475.6666666666667</ele><time>2026-04-18T16:00:48.999Z</time></trkpt><trkpt lat="42.435399439307155" lon="-8.100208485295841"><ele>476.33333333333337</ele><time>2026-04-18T16:00:49.999Z</time></trkpt><trkpt lat="42.435407931418496" lon="-8.100299729277909"><ele>477.0</ele><time>2026-04-18T16:00:50.999Z</time></trkpt><trkpt lat="42.43541587891463" lon="-8.100389927016057"><ele>477.66666666666663</ele><time>2026-04-18T16:00:51.999Z</time></trkpt><trkpt lat="42.435479008400854" lon="-8.100551417143127"><ele>478.3333333333333</ele><time>2026-04-18T16:00:53.999Z</time></trkpt><trkpt lat="42.43552712325559" lon="-8.100613926021627"><ele>479.0</ele><time>2026-04-18T16:00:54.999Z</time></trkpt><trkpt lat="42.43558975741072" lon="-8.100655289537109"><ele>480.49999999999994</ele><time>2026-04-18T16:00:55.999Z</time></trkpt><trkpt lat="42.43568002371916" lon="-8.100727758713306"><ele>482.0</ele><time>2026-04-18T16:00:57.999Z</time></trkpt><trkpt lat="42.43573452959999" lon="-8.100799209282798"><ele>483.5</ele><time>2026-04-18T16:00:59.999Z</time></trkpt><trkpt lat="42.43582317339676" lon="-8.100878323021307"><ele>485.0</ele><time>2026-04-18T16:01:02.999Z</time></trkpt><trkpt lat="42.4358789273692" lon="-8.100970065539205"><ele>486.49999999999994</ele><time>2026-04-18T16:01:03.999Z</time></trkpt><trkpt lat="42.43593592529399" lon="-8.101022334391748"><ele>488.0</ele><time>2026-04-18T16:01:04.999Z</time></trkpt><trkpt lat="42.43598475132798" lon="-8.101077892085035"><ele>488.16666666666663</ele><time>2026-04-18T16:01:05.999Z</time></trkpt><trkpt lat="42.43605329335092" lon="-8.101139380941163"><ele>488.3333333333333</ele><time>2026-04-18T16:01:06.999Z</time></trkpt><trkpt lat="42.43610674667619" lon="-8.101225709258214"><ele>488.5</ele><time>2026-04-18T16:01:07.999Z</time></trkpt><trkpt lat="42.43615207543632" lon="-8.101303318897946"><ele>488.66666666666663</ele><time>2026-04-18T16:01:08.999Z</time></trkpt><trkpt lat="42.43619102808605" lon="-8.101380863560884"><ele>488.8333333333333</ele><time>2026-04-18T16:01:09.999Z</time></trkpt><trkpt lat="42.43622590306456" lon="-8.101473535268413"><ele>489.0</ele><time>2026-04-18T16:01:10.999Z</time></trkpt><trkpt lat="42.43624925157026" lon="-8.10156271727081"><ele>488.8333333333333</ele><time>2026-04-18T16:01:11.999Z</time></trkpt><trkpt lat="42.43626755981809" lon="-8.101656631014032"><ele>488.66666666666663</ele><time>2026-04-18T16:01:12.999Z</time></trkpt><trkpt lat="42.4362839146967" lon="-8.101743794545154"><ele>488.5</ele><time>2026-04-18T16:01:13.999Z</time></trkpt><trkpt lat="42.43629922383932" lon="-8.101831036206276"><ele>488.3333333333333</ele><time>2026-04-18T16:01:14.999Z</time></trkpt><trkpt lat="42.436327798054286" lon="-8.10199766197078"><ele>488.16666666666663</ele><time>2026-04-18T16:01:17Z</time></trkpt><trkpt lat="42.43633574385155" lon="-8.102083494646672"><ele>488.0</ele><time>2026-04-18T16:01:18Z</time></trkpt><trkpt lat="42.43636585076797" lon="-8.102234483069381"><ele>489.0</ele><time>2026-04-18T16:01:20Z</time></trkpt><trkpt lat="42.436396958517456" lon="-8.102391152297539"><ele>489.99999999999994</ele><time>2026-04-18T16:01:22Z</time></trkpt><trkpt lat="42.43641935784754" lon="-8.102473537041298"><ele>490.99999999999994</ele><time>2026-04-18T16:01:23Z</time></trkpt><trkpt lat="42.4364551210817" lon="-8.10264164099836"><ele>492.0</ele><time>2026-04-18T16:01:25Z</time></trkpt><trkpt lat="42.436470631124344" lon="-8.102727067533522"><ele>493.0</ele><time>2026-04-18T16:01:26Z</time></trkpt><trkpt lat="42.43651907275401" lon="-8.102871698402893"><ele>493.00000000000006</ele><time>2026-04-18T16:01:28Z</time></trkpt><trkpt lat="42.43653277869607" lon="-8.102988168906307"><ele>493.0</ele><time>2026-04-18T16:01:30Z</time></trkpt><trkpt lat="42.43656618835698" lon="-8.103104611455375"><ele>493.0</ele><time>2026-04-18T16:01:33Z</time></trkpt><trkpt lat="42.436600202192515" lon="-8.103183981440965"><ele>493.0</ele><time>2026-04-18T16:01:35Z</time></trkpt><trkpt lat="42.43662388436725" lon="-8.103282361936055"><ele>493.00000000000006</ele><time>2026-04-18T16:01:38Z</time></trkpt><trkpt lat="42.436670899811176" lon="-8.10336396918726"><ele>493.0</ele><time>2026-04-18T16:01:41Z</time></trkpt><trkpt lat="42.43668463448763" lon="-8.10345223724677"><ele>493.25</ele><time>2026-04-18T16:02:41Z</time></trkpt><trkpt lat="42.43672259104831" lon="-8.103540406569625"><ele>493.5</ele><time>2026-04-18T16:02:43Z</time></trkpt><trkpt lat="42.43676692093143" lon="-8.103616710484614"><ele>493.75</ele><time>2026-04-18T16:02:46Z</time></trkpt><trkpt lat="42.43679926550147" lon="-8.103696076859897"><ele>494.0</ele><time>2026-04-18T16:02:48Z</time></trkpt><trkpt lat="42.43658185420356" lon="-8.104140878484808"><ele>493.6</ele><time>2026-04-18T16:02:55Z</time></trkpt><trkpt lat="42.436543932790734" lon="-8.104241782670831"><ele>493.2</ele><time>2026-04-18T16:02:57Z</time></trkpt><trkpt lat="42.43649995873725" lon="-8.104362697908044"><ele>492.80000000000007</ele><time>2026-04-18T16:03:00Z</time></trkpt><trkpt lat="42.436446938025405" lon="-8.10443738096857"><ele>492.40000000000003</ele><time>2026-04-18T16:03:02Z</time></trkpt><trkpt lat="42.43641817347" lon="-8.104537630367053"><ele>492.0</ele><time>2026-04-18T16:03:04Z</time></trkpt><trkpt lat="42.43636306389145" lon="-8.104678431548713"><ele>492.0</ele><time>2026-04-18T16:03:06Z</time></trkpt><trkpt lat="42.43631424545381" lon="-8.104812171301404"><ele>492.0</ele><time>2026-04-18T16:03:09Z</time></trkpt><trkpt lat="42.436251681026505" lon="-8.104921011255408"><ele>492.0</ele><time>2026-04-18T16:03:11Z</time></trkpt><trkpt lat="42.43615463262217" lon="-8.105074300713778"><ele>492.0</ele><time>2026-04-18T16:03:13Z</time></trkpt><trkpt lat="42.436079088473626" lon="-8.105194433251713"><ele>491.0</ele><time>2026-04-18T16:03:14Z</time></trkpt><trkpt lat="42.43604116292676" lon="-8.105283484986792"><ele>490.0</ele><time>2026-04-18T16:03:15Z</time></trkpt><trkpt lat="42.43600009714082" lon="-8.10536857574949"><ele>489.0</ele><time>2026-04-18T16:03:16Z</time></trkpt><trkpt lat="42.43593372053585" lon="-8.105424202517876"><ele>488.0</ele><time>2026-04-18T16:03:18Z</time></trkpt><trkpt lat="42.43587703669757" lon="-8.105518805362422"><ele>487.0</ele><time>2026-04-18T16:03:20Z</time></trkpt><trkpt lat="42.43583383961276" lon="-8.105598243283033"><ele>486.0</ele><time>2026-04-18T16:03:23Z</time></trkpt><trkpt lat="42.43578872557502" lon="-8.105678531873812"><ele>486.2857142857143</ele><time>2026-04-18T16:03:26Z</time></trkpt><trkpt lat="42.43576666070309" lon="-8.105766047006073"><ele>486.57142857142856</ele><time>2026-04-18T16:03:29Z</time></trkpt><trkpt lat="42.435804108832585" lon="-8.105866342123434"><ele>486.85714285714283</ele><time>2026-04-18T16:03:32Z</time></trkpt><trkpt lat="42.43587026197589" lon="-8.10588887718057"><ele>487.1428571428571</ele><time>2026-04-18T16:03:35Z</time></trkpt><trkpt lat="42.43593333981506" lon="-8.10590560837251"><ele>487.42857142857144</ele><time>2026-04-18T16:03:40Z</time></trkpt><trkpt lat="42.43600037559098" lon="-8.105959431922065"><ele>487.71428571428567</ele><time>2026-04-18T16:07:51Z</time></trkpt><trkpt lat="42.436081607113685" lon="-8.105924270253212"><ele>487.99999999999994</ele><time>2026-04-18T16:07:54Z</time></trkpt><trkpt lat="42.43613807613896" lon="-8.105886019861394"><ele>487.99999999999994</ele><time>2026-04-18T16:07:56Z</time></trkpt><trkpt lat="42.43620108166258" lon="-8.105833234655945"><ele>488.0</ele><time>2026-04-18T16:07:59Z</time></trkpt><trkpt lat="42.436262203188576" lon="-8.105763851580415"><ele>488.0</ele><time>2026-04-18T16:08:02Z</time></trkpt><trkpt lat="42.43630284005552" lon="-8.105682160043674"><ele>488.0</ele><time>2026-04-18T16:08:05Z</time></trkpt><trkpt lat="42.43633380029776" lon="-8.105580016245293"><ele>487.99999999999994</ele><time>2026-04-18T16:08:08Z</time></trkpt><trkpt lat="42.43637607369195" lon="-8.10548421385971"><ele>488.0</ele><time>2026-04-18T16:08:11Z</time></trkpt><trkpt lat="42.4364086044455" lon="-8.105381880361044"><ele>488.49999999999994</ele><time>2026-04-18T16:08:14Z</time></trkpt><trkpt lat="42.43646100020964" lon="-8.105279065492036"><ele>489.0</ele><time>2026-04-18T16:08:17Z</time></trkpt><trkpt lat="42.43650578660482" lon="-8.105188668024118"><ele>489.5</ele><time>2026-04-18T16:08:21Z</time></trkpt><trkpt lat="42.436552651828485" lon="-8.105113007154173"><ele>490.0</ele><time>2026-04-18T16:08:24Z</time></trkpt><trkpt lat="42.43659954744196" lon="-8.105045184500138"><ele>490.49999999999994</ele><time>2026-04-18T16:08:28Z</time></trkpt><trkpt lat="42.43667864033485" lon="-8.10497285612638"><ele>491.0</ele><time>2026-04-18T16:08:31Z</time></trkpt><trkpt lat="42.43670407211081" lon="-8.104889764461953"><ele>491.20000000000005</ele><time>2026-04-18T16:08:36Z</time></trkpt><trkpt lat="42.436771005017555" lon="-8.104822616587631"><ele>491.40000000000003</ele><time>2026-04-18T16:08:39Z</time></trkpt><trkpt lat="42.43682857853556" lon="-8.104751679544362"><ele>491.6</ele><time>2026-04-18T16:08:41Z</time></trkpt><trkpt lat="42.43695811716936" lon="-8.104827217265573"><ele>491.8</ele><time>2026-04-18T16:08:42Z</time></trkpt><trkpt lat="42.4370107287232" lon="-8.10471410644637"><ele>492.0</ele><time>2026-04-18T16:08:46Z</time></trkpt><trkpt lat="42.43707520140409" lon="-8.104640137533142"><ele>492.0</ele><time>2026-04-18T16:08:49Z</time></trkpt><trkpt lat="42.4371438299142" lon="-8.104587355970558"><ele>492.0</ele><time>2026-04-18T16:08:52Z</time></trkpt><trkpt lat="42.437227044703576" lon="-8.104545936584417"><ele>492.0</ele><time>2026-04-18T16:08:55Z</time></trkpt><trkpt lat="42.43732573749143" lon="-8.104492209951731"><ele>492.0</ele><time>2026-04-18T16:08:58Z</time></trkpt><trkpt lat="42.437392471744815" lon="-8.104440467731504"><ele>492.0</ele><time>2026-04-18T16:09:01Z</time></trkpt><trkpt lat="42.43746466230577" lon="-8.104363592376954"><ele>492.0</ele><time>2026-04-18T16:09:04Z</time></trkpt><trkpt lat="42.437517009477865" lon="-8.104271753699454"><ele>492.0</ele><time>2026-04-18T16:09:09Z</time></trkpt><trkpt lat="42.43756084308237" lon="-8.10418604789854"><ele>492.0</ele><time>2026-04-18T16:09:12Z</time></trkpt><trkpt lat="42.437565323195756" lon="-8.10406973868595"><ele>492.0</ele><time>2026-04-18T16:09:14Z</time></trkpt><trkpt lat="42.43747992298055" lon="-8.104015348829286"><ele>492.0</ele><time>2026-04-18T16:09:15Z</time></trkpt><trkpt lat="42.43742424134499" lon="-8.103973697224758"><ele>492.0</ele><time>2026-04-18T16:09:16Z</time></trkpt><trkpt lat="42.437354700306884" lon="-8.103941763678955"><ele>492.0</ele><time>2026-04-18T16:09:17Z</time></trkpt><trkpt lat="42.43727095046316" lon="-8.103919191452698"><ele>492.40000000000003</ele><time>2026-04-18T16:09:18Z</time></trkpt><trkpt lat="42.43719946835659" lon="-8.10388925855712"><ele>492.80000000000007</ele><time>2026-04-18T16:09:19Z</time></trkpt><trkpt lat="42.43708588101859" lon="-8.103846495231098"><ele>493.2</ele><time>2026-04-18T16:09:21Z</time></trkpt><trkpt lat="42.436992914219196" lon="-8.103798522585054"><ele>493.6</ele><time>2026-04-18T16:09:23Z</time></trkpt><trkpt lat="42.43687049092046" lon="-8.103741131038511"><ele>494.0</ele><time>2026-04-18T16:09:25Z</time></trkpt><trkpt lat="42.436800574455255" lon="-8.103696309467363"><ele>494.0</ele><time>2026-04-18T16:09:28Z</time></trkpt><trkpt lat="42.43673773636113" lon="-8.10363943262037"><ele>494.0</ele><time>2026-04-18T16:09:30Z</time></trkpt><trkpt lat="42.436682928710546" lon="-8.103543254575259"><ele>494.0</ele><time>2026-04-18T16:09:32Z</time></trkpt><trkpt lat="42.436632293232584" lon="-8.103442611550868"><ele>494.0</ele><time>2026-04-18T16:09:34Z</time></trkpt><trkpt lat="42.43658598715346" lon="-8.103327165031539"><ele>494.0</ele><time>2026-04-18T16:09:36Z</time></trkpt><trkpt lat="42.43655668859543" lon="-8.103189952934937"><ele>493.79999999999995</ele><time>2026-04-18T16:09:38Z</time></trkpt><trkpt lat="42.43653515762173" lon="-8.103047140175061"><ele>493.59999999999997</ele><time>2026-04-18T16:09:40Z</time></trkpt><trkpt lat="42.436496046826726" lon="-8.102918925360829"><ele>493.4</ele><time>2026-04-18T16:09:42Z</time></trkpt><trkpt lat="42.43646294058892" lon="-8.102785091649313"><ele>493.2</ele><time>2026-04-18T16:09:44Z</time></trkpt><trkpt lat="42.4364338555741" lon="-8.102657672571222"><ele>493.0</ele><time>2026-04-18T16:09:46Z</time></trkpt><trkpt lat="42.436411076998446" lon="-8.102557881292473"><ele>493.00000000000006</ele><time>2026-04-18T16:09:48Z</time></trkpt><trkpt lat="42.4363827819044" lon="-8.10243392287226"><ele>493.0</ele><time>2026-04-18T16:09:51Z</time></trkpt><trkpt lat="42.43636108431064" lon="-8.102338867406116"><ele>493.0</ele><time>2026-04-18T16:09:53Z</time></trkpt><trkpt lat="42.43633917332541" lon="-8.102232286431422"><ele>493.0</ele><time>2026-04-18T16:09:56Z</time></trkpt><trkpt lat="42.43626279470306" lon="-8.10228034531333"><ele>493.00000000000006</ele><time>2026-04-18T16:09:59Z</time></trkpt><trkpt lat="42.436189325391375" lon="-8.102327161197298"><ele>493.0</ele><time>2026-04-18T16:10:02Z</time></trkpt><trkpt lat="42.436120405838246" lon="-8.10234349612562"><ele>492.1666666666667</ele><time>2026-04-18T16:10:05Z</time></trkpt><trkpt lat="42.4360538514235" lon="-8.1023824064788"><ele>491.33333333333337</ele><time>2026-04-18T16:10:08Z</time></trkpt><trkpt lat="42.435975019024376" lon="-8.102396314882087"><ele>490.5</ele><time>2026-04-18T16:10:12Z</time></trkpt><trkpt lat="42.435883383481794" lon="-8.102385339958806"><ele>489.66666666666663</ele><time>2026-04-18T16:10:16Z</time></trkpt><trkpt lat="42.43580124208438" lon="-8.102365223643906"><ele>488.8333333333333</ele><time>2026-04-18T16:10:20Z</time></trkpt><trkpt lat="42.4357295469893" lon="-8.102367825732129"><ele>488.0</ele><time>2026-04-18T16:10:22Z</time></trkpt><trkpt lat="42.4355949187531" lon="-8.102341172925831"><ele>487.99999999999994</ele><time>2026-04-18T16:10:24Z</time></trkpt><trkpt lat="42.43553296313152" lon="-8.102322490573416"><ele>488.0</ele><time>2026-04-18T16:10:25Z</time></trkpt><trkpt lat="42.43545675706224" lon="-8.10228949166847"><ele>488.0</ele><time>2026-04-18T16:10:32Z</time></trkpt><trkpt lat="42.43552244272817" lon="-8.102326913742415"><ele>488.0</ele><time>2026-04-18T16:10:46Z</time></trkpt><trkpt lat="42.43558997956502" lon="-8.102290821957526"><ele>487.99999999999994</ele><time>2026-04-18T16:10:47Z</time></trkpt><trkpt lat="42.435698002514414" lon="-8.102326525112971"><ele>488.0</ele><time>2026-04-18T16:10:49Z</time></trkpt><trkpt lat="42.43577981790837" lon="-8.102346713328107"><ele>487.99999999999994</ele><time>2026-04-18T16:10:51Z</time></trkpt><trkpt lat="42.43586680986825" lon="-8.10241204956227"><ele>488.0</ele><time>2026-04-18T16:10:53Z</time></trkpt><trkpt lat="42.43596097343518" lon="-8.102421155402505"><ele>488.0</ele><time>2026-04-18T16:10:55Z</time></trkpt><trkpt lat="42.43606427525669" lon="-8.102398590104558"><ele>488.0</ele><time>2026-04-18T16:11:17Z</time></trkpt><trkpt lat="42.43610361297625" lon="-8.102326972137565"><ele>487.99999999999994</ele><time>2026-04-18T16:11:19Z</time></trkpt><trkpt lat="42.43616288812708" lon="-8.102294285914306"><ele>488.0</ele><time>2026-04-18T16:11:25Z</time></trkpt><trkpt lat="42.43623272542395" lon="-8.102249784335305"><ele>488.0</ele><time>2026-04-18T16:12:47Z</time></trkpt><trkpt lat="42.436293013659" lon="-8.102211367663475"><ele>487.99999999999994</ele><time>2026-04-18T16:12:50Z</time></trkpt><trkpt lat="42.43634882901542" lon="-8.102150939819806"><ele>487.99999999999994</ele><time>2026-04-18T16:12:57Z</time></trkpt><trkpt lat="42.43639483215563" lon="-8.102374833569927"><ele>488.0</ele><time>2026-04-18T16:13:01Z</time></trkpt><trkpt lat="42.4364184555737" lon="-8.102497691950823"><ele>488.0</ele><time>2026-04-18T16:13:02Z</time></trkpt><trkpt lat="42.43644361293012" lon="-8.10260819143254"><ele>489.0</ele><time>2026-04-18T16:13:03Z</time></trkpt><trkpt lat="42.436468282455166" lon="-8.10271824843495"><ele>489.99999999999994</ele><time>2026-04-18T16:13:04Z</time></trkpt><trkpt lat="42.436514884932365" lon="-8.102921072227508"><ele>490.99999999999994</ele><time>2026-04-18T16:13:06Z</time></trkpt><trkpt lat="42.436542966545595" lon="-8.103007075391417"><ele>492.0</ele><time>2026-04-18T16:13:07Z</time></trkpt><trkpt lat="42.43656534539734" lon="-8.10309611361564"><ele>493.0</ele><time>2026-04-18T16:13:08Z</time></trkpt><trkpt lat="42.43661141469349" lon="-8.103227140229231"><ele>493.2</ele><time>2026-04-18T16:13:10Z</time></trkpt><trkpt lat="42.43663975180409" lon="-8.10337375907525"><ele>493.4</ele><time>2026-04-18T16:13:12Z</time></trkpt><trkpt lat="42.43668800555826" lon="-8.103460847183694"><ele>493.59999999999997</ele><time>2026-04-18T16:13:14Z</time></trkpt><trkpt lat="42.436716921346836" lon="-8.10356243004658"><ele>493.79999999999995</ele><time>2026-04-18T16:13:15Z</time></trkpt><trkpt lat="42.43677252566414" lon="-8.103621289496965"><ele>494.0</ele><time>2026-04-18T16:13:16Z</time></trkpt><trkpt lat="42.436879143372536" lon="-8.103682105337429"><ele>494.0</ele><time>2026-04-18T16:13:18Z</time></trkpt><trkpt lat="42.43697361880825" lon="-8.103737649919937"><ele>494.0</ele><time>2026-04-18T16:13:20Z</time></trkpt><trkpt lat="42.437097580315765" lon="-8.103809235032527"><ele>494.0</ele><time>2026-04-18T16:13:22Z</time></trkpt><trkpt lat="42.43715928962366" lon="-8.103843992482751"><ele>494.0</ele><time>2026-04-18T16:13:23Z</time></trkpt><trkpt lat="42.4372367366545" lon="-8.103846526140345"><ele>494.0</ele><time>2026-04-18T16:13:24Z</time></trkpt><trkpt lat="42.43730722699736" lon="-8.103885513390702"><ele>493.99999999999994</ele><time>2026-04-18T16:13:25Z</time></trkpt><trkpt lat="42.43736798062429" lon="-8.103915386437604"><ele>494.0</ele><time>2026-04-18T16:13:26Z</time></trkpt><trkpt lat="42.43742745379749" lon="-8.103945494472361"><ele>494.0</ele><time>2026-04-18T16:13:27Z</time></trkpt><trkpt lat="42.4374829646495" lon="-8.103986316227836"><ele>494.0</ele><time>2026-04-18T16:13:28Z</time></trkpt><trkpt lat="42.43758798988315" lon="-8.104076633320329"><ele>493.99999999999994</ele><time>2026-04-18T16:13:30Z</time></trkpt><trkpt lat="42.437608662544" lon="-8.104221848127683"><ele>494.0</ele><time>2026-04-18T16:13:32Z</time></trkpt><trkpt lat="42.437532225279" lon="-8.104363836560301"><ele>493.66666666666663</ele><time>2026-04-18T16:13:34Z</time></trkpt><trkpt lat="42.43747413204513" lon="-8.10443929387105"><ele>493.3333333333333</ele><time>2026-04-18T16:13:35Z</time></trkpt><trkpt lat="42.437414956898884" lon="-8.104506089528565"><ele>493.0</ele><time>2026-04-18T16:13:36Z</time></trkpt><trkpt lat="42.43730176898857" lon="-8.10457957918163"><ele>492.66666666666663</ele><time>2026-04-18T16:13:38Z</time></trkpt><trkpt lat="42.43723376321148" lon="-8.104614710295005"><ele>492.3333333333333</ele><time>2026-04-18T16:13:39Z</time></trkpt><trkpt lat="42.437169522363845" lon="-8.104648765333172"><ele>492.0</ele><time>2026-04-18T16:13:40Z</time></trkpt><trkpt lat="42.4370596702557" lon="-8.104739481353812"><ele>492.0</ele><time>2026-04-18T16:13:42Z</time></trkpt><trkpt lat="42.43700014331618" lon="-8.104863714812607"><ele>492.00000000000006</ele><time>2026-04-18T16:13:44Z</time></trkpt><trkpt lat="42.43695200245577" lon="-8.105025056043349"><ele>492.00000000000006</ele><time>2026-04-18T16:13:46Z</time></trkpt><trkpt lat="42.43697158698423" lon="-8.105204057245821"><ele>492.0</ele><time>2026-04-18T16:13:48Z</time></trkpt><trkpt lat="42.437001980510225" lon="-8.1052911283164"><ele>492.0</ele><time>2026-04-18T16:13:49Z</time></trkpt><trkpt lat="42.43703806808138" lon="-8.105380391045678"><ele>491.8571428571429</ele><time>2026-04-18T16:13:50Z</time></trkpt><trkpt lat="42.437082023257126" lon="-8.105463407835128"><ele>491.7142857142857</ele><time>2026-04-18T16:13:51Z</time></trkpt><trkpt lat="42.437116115712925" lon="-8.105548364357324"><ele>491.57142857142856</ele><time>2026-04-18T16:13:52Z</time></trkpt><trkpt lat="42.437147650617774" lon="-8.105630601440867"><ele>491.42857142857144</ele><time>2026-04-18T16:13:53Z</time></trkpt><trkpt lat="42.43718484956819" lon="-8.105713953687156"><ele>491.2857142857142</ele><time>2026-04-18T16:13:54Z</time></trkpt><trkpt lat="42.43722514942522" lon="-8.105783823244412"><ele>491.1428571428571</ele><time>2026-04-18T16:13:55Z</time></trkpt><trkpt lat="42.43726868217018" lon="-8.105880299568131"><ele>491.0</ele><time>2026-04-18T16:13:56Z</time></trkpt><trkpt lat="42.43731649976319" lon="-8.105953129214438"><ele>487.99999999999994</ele><time>2026-04-18T16:13:57Z</time></trkpt><trkpt lat="42.4373703310188" lon="-8.106018358567196"><ele>485.0</ele><time>2026-04-18T16:13:58Z</time></trkpt><trkpt lat="42.437442521416195" lon="-8.106065582651025"><ele>482.0</ele><time>2026-04-18T16:13:59Z</time></trkpt><trkpt lat="42.43751766027736" lon="-8.106085778590156"><ele>479.0</ele><time>2026-04-18T16:14:00Z</time></trkpt><trkpt lat="42.43759352475454" lon="-8.106073260357435"><ele>475.99999999999994</ele><time>2026-04-18T16:14:01Z</time></trkpt><trkpt lat="42.43765882181728" lon="-8.10604319050517"><ele>473.0</ele><time>2026-04-18T16:14:02Z</time></trkpt><trkpt lat="42.43774048288899" lon="-8.105978671377398"><ele>473.0</ele><time>2026-04-18T16:14:03Z</time></trkpt><trkpt lat="42.437782879066084" lon="-8.10587177170043"><ele>472.99999999999994</ele><time>2026-04-18T16:14:04Z</time></trkpt><trkpt lat="42.437865141489006" lon="-8.105694045421458"><ele>472.99999999999994</ele><time>2026-04-18T16:14:06Z</time></trkpt><trkpt lat="42.437928433115275" lon="-8.10563789645577"><ele>473.0</ele><time>2026-04-18T16:14:07Z</time></trkpt><trkpt lat="42.438006483898" lon="-8.105601432775877"><ele>473.0</ele><time>2026-04-18T16:14:08Z</time></trkpt><trkpt lat="42.43809340613286" lon="-8.105593370384309"><ele>472.0</ele><time>2026-04-18T16:14:09Z</time></trkpt><trkpt lat="42.43817813338927" lon="-8.105569083773707"><ele>470.99999999999994</ele><time>2026-04-18T16:14:10Z</time></trkpt><trkpt lat="42.43826388700369" lon="-8.1055173242935"><ele>469.99999999999994</ele><time>2026-04-18T16:14:11Z</time></trkpt><trkpt lat="42.438334010419496" lon="-8.105416335448053"><ele>469.0</ele><time>2026-04-18T16:14:12Z</time></trkpt><trkpt lat="42.43838553949015" lon="-8.105316252648715"><ele>468.0</ele><time>2026-04-18T16:14:13Z</time></trkpt><trkpt lat="42.43842554116502" lon="-8.105208614556046"><ele>468.0</ele><time>2026-04-18T16:14:14Z</time></trkpt><trkpt lat="42.438487175449666" lon="-8.105152668863205"><ele>468.0</ele><time>2026-04-18T16:14:15Z</time></trkpt><trkpt lat="42.43856114440431" lon="-8.10511622740646"><ele>468.0</ele><time>2026-04-18T16:14:16Z</time></trkpt><trkpt lat="42.4386619715209" lon="-8.10510074181109"><ele>468.0</ele><time>2026-04-18T16:14:17Z</time></trkpt><trkpt lat="42.43875726000743" lon="-8.105137091270215"><ele>468.0</ele><time>2026-04-18T16:14:18Z</time></trkpt><trkpt lat="42.43882376232101" lon="-8.10517019275769"><ele>468.0</ele><time>2026-04-18T16:14:19Z</time></trkpt><trkpt lat="42.43889297177739" lon="-8.105211523973992"><ele>467.0</ele><time>2026-04-18T16:14:20Z</time></trkpt><trkpt lat="42.4389809716115" lon="-8.105237474828094"><ele>465.99999999999994</ele><time>2026-04-18T16:14:21Z</time></trkpt><trkpt lat="42.439079013093185" lon="-8.105248961796045"><ele>464.99999999999994</ele><time>2026-04-18T16:14:22Z</time></trkpt><trkpt lat="42.439171691693986" lon="-8.105289269371648"><ele>464.0</ele><time>2026-04-18T16:14:23Z</time></trkpt><trkpt lat="42.43926995307948" lon="-8.105332511333993"><ele>463.0</ele><time>2026-04-18T16:14:24Z</time></trkpt><trkpt lat="42.43935681502286" lon="-8.10539803953652"><ele>463.0</ele><time>2026-04-18T16:14:25Z</time></trkpt><trkpt lat="42.439444987472434" lon="-8.105442139717391"><ele>462.99999999999994</ele><time>2026-04-18T16:14:26Z</time></trkpt><trkpt lat="42.43956248699038" lon="-8.105490020589214"><ele>462.99999999999994</ele><time>2026-04-18T16:14:27Z</time></trkpt><trkpt lat="42.43965972178789" lon="-8.105565443283103"><ele>463.0</ele><time>2026-04-18T16:14:28Z</time></trkpt><trkpt lat="42.439753859971795" lon="-8.105649365480973"><ele>463.0</ele><time>2026-04-18T16:14:29Z</time></trkpt><trkpt lat="42.43984904363972" lon="-8.105752611038033"><ele>461.0</ele><time>2026-04-18T16:14:30Z</time></trkpt><trkpt lat="42.43993356263461" lon="-8.10585675499725"><ele>459.0</ele><time>2026-04-18T16:14:31Z</time></trkpt><trkpt lat="42.440019612848204" lon="-8.105976614051473"><ele>457.0</ele><time>2026-04-18T16:14:32Z</time></trkpt><trkpt lat="42.44008020952762" lon="-8.106111873585384"><ele>455.0</ele><time>2026-04-18T16:14:33Z</time></trkpt><trkpt lat="42.44015715216832" lon="-8.106229050212963"><ele>455.0</ele><time>2026-04-18T16:14:34Z</time></trkpt><trkpt lat="42.44020896293642" lon="-8.106369101705395"><ele>455.0</ele><time>2026-04-18T16:14:35Z</time></trkpt><trkpt lat="42.44024091283808" lon="-8.106495895486216"><ele>455.0</ele><time>2026-04-18T16:14:36Z</time></trkpt><trkpt lat="42.44027065356546" lon="-8.106636783965197"><ele>455.0</ele><time>2026-04-18T16:14:37Z</time></trkpt><trkpt lat="42.4402089813683" lon="-8.106816135158256"><ele>454.5</ele><time>2026-04-18T16:14:38Z</time></trkpt><trkpt lat="42.44017552984683" lon="-8.10700147907389"><ele>454.0</ele><time>2026-04-18T16:14:39Z</time></trkpt><trkpt lat="42.44011418096999" lon="-8.107182451473111"><ele>453.5</ele><time>2026-04-18T16:14:40Z</time></trkpt><trkpt lat="42.44002514076123" lon="-8.107350113730218"><ele>453.0</ele><time>2026-04-18T16:14:41Z</time></trkpt><trkpt lat="42.4399345604759" lon="-8.10751863502265"><ele>453.0</ele><time>2026-04-18T16:14:42Z</time></trkpt><trkpt lat="42.43985922112335" lon="-8.107710613453193"><ele>453.0</ele><time>2026-04-18T16:14:43Z</time></trkpt><trkpt lat="42.439826486610485" lon="-8.107918267895199"><ele>453.0</ele><time>2026-04-18T16:14:44Z</time></trkpt><trkpt lat="42.439783329150366" lon="-8.108140428520949"><ele>453.0</ele><time>2026-04-18T16:14:45Z</time></trkpt><trkpt lat="42.43974883003712" lon="-8.108331262862203"><ele>453.0</ele><time>2026-04-18T16:14:46Z</time></trkpt><trkpt lat="42.439738353206984" lon="-8.10851618436446"><ele>453.0</ele><time>2026-04-18T16:14:47Z</time></trkpt><trkpt lat="42.43976326243909" lon="-8.108705846982827"><ele>453.0</ele><time>2026-04-18T16:14:48Z</time></trkpt><trkpt lat="42.439822806729055" lon="-8.108884497593037"><ele>453.66666666666663</ele><time>2026-04-18T16:14:49Z</time></trkpt><trkpt lat="42.43989225293771" lon="-8.109079418509317"><ele>454.3333333333333</ele><time>2026-04-18T16:14:50Z</time></trkpt><trkpt lat="42.439960971173825" lon="-8.109271993386637"><ele>455.0</ele><time>2026-04-18T16:14:51Z</time></trkpt><trkpt lat="42.4400123818755" lon="-8.109464348341385"><ele>455.0</ele><time>2026-04-18T16:14:52Z</time></trkpt><trkpt lat="42.440080583728644" lon="-8.109648668428095"><ele>455.0</ele><time>2026-04-18T16:14:53Z</time></trkpt><trkpt lat="42.44014616649994" lon="-8.109836594302541"><ele>455.0</ele><time>2026-04-18T16:14:54Z</time></trkpt><trkpt lat="42.440204860147524" lon="-8.110027479858198"><ele>456.0</ele><time>2026-04-18T16:14:55Z</time></trkpt><trkpt lat="42.4402759690678" lon="-8.110215907465644"><ele>457.0</ele><time>2026-04-18T16:14:56Z</time></trkpt><trkpt lat="42.44034640610876" lon="-8.11039744706785"><ele>458.0</ele><time>2026-04-18T16:14:57Z</time></trkpt><trkpt lat="42.44041319321977" lon="-8.1105838897005"><ele>461.0</ele><time>2026-04-18T16:14:58Z</time></trkpt><trkpt lat="42.44047764409124" lon="-8.110771113139464"><ele>464.0</ele><time>2026-04-18T16:14:59Z</time></trkpt><trkpt lat="42.44054424413106" lon="-8.1109651766873"><ele>467.0</ele><time>2026-04-18T16:15:00Z</time></trkpt><trkpt lat="42.44060685482245" lon="-8.111161012414502"><ele>467.0</ele><time>2026-04-18T16:15:01Z</time></trkpt><trkpt lat="42.44065865308938" lon="-8.111361303156148"><ele>467.0</ele><time>2026-04-18T16:15:02Z</time></trkpt><trkpt lat="42.44069346112457" lon="-8.111585111773271"><ele>467.0</ele><time>2026-04-18T16:15:03Z</time></trkpt><trkpt lat="42.44068978746078" lon="-8.111809215846952"><ele>467.0</ele><time>2026-04-18T16:15:04Z</time></trkpt><trkpt lat="42.44067800468735" lon="-8.112012922883498"><ele>467.0</ele><time>2026-04-18T16:15:05Z</time></trkpt><trkpt lat="42.44067955305566" lon="-8.112206454374116"><ele>467.0</ele><time>2026-04-18T16:15:06Z</time></trkpt><trkpt lat="42.440667353855076" lon="-8.112384957179579"><ele>467.0</ele><time>2026-04-18T16:15:07Z</time></trkpt><trkpt lat="42.440652387383615" lon="-8.11255403062209"><ele>467.0</ele><time>2026-04-18T16:15:08Z</time></trkpt><trkpt lat="42.44066272510546" lon="-8.112717055876148"><ele>467.0</ele><time>2026-04-18T16:15:09Z</time></trkpt><trkpt lat="42.44072664208365" lon="-8.112857523764765"><ele>467.0</ele><time>2026-04-18T16:15:10Z</time></trkpt><trkpt lat="42.44079201832311" lon="-8.113019918515036"><ele>467.0</ele><time>2026-04-18T16:15:11Z</time></trkpt><trkpt lat="42.44087264531029" lon="-8.113158153168694"><ele>467.75</ele><time>2026-04-18T16:15:12Z</time></trkpt><trkpt lat="42.44095145904298" lon="-8.113302257574462"><ele>468.5</ele><time>2026-04-18T16:15:13Z</time></trkpt><trkpt lat="42.44105298176769" lon="-8.113429112962459"><ele>469.25</ele><time>2026-04-18T16:15:14Z</time></trkpt><trkpt lat="42.44116130387652" lon="-8.113537558630235"><ele>470.0</ele><time>2026-04-18T16:15:15Z</time></trkpt><trkpt lat="42.44128036000753" lon="-8.113631821675858"><ele>471.0</ele><time>2026-04-18T16:15:16Z</time></trkpt><trkpt lat="42.44139794910135" lon="-8.113725605448355"><ele>472.0</ele><time>2026-04-18T16:15:17Z</time></trkpt><trkpt lat="42.44151005817595" lon="-8.11382670739211"><ele>473.0</ele><time>2026-04-18T16:15:18Z</time></trkpt><trkpt lat="42.44163352254939" lon="-8.113932893096736"><ele>474.0</ele><time>2026-04-18T16:15:19Z</time></trkpt><trkpt lat="42.44175414819248" lon="-8.114035012693154"><ele>473.33333333333337</ele><time>2026-04-18T16:15:20Z</time></trkpt><trkpt lat="42.44188572654647" lon="-8.114139516500867"><ele>472.6666666666667</ele><time>2026-04-18T16:15:21Z</time></trkpt><trkpt lat="42.44201358441074" lon="-8.114250355516106"><ele>472.0</ele><time>2026-04-18T16:15:22Z</time></trkpt><trkpt lat="42.442133664053756" lon="-8.114363319012421"><ele>473.0</ele><time>2026-04-18T16:15:23Z</time></trkpt><trkpt lat="42.442235635286714" lon="-8.114493268493549"><ele>474.0</ele><time>2026-04-18T16:15:24Z</time></trkpt><trkpt lat="42.442313353535646" lon="-8.114658664454028"><ele>475.0</ele><time>2026-04-18T16:15:25Z</time></trkpt><trkpt lat="42.442368345560965" lon="-8.11485590142262"><ele>476.0</ele><time>2026-04-18T16:15:26Z</time></trkpt><trkpt lat="42.44240502113333" lon="-8.11506374738845"><ele>476.25</ele><time>2026-04-18T16:15:27Z</time></trkpt><trkpt lat="42.44243541102517" lon="-8.115267421368475"><ele>476.5</ele><time>2026-04-18T16:15:28Z</time></trkpt><trkpt lat="42.44246754286966" lon="-8.115450341686916"><ele>476.75</ele><time>2026-04-18T16:15:29Z</time></trkpt><trkpt lat="42.44250221418229" lon="-8.115615095755503"><ele>477.0</ele><time>2026-04-18T16:15:30Z</time></trkpt><trkpt lat="42.4425128604427" lon="-8.115772112484668"><ele>477.0</ele><time>2026-04-18T16:15:31Z</time></trkpt><trkpt lat="42.44252289221669" lon="-8.115875989092622"><ele>477.0</ele><time>2026-04-18T16:15:32Z</time></trkpt><trkpt lat="42.442541497720555" lon="-8.115974159954536"><ele>477.0</ele><time>2026-04-18T16:15:33Z</time></trkpt><trkpt lat="42.44255487782834" lon="-8.116076523644455"><ele>477.0</ele><time>2026-04-18T16:15:34Z</time></trkpt><trkpt lat="42.44256042061488" lon="-8.116175571732043"><ele>477.0</ele><time>2026-04-18T16:15:35Z</time></trkpt><trkpt lat="42.442578342274196" lon="-8.116274138073816"><ele>477.0</ele><time>2026-04-18T16:15:36Z</time></trkpt><trkpt lat="42.44258586097079" lon="-8.116372551885771"><ele>477.0</ele><time>2026-04-18T16:15:37Z</time></trkpt><trkpt lat="42.442593959986475" lon="-8.116472630764623"><ele>477.0</ele><time>2026-04-18T16:15:38Z</time></trkpt><trkpt lat="42.44260767842231" lon="-8.116569982615657"><ele>477.0</ele><time>2026-04-18T16:15:39Z</time></trkpt><trkpt lat="42.44263788340294" lon="-8.116670637132147"><ele>477.0</ele><time>2026-04-18T16:15:40Z</time></trkpt><trkpt lat="42.442667705809505" lon="-8.116781652819677"><ele>477.0</ele><time>2026-04-18T16:15:41Z</time></trkpt><trkpt lat="42.442724192663974" lon="-8.116872802336756"><ele>477.0</ele><time>2026-04-18T16:15:42Z</time></trkpt><trkpt lat="42.44277696617107" lon="-8.11696860690844"><ele>477.0</ele><time>2026-04-18T16:15:43Z</time></trkpt><trkpt lat="42.44284922633969" lon="-8.117047433773786"><ele>477.00000000000006</ele><time>2026-04-18T16:15:44Z</time></trkpt><trkpt lat="42.442927233184236" lon="-8.117127843172803"><ele>477.00000000000006</ele><time>2026-04-18T16:15:45Z</time></trkpt><trkpt lat="42.44301912517881" lon="-8.117219288773772"><ele>477.0</ele><time>2026-04-18T16:15:46Z</time></trkpt><trkpt lat="42.44311776371796" lon="-8.117320166598619"><ele>477.0</ele><time>2026-04-18T16:15:47Z</time></trkpt><trkpt lat="42.443224652270466" lon="-8.117435667108664"><ele>476.25</ele><time>2026-04-18T16:15:48Z</time></trkpt><trkpt lat="42.44333747500692" lon="-8.11754995703216"><ele>475.5</ele><time>2026-04-18T16:15:49Z</time></trkpt><trkpt lat="42.44344553667932" lon="-8.117679535038745"><ele>474.75</ele><time>2026-04-18T16:15:50Z</time></trkpt><trkpt lat="42.44356845620137" lon="-8.117809658099462"><ele>474.0</ele><time>2026-04-18T16:15:51Z</time></trkpt><trkpt lat="42.44369863026127" lon="-8.11793141588495"><ele>474.66666666666663</ele><time>2026-04-18T16:15:52Z</time></trkpt><trkpt lat="42.44381530406278" lon="-8.118066580511497"><ele>475.3333333333333</ele><time>2026-04-18T16:15:53Z</time></trkpt><trkpt lat="42.44391887205839" lon="-8.11820046148485"><ele>476.0</ele><time>2026-04-18T16:15:54Z</time></trkpt><trkpt lat="42.444017716675866" lon="-8.118359145639898"><ele>476.5</ele><time>2026-04-18T16:15:55Z</time></trkpt><trkpt lat="42.44408737363784" lon="-8.118535922520152"><ele>477.0</ele><time>2026-04-18T16:15:56Z</time></trkpt><trkpt lat="42.44413258396831" lon="-8.118728584738834"><ele>477.5</ele><time>2026-04-18T16:15:57Z</time></trkpt><trkpt lat="42.444171510077375" lon="-8.118912843306385"><ele>478.0</ele><time>2026-04-18T16:15:58Z</time></trkpt><trkpt lat="42.44423849472883" lon="-8.11908498657464"><ele>479.75</ele><time>2026-04-18T16:15:59Z</time></trkpt><trkpt lat="42.44430274703481" lon="-8.119269663352574"><ele>481.5</ele><time>2026-04-18T16:16:00Z</time></trkpt><trkpt lat="42.444379813535846" lon="-8.119421101760883"><ele>483.25</ele><time>2026-04-18T16:16:01Z</time></trkpt><trkpt lat="42.444483234141856" lon="-8.11955543391034"><ele>485.0</ele><time>2026-04-18T16:16:02Z</time></trkpt><trkpt lat="42.4446015286544" lon="-8.119666290294882"><ele>484.0</ele><time>2026-04-18T16:16:03Z</time></trkpt><trkpt lat="42.44470935283715" lon="-8.119777058565118"><ele>483.0</ele><time>2026-04-18T16:16:04Z</time></trkpt><trkpt lat="42.44483467125908" lon="-8.11986862853634"><ele>482.0</ele><time>2026-04-18T16:16:05Z</time></trkpt><trkpt lat="42.444945389187644" lon="-8.119970136681529"><ele>481.0</ele><time>2026-04-18T16:16:06Z</time></trkpt><trkpt lat="42.44503389000917" lon="-8.120111130206645"><ele>483.25</ele><time>2026-04-18T16:16:07Z</time></trkpt><trkpt lat="42.44511865491911" lon="-8.120258382898196"><ele>485.5</ele><time>2026-04-18T16:16:08Z</time></trkpt><trkpt lat="42.44523364077153" lon="-8.120360985039188"><ele>487.75</ele><time>2026-04-18T16:16:09Z</time></trkpt><trkpt lat="42.445383356192835" lon="-8.12035796077587"><ele>490.0</ele><time>2026-04-18T16:16:10Z</time></trkpt><trkpt lat="42.4455123956109" lon="-8.120395358007235"><ele>490.0</ele><time>2026-04-18T16:16:11Z</time></trkpt><trkpt lat="42.44564049266763" lon="-8.120422420037615"><ele>490.0</ele><time>2026-04-18T16:16:12Z</time></trkpt><trkpt lat="42.445756029076016" lon="-8.120521224146321"><ele>490.0</ele><time>2026-04-18T16:16:13Z</time></trkpt><trkpt lat="42.44586192239169" lon="-8.120631857551208"><ele>490.0</ele><time>2026-04-18T16:16:14Z</time></trkpt><trkpt lat="42.445973113328044" lon="-8.12073085006364"><ele>492.75</ele><time>2026-04-18T16:16:15Z</time></trkpt><trkpt lat="42.44608097331149" lon="-8.120826368607553"><ele>495.5</ele><time>2026-04-18T16:16:16Z</time></trkpt><trkpt lat="42.44619257255887" lon="-8.120913439304562"><ele>498.25</ele><time>2026-04-18T16:16:17Z</time></trkpt><trkpt lat="42.44630293209497" lon="-8.12100199550977"><ele>501.0</ele><time>2026-04-18T16:16:18Z</time></trkpt><trkpt lat="42.44640568467327" lon="-8.12109847379085"><ele>501.0</ele><time>2026-04-18T16:16:19Z</time></trkpt><trkpt lat="42.4465100635144" lon="-8.121202953395704"><ele>501.0</ele><time>2026-04-18T16:16:20Z</time></trkpt><trkpt lat="42.44662100545288" lon="-8.121308404538594"><ele>501.0</ele><time>2026-04-18T16:16:21Z</time></trkpt><trkpt lat="42.44671257353037" lon="-8.121441756901927"><ele>501.0</ele><time>2026-04-18T16:16:22Z</time></trkpt><trkpt lat="42.44676674543961" lon="-8.121596370205049"><ele>503.25</ele><time>2026-04-18T16:16:23Z</time></trkpt><trkpt lat="42.44680968385224" lon="-8.121768609815984"><ele>505.5</ele><time>2026-04-18T16:16:24Z</time></trkpt><trkpt lat="42.44685669245445" lon="-8.121916729501729"><ele>507.75</ele><time>2026-04-18T16:16:25Z</time></trkpt><trkpt lat="42.44689268241891" lon="-8.12206925448494"><ele>510.0</ele><time>2026-04-18T16:16:26Z</time></trkpt><trkpt lat="42.44693399794196" lon="-8.122210001926438"><ele>510.0</ele><time>2026-04-18T16:16:27Z</time></trkpt><trkpt lat="42.44697711994832" lon="-8.12234323694801"><ele>510.0</ele><time>2026-04-18T16:16:28Z</time></trkpt><trkpt lat="42.447014311650264" lon="-8.122468666566391"><ele>510.0</ele><time>2026-04-18T16:16:29Z</time></trkpt><trkpt lat="42.44705425036448" lon="-8.122606069020451"><ele>510.0</ele><time>2026-04-18T16:16:30Z</time></trkpt><trkpt lat="42.44709076828184" lon="-8.12270832678252"><ele>510.0</ele><time>2026-04-18T16:16:31Z</time></trkpt><trkpt lat="42.447155505730684" lon="-8.122815311630644"><ele>510.6666666666667</ele><time>2026-04-18T16:16:32Z</time></trkpt><trkpt lat="42.44718862297123" lon="-8.122944746485388"><ele>511.33333333333337</ele><time>2026-04-18T16:16:33Z</time></trkpt><trkpt lat="42.44723175374753" lon="-8.123043597611996"><ele>512.0</ele><time>2026-04-18T16:16:34Z</time></trkpt><trkpt lat="42.447292028462584" lon="-8.123124983786118"><ele>512.6666666666667</ele><time>2026-04-18T16:16:35Z</time></trkpt><trkpt lat="42.447358058638564" lon="-8.12321413820629"><ele>513.3333333333334</ele><time>2026-04-18T16:16:36Z</time></trkpt><trkpt lat="42.44742093769302" lon="-8.123273804138423"><ele>514.0</ele><time>2026-04-18T16:16:37Z</time></trkpt><trkpt lat="42.44748888259618" lon="-8.123330490575393"><ele>514.0</ele><time>2026-04-18T16:16:38Z</time></trkpt><trkpt lat="42.4475622971112" lon="-8.12338534985328"><ele>514.0</ele><time>2026-04-18T16:16:39Z</time></trkpt><trkpt lat="42.44763214928905" lon="-8.123442151014093"><ele>514.0</ele><time>2026-04-18T16:16:40Z</time></trkpt><trkpt lat="42.447713017200826" lon="-8.123506556601892"><ele>514.0</ele><time>2026-04-18T16:16:41Z</time></trkpt><trkpt lat="42.447790045753294" lon="-8.123562752894298"><ele>514.0</ele><time>2026-04-18T16:16:42Z</time></trkpt><trkpt lat="42.44786203671781" lon="-8.123619235344984"><ele>514.0</ele><time>2026-04-18T16:16:43Z</time></trkpt><trkpt lat="42.44793243868557" lon="-8.123675251404883"><ele>512.8333333333334</ele><time>2026-04-18T16:16:44Z</time></trkpt><trkpt lat="42.448001232228016" lon="-8.123730454074591"><ele>511.6666666666667</ele><time>2026-04-18T16:16:45Z</time></trkpt><trkpt lat="42.44807052779569" lon="-8.123793390691727"><ele>510.5</ele><time>2026-04-18T16:16:46Z</time></trkpt><trkpt lat="42.44814209488586" lon="-8.123852011140636"><ele>509.33333333333337</ele><time>2026-04-18T16:16:47Z</time></trkpt><trkpt lat="42.448208370656964" lon="-8.123908379072205"><ele>508.1666666666667</ele><time>2026-04-18T16:16:48Z</time></trkpt><trkpt lat="42.44828441969801" lon="-8.123959479917097"><ele>507.0</ele><time>2026-04-18T16:16:49Z</time></trkpt><trkpt lat="42.448364355334334" lon="-8.12403366952508"><ele>508.6666666666667</ele><time>2026-04-18T16:16:50Z</time></trkpt><trkpt lat="42.44844362555832" lon="-8.12408662945377"><ele>510.33333333333337</ele><time>2026-04-18T16:16:51Z</time></trkpt><trkpt lat="42.44853053277774" lon="-8.124131301031507"><ele>512.0</ele><time>2026-04-18T16:16:52Z</time></trkpt><trkpt lat="42.44860390801171" lon="-8.124186682645075"><ele>513.6666666666667</ele><time>2026-04-18T16:16:53Z</time></trkpt><trkpt lat="42.448681210828674" lon="-8.124243989847828"><ele>515.3333333333334</ele><time>2026-04-18T16:16:54Z</time></trkpt><trkpt lat="42.44875896406937" lon="-8.124301631330544"><ele>517.0</ele><time>2026-04-18T16:16:55Z</time></trkpt><trkpt lat="42.448837599575214" lon="-8.124359926718931"><ele>517.0</ele><time>2026-04-18T16:16:56Z</time></trkpt><trkpt lat="42.44891334270427" lon="-8.12441607783477"><ele>517.0</ele><time>2026-04-18T16:16:57Z</time></trkpt><trkpt lat="42.448993610709515" lon="-8.124475583434105"><ele>517.0</ele><time>2026-04-18T16:16:58Z</time></trkpt><trkpt lat="42.449069204930275" lon="-8.124551723278426"><ele>517.0</ele><time>2026-04-18T16:16:59Z</time></trkpt><trkpt lat="42.44915012379564" lon="-8.124612659220798"><ele>517.0</ele><time>2026-04-18T16:17:00Z</time></trkpt><trkpt lat="42.449233090891425" lon="-8.124662841606387"><ele>517.0</ele><time>2026-04-18T16:17:01Z</time></trkpt><trkpt lat="42.449304690556055" lon="-8.124719466048804"><ele>517.0</ele><time>2026-04-18T16:17:02Z</time></trkpt><trkpt lat="42.449392109935246" lon="-8.124788601444825"><ele>517.0</ele><time>2026-04-18T16:17:03Z</time></trkpt><trkpt lat="42.44946668708191" lon="-8.124872205880319"><ele>517.0</ele><time>2026-04-18T16:17:04Z</time></trkpt><trkpt lat="42.44955101096815" lon="-8.124934175145151"><ele>517.0</ele><time>2026-04-18T16:17:05Z</time></trkpt><trkpt lat="42.449643229200205" lon="-8.124987017420256"><ele>518.4</ele><time>2026-04-18T16:17:06Z</time></trkpt><trkpt lat="42.4497206350332" lon="-8.12504817764051"><ele>519.8000000000001</ele><time>2026-04-18T16:17:07Z</time></trkpt><trkpt lat="42.44981597310333" lon="-8.125123506407473"><ele>521.2</ele><time>2026-04-18T16:17:08Z</time></trkpt><trkpt lat="42.4499064964525" lon="-8.125195030986571"><ele>522.6</ele><time>2026-04-18T16:17:09Z</time></trkpt><trkpt lat="42.44999287884234" lon="-8.125263283723042"><ele>524.0</ele><time>2026-04-18T16:17:10Z</time></trkpt><trkpt lat="42.450081927104975" lon="-8.125333642897884"><ele>524.0</ele><time>2026-04-18T16:17:11Z</time></trkpt><trkpt lat="42.45017772324195" lon="-8.125409333715396"><ele>524.0</ele><time>2026-04-18T16:17:12Z</time></trkpt><trkpt lat="42.45026609814179" lon="-8.125496064607288"><ele>524.0</ele><time>2026-04-18T16:17:13Z</time></trkpt><trkpt lat="42.450358940579854" lon="-8.125566547997929"><ele>524.0</ele><time>2026-04-18T16:17:14Z</time></trkpt><trkpt lat="42.45045988548615" lon="-8.125641817395625"><ele>524.0</ele><time>2026-04-18T16:17:15Z</time></trkpt><trkpt lat="42.45056521284251" lon="-8.125717390508902"><ele>525.0</ele><time>2026-04-18T16:17:16Z</time></trkpt><trkpt lat="42.45068106609586" lon="-8.12578990947163"><ele>526.0</ele><time>2026-04-18T16:17:17Z</time></trkpt><trkpt lat="42.45079448748549" lon="-8.125874224184935"><ele>527.0</ele><time>2026-04-18T16:17:18Z</time></trkpt><trkpt lat="42.450912753845486" lon="-8.12596439252594"><ele>528.0</ele><time>2026-04-18T16:17:19Z</time></trkpt><trkpt lat="42.45103592248979" lon="-8.126050070364341"><ele>528.0</ele><time>2026-04-18T16:17:20Z</time></trkpt><trkpt lat="42.451158988631526" lon="-8.12613804429429"><ele>528.0</ele><time>2026-04-18T16:17:21Z</time></trkpt><trkpt lat="42.45128951468731" lon="-8.126223621817461"><ele>528.0</ele><time>2026-04-18T16:17:22Z</time></trkpt><trkpt lat="42.451411604970794" lon="-8.126322041987528"><ele>528.0</ele><time>2026-04-18T16:17:23Z</time></trkpt><trkpt lat="42.45154123409929" lon="-8.12641666491922"><ele>529.3333333333334</ele><time>2026-04-18T16:17:24Z</time></trkpt><trkpt lat="42.45167371632684" lon="-8.126520557329462"><ele>530.6666666666667</ele><time>2026-04-18T16:17:25Z</time></trkpt><trkpt lat="42.45182068559349" lon="-8.126619245332625"><ele>532.0</ele><time>2026-04-18T16:17:26Z</time></trkpt><trkpt lat="42.451964476636434" lon="-8.12671438986492"><ele>532.0</ele><time>2026-04-18T16:17:27Z</time></trkpt><trkpt lat="42.45210843692462" lon="-8.126820864491865"><ele>532.0</ele><time>2026-04-18T16:17:28Z</time></trkpt><trkpt lat="42.452256944891296" lon="-8.126926200037154"><ele>532.0</ele><time>2026-04-18T16:17:29Z</time></trkpt><trkpt lat="42.45240324434123" lon="-8.127039583877954"><ele>533.3333333333334</ele><time>2026-04-18T16:17:30Z</time></trkpt><trkpt lat="42.452552235584385" lon="-8.127143223712203"><ele>534.6666666666666</ele><time>2026-04-18T16:17:31Z</time></trkpt><trkpt lat="42.452704634318955" lon="-8.127258132432367"><ele>536.0</ele><time>2026-04-18T16:17:32Z</time></trkpt><trkpt lat="42.45285652999237" lon="-8.127369867737562"><ele>537.6666666666666</ele><time>2026-04-18T16:17:33Z</time></trkpt><trkpt lat="42.453012975826844" lon="-8.127480487893214"><ele>539.3333333333334</ele><time>2026-04-18T16:17:34Z</time></trkpt><trkpt lat="42.45316088445475" lon="-8.12757793137008"><ele>541.0</ele><time>2026-04-18T16:17:35Z</time></trkpt><trkpt lat="42.45330681463838" lon="-8.127650414425876"><ele>541.0</ele><time>2026-04-18T16:17:36Z</time></trkpt><trkpt lat="42.453430793609236" lon="-8.127763175048987"><ele>541.0</ele><time>2026-04-18T16:17:37Z</time></trkpt><trkpt lat="42.453552545355656" lon="-8.1278723786662"><ele>541.0</ele><time>2026-04-18T16:17:38Z</time></trkpt><trkpt lat="42.453697212178774" lon="-8.127953619992335"><ele>542.6666666666667</ele><time>2026-04-18T16:17:39Z</time></trkpt><trkpt lat="42.4538528307626" lon="-8.128027064059058"><ele>544.3333333333334</ele><time>2026-04-18T16:17:40Z</time></trkpt><trkpt lat="42.45401952894379" lon="-8.12808929437779"><ele>546.0</ele><time>2026-04-18T16:17:41Z</time></trkpt><trkpt lat="42.45418896240244" lon="-8.128150789073088"><ele>544.0</ele><time>2026-04-18T16:17:42Z</time></trkpt><trkpt lat="42.45435598793464" lon="-8.128227621361305"><ele>542.0</ele><time>2026-04-18T16:17:43Z</time></trkpt><trkpt lat="42.45454020788236" lon="-8.128287549421673"><ele>540.0</ele><time>2026-04-18T16:17:44Z</time></trkpt><trkpt lat="42.45471663989608" lon="-8.128385333889689"><ele>540.0</ele><time>2026-04-18T16:17:45Z</time></trkpt><trkpt lat="42.454846300531116" lon="-8.128436800328371"><ele>540.0</ele><time>2026-04-18T16:17:46Z</time></trkpt><trkpt lat="42.454999437773765" lon="-8.12849267388197"><ele>540.0</ele><time>2026-04-18T16:17:47Z</time></trkpt><trkpt lat="42.45516210308646" lon="-8.128581979277467"><ele>540.0</ele><time>2026-04-18T16:17:48Z</time></trkpt><trkpt lat="42.45533011574559" lon="-8.128632602571058"><ele>540.0</ele><time>2026-04-18T16:17:49Z</time></trkpt><trkpt lat="42.45550192120235" lon="-8.128733967815881"><ele>540.0</ele><time>2026-04-18T16:17:50Z</time></trkpt><trkpt lat="42.455685612967166" lon="-8.128808449478287"><ele>540.6666666666666</ele><time>2026-04-18T16:17:51Z</time></trkpt><trkpt lat="42.455853488368355" lon="-8.128886875586081"><ele>541.3333333333333</ele><time>2026-04-18T16:17:52Z</time></trkpt><trkpt lat="42.45601836370423" lon="-8.128977030616507"><ele>542.0</ele><time>2026-04-18T16:17:53Z</time></trkpt><trkpt lat="42.45618096110884" lon="-8.129049456989794"><ele>540.5</ele><time>2026-04-18T16:17:54Z</time></trkpt><trkpt lat="42.45631703838429" lon="-8.129128760178073"><ele>539.0</ele><time>2026-04-18T16:17:55Z</time></trkpt><trkpt lat="42.4564543567392" lon="-8.129183969604057"><ele>537.5</ele><time>2026-04-18T16:17:56Z</time></trkpt><trkpt lat="42.45656531607141" lon="-8.129261365033313"><ele>536.0</ele><time>2026-04-18T16:17:57Z</time></trkpt><trkpt lat="42.456686175646084" lon="-8.129344528299088"><ele>536.0</ele><time>2026-04-18T16:17:58Z</time></trkpt><trkpt lat="42.456781609322114" lon="-8.1294814533839"><ele>536.0</ele><time>2026-04-18T16:17:59Z</time></trkpt><trkpt lat="42.45687528590168" lon="-8.12964234707458"><ele>536.0</ele><time>2026-04-18T16:18:00Z</time></trkpt><trkpt lat="42.45695862764766" lon="-8.129810193823348"><ele>536.0</ele><time>2026-04-18T16:18:01Z</time></trkpt><trkpt lat="42.45703299784049" lon="-8.12997137441398"><ele>538.25</ele><time>2026-04-18T16:18:02Z</time></trkpt><trkpt lat="42.45711846840215" lon="-8.130128885599898"><ele>540.5</ele><time>2026-04-18T16:18:03Z</time></trkpt><trkpt lat="42.457208629324775" lon="-8.130271424869207"><ele>542.75</ele><time>2026-04-18T16:18:04Z</time></trkpt><trkpt lat="42.45728321503514" lon="-8.130432593480757"><ele>545.0</ele><time>2026-04-18T16:18:05Z</time></trkpt><trkpt lat="42.45736185435908" lon="-8.130581337838908"><ele>545.0</ele><time>2026-04-18T16:18:06Z</time></trkpt><trkpt lat="42.4574474871846" lon="-8.130719478659206"><ele>545.0</ele><time>2026-04-18T16:18:07Z</time></trkpt><trkpt lat="42.45752520888338" lon="-8.130874429432295"><ele>545.0</ele><time>2026-04-18T16:18:08Z</time></trkpt><trkpt lat="42.45761519513543" lon="-8.131037642195448"><ele>545.0</ele><time>2026-04-18T16:18:09Z</time></trkpt><trkpt lat="42.45770767283638" lon="-8.131189713867508"><ele>542.6666666666666</ele><time>2026-04-18T16:18:10Z</time></trkpt><trkpt lat="42.45780406809979" lon="-8.131382684794616"><ele>540.3333333333334</ele><time>2026-04-18T16:18:11Z</time></trkpt><trkpt lat="42.45790008404012" lon="-8.131566769069083"><ele>538.0</ele><time>2026-04-18T16:18:12Z</time></trkpt><trkpt lat="42.45800681772974" lon="-8.131751908661805"><ele>538.0</ele><time>2026-04-18T16:18:13Z</time></trkpt><trkpt lat="42.45811516662803" lon="-8.13194892695041"><ele>538.0</ele><time>2026-04-18T16:18:14Z</time></trkpt><trkpt lat="42.45822507178351" lon="-8.132135457989206"><ele>538.0</ele><time>2026-04-18T16:18:15Z</time></trkpt><trkpt lat="42.45834050648197" lon="-8.13233765478637"><ele>534.6666666666667</ele><time>2026-04-18T16:18:16Z</time></trkpt><trkpt lat="42.458449121033084" lon="-8.132554926354597"><ele>531.3333333333334</ele><time>2026-04-18T16:18:17Z</time></trkpt><trkpt lat="42.45855675377016" lon="-8.13276801850976"><ele>528.0</ele><time>2026-04-18T16:18:18Z</time></trkpt><trkpt lat="42.458670786527485" lon="-8.132975483603257"><ele>528.0</ele><time>2026-04-18T16:18:19Z</time></trkpt><trkpt lat="42.458768901955004" lon="-8.133156498110168"><ele>528.0</ele><time>2026-04-18T16:18:20Z</time></trkpt><trkpt lat="42.45886964608003" lon="-8.133350081386425"><ele>528.0</ele><time>2026-04-18T16:18:21Z</time></trkpt><trkpt lat="42.4589707339759" lon="-8.133547836520068"><ele>531.6666666666666</ele><time>2026-04-18T16:18:22Z</time></trkpt><trkpt lat="42.45907656579054" lon="-8.13373631498442"><ele>535.3333333333333</ele><time>2026-04-18T16:18:23Z</time></trkpt><trkpt lat="42.4591804539689" lon="-8.133917982401421"><ele>539.0</ele><time>2026-04-18T16:18:24Z</time></trkpt><trkpt lat="42.45929391381466" lon="-8.134112494176351"><ele>539.0</ele><time>2026-04-18T16:18:25Z</time></trkpt><trkpt lat="42.45939345739822" lon="-8.134295008646433"><ele>539.0</ele><time>2026-04-18T16:18:26Z</time></trkpt><trkpt lat="42.459495653247615" lon="-8.13447964062865"><ele>539.0</ele><time>2026-04-18T16:18:27Z</time></trkpt><trkpt lat="42.45961130600659" lon="-8.134652756231024"><ele>542.6666666666666</ele><time>2026-04-18T16:18:28Z</time></trkpt><trkpt lat="42.45970227369186" lon="-8.134843060477964"><ele>546.3333333333334</ele><time>2026-04-18T16:18:29Z</time></trkpt><trkpt lat="42.459820322090295" lon="-8.135026661645947"><ele>550.0</ele><time>2026-04-18T16:18:30Z</time></trkpt><trkpt lat="42.459921304916556" lon="-8.135219118127344"><ele>550.0</ele><time>2026-04-18T16:18:31Z</time></trkpt><trkpt lat="42.46001488496531" lon="-8.135421825204073"><ele>550.0</ele><time>2026-04-18T16:18:32Z</time></trkpt><trkpt lat="42.46011984808676" lon="-8.135616016399833"><ele>550.0</ele><time>2026-04-18T16:18:33Z</time></trkpt><trkpt lat="42.46023791704609" lon="-8.135787720781952"><ele>549.6666666666667</ele><time>2026-04-18T16:18:34Z</time></trkpt><trkpt lat="42.46033925000139" lon="-8.135993378844402"><ele>549.3333333333334</ele><time>2026-04-18T16:18:35Z</time></trkpt><trkpt lat="42.460440012109494" lon="-8.13617996054892"><ele>549.0</ele><time>2026-04-18T16:18:36Z</time></trkpt><trkpt lat="42.46054040270855" lon="-8.136360089098995"><ele>549.0</ele><time>2026-04-18T16:18:37Z</time></trkpt><trkpt lat="42.460637235674405" lon="-8.13653000389604"><ele>549.0</ele><time>2026-04-18T16:18:38Z</time></trkpt><trkpt lat="42.460723155470575" lon="-8.136690442597803"><ele>549.0</ele><time>2026-04-18T16:18:39Z</time></trkpt><trkpt lat="42.46080961587559" lon="-8.136842504750945"><ele>549.0</ele><time>2026-04-18T16:18:40Z</time></trkpt><trkpt lat="42.46088660652242" lon="-8.136978971896008"><ele>549.75</ele><time>2026-04-18T16:18:41Z</time></trkpt><trkpt lat="42.460970402875844" lon="-8.13710936836766"><ele>550.5</ele><time>2026-04-18T16:18:42Z</time></trkpt><trkpt lat="42.46107364125589" lon="-8.137189615820594"><ele>551.25</ele><time>2026-04-18T16:18:43Z</time></trkpt><trkpt lat="42.46117565212875" lon="-8.137259135284848"><ele>552.0</ele><time>2026-04-18T16:18:44Z</time></trkpt><trkpt lat="42.46129255826339" lon="-8.137296901235581"><ele>552.0</ele><time>2026-04-18T16:18:45Z</time></trkpt><trkpt lat="42.46141822914551" lon="-8.13729489386444"><ele>552.0</ele><time>2026-04-18T16:18:46Z</time></trkpt><trkpt lat="42.46155467724823" lon="-8.137287939926688"><ele>552.0</ele><time>2026-04-18T16:18:47Z</time></trkpt><trkpt lat="42.461696493920684" lon="-8.137283885890666"><ele>552.0</ele><time>2026-04-18T16:18:48Z</time></trkpt><trkpt lat="42.461818871595675" lon="-8.13729413070059"><ele>552.0</ele><time>2026-04-18T16:18:49Z</time></trkpt><trkpt lat="42.461924372510424" lon="-8.137321620927892"><ele>552.0</ele><time>2026-04-18T16:18:50Z</time></trkpt><trkpt lat="42.46203041706988" lon="-8.137384689928066"><ele>552.0</ele><time>2026-04-18T16:18:51Z</time></trkpt><trkpt lat="42.46212285658883" lon="-8.137503721474348"><ele>552.0</ele><time>2026-04-18T16:18:52Z</time></trkpt><trkpt lat="42.462162879313915" lon="-8.13767506868491"><ele>549.75</ele><time>2026-04-18T16:18:53Z</time></trkpt><trkpt lat="42.462201812034124" lon="-8.137860227492887"><ele>547.5</ele><time>2026-04-18T16:18:54Z</time></trkpt><trkpt lat="42.462223340542984" lon="-8.138042732112531"><ele>545.25</ele><time>2026-04-18T16:18:55Z</time></trkpt><trkpt lat="42.46226838541877" lon="-8.13822706919194"><ele>543.0</ele><time>2026-04-18T16:18:56Z</time></trkpt><trkpt lat="42.462298307457296" lon="-8.138407683655787"><ele>542.5</ele><time>2026-04-18T16:18:57Z</time></trkpt><trkpt lat="42.4623305874427" lon="-8.138602530940206"><ele>542.0</ele><time>2026-04-18T16:18:58Z</time></trkpt><trkpt lat="42.46234663691064" lon="-8.138800310871941"><ele>541.5</ele><time>2026-04-18T16:18:59Z</time></trkpt><trkpt lat="42.46238313184147" lon="-8.138987083282586"><ele>541.0</ele><time>2026-04-18T16:19:00Z</time></trkpt><trkpt lat="42.46240885470834" lon="-8.139188400837588"><ele>541.0</ele><time>2026-04-18T16:19:01Z</time></trkpt><trkpt lat="42.46244532874417" lon="-8.139396865046152"><ele>541.0</ele><time>2026-04-18T16:19:02Z</time></trkpt><trkpt lat="42.46248569912765" lon="-8.139614176001478"><ele>541.0</ele><time>2026-04-18T16:19:03Z</time></trkpt><trkpt lat="42.462543946136925" lon="-8.139790111979682"><ele>540.25</ele><time>2026-04-18T16:19:04Z</time></trkpt><trkpt lat="42.46259157658855" lon="-8.13996985308435"><ele>539.5</ele><time>2026-04-18T16:19:05Z</time></trkpt><trkpt lat="42.46262590430964" lon="-8.140136123275145"><ele>538.75</ele><time>2026-04-18T16:19:06Z</time></trkpt><trkpt lat="42.46268621119476" lon="-8.140292269169558"><ele>538.0</ele><time>2026-04-18T16:19:07Z</time></trkpt><trkpt lat="42.46274933243135" lon="-8.140409373532979"><ele>538.0</ele><time>2026-04-18T16:19:08Z</time></trkpt><trkpt lat="42.46282967892019" lon="-8.140523659183804"><ele>538.0</ele><time>2026-04-18T16:19:09Z</time></trkpt><trkpt lat="42.46292165397998" lon="-8.14061027438067"><ele>538.0</ele><time>2026-04-18T16:19:10Z</time></trkpt><trkpt lat="42.463016358410464" lon="-8.140685417821238"><ele>538.0</ele><time>2026-04-18T16:19:11Z</time></trkpt><trkpt lat="42.46310742578023" lon="-8.14075184109287"><ele>538.0</ele><time>2026-04-18T16:19:12Z</time></trkpt><trkpt lat="42.4631895814251" lon="-8.14082185140814"><ele>539.1999999999999</ele><time>2026-04-18T16:19:13Z</time></trkpt><trkpt lat="42.463259667934814" lon="-8.140901953589971"><ele>540.4</ele><time>2026-04-18T16:19:14Z</time></trkpt><trkpt lat="42.46331030779922" lon="-8.141006531355227"><ele>541.5999999999999</ele><time>2026-04-18T16:19:15Z</time></trkpt><trkpt lat="42.463325191473096" lon="-8.141118838498954"><ele>542.8</ele><time>2026-04-18T16:19:16Z</time></trkpt><trkpt lat="42.463320257257635" lon="-8.141235645592426"><ele>544.0</ele><time>2026-04-18T16:19:17Z</time></trkpt><trkpt lat="42.46328127077998" lon="-8.141388510796377"><ele>544.0</ele><time>2026-04-18T16:19:18Z</time></trkpt><trkpt lat="42.46321311198509" lon="-8.141530151161549"><ele>544.0</ele><time>2026-04-18T16:19:19Z</time></trkpt><trkpt lat="42.46312962047185" lon="-8.1416599038756"><ele>544.0</ele><time>2026-04-18T16:19:20Z</time></trkpt><trkpt lat="42.4630564594856" lon="-8.14177966837373"><ele>544.0</ele><time>2026-04-18T16:19:21Z</time></trkpt><trkpt lat="42.46300019502851" lon="-8.141921964353617"><ele>543.6</ele><time>2026-04-18T16:19:22Z</time></trkpt><trkpt lat="42.46292897298583" lon="-8.142066592089835"><ele>543.2</ele><time>2026-04-18T16:19:23Z</time></trkpt><trkpt lat="42.46287828562545" lon="-8.142191476832805"><ele>542.8000000000001</ele><time>2026-04-18T16:19:24Z</time></trkpt><trkpt lat="42.46284611034215" lon="-8.142326920081677"><ele>542.4</ele><time>2026-04-18T16:19:25Z</time></trkpt><trkpt lat="42.46284206731991" lon="-8.142455771292006"><ele>542.0</ele><time>2026-04-18T16:19:26Z</time></trkpt><trkpt lat="42.46287788010065" lon="-8.142601462355787"><ele>542.0</ele><time>2026-04-18T16:19:27Z</time></trkpt><trkpt lat="42.462945588610715" lon="-8.142737095355987"><ele>542.0</ele><time>2026-04-18T16:19:28Z</time></trkpt><trkpt lat="42.4630205098093" lon="-8.142869611805342"><ele>542.0</ele><time>2026-04-18T16:19:29Z</time></trkpt><trkpt lat="42.46309594276485" lon="-8.142997694344796"><ele>542.0</ele><time>2026-04-18T16:19:30Z</time></trkpt><trkpt lat="42.463169651539495" lon="-8.143121639236805"><ele>543.8000000000001</ele><time>2026-04-18T16:19:31Z</time></trkpt><trkpt lat="42.46323411977127" lon="-8.143241592413517"><ele>545.6</ele><time>2026-04-18T16:19:32Z</time></trkpt><trkpt lat="42.463297374027334" lon="-8.14335790791325"><ele>547.4000000000001</ele><time>2026-04-18T16:19:33Z</time></trkpt><trkpt lat="42.463356391674814" lon="-8.14346496743414"><ele>549.2</ele><time>2026-04-18T16:19:34Z</time></trkpt><trkpt lat="42.463413328966986" lon="-8.143566506303353"><ele>551.0</ele><time>2026-04-18T16:19:35Z</time></trkpt><trkpt lat="42.463464947612735" lon="-8.143658164674942"><ele>551.0</ele><time>2026-04-18T16:19:36Z</time></trkpt><trkpt lat="42.46351459392709" lon="-8.143746495044553"><ele>551.0</ele><time>2026-04-18T16:19:37Z</time></trkpt><trkpt lat="42.46355724820791" lon="-8.14382202866505"><ele>551.0</ele><time>2026-04-18T16:19:38Z</time></trkpt><trkpt lat="42.46360578944164" lon="-8.143911060771641"><ele>551.0</ele><time>2026-04-18T16:19:39Z</time></trkpt><trkpt lat="42.463655294084184" lon="-8.143989881384407"><ele>551.0</ele><time>2026-04-18T16:19:40Z</time></trkpt><trkpt lat="42.463702627874724" lon="-8.144077250438476"><ele>551.0</ele><time>2026-04-18T16:19:41Z</time></trkpt><trkpt lat="42.46374009260932" lon="-8.144162119647506"><ele>552.0</ele><time>2026-04-18T16:19:42Z</time></trkpt><trkpt lat="42.46378535515933" lon="-8.144249288801841"><ele>553.0</ele><time>2026-04-18T16:19:43Z</time></trkpt><trkpt lat="42.46383460902535" lon="-8.14433756032246"><ele>554.0</ele><time>2026-04-18T16:19:44Z</time></trkpt><trkpt lat="42.463876235395716" lon="-8.144421470566925"><ele>555.0</ele><time>2026-04-18T16:19:45Z</time></trkpt><trkpt lat="42.463916299981435" lon="-8.144503116598772"><ele>556.0</ele><time>2026-04-18T16:19:46Z</time></trkpt><trkpt lat="42.46395742045851" lon="-8.144572795455245"><ele>557.0</ele><time>2026-04-18T16:19:47Z</time></trkpt><trkpt lat="42.46400853034846" lon="-8.144653877949986"><ele>557.0</ele><time>2026-04-18T16:19:48Z</time></trkpt><trkpt lat="42.464053748275326" lon="-8.144722989175076"><ele>557.0</ele><time>2026-04-18T16:19:49Z</time></trkpt><trkpt lat="42.4641072517483" lon="-8.144823205706782"><ele>557.0</ele><time>2026-04-18T16:19:50Z</time></trkpt><trkpt lat="42.46415005355917" lon="-8.14491381454867"><ele>557.0</ele><time>2026-04-18T16:19:51Z</time></trkpt><trkpt lat="42.46420651797211" lon="-8.145006744862869"><ele>557.0</ele><time>2026-04-18T16:19:52Z</time></trkpt><trkpt lat="42.46425525353003" lon="-8.145091745880041"><ele>557.0</ele><time>2026-04-18T16:19:53Z</time></trkpt><trkpt lat="42.46430407478359" lon="-8.14517558753161"><ele>557.6666666666666</ele><time>2026-04-18T16:19:54Z</time></trkpt><trkpt lat="42.46435043993277" lon="-8.145264017011755"><ele>558.3333333333333</ele><time>2026-04-18T16:19:55Z</time></trkpt><trkpt lat="42.464403522413726" lon="-8.14533934643115"><ele>559.0</ele><time>2026-04-18T16:19:56Z</time></trkpt><trkpt lat="42.464464594901585" lon="-8.14543401887908"><ele>559.6666666666666</ele><time>2026-04-18T16:19:57Z</time></trkpt><trkpt lat="42.46451523077252" lon="-8.145509350941042"><ele>560.3333333333334</ele><time>2026-04-18T16:19:58Z</time></trkpt><trkpt lat="42.464574981974195" lon="-8.145583270889459"><ele>561.0</ele><time>2026-04-18T16:19:59Z</time></trkpt><trkpt lat="42.46464856418224" lon="-8.145655791102268"><ele>558.8</ele><time>2026-04-18T16:20:00Z</time></trkpt><trkpt lat="42.464734636563485" lon="-8.145719004943444"><ele>556.6</ele><time>2026-04-18T16:20:01Z</time></trkpt><trkpt lat="42.46481570728282" lon="-8.145773440395722"><ele>554.4</ele><time>2026-04-18T16:20:02Z</time></trkpt><trkpt lat="42.464910816774626" lon="-8.145834705830314"><ele>552.2</ele><time>2026-04-18T16:20:03Z</time></trkpt><trkpt lat="42.46498976688812" lon="-8.14586973590246"><ele>550.0</ele><time>2026-04-18T16:20:04Z</time></trkpt><trkpt lat="42.465075515601285" lon="-8.145919651729377"><ele>550.0</ele><time>2026-04-18T16:20:05Z</time></trkpt><trkpt lat="42.46516787859084" lon="-8.145966778292935"><ele>550.0</ele><time>2026-04-18T16:20:06Z</time></trkpt><trkpt lat="42.46526015483508" lon="-8.14599654318477"><ele>550.0</ele><time>2026-04-18T16:20:07Z</time></trkpt><trkpt lat="42.465351265524774" lon="-8.146034278740057"><ele>550.0</ele><time>2026-04-18T16:20:08Z</time></trkpt><trkpt lat="42.46544457146156" lon="-8.14605119177624"><ele>550.0</ele><time>2026-04-18T16:20:09Z</time></trkpt><trkpt lat="42.46552821859867" lon="-8.146067900148026"><ele>550.0</ele><time>2026-04-18T16:20:10Z</time></trkpt><trkpt lat="42.46562569641924" lon="-8.146095649560788"><ele>550.0</ele><time>2026-04-18T16:20:11Z</time></trkpt><trkpt lat="42.465714470355195" lon="-8.146093033336875"><ele>550.0</ele><time>2026-04-18T16:20:12Z</time></trkpt><trkpt lat="42.46580339645552" lon="-8.146091935534697"><ele>550.0</ele><time>2026-04-18T16:20:13Z</time></trkpt><trkpt lat="42.465888283853786" lon="-8.14608636096368"><ele>550.0</ele><time>2026-04-18T16:20:14Z</time></trkpt><trkpt lat="42.46598089544087" lon="-8.146098303387669"><ele>550.0</ele><time>2026-04-18T16:20:15Z</time></trkpt><trkpt lat="42.466064277223204" lon="-8.146084401381279"><ele>550.0</ele><time>2026-04-18T16:20:16Z</time></trkpt><trkpt lat="42.466148010425385" lon="-8.146079058575959"><ele>550.0</ele><time>2026-04-18T16:20:17Z</time></trkpt><trkpt lat="42.46622742335662" lon="-8.146093065829344"><ele>550.0</ele><time>2026-04-18T16:20:18Z</time></trkpt><trkpt lat="42.46632532242064" lon="-8.14613023865467"><ele>550.0</ele><time>2026-04-18T16:20:19Z</time></trkpt><trkpt lat="42.46642816559509" lon="-8.146173151410013"><ele>550.0</ele><time>2026-04-18T16:20:20Z</time></trkpt><trkpt lat="42.466522690700856" lon="-8.146236637976918"><ele>550.0</ele><time>2026-04-18T16:20:21Z</time></trkpt><trkpt lat="42.46660685804017" lon="-8.146316180627588"><ele>550.0</ele><time>2026-04-18T16:20:22Z</time></trkpt><trkpt lat="42.46669427265287" lon="-8.146383843335663"><ele>550.0</ele><time>2026-04-18T16:20:23Z</time></trkpt><trkpt lat="42.466781538347774" lon="-8.146451707402896"><ele>550.0</ele><time>2026-04-18T16:20:24Z</time></trkpt><trkpt lat="42.466867487951916" lon="-8.146525228024473"><ele>548.8</ele><time>2026-04-18T16:20:25Z</time></trkpt><trkpt lat="42.46695359977762" lon="-8.146576865699915"><ele>547.6</ele><time>2026-04-18T16:20:26Z</time></trkpt><trkpt lat="42.46704096362451" lon="-8.146628530129432"><ele>546.4</ele><time>2026-04-18T16:20:27Z</time></trkpt><trkpt lat="42.46712250619991" lon="-8.146683906509685"><ele>545.2</ele><time>2026-04-18T16:20:28Z</time></trkpt><trkpt lat="42.46720461662646" lon="-8.146747931376973"><ele>544.0</ele><time>2026-04-18T16:20:29Z</time></trkpt><trkpt lat="42.46728214407075" lon="-8.146766303319312"><ele>544.0</ele><time>2026-04-18T16:20:30Z</time></trkpt><trkpt lat="42.467394968090495" lon="-8.14682950236696"><ele>544.0</ele><time>2026-04-18T16:20:31Z</time></trkpt><trkpt lat="42.467510966576626" lon="-8.14686037924407"><ele>544.0</ele><time>2026-04-18T16:20:32Z</time></trkpt><trkpt lat="42.46763600055807" lon="-8.14687395124728"><ele>544.0</ele><time>2026-04-18T16:20:33Z</time></trkpt><trkpt lat="42.46774397667173" lon="-8.146914842818163"><ele>544.0</ele><time>2026-04-18T16:20:34Z</time></trkpt><trkpt lat="42.46781984265703" lon="-8.146929364572856"><ele>544.0</ele><time>2026-04-18T16:20:35Z</time></trkpt><trkpt lat="42.467890353185375" lon="-8.146940408812183"><ele>544.0</ele><time>2026-04-18T16:20:36Z</time></trkpt><trkpt lat="42.46797854509584" lon="-8.14694431502063"><ele>544.0</ele><time>2026-04-18T16:20:37Z</time></trkpt><trkpt lat="42.46807633603175" lon="-8.146942804632827"><ele>544.0</ele><time>2026-04-18T16:20:38Z</time></trkpt><trkpt lat="42.468159991700986" lon="-8.146913541646162"><ele>544.0</ele><time>2026-04-18T16:20:39Z</time></trkpt><trkpt lat="42.46825853309052" lon="-8.146919718589483"><ele>543.4</ele><time>2026-04-18T16:20:40Z</time></trkpt><trkpt lat="42.468349130259256" lon="-8.146875997117094"><ele>542.8</ele><time>2026-04-18T16:20:41Z</time></trkpt><trkpt lat="42.46844698699244" lon="-8.146858784779266"><ele>542.2</ele><time>2026-04-18T16:20:42Z</time></trkpt><trkpt lat="42.46855412227269" lon="-8.146822736140427"><ele>541.6</ele><time>2026-04-18T16:20:43Z</time></trkpt><trkpt lat="42.468647226057236" lon="-8.14679742016406"><ele>541.0</ele><time>2026-04-18T16:20:44Z</time></trkpt><trkpt lat="42.46873834378785" lon="-8.146811125170323"><ele>538.25</ele><time>2026-04-18T16:20:45Z</time></trkpt><trkpt lat="42.46882895970698" lon="-8.146860502397798"><ele>535.5</ele><time>2026-04-18T16:20:46Z</time></trkpt><trkpt lat="42.468911216375155" lon="-8.146980262341941"><ele>532.75</ele><time>2026-04-18T16:20:47Z</time></trkpt><trkpt lat="42.46897930958825" lon="-8.147133484144234"><ele>530.0</ele><time>2026-04-18T16:20:48Z</time></trkpt><trkpt lat="42.46903914046364" lon="-8.147306387973426"><ele>530.0</ele><time>2026-04-18T16:20:49Z</time></trkpt><trkpt lat="42.469113729470706" lon="-8.147480984685883"><ele>530.0</ele><time>2026-04-18T16:20:50Z</time></trkpt><trkpt lat="42.46914355628347" lon="-8.14765875141779"><ele>530.0</ele><time>2026-04-18T16:20:51Z</time></trkpt><trkpt lat="42.46916700722735" lon="-8.147830288873536"><ele>530.0</ele><time>2026-04-18T16:20:52Z</time></trkpt><trkpt lat="42.469159012652625" lon="-8.148022683007259"><ele>530.0</ele><time>2026-04-18T16:20:53Z</time></trkpt><trkpt lat="42.46915013547232" lon="-8.1482057718829"><ele>530.0</ele><time>2026-04-18T16:20:54Z</time></trkpt><trkpt lat="42.469113872627325" lon="-8.14836446337127"><ele>530.0</ele><time>2026-04-18T16:20:55Z</time></trkpt><trkpt lat="42.46902246311617" lon="-8.148483413060488"><ele>530.0</ele><time>2026-04-18T16:20:56Z</time></trkpt><trkpt lat="42.46893921655901" lon="-8.148597391330059"><ele>530.25</ele><time>2026-04-18T16:20:57Z</time></trkpt><trkpt lat="42.46884714733104" lon="-8.148734597719892"><ele>530.5</ele><time>2026-04-18T16:20:58Z</time></trkpt><trkpt lat="42.46874161990255" lon="-8.148866284735456"><ele>530.75</ele><time>2026-04-18T16:20:59Z</time></trkpt><trkpt lat="42.46863093149212" lon="-8.14900248308273"><ele>531.0</ele><time>2026-04-18T16:21:00Z</time></trkpt><trkpt lat="42.468529633495294" lon="-8.149127126686933"><ele>531.0</ele><time>2026-04-18T16:21:01Z</time></trkpt><trkpt lat="42.46842048802711" lon="-8.149236360543345"><ele>531.0</ele><time>2026-04-18T16:21:02Z</time></trkpt><trkpt lat="42.4683315247479" lon="-8.149352919131557"><ele>531.0</ele><time>2026-04-18T16:21:03Z</time></trkpt><trkpt lat="42.46825535176688" lon="-8.14946951559152"><ele>531.0</ele><time>2026-04-18T16:21:04Z</time></trkpt><trkpt lat="42.46817286893392" lon="-8.149577954313397"><ele>531.0</ele><time>2026-04-18T16:21:05Z</time></trkpt><trkpt lat="42.46810134196199" lon="-8.14967921548077"><ele>531.0</ele><time>2026-04-18T16:21:06Z</time></trkpt><trkpt lat="42.46806068500687" lon="-8.14976904533441"><ele>531.0</ele><time>2026-04-18T16:21:07Z</time></trkpt><trkpt lat="42.468025082651245" lon="-8.149878045742913"><ele>531.0</ele><time>2026-04-18T16:21:08Z</time></trkpt><trkpt lat="42.46801631435657" lon="-8.149971758696179"><ele>531.0</ele><time>2026-04-18T16:21:09Z</time></trkpt><trkpt lat="42.46802055291802" lon="-8.150063303329967"><ele>531.0</ele><time>2026-04-18T16:21:10Z</time></trkpt><trkpt lat="42.46806486504627" lon="-8.15023835164581"><ele>531.2</ele><time>2026-04-18T16:21:12Z</time></trkpt><trkpt lat="42.46813865333777" lon="-8.150319294004083"><ele>531.4000000000001</ele><time>2026-04-18T16:21:13Z</time></trkpt><trkpt lat="42.46822826899442" lon="-8.150399059505162"><ele>531.6</ele><time>2026-04-18T16:21:14Z</time></trkpt><trkpt lat="42.46831762376975" lon="-8.150481349888157"><ele>531.8000000000001</ele><time>2026-04-18T16:21:15Z</time></trkpt><trkpt lat="42.46841996910798" lon="-8.15059892574457"><ele>532.0</ele><time>2026-04-18T16:21:16Z</time></trkpt><trkpt lat="42.468530726913485" lon="-8.150698617628539"><ele>531.5</ele><time>2026-04-18T16:21:17Z</time></trkpt><trkpt lat="42.46863183520251" lon="-8.150792143231001"><ele>531.0</ele><time>2026-04-18T16:21:18Z</time></trkpt><trkpt lat="42.46872698599274" lon="-8.150883466881691"><ele>530.5</ele><time>2026-04-18T16:21:19Z</time></trkpt><trkpt lat="42.46882685846498" lon="-8.150955732487738"><ele>530.0</ele><time>2026-04-18T16:21:20Z</time></trkpt><trkpt lat="42.46892571912553" lon="-8.151041003166721"><ele>530.0</ele><time>2026-04-18T16:21:21Z</time></trkpt><trkpt lat="42.46902881340555" lon="-8.151119485621189"><ele>530.0</ele><time>2026-04-18T16:21:22Z</time></trkpt><trkpt lat="42.46912402328749" lon="-8.151203374870725"><ele>530.0</ele><time>2026-04-18T16:21:23Z</time></trkpt><trkpt lat="42.46920991695278" lon="-8.151284366461663"><ele>530.0</ele><time>2026-04-18T16:21:24Z</time></trkpt><trkpt lat="42.46930073775699" lon="-8.151375834452187"><ele>530.0</ele><time>2026-04-18T16:21:25Z</time></trkpt><trkpt lat="42.469406408797475" lon="-8.151470539164576"><ele>530.0</ele><time>2026-04-18T16:21:26Z</time></trkpt><trkpt lat="42.46951520817712" lon="-8.151547080194089"><ele>530.0</ele><time>2026-04-18T16:21:27Z</time></trkpt><trkpt lat="42.46962723329257" lon="-8.151616234646355"><ele>530.0</ele><time>2026-04-18T16:21:28Z</time></trkpt><trkpt lat="42.469752646769564" lon="-8.151685520354697"><ele>528.0</ele><time>2026-04-18T16:21:29Z</time></trkpt><trkpt lat="42.469893421373136" lon="-8.151726796055707"><ele>526.0</ele><time>2026-04-18T16:21:30Z</time></trkpt><trkpt lat="42.47004321540256" lon="-8.151759285844177"><ele>524.0</ele><time>2026-04-18T16:21:31Z</time></trkpt><trkpt lat="42.47019964425612" lon="-8.151775010883682"><ele>524.0</ele><time>2026-04-18T16:21:32Z</time></trkpt><trkpt lat="42.470361926252025" lon="-8.151771810824705"><ele>524.0</ele><time>2026-04-18T16:21:33Z</time></trkpt><trkpt lat="42.47051720794044" lon="-8.151808034643159"><ele>524.0</ele><time>2026-04-18T16:21:34Z</time></trkpt><trkpt lat="42.4706523641954" lon="-8.151822696180936"><ele>523.5</ele><time>2026-04-18T16:21:35Z</time></trkpt><trkpt lat="42.47079945729553" lon="-8.151840389137526"><ele>523.0</ele><time>2026-04-18T16:21:36Z</time></trkpt><trkpt lat="42.47093793909045" lon="-8.151858585485321"><ele>522.5</ele><time>2026-04-18T16:21:37Z</time></trkpt><trkpt lat="42.47106418978996" lon="-8.151873952453567"><ele>522.0</ele><time>2026-04-18T16:21:38Z</time></trkpt><trkpt lat="42.471165893548516" lon="-8.151889066422749"><ele>522.0</ele><time>2026-04-18T16:21:39Z</time></trkpt><trkpt lat="42.47126818348213" lon="-8.151908046769357"><ele>522.0</ele><time>2026-04-18T16:21:40Z</time></trkpt><trkpt lat="42.47135669766229" lon="-8.151989794150294"><ele>522.0</ele><time>2026-04-18T16:21:41Z</time></trkpt><trkpt lat="42.47142276656809" lon="-8.15212989698073"><ele>522.0</ele><time>2026-04-18T16:21:42Z</time></trkpt><trkpt lat="42.47146760540409" lon="-8.152305884408628"><ele>521.75</ele><time>2026-04-18T16:21:43Z</time></trkpt><trkpt lat="42.471500296054714" lon="-8.152487921335505"><ele>521.5</ele><time>2026-04-18T16:21:44Z</time></trkpt><trkpt lat="42.47151504148624" lon="-8.152680043908957"><ele>521.25</ele><time>2026-04-18T16:21:45Z</time></trkpt><trkpt lat="42.47150942073477" lon="-8.152859604442078"><ele>521.0</ele><time>2026-04-18T16:21:46Z</time></trkpt><trkpt lat="42.47150935264224" lon="-8.153028542949068"><ele>521.0</ele><time>2026-04-18T16:21:47Z</time></trkpt><trkpt lat="42.47152111153141" lon="-8.15318601945191"><ele>521.0</ele><time>2026-04-18T16:21:48Z</time></trkpt><trkpt lat="42.4715246132592" lon="-8.153339475560658"><ele>521.0</ele><time>2026-04-18T16:21:49Z</time></trkpt><trkpt lat="42.47152820035264" lon="-8.15350906836942"><ele>521.0</ele><time>2026-04-18T16:21:50Z</time></trkpt><trkpt lat="42.47154251227081" lon="-8.153657878723143"><ele>519.25</ele><time>2026-04-18T16:21:51Z</time></trkpt><trkpt lat="42.47156467182484" lon="-8.153812822306167"><ele>517.5</ele><time>2026-04-18T16:21:52Z</time></trkpt><trkpt lat="42.47160104159607" lon="-8.153970118870316"><ele>515.75</ele><time>2026-04-18T16:21:53Z</time></trkpt><trkpt lat="42.47164744280399" lon="-8.154126045453989"><ele>514.0</ele><time>2026-04-18T16:21:54Z</time></trkpt><trkpt lat="42.47169427275186" lon="-8.154277092346705"><ele>512.25</ele><time>2026-04-18T16:21:55Z</time></trkpt><trkpt lat="42.47175247567678" lon="-8.154418824900699"><ele>510.5</ele><time>2026-04-18T16:21:56Z</time></trkpt><trkpt lat="42.471817965641996" lon="-8.154563399137624"><ele>508.75</ele><time>2026-04-18T16:21:57Z</time></trkpt><trkpt lat="42.47188664115482" lon="-8.154697471995679"><ele>507.0</ele><time>2026-04-18T16:21:58Z</time></trkpt><trkpt lat="42.47196065376833" lon="-8.154822086538742"><ele>506.20000000000005</ele><time>2026-04-18T16:21:59Z</time></trkpt><trkpt lat="42.472060193834025" lon="-8.154927385001217"><ele>505.40000000000003</ele><time>2026-04-18T16:22:00Z</time></trkpt><trkpt lat="42.4721571232874" lon="-8.155007603036012"><ele>504.59999999999997</ele><time>2026-04-18T16:22:01Z</time></trkpt><trkpt lat="42.47224956481283" lon="-8.155082256758703"><ele>503.79999999999995</ele><time>2026-04-18T16:22:02Z</time></trkpt><trkpt lat="42.47233181629092" lon="-8.155159567049733"><ele>503.0</ele><time>2026-04-18T16:22:03Z</time></trkpt><trkpt lat="42.472404403477256" lon="-8.155235499613024"><ele>503.0</ele><time>2026-04-18T16:22:04Z</time></trkpt><trkpt lat="42.47248013280243" lon="-8.155303937367053"><ele>502.99999999999994</ele><time>2026-04-18T16:22:05Z</time></trkpt><trkpt lat="42.47256063472494" lon="-8.155375740499963"><ele>502.99999999999994</ele><time>2026-04-18T16:22:06Z</time></trkpt><trkpt lat="42.4726438963604" lon="-8.155440890891528"><ele>503.0</ele><time>2026-04-18T16:22:07Z</time></trkpt><trkpt lat="42.472726816522815" lon="-8.155505942903858"><ele>503.0</ele><time>2026-04-18T16:22:08Z</time></trkpt><trkpt lat="42.47281578921085" lon="-8.155574872416235"><ele>503.0</ele><time>2026-04-18T16:22:09Z</time></trkpt><trkpt lat="42.472922916697826" lon="-8.155596803297046"><ele>503.0</ele><time>2026-04-18T16:22:10Z</time></trkpt><trkpt lat="42.473046163101856" lon="-8.155592594400899"><ele>503.0</ele><time>2026-04-18T16:22:11Z</time></trkpt><trkpt lat="42.47318231166096" lon="-8.155567468818338"><ele>503.0</ele><time>2026-04-18T16:22:12Z</time></trkpt><trkpt lat="42.47333468324242" lon="-8.155535129076014"><ele>502.0</ele><time>2026-04-18T16:22:13Z</time></trkpt><trkpt lat="42.473478562600626" lon="-8.155508227121686"><ele>501.0</ele><time>2026-04-18T16:22:14Z</time></trkpt><trkpt lat="42.47362050387051" lon="-8.155492944842095"><ele>500.0</ele><time>2026-04-18T16:22:15Z</time></trkpt><trkpt lat="42.47375034688881" lon="-8.155470650988573"><ele>499.0</ele><time>2026-04-18T16:22:16Z</time></trkpt><trkpt lat="42.47386526392314" lon="-8.155435988362164"><ele>495.25</ele><time>2026-04-18T16:22:17Z</time></trkpt><trkpt lat="42.473985512184186" lon="-8.15536551164825"><ele>491.5</ele><time>2026-04-18T16:22:18Z</time></trkpt><trkpt lat="42.47409142697807" lon="-8.155246925171442"><ele>487.75</ele><time>2026-04-18T16:22:19Z</time></trkpt><trkpt lat="42.474177385898535" lon="-8.155123442423399"><ele>484.0</ele><time>2026-04-18T16:22:20Z</time></trkpt><trkpt lat="42.474237312412015" lon="-8.154992413160551"><ele>485.4</ele><time>2026-04-18T16:22:21Z</time></trkpt><trkpt lat="42.474280235573445" lon="-8.154865185795128"><ele>486.79999999999995</ele><time>2026-04-18T16:22:22Z</time></trkpt><trkpt lat="42.474289312212136" lon="-8.1547194444327"><ele>488.20000000000005</ele><time>2026-04-18T16:22:23Z</time></trkpt><trkpt lat="42.47429253361303" lon="-8.154566318155402"><ele>489.6</ele><time>2026-04-18T16:22:24Z</time></trkpt><trkpt lat="42.47429661829927" lon="-8.154434756825735"><ele>491.0</ele><time>2026-04-18T16:22:25Z</time></trkpt><trkpt lat="42.47432157386705" lon="-8.15431246297086"><ele>491.0</ele><time>2026-04-18T16:22:26Z</time></trkpt><trkpt lat="42.47438206870257" lon="-8.154206479936128"><ele>491.0</ele><time>2026-04-18T16:22:27Z</time></trkpt><trkpt lat="42.474474167492126" lon="-8.154112984094986"><ele>491.0</ele><time>2026-04-18T16:22:28Z</time></trkpt><trkpt lat="42.47459783870548" lon="-8.154059782202104"><ele>491.0</ele><time>2026-04-18T16:22:29Z</time></trkpt><trkpt lat="42.47472704991906" lon="-8.154033506579456"><ele>491.75</ele><time>2026-04-18T16:22:30Z</time></trkpt><trkpt lat="42.47486695808946" lon="-8.154026430248246"><ele>492.5</ele><time>2026-04-18T16:22:31Z</time></trkpt><trkpt lat="42.475026045416655" lon="-8.154028739510839"><ele>493.25</ele><time>2026-04-18T16:22:32Z</time></trkpt><trkpt lat="42.475165925905614" lon="-8.154008160191529"><ele>494.0</ele><time>2026-04-18T16:22:33Z</time></trkpt><trkpt lat="42.47530992608153" lon="-8.154004458798871"><ele>494.0</ele><time>2026-04-18T16:22:34Z</time></trkpt><trkpt lat="42.47543353275263" lon="-8.153994536872895"><ele>494.0</ele><time>2026-04-18T16:22:35Z</time></trkpt><trkpt lat="42.47555863095972" lon="-8.153952729410376"><ele>494.0</ele><time>2026-04-18T16:22:36Z</time></trkpt><trkpt lat="42.475676873890315" lon="-8.153890253995748"><ele>494.0</ele><time>2026-04-18T16:22:37Z</time></trkpt><trkpt lat="42.47578406934297" lon="-8.153806147470318"><ele>490.75</ele><time>2026-04-18T16:22:38Z</time></trkpt><trkpt lat="42.47587880390731" lon="-8.1537026952079"><ele>487.5</ele><time>2026-04-18T16:22:39Z</time></trkpt><trkpt lat="42.47596597469653" lon="-8.15358839243184"><ele>484.25</ele><time>2026-04-18T16:22:40Z</time></trkpt><trkpt lat="42.47604503144668" lon="-8.153470295538833"><ele>481.0</ele><time>2026-04-18T16:22:41Z</time></trkpt><trkpt lat="42.476102499514944" lon="-8.153322620260724"><ele>482.5</ele><time>2026-04-18T16:22:42Z</time></trkpt><trkpt lat="42.476131950049826" lon="-8.153153209281475"><ele>484.0</ele><time>2026-04-18T16:22:43Z</time></trkpt><trkpt lat="42.47615900310646" lon="-8.152965827782452"><ele>485.5</ele><time>2026-04-18T16:22:44Z</time></trkpt><trkpt lat="42.47618726936719" lon="-8.152782456370264"><ele>487.0</ele><time>2026-04-18T16:22:45Z</time></trkpt><trkpt lat="42.47620158502228" lon="-8.152619847640606"><ele>487.0</ele><time>2026-04-18T16:22:46Z</time></trkpt><trkpt lat="42.47622855876303" lon="-8.152475064682637"><ele>487.00000000000006</ele><time>2026-04-18T16:22:47Z</time></trkpt><trkpt lat="42.47627882205424" lon="-8.152360168899458"><ele>487.00000000000006</ele><time>2026-04-18T16:22:48Z</time></trkpt><trkpt lat="42.476361270317106" lon="-8.152257992986469"><ele>487.0</ele><time>2026-04-18T16:22:49Z</time></trkpt><trkpt lat="42.47647460584128" lon="-8.15224128774717"><ele>487.0</ele><time>2026-04-18T16:22:50Z</time></trkpt><trkpt lat="42.47657256830161" lon="-8.152219059805873"><ele>485.75</ele><time>2026-04-18T16:22:51Z</time></trkpt><trkpt lat="42.47669614578836" lon="-8.152179984319131"><ele>484.5</ele><time>2026-04-18T16:22:52Z</time></trkpt><trkpt lat="42.476809289240514" lon="-8.152148777289252"><ele>483.25</ele><time>2026-04-18T16:22:53Z</time></trkpt><trkpt lat="42.476916136772026" lon="-8.152071727242367"><ele>482.0</ele><time>2026-04-18T16:22:54Z</time></trkpt><trkpt lat="42.47701530371719" lon="-8.151959856793038"><ele>482.0</ele><time>2026-04-18T16:22:55Z</time></trkpt><trkpt lat="42.477118605261175" lon="-8.151854743880516"><ele>482.0</ele><time>2026-04-18T16:22:56Z</time></trkpt><trkpt lat="42.47722825117783" lon="-8.151732835911865"><ele>482.0</ele><time>2026-04-18T16:22:57Z</time></trkpt><trkpt lat="42.47733948790514" lon="-8.151622224264214"><ele>482.0</ele><time>2026-04-18T16:22:58Z</time></trkpt><trkpt lat="42.47746226345276" lon="-8.151478409698711"><ele>482.0</ele><time>2026-04-18T16:22:59Z</time></trkpt><trkpt lat="42.477574150723974" lon="-8.151354706683856"><ele>482.0</ele><time>2026-04-18T16:23:00Z</time></trkpt><trkpt lat="42.47769529744274" lon="-8.151244860807196"><ele>482.0</ele><time>2026-04-18T16:23:01Z</time></trkpt><trkpt lat="42.4778513726389" lon="-8.15110766631517"><ele>479.0</ele><time>2026-04-18T16:23:02Z</time></trkpt><trkpt lat="42.47797356084148" lon="-8.150982175620362"><ele>476.0</ele><time>2026-04-18T16:23:03Z</time></trkpt><trkpt lat="42.47810280748802" lon="-8.15089169292428"><ele>473.0</ele><time>2026-04-18T16:23:04Z</time></trkpt><trkpt lat="42.47821436572283" lon="-8.150815177016064"><ele>470.0</ele><time>2026-04-18T16:23:05Z</time></trkpt><trkpt lat="42.478306371230936" lon="-8.150731290818133"><ele>473.5</ele><time>2026-04-18T16:23:06Z</time></trkpt><trkpt lat="42.47840730043634" lon="-8.150631163450575"><ele>477.0</ele><time>2026-04-18T16:23:07Z</time></trkpt><trkpt lat="42.47849350335052" lon="-8.150495282908564"><ele>480.5</ele><time>2026-04-18T16:23:08Z</time></trkpt><trkpt lat="42.47856783895717" lon="-8.15033858654021"><ele>484.0</ele><time>2026-04-18T16:23:09Z</time></trkpt><trkpt lat="42.47861339658121" lon="-8.150187905387295"><ele>484.0</ele><time>2026-04-18T16:23:10Z</time></trkpt><trkpt lat="42.478641770026094" lon="-8.150020811171057"><ele>484.0</ele><time>2026-04-18T16:23:11Z</time></trkpt><trkpt lat="42.47864428404061" lon="-8.149877868230536"><ele>484.0</ele><time>2026-04-18T16:23:12Z</time></trkpt><trkpt lat="42.478657184251695" lon="-8.149756095211158"><ele>484.0</ele><time>2026-04-18T16:23:13Z</time></trkpt><trkpt lat="42.47870548278408" lon="-8.149645256523506"><ele>484.0</ele><time>2026-04-18T16:23:14Z</time></trkpt><trkpt lat="42.47875115773484" lon="-8.14954357701216"><ele>482.4</ele><time>2026-04-18T16:23:15Z</time></trkpt><trkpt lat="42.478807647374964" lon="-8.149460325063277"><ele>480.79999999999995</ele><time>2026-04-18T16:23:16Z</time></trkpt><trkpt lat="42.478894265789755" lon="-8.14939708196438"><ele>479.20000000000005</ele><time>2026-04-18T16:23:17Z</time></trkpt><trkpt lat="42.47898171880953" lon="-8.149381960549373"><ele>477.6</ele><time>2026-04-18T16:23:18Z</time></trkpt><trkpt lat="42.47913901813054" lon="-8.149321611590869"><ele>476.0</ele><time>2026-04-18T16:23:19Z</time></trkpt><trkpt lat="42.47928829890582" lon="-8.149266511892513"><ele>476.0</ele><time>2026-04-18T16:23:20Z</time></trkpt><trkpt lat="42.47943503012532" lon="-8.149195156646057"><ele>476.0</ele><time>2026-04-18T16:23:21Z</time></trkpt><trkpt lat="42.47955726557367" lon="-8.149105954116555"><ele>476.0</ele><time>2026-04-18T16:23:22Z</time></trkpt><trkpt lat="42.47968702594216" lon="-8.149023604509885"><ele>476.0</ele><time>2026-04-18T16:23:23Z</time></trkpt><trkpt lat="42.479803092498486" lon="-8.148945039001918"><ele>476.0</ele><time>2026-04-18T16:23:24Z</time></trkpt><trkpt lat="42.47992133002689" lon="-8.148859141571053"><ele>476.0</ele><time>2026-04-18T16:23:25Z</time></trkpt><trkpt lat="42.48003228306154" lon="-8.14878134152545"><ele>476.0</ele><time>2026-04-18T16:23:26Z</time></trkpt><trkpt lat="42.48013922513194" lon="-8.148705727278843"><ele>476.0</ele><time>2026-04-18T16:23:27Z</time></trkpt><trkpt lat="42.48026106732143" lon="-8.148654530023272"><ele>476.0</ele><time>2026-04-18T16:23:28Z</time></trkpt><trkpt lat="42.48037210520404" lon="-8.148572580571408"><ele>476.0</ele><time>2026-04-18T16:23:29Z</time></trkpt><trkpt lat="42.480472008140964" lon="-8.14850547366895"><ele>476.0</ele><time>2026-04-18T16:23:30Z</time></trkpt><trkpt lat="42.48057496461872" lon="-8.14842015007259"><ele>476.0</ele><time>2026-04-18T16:23:31Z</time></trkpt><trkpt lat="42.48069309204525" lon="-8.148344054658406"><ele>475.25</ele><time>2026-04-18T16:23:32Z</time></trkpt><trkpt lat="42.48080060176364" lon="-8.148269536953329"><ele>474.5</ele><time>2026-04-18T16:23:33Z</time></trkpt><trkpt lat="42.480911820572025" lon="-8.148203188422361"><ele>473.75</ele><time>2026-04-18T16:23:34Z</time></trkpt><trkpt lat="42.48101387744036" lon="-8.148125319356167"><ele>473.0</ele><time>2026-04-18T16:23:35Z</time></trkpt><trkpt lat="42.481110819541215" lon="-8.148073032554208"><ele>473.0</ele><time>2026-04-18T16:23:36Z</time></trkpt><trkpt lat="42.48119438617295" lon="-8.147975124498416"><ele>472.99999999999994</ele><time>2026-04-18T16:23:37Z</time></trkpt><trkpt lat="42.48127146976951" lon="-8.1478721866014"><ele>472.99999999999994</ele><time>2026-04-18T16:23:38Z</time></trkpt><trkpt lat="42.48133154448082" lon="-8.147744163697407"><ele>473.0</ele><time>2026-04-18T16:23:39Z</time></trkpt><trkpt lat="42.48138408773769" lon="-8.147618661575654"><ele>473.0</ele><time>2026-04-18T16:23:40Z</time></trkpt><trkpt lat="42.481438880840344" lon="-8.14749092516635"><ele>470.49999999999994</ele><time>2026-04-18T16:23:41Z</time></trkpt><trkpt lat="42.48149150843286" lon="-8.147366583000196"><ele>468.0</ele><time>2026-04-18T16:23:42Z</time></trkpt><trkpt lat="42.48152075853115" lon="-8.14725844274881"><ele>465.5</ele><time>2026-04-18T16:23:43Z</time></trkpt><trkpt lat="42.48155175069592" lon="-8.147149708209849"><ele>463.0</ele><time>2026-04-18T16:23:44Z</time></trkpt><trkpt lat="42.48158977196225" lon="-8.147078258188031"><ele>460.49999999999994</ele><time>2026-04-18T16:23:45Z</time></trkpt><trkpt lat="42.48165112990276" lon="-8.147028380896824"><ele>458.0</ele><time>2026-04-18T16:23:46Z</time></trkpt><trkpt lat="42.48171900003332" lon="-8.147007099119502"><ele>457.99999999999994</ele><time>2026-04-18T16:23:47Z</time></trkpt><trkpt lat="42.48179656000789" lon="-8.147025160882093"><ele>458.0</ele><time>2026-04-18T16:23:48Z</time></trkpt><trkpt lat="42.481864102024325" lon="-8.147086366482894"><ele>458.0</ele><time>2026-04-18T16:23:49Z</time></trkpt><trkpt lat="42.48192926314736" lon="-8.147154103954737"><ele>458.0</ele><time>2026-04-18T16:23:50Z</time></trkpt><trkpt lat="42.48198430952454" lon="-8.147263265168325"><ele>457.99999999999994</ele><time>2026-04-18T16:23:51Z</time></trkpt><trkpt lat="42.4820287541335" lon="-8.147361013827684"><ele>458.0</ele><time>2026-04-18T16:23:52Z</time></trkpt><trkpt lat="42.48209882524143" lon="-8.147470053445392"><ele>454.59999999999997</ele><time>2026-04-18T16:23:53Z</time></trkpt><trkpt lat="42.482164531537165" lon="-8.147565672284454"><ele>451.19999999999993</ele><time>2026-04-18T16:23:54Z</time></trkpt><trkpt lat="42.482246723044554" lon="-8.14765573340008"><ele>447.8</ele><time>2026-04-18T16:23:55Z</time></trkpt><trkpt lat="42.48232750885848" lon="-8.147721546172708"><ele>444.4</ele><time>2026-04-18T16:23:56Z</time></trkpt><trkpt lat="42.48241972626681" lon="-8.147764503808643"><ele>441.0</ele><time>2026-04-18T16:23:57Z</time></trkpt><trkpt lat="42.48251958081064" lon="-8.147755777781752"><ele>441.0</ele><time>2026-04-18T16:23:58Z</time></trkpt><trkpt lat="42.48262186860487" lon="-8.147709074197401"><ele>441.0</ele><time>2026-04-18T16:23:59Z</time></trkpt><trkpt lat="42.48272764223297" lon="-8.147638649936846"><ele>441.0</ele><time>2026-04-18T16:24:00Z</time></trkpt><trkpt lat="42.482833676810245" lon="-8.147561910690117"><ele>441.0</ele><time>2026-04-18T16:24:01Z</time></trkpt><trkpt lat="42.482925889087035" lon="-8.147482812119252"><ele>440.4</ele><time>2026-04-18T16:24:02Z</time></trkpt><trkpt lat="42.48300972659173" lon="-8.147394879792635"><ele>439.8</ele><time>2026-04-18T16:24:03Z</time></trkpt><trkpt lat="42.483101969041904" lon="-8.147288893935484"><ele>439.19999999999993</ele><time>2026-04-18T16:24:04Z</time></trkpt><trkpt lat="42.483178890584554" lon="-8.147173187192822"><ele>438.59999999999997</ele><time>2026-04-18T16:24:05Z</time></trkpt><trkpt lat="42.48324405066589" lon="-8.147068193589751"><ele>438.0</ele><time>2026-04-18T16:24:06Z</time></trkpt><trkpt lat="42.48332080711918" lon="-8.14694708810751"><ele>438.0</ele><time>2026-04-18T16:24:07Z</time></trkpt><trkpt lat="42.483390269477624" lon="-8.146830764791158"><ele>437.99999999999994</ele><time>2026-04-18T16:24:08Z</time></trkpt><trkpt lat="42.483475603551646" lon="-8.146728827188198"><ele>437.99999999999994</ele><time>2026-04-18T16:24:09Z</time></trkpt><trkpt lat="42.48354838433563" lon="-8.146644832667777"><ele>438.0</ele><time>2026-04-18T16:24:10Z</time></trkpt><trkpt lat="42.48361836468031" lon="-8.146587998420744"><ele>438.0</ele><time>2026-04-18T16:24:11Z</time></trkpt><trkpt lat="42.48370258303671" lon="-8.146526522495407"><ele>437.59999999999997</ele><time>2026-04-18T16:24:12Z</time></trkpt><trkpt lat="42.4838020009284" lon="-8.146475610885362"><ele>437.19999999999993</ele><time>2026-04-18T16:24:13Z</time></trkpt><trkpt lat="42.483881169101345" lon="-8.146432843233773"><ele>436.8</ele><time>2026-04-18T16:24:14Z</time></trkpt><trkpt lat="42.48397677518031" lon="-8.146380519840895"><ele>436.4</ele><time>2026-04-18T16:24:15Z</time></trkpt><trkpt lat="42.484068634355765" lon="-8.146319599963777"><ele>436.0</ele><time>2026-04-18T16:24:16Z</time></trkpt><trkpt lat="42.48416765175135" lon="-8.146242054162851"><ele>436.0</ele><time>2026-04-18T16:24:17Z</time></trkpt><trkpt lat="42.48425881118895" lon="-8.146158701918615"><ele>436.0</ele><time>2026-04-18T16:24:18Z</time></trkpt><trkpt lat="42.48435203419647" lon="-8.146067797733409"><ele>436.0</ele><time>2026-04-18T16:24:19Z</time></trkpt><trkpt lat="42.484444429449816" lon="-8.145945057250982"><ele>436.0</ele><time>2026-04-18T16:24:20Z</time></trkpt><trkpt lat="42.4845254948777" lon="-8.145807248095284"><ele>432.5</ele><time>2026-04-18T16:24:21Z</time></trkpt><trkpt lat="42.484597574096505" lon="-8.145654483417994"><ele>429.0</ele><time>2026-04-18T16:24:22Z</time></trkpt><trkpt lat="42.48469467513514" lon="-8.145500360959709"><ele>425.5</ele><time>2026-04-18T16:24:23Z</time></trkpt><trkpt lat="42.484786529761905" lon="-8.145356874698074"><ele>422.0</ele><time>2026-04-18T16:24:24Z</time></trkpt><trkpt lat="42.48485250115924" lon="-8.14520852369579"><ele>422.0</ele><time>2026-04-18T16:24:25Z</time></trkpt><trkpt lat="42.484934540296614" lon="-8.14504348861582"><ele>422.0</ele><time>2026-04-18T16:24:26Z</time></trkpt><trkpt lat="42.485013617062414" lon="-8.144883052230059"><ele>422.0</ele><time>2026-04-18T16:24:27Z</time></trkpt><trkpt lat="42.48509076136577" lon="-8.144738973515327"><ele>422.0</ele><time>2026-04-18T16:24:28Z</time></trkpt><trkpt lat="42.48517976118692" lon="-8.144606847551517"><ele>424.25</ele><time>2026-04-18T16:24:29Z</time></trkpt><trkpt lat="42.485251853076086" lon="-8.14445899215947"><ele>426.5</ele><time>2026-04-18T16:24:30Z</time></trkpt><trkpt lat="42.48533605504069" lon="-8.144322102191639"><ele>428.75</ele><time>2026-04-18T16:24:31Z</time></trkpt><trkpt lat="42.485411725254295" lon="-8.14420957070657"><ele>431.0</ele><time>2026-04-18T16:24:32Z</time></trkpt><trkpt lat="42.485523594175184" lon="-8.144089890913666"><ele>425.0</ele><time>2026-04-18T16:24:33Z</time></trkpt><trkpt lat="42.48564911094778" lon="-8.143934383551212"><ele>419.0</ele><time>2026-04-18T16:24:34Z</time></trkpt><trkpt lat="42.48576613111533" lon="-8.143779104372072"><ele>413.0</ele><time>2026-04-18T16:24:35Z</time></trkpt><trkpt lat="42.48589998080806" lon="-8.143619050879073"><ele>413.0</ele><time>2026-04-18T16:24:36Z</time></trkpt><trkpt lat="42.486019990300164" lon="-8.143474524398455"><ele>413.0</ele><time>2026-04-18T16:24:37Z</time></trkpt><trkpt lat="42.48615026007112" lon="-8.143363893073852"><ele>413.0</ele><time>2026-04-18T16:24:38Z</time></trkpt><trkpt lat="42.48628229189158" lon="-8.14322647163225"><ele>413.3333333333333</ele><time>2026-04-18T16:24:39Z</time></trkpt><trkpt lat="42.486436137726535" lon="-8.143067140882623"><ele>413.66666666666663</ele><time>2026-04-18T16:24:40Z</time></trkpt><trkpt lat="42.486588686694255" lon="-8.1429414602811"><ele>414.0</ele><time>2026-04-18T16:24:41Z</time></trkpt><trkpt lat="42.48672379857762" lon="-8.14284328057789"><ele>414.0</ele><time>2026-04-18T16:24:42Z</time></trkpt><trkpt lat="42.48683066926727" lon="-8.142753433058704"><ele>414.0</ele><time>2026-04-18T16:24:43Z</time></trkpt><trkpt lat="42.48693006168206" lon="-8.14267934396859"><ele>414.0</ele><time>2026-04-18T16:24:44Z</time></trkpt><trkpt lat="42.48700973254847" lon="-8.142613225986628"><ele>414.0</ele><time>2026-04-18T16:24:45Z</time></trkpt><trkpt lat="42.487068995390665" lon="-8.142556847699042"><ele>414.0</ele><time>2026-04-18T16:24:46Z</time></trkpt><trkpt lat="42.48711867081966" lon="-8.142471700691933"><ele>415.2</ele><time>2026-04-18T16:24:47Z</time></trkpt><trkpt lat="42.487143753193365" lon="-8.142371277484454"><ele>416.4</ele><time>2026-04-18T16:24:48Z</time></trkpt><trkpt lat="42.48714525620054" lon="-8.142247349892953"><ele>417.6</ele><time>2026-04-18T16:24:49Z</time></trkpt><trkpt lat="42.48712059880954" lon="-8.142125405677742"><ele>418.8</ele><time>2026-04-18T16:24:50Z</time></trkpt><trkpt lat="42.48708679485931" lon="-8.142014627688429"><ele>420.0</ele><time>2026-04-18T16:24:51Z</time></trkpt><trkpt lat="42.48704697095749" lon="-8.141885343502105"><ele>420.0</ele><time>2026-04-18T16:24:52Z</time></trkpt><trkpt lat="42.48700936729874" lon="-8.141757314104439"><ele>420.0</ele><time>2026-04-18T16:24:53Z</time></trkpt><trkpt lat="42.48696722740441" lon="-8.141630138060147"><ele>420.0</ele><time>2026-04-18T16:24:54Z</time></trkpt><trkpt lat="42.48692024626332" lon="-8.141523438146734"><ele>420.0</ele><time>2026-04-18T16:24:55Z</time></trkpt><trkpt lat="42.486898153367314" lon="-8.141437872596727"><ele>420.0</ele><time>2026-04-18T16:24:56Z</time></trkpt><trkpt lat="42.486910111126114" lon="-8.141345340410124"><ele>420.0</ele><time>2026-04-18T16:24:57Z</time></trkpt><trkpt lat="42.48691166298394" lon="-8.14123191982263"><ele>420.6</ele><time>2026-04-18T16:24:58Z</time></trkpt><trkpt lat="42.48693398162198" lon="-8.141144223595411"><ele>421.2</ele><time>2026-04-18T16:24:59Z</time></trkpt><trkpt lat="42.48699505385398" lon="-8.141037298941985"><ele>421.79999999999995</ele><time>2026-04-18T16:25:00Z</time></trkpt><trkpt lat="42.4870426937498" lon="-8.140951861309048"><ele>422.4</ele><time>2026-04-18T16:25:01Z</time></trkpt><trkpt lat="42.48711471883752" lon="-8.140834603969227"><ele>423.0</ele><time>2026-04-18T16:25:02Z</time></trkpt><trkpt lat="42.48718049515405" lon="-8.140736198483298"><ele>425.25</ele><time>2026-04-18T16:25:03Z</time></trkpt><trkpt lat="42.487266515898476" lon="-8.140644368399114"><ele>427.5</ele><time>2026-04-18T16:25:04Z</time></trkpt><trkpt lat="42.48734327664769" lon="-8.140518470594657"><ele>429.75</ele><time>2026-04-18T16:25:05Z</time></trkpt><trkpt lat="42.48743332289574" lon="-8.140414608373378"><ele>432.0</ele><time>2026-04-18T16:25:06Z</time></trkpt><trkpt lat="42.48751612184741" lon="-8.140319916978667"><ele>432.0</ele><time>2026-04-18T16:25:07Z</time></trkpt><trkpt lat="42.4875909700965" lon="-8.140239861998928"><ele>432.00000000000006</ele><time>2026-04-18T16:25:08Z</time></trkpt><trkpt lat="42.48765706575694" lon="-8.1401426812016"><ele>432.00000000000006</ele><time>2026-04-18T16:25:09Z</time></trkpt><trkpt lat="42.48773684857077" lon="-8.140087631732097"><ele>432.0</ele><time>2026-04-18T16:25:10Z</time></trkpt><trkpt lat="42.48781768503505" lon="-8.140054803261"><ele>432.0</ele><time>2026-04-18T16:25:11Z</time></trkpt><trkpt lat="42.48791103614341" lon="-8.140033889318818"><ele>434.0</ele><time>2026-04-18T16:25:12Z</time></trkpt><trkpt lat="42.488022945263914" lon="-8.140058797844281"><ele>436.0</ele><time>2026-04-18T16:25:13Z</time></trkpt><trkpt lat="42.488134396426645" lon="-8.140110640362524"><ele>438.0</ele><time>2026-04-18T16:25:14Z</time></trkpt><trkpt lat="42.48824094472366" lon="-8.140173243427254"><ele>440.0</ele><time>2026-04-18T16:25:15Z</time></trkpt><trkpt lat="42.48834523052121" lon="-8.140241553584351"><ele>440.0</ele><time>2026-04-18T16:25:16Z</time></trkpt><trkpt lat="42.488448470817744" lon="-8.1403108801088"><ele>440.0</ele><time>2026-04-18T16:25:17Z</time></trkpt><trkpt lat="42.488557648720096" lon="-8.140401578508143"><ele>440.0</ele><time>2026-04-18T16:25:18Z</time></trkpt><trkpt lat="42.48866326641516" lon="-8.140465809523189"><ele>440.0</ele><time>2026-04-18T16:25:19Z</time></trkpt><trkpt lat="42.488764145180156" lon="-8.140537045982866"><ele>438.8333333333333</ele><time>2026-04-18T16:25:20Z</time></trkpt><trkpt lat="42.48885221981744" lon="-8.140593575730813"><ele>437.66666666666663</ele><time>2026-04-18T16:25:21Z</time></trkpt><trkpt lat="42.48892518765637" lon="-8.140656538779735"><ele>436.5</ele><time>2026-04-18T16:25:22Z</time></trkpt><trkpt lat="42.48897612723424" lon="-8.140723091008415"><ele>435.33333333333337</ele><time>2026-04-18T16:25:23Z</time></trkpt><trkpt lat="42.48902693585704" lon="-8.1408066672712"><ele>434.1666666666667</ele><time>2026-04-18T16:25:24Z</time></trkpt><trkpt lat="42.48902635243323" lon="-8.140937405131378"><ele>433.0</ele><time>2026-04-18T16:25:25Z</time></trkpt><trkpt lat="42.488985766720994" lon="-8.141068561481758"><ele>437.0</ele><time>2026-04-18T16:25:26Z</time></trkpt><trkpt lat="42.48894130992978" lon="-8.141192055048204"><ele>440.99999999999994</ele><time>2026-04-18T16:25:27Z</time></trkpt><trkpt lat="42.48887493224369" lon="-8.141307582998115"><ele>444.99999999999994</ele><time>2026-04-18T16:25:28Z</time></trkpt><trkpt lat="42.48880609352438" lon="-8.141410370820475"><ele>449.0</ele><time>2026-04-18T16:25:29Z</time></trkpt><trkpt lat="42.48873304378498" lon="-8.141518780571937"><ele>453.0</ele><time>2026-04-18T16:25:30Z</time></trkpt><trkpt lat="42.488662580339" lon="-8.14165592359258"><ele>454.0</ele><time>2026-04-18T16:25:31Z</time></trkpt><trkpt lat="42.48861538670377" lon="-8.141775809096826"><ele>455.0</ele><time>2026-04-18T16:25:32Z</time></trkpt><trkpt lat="42.488585549559424" lon="-8.14193330711511"><ele>456.0</ele><time>2026-04-18T16:25:33Z</time></trkpt><trkpt lat="42.488592663332064" lon="-8.142101046853629"><ele>457.0</ele><time>2026-04-18T16:25:34Z</time></trkpt><trkpt lat="42.48860913142148" lon="-8.142273850464287"><ele>457.0</ele><time>2026-04-18T16:25:35Z</time></trkpt><trkpt lat="42.48865122509239" lon="-8.14264386970622"><ele>457.0</ele><time>2026-04-18T16:25:37Z</time></trkpt><trkpt lat="42.48871163635711" lon="-8.14281220256477"><ele>457.0</ele><time>2026-04-18T16:25:38Z</time></trkpt><trkpt lat="42.48876563644895" lon="-8.14298343404766"><ele>460.5</ele><time>2026-04-18T16:25:39Z</time></trkpt><trkpt lat="42.48882539781167" lon="-8.143140145715948"><ele>464.0</ele><time>2026-04-18T16:25:40Z</time></trkpt><trkpt lat="42.488898877246974" lon="-8.143306484837758"><ele>467.5</ele><time>2026-04-18T16:25:41Z</time></trkpt><trkpt lat="42.488975099703914" lon="-8.143466227731885"><ele>471.0</ele><time>2026-04-18T16:25:42Z</time></trkpt><trkpt lat="42.48905260776169" lon="-8.143622977672706"><ele>471.25</ele><time>2026-04-18T16:25:43Z</time></trkpt><trkpt lat="42.48912623790348" lon="-8.143780196526569"><ele>471.5</ele><time>2026-04-18T16:25:44Z</time></trkpt><trkpt lat="42.489191578988304" lon="-8.143950672848888"><ele>471.75</ele><time>2026-04-18T16:25:45Z</time></trkpt><trkpt lat="42.48923225528211" lon="-8.144105218537636"><ele>472.0</ele><time>2026-04-18T16:25:46Z</time></trkpt><trkpt lat="42.48927943335372" lon="-8.144241305604012"><ele>471.25</ele><time>2026-04-18T16:25:47Z</time></trkpt><trkpt lat="42.48932206223884" lon="-8.14437945018835"><ele>470.5</ele><time>2026-04-18T16:25:48Z</time></trkpt><trkpt lat="42.489339786970554" lon="-8.144513403047759"><ele>469.75</ele><time>2026-04-18T16:25:49Z</time></trkpt><trkpt lat="42.48936129674758" lon="-8.144666821910697"><ele>469.0</ele><time>2026-04-18T16:25:50Z</time></trkpt><trkpt lat="42.489342118734115" lon="-8.144843043272283"><ele>468.0</ele><time>2026-04-18T16:25:51Z</time></trkpt><trkpt lat="42.489287676471456" lon="-8.145029914997698"><ele>467.0</ele><time>2026-04-18T16:25:52Z</time></trkpt><trkpt lat="42.48921674698706" lon="-8.145218406039177"><ele>466.0</ele><time>2026-04-18T16:25:53Z</time></trkpt><trkpt lat="42.48913832294082" lon="-8.145398040857556"><ele>466.0</ele><time>2026-04-18T16:25:54Z</time></trkpt><trkpt lat="42.48905609100462" lon="-8.145584601480115"><ele>466.0</ele><time>2026-04-18T16:25:55Z</time></trkpt><trkpt lat="42.48897481040283" lon="-8.14576606479408"><ele>466.0</ele><time>2026-04-18T16:25:56Z</time></trkpt><trkpt lat="42.488893417377064" lon="-8.145945989789485"><ele>466.0</ele><time>2026-04-18T16:25:57Z</time></trkpt><trkpt lat="42.48879978356911" lon="-8.146152973872514"><ele>466.0</ele><time>2026-04-18T16:25:58Z</time></trkpt><trkpt lat="42.48871249572527" lon="-8.146344124109673"><ele>466.0</ele><time>2026-04-18T16:25:59Z</time></trkpt><trkpt lat="42.48862449593105" lon="-8.146536461902691"><ele>467.6666666666667</ele><time>2026-04-18T16:26:00Z</time></trkpt><trkpt lat="42.488543109595234" lon="-8.14672058398031"><ele>469.33333333333337</ele><time>2026-04-18T16:26:01Z</time></trkpt><trkpt lat="42.488460727397005" lon="-8.146907172601832"><ele>471.0</ele><time>2026-04-18T16:26:02Z</time></trkpt><trkpt lat="42.48838662435371" lon="-8.147071278151625"><ele>471.0</ele><time>2026-04-18T16:26:03Z</time></trkpt><trkpt lat="42.48831544271389" lon="-8.147225421526032"><ele>471.0</ele><time>2026-04-18T16:26:04Z</time></trkpt><trkpt lat="42.48825649810007" lon="-8.147359762430526"><ele>471.0</ele><time>2026-04-18T16:26:05Z</time></trkpt><trkpt lat="42.48820814559543" lon="-8.14747979440752"><ele>471.0</ele><time>2026-04-18T16:26:06Z</time></trkpt><trkpt lat="42.488165358883116" lon="-8.147614199641326"><ele>472.25</ele><time>2026-04-18T16:26:07Z</time></trkpt><trkpt lat="42.48815160893836" lon="-8.147757931898328"><ele>473.5</ele><time>2026-04-18T16:26:08Z</time></trkpt><trkpt lat="42.48815524432752" lon="-8.147923997830816"><ele>474.75</ele><time>2026-04-18T16:26:09Z</time></trkpt><trkpt lat="42.488183307252456" lon="-8.148087288410483"><ele>476.0</ele><time>2026-04-18T16:26:10Z</time></trkpt><trkpt lat="42.48821331829601" lon="-8.148267427358494"><ele>477.25</ele><time>2026-04-18T16:26:11Z</time></trkpt><trkpt lat="42.48822903388731" lon="-8.148449273723255"><ele>478.5</ele><time>2026-04-18T16:26:12Z</time></trkpt><trkpt lat="42.48821472595943" lon="-8.148638334024106"><ele>479.75</ele><time>2026-04-18T16:26:13Z</time></trkpt><trkpt lat="42.488208964679345" lon="-8.14882117877694"><ele>481.0</ele><time>2026-04-18T16:26:14Z</time></trkpt><trkpt lat="42.48815986316893" lon="-8.149003419616626"><ele>480.0</ele><time>2026-04-18T16:26:15Z</time></trkpt><trkpt lat="42.4880978089412" lon="-8.149171550671532"><ele>479.0</ele><time>2026-04-18T16:26:16Z</time></trkpt><trkpt lat="42.48802705253185" lon="-8.149330010890928"><ele>478.0</ele><time>2026-04-18T16:26:17Z</time></trkpt><trkpt lat="42.48793895133637" lon="-8.149473493040851"><ele>477.0</ele><time>2026-04-18T16:26:18Z</time></trkpt><trkpt lat="42.48787722385268" lon="-8.149640948484603"><ele>477.0</ele><time>2026-04-18T16:26:19Z</time></trkpt><trkpt lat="42.487804197346215" lon="-8.149794024812628"><ele>477.0</ele><time>2026-04-18T16:26:20Z</time></trkpt><trkpt lat="42.48772121717241" lon="-8.149936936429397"><ele>477.0</ele><time>2026-04-18T16:26:21Z</time></trkpt><trkpt lat="42.487653655328245" lon="-8.150106040249113"><ele>477.0</ele><time>2026-04-18T16:26:22Z</time></trkpt><trkpt lat="42.48759157901444" lon="-8.150261549746219"><ele>479.75</ele><time>2026-04-18T16:26:23Z</time></trkpt><trkpt lat="42.48754010314116" lon="-8.150435119323873"><ele>482.5</ele><time>2026-04-18T16:26:24Z</time></trkpt><trkpt lat="42.4874856986255" lon="-8.150595884612683"><ele>485.25</ele><time>2026-04-18T16:26:25Z</time></trkpt><trkpt lat="42.48744519127865" lon="-8.150732071732696"><ele>488.0</ele><time>2026-04-18T16:26:26Z</time></trkpt><trkpt lat="42.48740919703335" lon="-8.150875035581006"><ele>490.75</ele><time>2026-04-18T16:26:27Z</time></trkpt><trkpt lat="42.48737550979819" lon="-8.151029386043469"><ele>493.5</ele><time>2026-04-18T16:26:28Z</time></trkpt><trkpt lat="42.487347526280686" lon="-8.151187723874743"><ele>496.25</ele><time>2026-04-18T16:26:29Z</time></trkpt><trkpt lat="42.48733591574498" lon="-8.151344948919782"><ele>499.0</ele><time>2026-04-18T16:26:30Z</time></trkpt><trkpt lat="42.4873213841475" lon="-8.151507419005663"><ele>500.25</ele><time>2026-04-18T16:26:31Z</time></trkpt><trkpt lat="42.48731253059278" lon="-8.151679853269545"><ele>501.5</ele><time>2026-04-18T16:26:32Z</time></trkpt><trkpt lat="42.4873091490226" lon="-8.151864022406047"><ele>502.75</ele><time>2026-04-18T16:26:33Z</time></trkpt><trkpt lat="42.487281160019315" lon="-8.152052764986156"><ele>504.0</ele><time>2026-04-18T16:26:34Z</time></trkpt><trkpt lat="42.48724011090159" lon="-8.152222649814867"><ele>505.5</ele><time>2026-04-18T16:26:35Z</time></trkpt><trkpt lat="42.48720889338735" lon="-8.152403119200295"><ele>507.0</ele><time>2026-04-18T16:26:36Z</time></trkpt><trkpt lat="42.48716934295474" lon="-8.152583066481457"><ele>508.5</ele><time>2026-04-18T16:26:37Z</time></trkpt><trkpt lat="42.48713085471299" lon="-8.152760204529816"><ele>510.0</ele><time>2026-04-18T16:26:38Z</time></trkpt><trkpt lat="42.48708255698672" lon="-8.152911492038083"><ele>509.5</ele><time>2026-04-18T16:26:39Z</time></trkpt><trkpt lat="42.48704729779493" lon="-8.153055281158013"><ele>509.0</ele><time>2026-04-18T16:26:40Z</time></trkpt><trkpt lat="42.48699320690699" lon="-8.153177415559322"><ele>508.5</ele><time>2026-04-18T16:26:41Z</time></trkpt><trkpt lat="42.486918873730886" lon="-8.153296631432635"><ele>508.0</ele><time>2026-04-18T16:26:42Z</time></trkpt><trkpt lat="42.48680642624462" lon="-8.153384549334215"><ele>508.0</ele><time>2026-04-18T16:26:43Z</time></trkpt><trkpt lat="42.486691392485994" lon="-8.153457655934252"><ele>508.0</ele><time>2026-04-18T16:26:44Z</time></trkpt><trkpt lat="42.48658894925783" lon="-8.153530762525063"><ele>508.0</ele><time>2026-04-18T16:26:45Z</time></trkpt><trkpt lat="42.486490257014935" lon="-8.153619497181303"><ele>508.0</ele><time>2026-04-18T16:26:46Z</time></trkpt><trkpt lat="42.486423429444535" lon="-8.153733988947256"><ele>508.0</ele><time>2026-04-18T16:26:47Z</time></trkpt><trkpt lat="42.486390158721136" lon="-8.153875164723422"><ele>508.0</ele><time>2026-04-18T16:26:48Z</time></trkpt><trkpt lat="42.48636989360922" lon="-8.154030951752073"><ele>508.0</ele><time>2026-04-18T16:26:49Z</time></trkpt><trkpt lat="42.48636918191298" lon="-8.154193543761279"><ele>508.0</ele><time>2026-04-18T16:26:50Z</time></trkpt><trkpt lat="42.48636452396193" lon="-8.154369548513198"><ele>510.75</ele><time>2026-04-18T16:26:51Z</time></trkpt><trkpt lat="42.486390375528465" lon="-8.154537179511113"><ele>513.5</ele><time>2026-04-18T16:26:52Z</time></trkpt><trkpt lat="42.486417139087976" lon="-8.154706061835888"><ele>516.25</ele><time>2026-04-18T16:26:53Z</time></trkpt><trkpt lat="42.48645820030613" lon="-8.154860656283349"><ele>519.0</ele><time>2026-04-18T16:26:54Z</time></trkpt><trkpt lat="42.486531663566616" lon="-8.15500676932782"><ele>519.5</ele><time>2026-04-18T16:26:55Z</time></trkpt><trkpt lat="42.48662078465271" lon="-8.155140660649035"><ele>520.0</ele><time>2026-04-18T16:26:56Z</time></trkpt><trkpt lat="42.48671998584559" lon="-8.155245250376193"><ele>520.5</ele><time>2026-04-18T16:26:57Z</time></trkpt><trkpt lat="42.48683674772065" lon="-8.15532872970693"><ele>521.0</ele><time>2026-04-18T16:26:58Z</time></trkpt><trkpt lat="42.486959745044004" lon="-8.155388501986575"><ele>521.0</ele><time>2026-04-18T16:26:59Z</time></trkpt><trkpt lat="42.48708624246124" lon="-8.15544672752486"><ele>521.0</ele><time>2026-04-18T16:27:00Z</time></trkpt><trkpt lat="42.4872075533951" lon="-8.155479467993167"><ele>521.0</ele><time>2026-04-18T16:27:01Z</time></trkpt><trkpt lat="42.48733997186819" lon="-8.15548824645705"><ele>521.0</ele><time>2026-04-18T16:27:02Z</time></trkpt><trkpt lat="42.487463920326526" lon="-8.155478267105519"><ele>523.5</ele><time>2026-04-18T16:27:03Z</time></trkpt><trkpt lat="42.48758088608505" lon="-8.155429510637015"><ele>526.0</ele><time>2026-04-18T16:27:04Z</time></trkpt><trkpt lat="42.48769444228528" lon="-8.155351405861916"><ele>528.5</ele><time>2026-04-18T16:27:05Z</time></trkpt><trkpt lat="42.48778827913674" lon="-8.155255260148646"><ele>531.0</ele><time>2026-04-18T16:27:06Z</time></trkpt><trkpt lat="42.48786981859229" lon="-8.155196074146033"><ele>533.0</ele><time>2026-04-18T16:27:07Z</time></trkpt><trkpt lat="42.487955146976745" lon="-8.155179947722944"><ele>535.0</ele><time>2026-04-18T16:27:08Z</time></trkpt><trkpt lat="42.48803399850272" lon="-8.155223156688361"><ele>537.0</ele><time>2026-04-18T16:27:09Z</time></trkpt><trkpt lat="42.488119454009876" lon="-8.155317385212092"><ele>539.0</ele><time>2026-04-18T16:27:10Z</time></trkpt><trkpt lat="42.488179078108324" lon="-8.155432360982694"><ele>541.0</ele><time>2026-04-18T16:27:11Z</time></trkpt><trkpt lat="42.4882285515625" lon="-8.15554925660852"><ele>541.0</ele><time>2026-04-18T16:27:12Z</time></trkpt><trkpt lat="42.48827666150858" lon="-8.155677920993334"><ele>541.0</ele><time>2026-04-18T16:27:13Z</time></trkpt><trkpt lat="42.4883365006484" lon="-8.15579578327812"><ele>541.0</ele><time>2026-04-18T16:27:14Z</time></trkpt><trkpt lat="42.488420660346414" lon="-8.155892997376453"><ele>541.0</ele><time>2026-04-18T16:27:15Z</time></trkpt><trkpt lat="42.488496498504745" lon="-8.156005554260908"><ele>541.0</ele><time>2026-04-18T16:27:16Z</time></trkpt><trkpt lat="42.48859287420192" lon="-8.156094266349257"><ele>541.25</ele><time>2026-04-18T16:27:17Z</time></trkpt><trkpt lat="42.48870082905354" lon="-8.156173492851625"><ele>541.5</ele><time>2026-04-18T16:27:18Z</time></trkpt><trkpt lat="42.48880075550986" lon="-8.15622754245562"><ele>541.75</ele><time>2026-04-18T16:27:19Z</time></trkpt><trkpt lat="42.488911885331845" lon="-8.15628361077611"><ele>542.0</ele><time>2026-04-18T16:27:20Z</time></trkpt><trkpt lat="42.489031268016824" lon="-8.156325148862358"><ele>544.0</ele><time>2026-04-18T16:27:21Z</time></trkpt><trkpt lat="42.48915107701866" lon="-8.156354735353608"><ele>546.0</ele><time>2026-04-18T16:27:22Z</time></trkpt><trkpt lat="42.489272648814726" lon="-8.156354806629956"><ele>548.0</ele><time>2026-04-18T16:27:23Z</time></trkpt><trkpt lat="42.48939710962295" lon="-8.156335573654617"><ele>550.0</ele><time>2026-04-18T16:27:24Z</time></trkpt><trkpt lat="42.48951140293351" lon="-8.156290491176827"><ele>552.0</ele><time>2026-04-18T16:27:25Z</time></trkpt><trkpt lat="42.48963481044003" lon="-8.156256534951035"><ele>554.0</ele><time>2026-04-18T16:27:26Z</time></trkpt><trkpt lat="42.489758881027946" lon="-8.156224649055261"><ele>556.0</ele><time>2026-04-18T16:27:27Z</time></trkpt><trkpt lat="42.489877697656425" lon="-8.156198984051015"><ele>558.0</ele><time>2026-04-18T16:27:28Z</time></trkpt><trkpt lat="42.48999875505759" lon="-8.156190227010836"><ele>558.0</ele><time>2026-04-18T16:27:29Z</time></trkpt><trkpt lat="42.490108330329996" lon="-8.15620236215393"><ele>558.0</ele><time>2026-04-18T16:27:30Z</time></trkpt><trkpt lat="42.49020274289747" lon="-8.156235695342462"><ele>558.0</ele><time>2026-04-18T16:27:31Z</time></trkpt><trkpt lat="42.49027586337366" lon="-8.156289324963506"><ele>558.0</ele><time>2026-04-18T16:27:32Z</time></trkpt><trkpt lat="42.49033707865946" lon="-8.15637515516266"><ele>558.0</ele><time>2026-04-18T16:27:33Z</time></trkpt><trkpt lat="42.49038571603136" lon="-8.156486638780027"><ele>558.6</ele><time>2026-04-18T16:27:34Z</time></trkpt><trkpt lat="42.490423058948785" lon="-8.15662706172466"><ele>559.1999999999999</ele><time>2026-04-18T16:27:35Z</time></trkpt><trkpt lat="42.49044563866434" lon="-8.156771579903243"><ele>559.8</ele><time>2026-04-18T16:27:36Z</time></trkpt><trkpt lat="42.49046906989327" lon="-8.156912830162101"><ele>560.4</ele><time>2026-04-18T16:27:37Z</time></trkpt><trkpt lat="42.490496594999854" lon="-8.157069243049792"><ele>561.0</ele><time>2026-04-18T16:27:38Z</time></trkpt><trkpt lat="42.49053193331007" lon="-8.157229475971407"><ele>563.5</ele><time>2026-04-18T16:27:39Z</time></trkpt><trkpt lat="42.49057418290533" lon="-8.157384718433638"><ele>566.0</ele><time>2026-04-18T16:27:40Z</time></trkpt><trkpt lat="42.49064607185693" lon="-8.15753581295537"><ele>568.5</ele><time>2026-04-18T16:27:41Z</time></trkpt><trkpt lat="42.490756870490976" lon="-8.15763469187457"><ele>571.0</ele><time>2026-04-18T16:27:42Z</time></trkpt><trkpt lat="42.490869007628106" lon="-8.157731981056845"><ele>571.0</ele><time>2026-04-18T16:27:43Z</time></trkpt><trkpt lat="42.49098381697925" lon="-8.157844603582712"><ele>571.0</ele><time>2026-04-18T16:27:44Z</time></trkpt><trkpt lat="42.4911010012249" lon="-8.157929388057749"><ele>571.0</ele><time>2026-04-18T16:27:45Z</time></trkpt><trkpt lat="42.491231509084585" lon="-8.157999254217035"><ele>571.0</ele><time>2026-04-18T16:27:46Z</time></trkpt><trkpt lat="42.49136640356779" lon="-8.158048446372241"><ele>569.75</ele><time>2026-04-18T16:27:47Z</time></trkpt><trkpt lat="42.49151153223158" lon="-8.158077099016024"><ele>568.5</ele><time>2026-04-18T16:27:48Z</time></trkpt><trkpt lat="42.49165491439998" lon="-8.158100335048646"><ele>567.25</ele><time>2026-04-18T16:27:49Z</time></trkpt><trkpt lat="42.49179669121604" lon="-8.15812479465843"><ele>566.0</ele><time>2026-04-18T16:27:50Z</time></trkpt><trkpt lat="42.49194067708632" lon="-8.158156830631917"><ele>566.6666666666666</ele><time>2026-04-18T16:27:51Z</time></trkpt><trkpt lat="42.492095029988754" lon="-8.15820086384243"><ele>567.3333333333334</ele><time>2026-04-18T16:27:52Z</time></trkpt><trkpt lat="42.492239853445916" lon="-8.158249585542036"><ele>568.0</ele><time>2026-04-18T16:27:53Z</time></trkpt><trkpt lat="42.49237935996397" lon="-8.158290674858359"><ele>573.6666666666667</ele><time>2026-04-18T16:27:54Z</time></trkpt><trkpt lat="42.49252600050735" lon="-8.158338529724587"><ele>579.3333333333334</ele><time>2026-04-18T16:27:55Z</time></trkpt><trkpt lat="42.49268184449783" lon="-8.158365474055376"><ele>585.0</ele><time>2026-04-18T16:27:56Z</time></trkpt><trkpt lat="42.49283179781433" lon="-8.158388342857354"><ele>586.0</ele><time>2026-04-18T16:27:57Z</time></trkpt><trkpt lat="42.49298908704503" lon="-8.158395600224125"><ele>587.0</ele><time>2026-04-18T16:27:58Z</time></trkpt><trkpt lat="42.49314202947924" lon="-8.15838824287013"><ele>588.0</ele><time>2026-04-18T16:27:59Z</time></trkpt><trkpt lat="42.49329335398504" lon="-8.158357107706673"><ele>588.0</ele><time>2026-04-18T16:28:00Z</time></trkpt><trkpt lat="42.493448562682424" lon="-8.158308532000998"><ele>588.0</ele><time>2026-04-18T16:28:01Z</time></trkpt><trkpt lat="42.49359700820817" lon="-8.158265888829732"><ele>588.0</ele><time>2026-04-18T16:28:02Z</time></trkpt><trkpt lat="42.49374977118002" lon="-8.158242245743624"><ele>586.6666666666666</ele><time>2026-04-18T16:28:03Z</time></trkpt><trkpt lat="42.493900946389964" lon="-8.158221316951526"><ele>585.3333333333333</ele><time>2026-04-18T16:28:04Z</time></trkpt><trkpt lat="42.494055098170456" lon="-8.15818954689073"><ele>584.0</ele><time>2026-04-18T16:28:05Z</time></trkpt><trkpt lat="42.49420653560356" lon="-8.158143376159666"><ele>584.0</ele><time>2026-04-18T16:28:06Z</time></trkpt><trkpt lat="42.494361607318794" lon="-8.158094051976963"><ele>584.0</ele><time>2026-04-18T16:28:07Z</time></trkpt><trkpt lat="42.494519382022766" lon="-8.158039372386735"><ele>584.0</ele><time>2026-04-18T16:28:08Z</time></trkpt><trkpt lat="42.49467914849443" lon="-8.15799686190331"><ele>586.3333333333333</ele><time>2026-04-18T16:28:09Z</time></trkpt><trkpt lat="42.49483630201116" lon="-8.157960589829381"><ele>588.6666666666666</ele><time>2026-04-18T16:28:10Z</time></trkpt><trkpt lat="42.49500689763353" lon="-8.157944130316835"><ele>591.0</ele><time>2026-04-18T16:28:11Z</time></trkpt><trkpt lat="42.495162605434395" lon="-8.157900433770118"><ele>591.0</ele><time>2026-04-18T16:28:12Z</time></trkpt><trkpt lat="42.49532408858485" lon="-8.157872166826996"><ele>591.0</ele><time>2026-04-18T16:28:13Z</time></trkpt><trkpt lat="42.49547856414695" lon="-8.157841274217205"><ele>591.0</ele><time>2026-04-18T16:28:14Z</time></trkpt><trkpt lat="42.49562645367506" lon="-8.157820540441909"><ele>589.75</ele><time>2026-04-18T16:28:15Z</time></trkpt><trkpt lat="42.4957599361651" lon="-8.157813254953425"><ele>588.5</ele><time>2026-04-18T16:28:16Z</time></trkpt><trkpt lat="42.495894873155265" lon="-8.157786195166732"><ele>587.25</ele><time>2026-04-18T16:28:17Z</time></trkpt><trkpt lat="42.496019760805396" lon="-8.15775647811846"><ele>586.0</ele><time>2026-04-18T16:28:18Z</time></trkpt><trkpt lat="42.49613136372132" lon="-8.157735916557565"><ele>586.0</ele><time>2026-04-18T16:28:19Z</time></trkpt><trkpt lat="42.496226670567815" lon="-8.157715222652895"><ele>586.0</ele><time>2026-04-18T16:28:20Z</time></trkpt><trkpt lat="42.496315364206595" lon="-8.157712042872506"><ele>586.0</ele><time>2026-04-18T16:28:21Z</time></trkpt><trkpt lat="42.49640362334623" lon="-8.157717614109632"><ele>586.0</ele><time>2026-04-18T16:28:22Z</time></trkpt><trkpt lat="42.49648174348387" lon="-8.15777767011955"><ele>586.0</ele><time>2026-04-18T16:28:23Z</time></trkpt><trkpt lat="42.496570467284045" lon="-8.157797680320952"><ele>585.0</ele><time>2026-04-18T16:28:24Z</time></trkpt><trkpt lat="42.49667776551118" lon="-8.157878972720457"><ele>584.0</ele><time>2026-04-18T16:28:25Z</time></trkpt><trkpt lat="42.49677786782402" lon="-8.157965139433545"><ele>583.0</ele><time>2026-04-18T16:28:26Z</time></trkpt><trkpt lat="42.496890726885354" lon="-8.158043368091876"><ele>582.0</ele><time>2026-04-18T16:28:27Z</time></trkpt><trkpt lat="42.49699891846775" lon="-8.158111770962474"><ele>582.25</ele><time>2026-04-18T16:28:28Z</time></trkpt><trkpt lat="42.49711250812493" lon="-8.158188011693635"><ele>582.5</ele><time>2026-04-18T16:28:29Z</time></trkpt><trkpt lat="42.49722975348235" lon="-8.158263546200896"><ele>582.75</ele><time>2026-04-18T16:28:30Z</time></trkpt><trkpt lat="42.49734647275327" lon="-8.158316210594505"><ele>583.0</ele><time>2026-04-18T16:28:31Z</time></trkpt><trkpt lat="42.49745275869693" lon="-8.158405966704384"><ele>585.75</ele><time>2026-04-18T16:28:32Z</time></trkpt><trkpt lat="42.497572983693026" lon="-8.158462133044742"><ele>588.5</ele><time>2026-04-18T16:28:33Z</time></trkpt><trkpt lat="42.49768188690056" lon="-8.158537328985352"><ele>591.25</ele><time>2026-04-18T16:28:34Z</time></trkpt><trkpt lat="42.49779928857062" lon="-8.158610156734103"><ele>594.0</ele><time>2026-04-18T16:28:35Z</time></trkpt><trkpt lat="42.49791474960437" lon="-8.158680221144378"><ele>595.25</ele><time>2026-04-18T16:28:36Z</time></trkpt><trkpt lat="42.49803356751564" lon="-8.158752283387562"><ele>596.5</ele><time>2026-04-18T16:28:37Z</time></trkpt><trkpt lat="42.49815625695805" lon="-8.158828951875899"><ele>597.75</ele><time>2026-04-18T16:28:38Z</time></trkpt><trkpt lat="42.49827877759734" lon="-8.158915419491601"><ele>599.0</ele><time>2026-04-18T16:28:39Z</time></trkpt><trkpt lat="42.498412193013316" lon="-8.15899252872477"><ele>599.0</ele><time>2026-04-18T16:28:40Z</time></trkpt><trkpt lat="42.49855154698804" lon="-8.159063242178048"><ele>599.0</ele><time>2026-04-18T16:28:41Z</time></trkpt><trkpt lat="42.49869843738999" lon="-8.15912515854782"><ele>599.0</ele><time>2026-04-18T16:28:42Z</time></trkpt><trkpt lat="42.49885695200471" lon="-8.159169230611143"><ele>599.3333333333333</ele><time>2026-04-18T16:28:43Z</time></trkpt><trkpt lat="42.49902293037024" lon="-8.159197962811298"><ele>599.6666666666666</ele><time>2026-04-18T16:28:44Z</time></trkpt><trkpt lat="42.499193328626795" lon="-8.159231560249061"><ele>600.0</ele><time>2026-04-18T16:28:45Z</time></trkpt><trkpt lat="42.49936285295222" lon="-8.159275601667673"><ele>600.0</ele><time>2026-04-18T16:28:46Z</time></trkpt><trkpt lat="42.49952979955661" lon="-8.159318932213925"><ele>600.0</ele><time>2026-04-18T16:28:47Z</time></trkpt><trkpt lat="42.4996917567975" lon="-8.159337524595413"><ele>600.0</ele><time>2026-04-18T16:28:48Z</time></trkpt><trkpt lat="42.499826533433556" lon="-8.15937989538838"><ele>599.6666666666666</ele><time>2026-04-18T16:28:49Z</time></trkpt><trkpt lat="42.499971635387006" lon="-8.159410843323812"><ele>599.3333333333333</ele><time>2026-04-18T16:28:50Z</time></trkpt><trkpt lat="42.5001277736417" lon="-8.159444021335874"><ele>599.0</ele><time>2026-04-18T16:28:51Z</time></trkpt><trkpt lat="42.50029722060886" lon="-8.159476541722976"><ele>597.0</ele><time>2026-04-18T16:28:52Z</time></trkpt><trkpt lat="42.500474597739725" lon="-8.159502392546637"><ele>595.0</ele><time>2026-04-18T16:28:53Z</time></trkpt><trkpt lat="42.50064655835548" lon="-8.159542456891169"><ele>593.0</ele><time>2026-04-18T16:28:54Z</time></trkpt><trkpt lat="42.50081788562267" lon="-8.159587399188982"><ele>593.0</ele><time>2026-04-18T16:28:55Z</time></trkpt><trkpt lat="42.50099105278141" lon="-8.15962879614164"><ele>593.0</ele><time>2026-04-18T16:28:56Z</time></trkpt><trkpt lat="42.50115238907672" lon="-8.159674030954074"><ele>593.0</ele><time>2026-04-18T16:28:57Z</time></trkpt><trkpt lat="42.50131832632107" lon="-8.159704018015205"><ele>591.0</ele><time>2026-04-18T16:28:58Z</time></trkpt><trkpt lat="42.5014958073493" lon="-8.159708743542613"><ele>589.0</ele><time>2026-04-18T16:28:59Z</time></trkpt><trkpt lat="42.50167572647082" lon="-8.159696349056768"><ele>587.0</ele><time>2026-04-18T16:29:00Z</time></trkpt><trkpt lat="42.50185456511329" lon="-8.159656298745317"><ele>587.0</ele><time>2026-04-18T16:29:01Z</time></trkpt><trkpt lat="42.502012730264525" lon="-8.159644778255888"><ele>587.0</ele><time>2026-04-18T16:29:02Z</time></trkpt><trkpt lat="42.50215315786362" lon="-8.159664227246918"><ele>587.0</ele><time>2026-04-18T16:29:03Z</time></trkpt><trkpt lat="42.50228620077541" lon="-8.159700034403285"><ele>587.0</ele><time>2026-04-18T16:29:04Z</time></trkpt><trkpt lat="42.5024191383589" lon="-8.159764734034209"><ele>586.5</ele><time>2026-04-18T16:29:05Z</time></trkpt><trkpt lat="42.50253806210471" lon="-8.159835852523758"><ele>586.0</ele><time>2026-04-18T16:29:06Z</time></trkpt><trkpt lat="42.50264636251087" lon="-8.159906508333506"><ele>585.5</ele><time>2026-04-18T16:29:07Z</time></trkpt><trkpt lat="42.50275091598338" lon="-8.159972901061385"><ele>585.0</ele><time>2026-04-18T16:29:08Z</time></trkpt><trkpt lat="42.50283674462187" lon="-8.160028650806835"><ele>584.8333333333334</ele><time>2026-04-18T16:29:09Z</time></trkpt><trkpt lat="42.502919966553975" lon="-8.160078374972688"><ele>584.6666666666666</ele><time>2026-04-18T16:29:10Z</time></trkpt><trkpt lat="42.50299587800709" lon="-8.160124317344946"><ele>584.5</ele><time>2026-04-18T16:29:11Z</time></trkpt><trkpt lat="42.50306144464174" lon="-8.160161704728118"><ele>584.3333333333333</ele><time>2026-04-18T16:29:12Z</time></trkpt><trkpt lat="42.503121594806444" lon="-8.160203003829972"><ele>584.1666666666666</ele><time>2026-04-18T16:29:13Z</time></trkpt><trkpt lat="42.50321468021218" lon="-8.160264260963322"><ele>584.0</ele><time>2026-04-18T16:29:15Z</time></trkpt><trkpt lat="42.50327859523222" lon="-8.160321565641105"><ele>584.0</ele><time>2026-04-18T16:29:17Z</time></trkpt><trkpt lat="42.50331965497401" lon="-8.160389482472834"><ele>584.0</ele><time>2026-04-18T16:29:20Z</time></trkpt><trkpt lat="42.50342987826864" lon="-8.160430669633703"><ele>584.0</ele><time>2026-04-18T16:29:43Z</time></trkpt><trkpt lat="42.50351469759292" lon="-8.160416078321909"><ele>584.0</ele><time>2026-04-18T16:29:44Z</time></trkpt><trkpt lat="42.50361810108609" lon="-8.160386472565431"><ele>584.0</ele><time>2026-04-18T16:29:45Z</time></trkpt><trkpt lat="42.503716574598585" lon="-8.160370793304761"><ele>583.5</ele><time>2026-04-18T16:29:46Z</time></trkpt><trkpt lat="42.503831589429225" lon="-8.16036102620532"><ele>583.0</ele><time>2026-04-18T16:29:47Z</time></trkpt><trkpt lat="42.503967280580255" lon="-8.160366676603564"><ele>582.5</ele><time>2026-04-18T16:29:48Z</time></trkpt><trkpt lat="42.50410273683829" lon="-8.160356969749234"><ele>582.0</ele><time>2026-04-18T16:29:49Z</time></trkpt><trkpt lat="42.504247477904066" lon="-8.160353394838811"><ele>582.0</ele><time>2026-04-18T16:29:50Z</time></trkpt><trkpt lat="42.504378865010295" lon="-8.160351340663587"><ele>582.0</ele><time>2026-04-18T16:29:51Z</time></trkpt><trkpt lat="42.50450140727353" lon="-8.160349136497617"><ele>582.0</ele><time>2026-04-18T16:29:52Z</time></trkpt><trkpt lat="42.50463414700659" lon="-8.16037688151886"><ele>582.0</ele><time>2026-04-18T16:29:53Z</time></trkpt><trkpt lat="42.50478136539089" lon="-8.160440614863745"><ele>581.5</ele><time>2026-04-18T16:29:54Z</time></trkpt><trkpt lat="42.504914925124986" lon="-8.160524309688858"><ele>581.0</ele><time>2026-04-18T16:29:55Z</time></trkpt><trkpt lat="42.505059703718594" lon="-8.160615236866086"><ele>580.5</ele><time>2026-04-18T16:29:56Z</time></trkpt><trkpt lat="42.50518823923126" lon="-8.160691129770727"><ele>580.0</ele><time>2026-04-18T16:29:57Z</time></trkpt><trkpt lat="42.505312937903625" lon="-8.160743938626323"><ele>581.4</ele><time>2026-04-18T16:29:58Z</time></trkpt><trkpt lat="42.50542526504152" lon="-8.16080763702019"><ele>582.8</ele><time>2026-04-18T16:29:59Z</time></trkpt><trkpt lat="42.50553175093018" lon="-8.160865598828757"><ele>584.2</ele><time>2026-04-18T16:30:00Z</time></trkpt><trkpt lat="42.50563610926486" lon="-8.160906526011775"><ele>585.6</ele><time>2026-04-18T16:30:01Z</time></trkpt><trkpt lat="42.505738397653964" lon="-8.160922932964331"><ele>587.0</ele><time>2026-04-18T16:30:02Z</time></trkpt><trkpt lat="42.50583729909286" lon="-8.160863911991148"><ele>587.0</ele><time>2026-04-18T16:30:03Z</time></trkpt><trkpt lat="42.50593333382148" lon="-8.160772908874346"><ele>587.0</ele><time>2026-04-18T16:30:04Z</time></trkpt><trkpt lat="42.50603392038926" lon="-8.16067436439677"><ele>587.0</ele><time>2026-04-18T16:30:05Z</time></trkpt><trkpt lat="42.506131334845385" lon="-8.160568503430966"><ele>587.0</ele><time>2026-04-18T16:30:06Z</time></trkpt><trkpt lat="42.5062415562631" lon="-8.160478705243397"><ele>587.0</ele><time>2026-04-18T16:30:07Z</time></trkpt><trkpt lat="42.50635924692751" lon="-8.160402369697012"><ele>587.0</ele><time>2026-04-18T16:30:08Z</time></trkpt><trkpt lat="42.506500075808695" lon="-8.160353863785698"><ele>587.0</ele><time>2026-04-18T16:30:09Z</time></trkpt><trkpt lat="42.50664192491858" lon="-8.16030645398788"><ele>587.0</ele><time>2026-04-18T16:30:10Z</time></trkpt><trkpt lat="42.50679447211618" lon="-8.160253653925183"><ele>587.0</ele><time>2026-04-18T16:30:11Z</time></trkpt><trkpt lat="42.50693883045163" lon="-8.160202659054377"><ele>587.0</ele><time>2026-04-18T16:30:12Z</time></trkpt><trkpt lat="42.507078056780784" lon="-8.16014567336605"><ele>587.0</ele><time>2026-04-18T16:30:13Z</time></trkpt><trkpt lat="42.50721299309032" lon="-8.160092686595492"><ele>587.0</ele><time>2026-04-18T16:30:14Z</time></trkpt><trkpt lat="42.50733848466661" lon="-8.160033022407351"><ele>586.0</ele><time>2026-04-18T16:30:15Z</time></trkpt><trkpt lat="42.50744403728519" lon="-8.159961900797894"><ele>585.0</ele><time>2026-04-18T16:30:16Z</time></trkpt><trkpt lat="42.50755653678936" lon="-8.159854470066115"><ele>584.0</ele><time>2026-04-18T16:30:17Z</time></trkpt><trkpt lat="42.50765719007653" lon="-8.159730083598761"><ele>583.0</ele><time>2026-04-18T16:30:18Z</time></trkpt><trkpt lat="42.5077396593129" lon="-8.159583556741016"><ele>583.0</ele><time>2026-04-18T16:30:19Z</time></trkpt><trkpt lat="42.50782670567151" lon="-8.159442539908532"><ele>583.0</ele><time>2026-04-18T16:30:20Z</time></trkpt><trkpt lat="42.507910894612415" lon="-8.159312090872453"><ele>583.0</ele><time>2026-04-18T16:30:21Z</time></trkpt><trkpt lat="42.50799615665524" lon="-8.159157638639373"><ele>583.0</ele><time>2026-04-18T16:30:22Z</time></trkpt><trkpt lat="42.50806364038203" lon="-8.159027562435112"><ele>583.0</ele><time>2026-04-18T16:30:23Z</time></trkpt><trkpt lat="42.508155320391936" lon="-8.158906699856784"><ele>583.0</ele><time>2026-04-18T16:30:24Z</time></trkpt><trkpt lat="42.50822924982176" lon="-8.158792108648724"><ele>583.0</ele><time>2026-04-18T16:30:25Z</time></trkpt><trkpt lat="42.50830100933544" lon="-8.158666009835674"><ele>583.0</ele><time>2026-04-18T16:30:26Z</time></trkpt><trkpt lat="42.50832670101978" lon="-8.158526662102819"><ele>583.0</ele><time>2026-04-18T16:30:27Z</time></trkpt><trkpt lat="42.50834602810736" lon="-8.158313617491551"><ele>583.0</ele><time>2026-04-18T16:30:28Z</time></trkpt><trkpt lat="42.508312832175875" lon="-8.158110339767235"><ele>583.0</ele><time>2026-04-18T16:30:29Z</time></trkpt><trkpt lat="42.5082696557768" lon="-8.1579345504693"><ele>583.0</ele><time>2026-04-18T16:30:30Z</time></trkpt><trkpt lat="42.50819822764923" lon="-8.157778315112758"><ele>583.75</ele><time>2026-04-18T16:30:31Z</time></trkpt><trkpt lat="42.5080801910308" lon="-8.157676469374708"><ele>584.5</ele><time>2026-04-18T16:30:32Z</time></trkpt><trkpt lat="42.507976834876764" lon="-8.157570555457045"><ele>585.25</ele><time>2026-04-18T16:30:33Z</time></trkpt><trkpt lat="42.50783815454226" lon="-8.157486509370653"><ele>586.0</ele><time>2026-04-18T16:30:34Z</time></trkpt><trkpt lat="42.507709969065715" lon="-8.157380835716834"><ele>586.25</ele><time>2026-04-18T16:30:35Z</time></trkpt><trkpt lat="42.507589680498924" lon="-8.15726854158026"><ele>586.5</ele><time>2026-04-18T16:30:36Z</time></trkpt><trkpt lat="42.50746819032561" lon="-8.157149314822938"><ele>586.75</ele><time>2026-04-18T16:30:37Z</time></trkpt><trkpt lat="42.50735086437706" lon="-8.157032350316344"><ele>587.0</ele><time>2026-04-18T16:30:38Z</time></trkpt><trkpt lat="42.507231783629216" lon="-8.15691304177158"><ele>587.0</ele><time>2026-04-18T16:30:39Z</time></trkpt><trkpt lat="42.5071069400655" lon="-8.156799874200487"><ele>587.0</ele><time>2026-04-18T16:30:40Z</time></trkpt><trkpt lat="42.50700118740987" lon="-8.156671908371841"><ele>587.0</ele><time>2026-04-18T16:30:41Z</time></trkpt><trkpt lat="42.50690257657625" lon="-8.156536829351346"><ele>587.0</ele><time>2026-04-18T16:30:42Z</time></trkpt><trkpt lat="42.506824211212944" lon="-8.156382359778073"><ele>587.0</ele><time>2026-04-18T16:30:43Z</time></trkpt><trkpt lat="42.5067748369669" lon="-8.156198590507566"><ele>587.0</ele><time>2026-04-18T16:30:44Z</time></trkpt><trkpt lat="42.506738939143304" lon="-8.156005261193311"><ele>587.0</ele><time>2026-04-18T16:30:45Z</time></trkpt><trkpt lat="42.506713150093994" lon="-8.155809139865713"><ele>587.0</ele><time>2026-04-18T16:30:46Z</time></trkpt><trkpt lat="42.50669511144866" lon="-8.155608041446238"><ele>587.0</ele><time>2026-04-18T16:30:47Z</time></trkpt><trkpt lat="42.50669329040788" lon="-8.155402902243914"><ele>587.0</ele><time>2026-04-18T16:30:48Z</time></trkpt><trkpt lat="42.506732724452604" lon="-8.155208999280998"><ele>587.0</ele><time>2026-04-18T16:30:49Z</time></trkpt><trkpt lat="42.50678984521911" lon="-8.155025934929505"><ele>587.0</ele><time>2026-04-18T16:30:50Z</time></trkpt><trkpt lat="42.50685439775184" lon="-8.154860539734932"><ele>586.5</ele><time>2026-04-18T16:30:51Z</time></trkpt><trkpt lat="42.5069262725874" lon="-8.154720113846029"><ele>586.0</ele><time>2026-04-18T16:30:52Z</time></trkpt><trkpt lat="42.507023533139744" lon="-8.154615914502244"><ele>585.5</ele><time>2026-04-18T16:30:53Z</time></trkpt><trkpt lat="42.50714254394259" lon="-8.15454248018721"><ele>585.0</ele><time>2026-04-18T16:30:54Z</time></trkpt><trkpt lat="42.507273129772614" lon="-8.154496720009194"><ele>587.25</ele><time>2026-04-18T16:30:55Z</time></trkpt><trkpt lat="42.507398638733235" lon="-8.154468205983662"><ele>589.5</ele><time>2026-04-18T16:30:56Z</time></trkpt><trkpt lat="42.50753944742327" lon="-8.154448342438629"><ele>591.75</ele><time>2026-04-18T16:30:57Z</time></trkpt><trkpt lat="42.507677678263256" lon="-8.154476417535895"><ele>594.0</ele><time>2026-04-18T16:30:58Z</time></trkpt><trkpt lat="42.50780660476966" lon="-8.154528184836746"><ele>595.0</ele><time>2026-04-18T16:30:59Z</time></trkpt><trkpt lat="42.507940182292124" lon="-8.154607795586038"><ele>596.0</ele><time>2026-04-18T16:31:00Z</time></trkpt><trkpt lat="42.508067310250084" lon="-8.154649969413526"><ele>597.0</ele><time>2026-04-18T16:31:01Z</time></trkpt><trkpt lat="42.508207607180275" lon="-8.15470149373924"><ele>598.0</ele><time>2026-04-18T16:31:02Z</time></trkpt><trkpt lat="42.5083421069609" lon="-8.154766431393039"><ele>598.0</ele><time>2026-04-18T16:31:03Z</time></trkpt><trkpt lat="42.508493084646" lon="-8.154817268035874"><ele>598.0</ele><time>2026-04-18T16:31:04Z</time></trkpt><trkpt lat="42.508627632881435" lon="-8.154874885582409"><ele>598.0</ele><time>2026-04-18T16:31:05Z</time></trkpt><trkpt lat="42.50875894180297" lon="-8.154927025793345"><ele>598.0</ele><time>2026-04-18T16:31:06Z</time></trkpt><trkpt lat="42.50887789472982" lon="-8.154942114902623"><ele>599.25</ele><time>2026-04-18T16:31:07Z</time></trkpt><trkpt lat="42.508999968555855" lon="-8.154915753642923"><ele>600.5</ele><time>2026-04-18T16:31:08Z</time></trkpt><trkpt lat="42.50912259792294" lon="-8.15483914531851"><ele>601.75</ele><time>2026-04-18T16:31:09Z</time></trkpt><trkpt lat="42.509224794789326" lon="-8.154721400948421"><ele>603.0</ele><time>2026-04-18T16:31:10Z</time></trkpt><trkpt lat="42.50931651311475" lon="-8.15457182467735"><ele>603.0</ele><time>2026-04-18T16:31:11Z</time></trkpt><trkpt lat="42.5094123152139" lon="-8.154415486002375"><ele>603.0</ele><time>2026-04-18T16:31:12Z</time></trkpt><trkpt lat="42.50951398871873" lon="-8.154280780917132"><ele>603.0</ele><time>2026-04-18T16:31:13Z</time></trkpt><trkpt lat="42.50961184560659" lon="-8.15412949693103"><ele>603.0</ele><time>2026-04-18T16:31:14Z</time></trkpt><trkpt lat="42.50971350103696" lon="-8.15397246365629"><ele>603.0</ele><time>2026-04-18T16:31:15Z</time></trkpt><trkpt lat="42.509818372387315" lon="-8.153802830718783"><ele>603.0</ele><time>2026-04-18T16:31:16Z</time></trkpt><trkpt lat="42.50990629846546" lon="-8.153635052656469"><ele>603.0</ele><time>2026-04-18T16:31:17Z</time></trkpt><trkpt lat="42.509999435519774" lon="-8.153502749163106"><ele>603.0</ele><time>2026-04-18T16:31:18Z</time></trkpt><trkpt lat="42.51006318032372" lon="-8.153361981489367"><ele>603.0</ele><time>2026-04-18T16:31:19Z</time></trkpt><trkpt lat="42.51013648775153" lon="-8.153240009642234"><ele>603.0</ele><time>2026-04-18T16:31:20Z</time></trkpt><trkpt lat="42.51020924576138" lon="-8.153128402706125"><ele>603.0</ele><time>2026-04-18T16:31:21Z</time></trkpt><trkpt lat="42.510300338817615" lon="-8.153031526395887"><ele>601.0</ele><time>2026-04-18T16:31:22Z</time></trkpt><trkpt lat="42.51042978420084" lon="-8.15299757446834"><ele>599.0</ele><time>2026-04-18T16:31:23Z</time></trkpt><trkpt lat="42.510559310577854" lon="-8.15295846803847"><ele>597.0</ele><time>2026-04-18T16:31:24Z</time></trkpt><trkpt lat="42.51072184705541" lon="-8.152921663094817"><ele>595.0</ele><time>2026-04-18T16:31:25Z</time></trkpt><trkpt lat="42.510883285955025" lon="-8.15287871447038"><ele>595.0</ele><time>2026-04-18T16:31:26Z</time></trkpt><trkpt lat="42.51105640660316" lon="-8.152837461651295"><ele>595.0</ele><time>2026-04-18T16:31:27Z</time></trkpt><trkpt lat="42.51121963692815" lon="-8.15278010540276"><ele>595.0</ele><time>2026-04-18T16:31:28Z</time></trkpt><trkpt lat="42.51137655108044" lon="-8.152718256914163"><ele>594.0</ele><time>2026-04-18T16:31:29Z</time></trkpt><trkpt lat="42.51154047074891" lon="-8.152667804994806"><ele>593.0</ele><time>2026-04-18T16:31:30Z</time></trkpt><trkpt lat="42.51169486187433" lon="-8.152620907215569"><ele>592.0</ele><time>2026-04-18T16:31:31Z</time></trkpt><trkpt lat="42.51183959941099" lon="-8.152583933759452"><ele>592.0</ele><time>2026-04-18T16:31:32Z</time></trkpt><trkpt lat="42.51198993211568" lon="-8.152535301257778"><ele>592.0</ele><time>2026-04-18T16:31:33Z</time></trkpt><trkpt lat="42.512131144772226" lon="-8.152487869054912"><ele>592.0</ele><time>2026-04-18T16:31:34Z</time></trkpt><trkpt lat="42.51226016857269" lon="-8.152439676031024"><ele>592.0</ele><time>2026-04-18T16:31:35Z</time></trkpt><trkpt lat="42.51237599882524" lon="-8.15239649041243"><ele>591.4</ele><time>2026-04-18T16:31:36Z</time></trkpt><trkpt lat="42.51247351323346" lon="-8.152377133483574"><ele>590.8000000000001</ele><time>2026-04-18T16:31:37Z</time></trkpt><trkpt lat="42.51257260975576" lon="-8.152392339503177"><ele>590.2</ele><time>2026-04-18T16:31:38Z</time></trkpt><trkpt lat="42.5126838745281" lon="-8.152439087402165"><ele>589.6</ele><time>2026-04-18T16:31:39Z</time></trkpt><trkpt lat="42.51279006490485" lon="-8.152537001681223"><ele>589.0</ele><time>2026-04-18T16:31:40Z</time></trkpt><trkpt lat="42.512892865122495" lon="-8.152637968739857"><ele>588.75</ele><time>2026-04-18T16:31:41Z</time></trkpt><trkpt lat="42.51299920404725" lon="-8.152738291845234"><ele>588.5</ele><time>2026-04-18T16:31:42Z</time></trkpt><trkpt lat="42.51310813124606" lon="-8.152827497033613"><ele>588.25</ele><time>2026-04-18T16:31:43Z</time></trkpt><trkpt lat="42.513196286061" lon="-8.1528837471816"><ele>588.0</ele><time>2026-04-18T16:31:44Z</time></trkpt><trkpt lat="42.51329258888596" lon="-8.15288979486844"><ele>588.0</ele><time>2026-04-18T16:31:45Z</time></trkpt><trkpt lat="42.51338822611581" lon="-8.152835198155566"><ele>588.0</ele><time>2026-04-18T16:31:46Z</time></trkpt><trkpt lat="42.51346045319749" lon="-8.152691863869936"><ele>588.0</ele><time>2026-04-18T16:31:47Z</time></trkpt><trkpt lat="42.51351969802847" lon="-8.15254887782895"><ele>588.0</ele><time>2026-04-18T16:31:48Z</time></trkpt><trkpt lat="42.51357365498734" lon="-8.152416645077352"><ele>588.0</ele><time>2026-04-18T16:31:49Z</time></trkpt><trkpt lat="42.513640030701914" lon="-8.15228264683867"><ele>588.0</ele><time>2026-04-18T16:31:50Z</time></trkpt><trkpt lat="42.513708911452255" lon="-8.152148070031707"><ele>588.0</ele><time>2026-04-18T16:31:51Z</time></trkpt><trkpt lat="42.51377428890229" lon="-8.152008787580943"><ele>588.0</ele><time>2026-04-18T16:31:52Z</time></trkpt><trkpt lat="42.51384569357837" lon="-8.151869295305323"><ele>589.0</ele><time>2026-04-18T16:31:53Z</time></trkpt><trkpt lat="42.51391396376409" lon="-8.151739577752496"><ele>590.0</ele><time>2026-04-18T16:31:54Z</time></trkpt><trkpt lat="42.51395057746016" lon="-8.151596045077541"><ele>591.0</ele><time>2026-04-18T16:31:55Z</time></trkpt><trkpt lat="42.51398945094529" lon="-8.15143429741185"><ele>592.0</ele><time>2026-04-18T16:31:56Z</time></trkpt><trkpt lat="42.513976303224325" lon="-8.151250017018663"><ele>592.0</ele><time>2026-04-18T16:31:57Z</time></trkpt><trkpt lat="42.513959025103254" lon="-8.151055188763129"><ele>592.0</ele><time>2026-04-18T16:31:58Z</time></trkpt><trkpt lat="42.513943984979065" lon="-8.150851795666252"><ele>592.0</ele><time>2026-04-18T16:31:59Z</time></trkpt><trkpt lat="42.51390734108268" lon="-8.150644185282042"><ele>591.6666666666667</ele><time>2026-04-18T16:32:00Z</time></trkpt><trkpt lat="42.513874827088564" lon="-8.15043410192156"><ele>591.3333333333334</ele><time>2026-04-18T16:32:01Z</time></trkpt><trkpt lat="42.51384734320729" lon="-8.150210805345875"><ele>591.0</ele><time>2026-04-18T16:32:02Z</time></trkpt><trkpt lat="42.51382388235972" lon="-8.149993402206881"><ele>590.3333333333334</ele><time>2026-04-18T16:32:03Z</time></trkpt><trkpt lat="42.51379727147294" lon="-8.149766066359096"><ele>589.6666666666667</ele><time>2026-04-18T16:32:04Z</time></trkpt><trkpt lat="42.51378365167373" lon="-8.149556731250046"><ele>589.0</ele><time>2026-04-18T16:32:05Z</time></trkpt><trkpt lat="42.5137799620823" lon="-8.149356092350901"><ele>589.0</ele><time>2026-04-18T16:32:06Z</time></trkpt><trkpt lat="42.513783625954154" lon="-8.149145385502587"><ele>589.0</ele><time>2026-04-18T16:32:07Z</time></trkpt><trkpt lat="42.51379256142341" lon="-8.148941224408512"><ele>589.0</ele><time>2026-04-18T16:32:08Z</time></trkpt><trkpt lat="42.51380081592808" lon="-8.148751668156095"><ele>589.0</ele><time>2026-04-18T16:32:09Z</time></trkpt><trkpt lat="42.513767242492" lon="-8.148576436041692"><ele>587.5</ele><time>2026-04-18T16:32:10Z</time></trkpt><trkpt lat="42.5137148885685" lon="-8.148413430756236"><ele>586.0</ele><time>2026-04-18T16:32:11Z</time></trkpt><trkpt lat="42.51362699851355" lon="-8.148282305071097"><ele>584.5</ele><time>2026-04-18T16:32:12Z</time></trkpt><trkpt lat="42.513506825055536" lon="-8.148201450896275"><ele>583.0</ele><time>2026-04-18T16:32:13Z</time></trkpt><trkpt lat="42.51337381827318" lon="-8.148102681456656"><ele>583.0</ele><time>2026-04-18T16:32:14Z</time></trkpt><trkpt lat="42.51324360575421" lon="-8.147981234379804"><ele>583.0</ele><time>2026-04-18T16:32:15Z</time></trkpt><trkpt lat="42.51310890296823" lon="-8.14788652808256"><ele>583.0</ele><time>2026-04-18T16:32:16Z</time></trkpt><trkpt lat="42.51298962450943" lon="-8.147781897697529"><ele>581.75</ele><time>2026-04-18T16:32:17Z</time></trkpt><trkpt lat="42.51288183925441" lon="-8.147662475901754"><ele>580.5</ele><time>2026-04-18T16:32:18Z</time></trkpt><trkpt lat="42.51277989500172" lon="-8.14753463877012"><ele>579.25</ele><time>2026-04-18T16:32:19Z</time></trkpt><trkpt lat="42.51269546759994" lon="-8.147397830272402"><ele>578.0</ele><time>2026-04-18T16:32:20Z</time></trkpt><trkpt lat="42.51262261469733" lon="-8.147252545038194"><ele>578.0</ele><time>2026-04-18T16:32:21Z</time></trkpt><trkpt lat="42.51256870739116" lon="-8.147086165135278"><ele>578.0</ele><time>2026-04-18T16:32:22Z</time></trkpt><trkpt lat="42.512525363568145" lon="-8.146913878993969"><ele>578.0</ele><time>2026-04-18T16:32:23Z</time></trkpt><trkpt lat="42.51249340721508" lon="-8.146733355666875"><ele>578.0</ele><time>2026-04-18T16:32:24Z</time></trkpt><trkpt lat="42.51247331018508" lon="-8.146568262861942"><ele>578.0</ele><time>2026-04-18T16:32:25Z</time></trkpt><trkpt lat="42.51243084969123" lon="-8.146409765859385"><ele>578.0</ele><time>2026-04-18T16:32:26Z</time></trkpt><trkpt lat="42.51240068748663" lon="-8.146248133529399"><ele>578.0</ele><time>2026-04-18T16:32:27Z</time></trkpt><trkpt lat="42.5123489750139" lon="-8.146101581770681"><ele>578.0</ele><time>2026-04-18T16:32:28Z</time></trkpt><trkpt lat="42.51229844570011" lon="-8.145963881385791"><ele>578.0</ele><time>2026-04-18T16:32:29Z</time></trkpt><trkpt lat="42.512230082442365" lon="-8.145832357531843"><ele>578.0</ele><time>2026-04-18T16:32:30Z</time></trkpt><trkpt lat="42.512113231493665" lon="-8.145761245106963"><ele>578.0</ele><time>2026-04-18T16:32:31Z</time></trkpt><trkpt lat="42.51198184517956" lon="-8.145725266698062"><ele>578.0</ele><time>2026-04-18T16:32:32Z</time></trkpt><trkpt lat="42.51184189182997" lon="-8.145684263113539"><ele>578.5</ele><time>2026-04-18T16:32:33Z</time></trkpt><trkpt lat="42.51169896192852" lon="-8.145640413997828"><ele>579.0</ele><time>2026-04-18T16:32:34Z</time></trkpt><trkpt lat="42.511581646543576" lon="-8.145565325135328"><ele>579.5</ele><time>2026-04-18T16:32:35Z</time></trkpt><trkpt lat="42.511475487514524" lon="-8.145501057709971"><ele>580.0</ele><time>2026-04-18T16:32:36Z</time></trkpt><trkpt lat="42.51138341740296" lon="-8.145405758892911"><ele>580.0</ele><time>2026-04-18T16:32:37Z</time></trkpt><trkpt lat="42.51129874321042" lon="-8.145268248167696"><ele>580.0</ele><time>2026-04-18T16:32:38Z</time></trkpt><trkpt lat="42.51124530627952" lon="-8.145112272683814"><ele>580.0</ele><time>2026-04-18T16:32:39Z</time></trkpt><trkpt lat="42.511205270751226" lon="-8.14493529655387"><ele>580.0</ele><time>2026-04-18T16:32:40Z</time></trkpt><trkpt lat="42.511180319869865" lon="-8.144761022287557"><ele>580.25</ele><time>2026-04-18T16:32:41Z</time></trkpt><trkpt lat="42.511174995120655" lon="-8.144601308767552"><ele>580.5</ele><time>2026-04-18T16:32:42Z</time></trkpt><trkpt lat="42.51119248162507" lon="-8.144443983461898"><ele>580.75</ele><time>2026-04-18T16:32:43Z</time></trkpt><trkpt lat="42.511242037850884" lon="-8.144294698454443"><ele>581.0</ele><time>2026-04-18T16:32:44Z</time></trkpt><trkpt lat="42.51132177647213" lon="-8.144144317405063"><ele>579.75</ele><time>2026-04-18T16:32:45Z</time></trkpt><trkpt lat="42.5114150727756" lon="-8.14398807505559"><ele>578.5</ele><time>2026-04-18T16:32:46Z</time></trkpt><trkpt lat="42.51150606007785" lon="-8.143850548540462"><ele>577.25</ele><time>2026-04-18T16:32:47Z</time></trkpt><trkpt lat="42.511609056459356" lon="-8.14368001960602"><ele>576.0</ele><time>2026-04-18T16:32:48Z</time></trkpt><trkpt lat="42.511700949651406" lon="-8.143519934457137"><ele>576.0</ele><time>2026-04-18T16:32:49Z</time></trkpt><trkpt lat="42.511778813461916" lon="-8.143357075589657"><ele>576.0</ele><time>2026-04-18T16:32:50Z</time></trkpt><trkpt lat="42.511844583626925" lon="-8.143179023820696"><ele>576.0</ele><time>2026-04-18T16:32:51Z</time></trkpt><trkpt lat="42.51188542629938" lon="-8.142995519199586"><ele>576.0</ele><time>2026-04-18T16:32:52Z</time></trkpt><trkpt lat="42.51185239412955" lon="-8.142830876094896"><ele>575.75</ele><time>2026-04-18T16:32:53Z</time></trkpt><trkpt lat="42.51180256220457" lon="-8.142687703741785"><ele>575.5</ele><time>2026-04-18T16:32:54Z</time></trkpt><trkpt lat="42.51172800188971" lon="-8.14254017942333"><ele>575.25</ele><time>2026-04-18T16:32:55Z</time></trkpt><trkpt lat="42.51164878544619" lon="-8.14236809113862"><ele>575.0</ele><time>2026-04-18T16:32:56Z</time></trkpt><trkpt lat="42.51157007038202" lon="-8.142193266617413"><ele>575.0</ele><time>2026-04-18T16:32:57Z</time></trkpt><trkpt lat="42.51148512885671" lon="-8.14200617026758"><ele>575.0</ele><time>2026-04-18T16:32:58Z</time></trkpt><trkpt lat="42.51139815802315" lon="-8.141816613406842"><ele>575.0</ele><time>2026-04-18T16:32:59Z</time></trkpt><trkpt lat="42.51130940250494" lon="-8.141621769639547"><ele>575.6666666666666</ele><time>2026-04-18T16:33:00Z</time></trkpt><trkpt lat="42.5112173861686" lon="-8.141417770699652"><ele>576.3333333333334</ele><time>2026-04-18T16:33:01Z</time></trkpt><trkpt lat="42.51113099414818" lon="-8.141212641611205"><ele>577.0</ele><time>2026-04-18T16:33:02Z</time></trkpt><trkpt lat="42.511061729552615" lon="-8.14100757329265"><ele>577.0</ele><time>2026-04-18T16:33:03Z</time></trkpt><trkpt lat="42.510963213177476" lon="-8.140790477401605"><ele>577.0</ele><time>2026-04-18T16:33:04Z</time></trkpt><trkpt lat="42.51086774388709" lon="-8.140580782564498"><ele>577.0</ele><time>2026-04-18T16:33:05Z</time></trkpt><trkpt lat="42.51076281907092" lon="-8.140362481755158"><ele>576.6666666666667</ele><time>2026-04-18T16:33:06Z</time></trkpt><trkpt lat="42.51068632476323" lon="-8.140150038903435"><ele>576.3333333333334</ele><time>2026-04-18T16:33:07Z</time></trkpt><trkpt lat="42.51059653039125" lon="-8.139923075861951"><ele>576.0</ele><time>2026-04-18T16:33:08Z</time></trkpt><trkpt lat="42.51048722761364" lon="-8.13970035768231"><ele>576.6666666666666</ele><time>2026-04-18T16:33:09Z</time></trkpt><trkpt lat="42.51039133164433" lon="-8.139498757397766"><ele>577.3333333333333</ele><time>2026-04-18T16:33:10Z</time></trkpt><trkpt lat="42.510272235734966" lon="-8.139258542895645"><ele>578.0</ele><time>2026-04-18T16:33:11Z</time></trkpt><trkpt lat="42.510153230339526" lon="-8.139035755263565"><ele>576.6666666666666</ele><time>2026-04-18T16:33:12Z</time></trkpt><trkpt lat="42.5100203916178" lon="-8.138808109368224"><ele>575.3333333333334</ele><time>2026-04-18T16:33:13Z</time></trkpt><trkpt lat="42.50989850587462" lon="-8.138580614122905"><ele>574.0</ele><time>2026-04-18T16:33:14Z</time></trkpt><trkpt lat="42.509798505816995" lon="-8.138379288184359"><ele>571.3333333333334</ele><time>2026-04-18T16:33:15Z</time></trkpt><trkpt lat="42.50969623038724" lon="-8.138179954441986"><ele>568.6666666666666</ele><time>2026-04-18T16:33:16Z</time></trkpt><trkpt lat="42.50956131731021" lon="-8.137976175973263"><ele>566.0</ele><time>2026-04-18T16:33:17Z</time></trkpt><trkpt lat="42.50946281831898" lon="-8.137796084170896"><ele>565.6666666666666</ele><time>2026-04-18T16:33:18Z</time></trkpt><trkpt lat="42.50936068078131" lon="-8.137612296960423"><ele>565.3333333333334</ele><time>2026-04-18T16:33:19Z</time></trkpt><trkpt lat="42.50927483007689" lon="-8.137441641806204"><ele>565.0</ele><time>2026-04-18T16:33:20Z</time></trkpt><trkpt lat="42.50919615752003" lon="-8.1372837087123"><ele>564.5</ele><time>2026-04-18T16:33:21Z</time></trkpt><trkpt lat="42.509096432577245" lon="-8.13714927012936"><ele>564.0</ele><time>2026-04-18T16:33:22Z</time></trkpt><trkpt lat="42.50903589320678" lon="-8.137034461626763"><ele>563.5</ele><time>2026-04-18T16:33:23Z</time></trkpt><trkpt lat="42.508992646502215" lon="-8.136900542715404"><ele>563.0</ele><time>2026-04-18T16:33:24Z</time></trkpt><trkpt lat="42.50895640730457" lon="-8.136777109926072"><ele>563.0</ele><time>2026-04-18T16:33:25Z</time></trkpt><trkpt lat="42.50894260511065" lon="-8.136662300441085"><ele>563.0</ele><time>2026-04-18T16:33:26Z</time></trkpt><trkpt lat="42.50895287317705" lon="-8.136538506797368"><ele>563.0</ele><time>2026-04-18T16:33:27Z</time></trkpt><trkpt lat="42.50899486864739" lon="-8.136427097502281"><ele>563.0</ele><time>2026-04-18T16:33:28Z</time></trkpt><trkpt lat="42.50904229216232" lon="-8.136307317395252"><ele>563.0</ele><time>2026-04-18T16:33:29Z</time></trkpt><trkpt lat="42.509095524742136" lon="-8.136189850752325"><ele>563.0</ele><time>2026-04-18T16:33:30Z</time></trkpt><trkpt lat="42.50915039573872" lon="-8.136089095794077"><ele>563.0</ele><time>2026-04-18T16:33:31Z</time></trkpt><trkpt lat="42.50921746158309" lon="-8.136010410890789"><ele>563.0</ele><time>2026-04-18T16:33:32Z</time></trkpt><trkpt lat="42.5092975444102" lon="-8.135974697343137"><ele>563.0</ele><time>2026-04-18T16:33:33Z</time></trkpt><trkpt lat="42.50939450892758" lon="-8.135970139239692"><ele>563.0</ele><time>2026-04-18T16:33:34Z</time></trkpt><trkpt lat="42.5095248548536" lon="-8.135989675612176"><ele>562.25</ele><time>2026-04-18T16:33:35Z</time></trkpt><trkpt lat="42.50964593974095" lon="-8.13602545843926"><ele>561.5</ele><time>2026-04-18T16:33:36Z</time></trkpt><trkpt lat="42.50976617805968" lon="-8.136062265558738"><ele>560.75</ele><time>2026-04-18T16:33:37Z</time></trkpt><trkpt lat="42.50988312776972" lon="-8.1360852531528"><ele>560.0</ele><time>2026-04-18T16:33:38Z</time></trkpt><trkpt lat="42.51000487609286" lon="-8.136101055868586"><ele>560.0</ele><time>2026-04-18T16:33:39Z</time></trkpt><trkpt lat="42.51011898895907" lon="-8.136085313477972"><ele>560.0</ele><time>2026-04-18T16:33:40Z</time></trkpt><trkpt lat="42.5102372793392" lon="-8.136076353959515"><ele>560.0</ele><time>2026-04-18T16:33:41Z</time></trkpt><trkpt lat="42.51035926596804" lon="-8.136043595370245"><ele>560.0</ele><time>2026-04-18T16:33:42Z</time></trkpt><trkpt lat="42.51048129222446" lon="-8.135982284946747"><ele>558.5</ele><time>2026-04-18T16:33:43Z</time></trkpt><trkpt lat="42.510615668184" lon="-8.135898397453321"><ele>557.0</ele><time>2026-04-18T16:33:44Z</time></trkpt><trkpt lat="42.510752479084424" lon="-8.13582226519578"><ele>555.5</ele><time>2026-04-18T16:33:45Z</time></trkpt><trkpt lat="42.51086413777808" lon="-8.135716177800356"><ele>554.0</ele><time>2026-04-18T16:33:46Z</time></trkpt><trkpt lat="42.51097737463573" lon="-8.135628699536515"><ele>554.0</ele><time>2026-04-18T16:33:47Z</time></trkpt><trkpt lat="42.51107811991709" lon="-8.13554152225866"><ele>554.0</ele><time>2026-04-18T16:33:48Z</time></trkpt><trkpt lat="42.511166321135754" lon="-8.135446331229238"><ele>554.0</ele><time>2026-04-18T16:33:49Z</time></trkpt><trkpt lat="42.51125535326873" lon="-8.13531648958958"><ele>554.0</ele><time>2026-04-18T16:33:50Z</time></trkpt><trkpt lat="42.51134237382746" lon="-8.135144849714743"><ele>551.0</ele><time>2026-04-18T16:33:51Z</time></trkpt><trkpt lat="42.51143513384321" lon="-8.13497150849143"><ele>548.0</ele><time>2026-04-18T16:33:52Z</time></trkpt><trkpt lat="42.51151552158435" lon="-8.134781823077915"><ele>545.0</ele><time>2026-04-18T16:33:53Z</time></trkpt><trkpt lat="42.51159677559401" lon="-8.134611491391139"><ele>545.0</ele><time>2026-04-18T16:33:54Z</time></trkpt><trkpt lat="42.51166589222419" lon="-8.134457299349199"><ele>545.0</ele><time>2026-04-18T16:33:55Z</time></trkpt><trkpt lat="42.51173400682027" lon="-8.134323241895762"><ele>545.0</ele><time>2026-04-18T16:33:56Z</time></trkpt><trkpt lat="42.51181337529178" lon="-8.134225384419336"><ele>545.0</ele><time>2026-04-18T16:33:57Z</time></trkpt><trkpt lat="42.51191343299444" lon="-8.134159885435473"><ele>545.0</ele><time>2026-04-18T16:33:58Z</time></trkpt><trkpt lat="42.51203157887499" lon="-8.134127771195484"><ele>545.0</ele><time>2026-04-18T16:33:59Z</time></trkpt><trkpt lat="42.512147828033505" lon="-8.134127266709383"><ele>545.0</ele><time>2026-04-18T16:34:00Z</time></trkpt><trkpt lat="42.5122659033319" lon="-8.134094517476735"><ele>545.0</ele><time>2026-04-18T16:34:01Z</time></trkpt><trkpt lat="42.51239649234331" lon="-8.13410683133512"><ele>545.25</ele><time>2026-04-18T16:34:02Z</time></trkpt><trkpt lat="42.51252687502861" lon="-8.134092917097432"><ele>545.5</ele><time>2026-04-18T16:34:03Z</time></trkpt><trkpt lat="42.51266724092867" lon="-8.134079887584246"><ele>545.75</ele><time>2026-04-18T16:34:04Z</time></trkpt><trkpt lat="42.51280031836885" lon="-8.134067219539649"><ele>546.0</ele><time>2026-04-18T16:34:05Z</time></trkpt><trkpt lat="42.512933109800834" lon="-8.134053558232978"><ele>546.0</ele><time>2026-04-18T16:34:06Z</time></trkpt><trkpt lat="42.51308860058073" lon="-8.134034327754195"><ele>546.0</ele><time>2026-04-18T16:34:07Z</time></trkpt><trkpt lat="42.51323219024278" lon="-8.134026796623692"><ele>546.0</ele><time>2026-04-18T16:34:08Z</time></trkpt><trkpt lat="42.51337416057027" lon="-8.13402714596264"><ele>546.0</ele><time>2026-04-18T16:34:09Z</time></trkpt><trkpt lat="42.513516476184954" lon="-8.13402106031369"><ele>546.0</ele><time>2026-04-18T16:34:10Z</time></trkpt><trkpt lat="42.51365988542026" lon="-8.13400686683163"><ele>546.0</ele><time>2026-04-18T16:34:11Z</time></trkpt><trkpt lat="42.51380021263739" lon="-8.133957983517066"><ele>546.0</ele><time>2026-04-18T16:34:12Z</time></trkpt><trkpt lat="42.51394183889552" lon="-8.133845629426137"><ele>547.3333333333334</ele><time>2026-04-18T16:34:13Z</time></trkpt><trkpt lat="42.51406811960238" lon="-8.133743200977852"><ele>548.6666666666667</ele><time>2026-04-18T16:34:14Z</time></trkpt><trkpt lat="42.51418455701761" lon="-8.133619278483934"><ele>550.0</ele><time>2026-04-18T16:34:15Z</time></trkpt><trkpt lat="42.514316108119516" lon="-8.133501013286503"><ele>550.0</ele><time>2026-04-18T16:34:16Z</time></trkpt><trkpt lat="42.514437490575425" lon="-8.133404737290734"><ele>550.0</ele><time>2026-04-18T16:34:17Z</time></trkpt><trkpt lat="42.514552607911845" lon="-8.13332253321438"><ele>550.0</ele><time>2026-04-18T16:34:18Z</time></trkpt><trkpt lat="42.514685122011805" lon="-8.133275602290611"><ele>550.0</ele><time>2026-04-18T16:34:19Z</time></trkpt><trkpt lat="42.514830706727516" lon="-8.133243940683338"><ele>547.6666666666667</ele><time>2026-04-18T16:34:20Z</time></trkpt><trkpt lat="42.51498635358663" lon="-8.133220579633491"><ele>545.3333333333334</ele><time>2026-04-18T16:34:21Z</time></trkpt><trkpt lat="42.5151470344162" lon="-8.133212940450376"><ele>543.0</ele><time>2026-04-18T16:34:22Z</time></trkpt><trkpt lat="42.51530292237096" lon="-8.133189230005234"><ele>545.0</ele><time>2026-04-18T16:34:23Z</time></trkpt><trkpt lat="42.51544924549228" lon="-8.133169060697291"><ele>547.0</ele><time>2026-04-18T16:34:24Z</time></trkpt><trkpt lat="42.5155957702943" lon="-8.133146207764803"><ele>549.0</ele><time>2026-04-18T16:34:25Z</time></trkpt><trkpt lat="42.51573687153216" lon="-8.13312365822726"><ele>551.0</ele><time>2026-04-18T16:34:26Z</time></trkpt><trkpt lat="42.51585529470673" lon="-8.133105683339553"><ele>551.0</ele><time>2026-04-18T16:34:27Z</time></trkpt><trkpt lat="42.515960561607095" lon="-8.133070799786301"><ele>551.0</ele><time>2026-04-18T16:34:28Z</time></trkpt><trkpt lat="42.51604489268346" lon="-8.133017178497779"><ele>551.0</ele><time>2026-04-18T16:34:29Z</time></trkpt><trkpt lat="42.51611734495136" lon="-8.132940048640382"><ele>551.0</ele><time>2026-04-18T16:34:30Z</time></trkpt><trkpt lat="42.5161340595823" lon="-8.132824925132816"><ele>551.0</ele><time>2026-04-18T16:34:31Z</time></trkpt><trkpt lat="42.51614664139579" lon="-8.132712667112001"><ele>551.0</ele><time>2026-04-18T16:34:32Z</time></trkpt><trkpt lat="42.5160880722432" lon="-8.132591339731237"><ele>551.0</ele><time>2026-04-18T16:34:33Z</time></trkpt><trkpt lat="42.51596219397945" lon="-8.132567187202897"><ele>551.0</ele><time>2026-04-18T16:34:34Z</time></trkpt><trkpt lat="42.51585107950032" lon="-8.13250489119845"><ele>551.0</ele><time>2026-04-18T16:34:35Z</time></trkpt><trkpt lat="42.51573775736438" lon="-8.132481358525682"><ele>551.0</ele><time>2026-04-18T16:34:36Z</time></trkpt><trkpt lat="42.51562526685026" lon="-8.132434261850795"><ele>551.0</ele><time>2026-04-18T16:34:37Z</time></trkpt><trkpt lat="42.5155092961325" lon="-8.132376219831084"><ele>551.0</ele><time>2026-04-18T16:34:38Z</time></trkpt><trkpt lat="42.5154113834182" lon="-8.132297591227863"><ele>551.0</ele><time>2026-04-18T16:34:39Z</time></trkpt><trkpt lat="42.51533016672755" lon="-8.132177615286853"><ele>550.25</ele><time>2026-04-18T16:34:40Z</time></trkpt><trkpt lat="42.51527734369435" lon="-8.132011430552327"><ele>549.5</ele><time>2026-04-18T16:34:41Z</time></trkpt><trkpt lat="42.51525514416732" lon="-8.13184061572745"><ele>548.75</ele><time>2026-04-18T16:34:42Z</time></trkpt><trkpt lat="42.51522832318267" lon="-8.131661067918593"><ele>548.0</ele><time>2026-04-18T16:34:43Z</time></trkpt><trkpt lat="42.51520600948719" lon="-8.131474811071213"><ele>548.0</ele><time>2026-04-18T16:34:44Z</time></trkpt><trkpt lat="42.51519991165001" lon="-8.131288046361025"><ele>548.0</ele><time>2026-04-18T16:34:45Z</time></trkpt><trkpt lat="42.51521329343398" lon="-8.131108212970105"><ele>548.0</ele><time>2026-04-18T16:34:46Z</time></trkpt><trkpt lat="42.51523717433036" lon="-8.130916256095798"><ele>548.0</ele><time>2026-04-18T16:34:47Z</time></trkpt><trkpt lat="42.51525439252298" lon="-8.130730068680768"><ele>548.5</ele><time>2026-04-18T16:34:48Z</time></trkpt><trkpt lat="42.51526810782934" lon="-8.130538126066709"><ele>549.0</ele><time>2026-04-18T16:34:49Z</time></trkpt><trkpt lat="42.515286987991864" lon="-8.13034278933514"><ele>549.5</ele><time>2026-04-18T16:34:50Z</time></trkpt><trkpt lat="42.515307855833875" lon="-8.130149192581456"><ele>550.0</ele><time>2026-04-18T16:34:51Z</time></trkpt><trkpt lat="42.515330118428444" lon="-8.129946366077831"><ele>550.75</ele><time>2026-04-18T16:34:52Z</time></trkpt><trkpt lat="42.51534428511143" lon="-8.129749620387143"><ele>551.5</ele><time>2026-04-18T16:34:53Z</time></trkpt><trkpt lat="42.515353491295016" lon="-8.129560937676"><ele>552.25</ele><time>2026-04-18T16:34:54Z</time></trkpt><trkpt lat="42.51536692003369" lon="-8.129398485749732"><ele>553.0</ele><time>2026-04-18T16:34:55Z</time></trkpt><trkpt lat="42.51538188905251" lon="-8.129241140192521"><ele>553.0</ele><time>2026-04-18T16:34:56Z</time></trkpt><trkpt lat="42.51539208618431" lon="-8.129087932996281"><ele>553.0</ele><time>2026-04-18T16:34:57Z</time></trkpt><trkpt lat="42.515391813129625" lon="-8.1289205592803"><ele>553.0</ele><time>2026-04-18T16:34:58Z</time></trkpt><trkpt lat="42.51543554559526" lon="-8.128751099118233"><ele>553.0</ele><time>2026-04-18T16:34:59Z</time></trkpt><trkpt lat="42.51549046609852" lon="-8.128573128985298"><ele>552.25</ele><time>2026-04-18T16:35:00Z</time></trkpt><trkpt lat="42.51555068268047" lon="-8.128397573516695"><ele>551.5</ele><time>2026-04-18T16:35:01Z</time></trkpt><trkpt lat="42.51561077286954" lon="-8.128240994387818"><ele>550.75</ele><time>2026-04-18T16:35:02Z</time></trkpt><trkpt lat="42.51567172494376" lon="-8.128089391836804"><ele>550.0</ele><time>2026-04-18T16:35:03Z</time></trkpt><trkpt lat="42.51576150922744" lon="-8.127960161371291"><ele>550.0</ele><time>2026-04-18T16:35:04Z</time></trkpt><trkpt lat="42.51586175424766" lon="-8.127831461338166"><ele>550.0</ele><time>2026-04-18T16:35:05Z</time></trkpt><trkpt lat="42.51596657874429" lon="-8.127711288443413"><ele>550.0</ele><time>2026-04-18T16:35:06Z</time></trkpt><trkpt lat="42.516068161496825" lon="-8.12759971161595"><ele>550.0</ele><time>2026-04-18T16:35:07Z</time></trkpt><trkpt lat="42.516151134346416" lon="-8.127467270812927"><ele>550.75</ele><time>2026-04-18T16:35:08Z</time></trkpt><trkpt lat="42.51619924480722" lon="-8.127309868275832"><ele>551.5</ele><time>2026-04-18T16:35:09Z</time></trkpt><trkpt lat="42.51626062763933" lon="-8.127152932152578"><ele>552.25</ele><time>2026-04-18T16:35:10Z</time></trkpt><trkpt lat="42.516293643764506" lon="-8.127006167207304"><ele>553.0</ele><time>2026-04-18T16:35:11Z</time></trkpt><trkpt lat="42.516306640002895" lon="-8.126874090551459"><ele>553.0</ele><time>2026-04-18T16:35:12Z</time></trkpt><trkpt lat="42.51633683258814" lon="-8.126762151852981"><ele>553.0</ele><time>2026-04-18T16:35:13Z</time></trkpt><trkpt lat="42.51630739803012" lon="-8.126621565269346"><ele>553.0</ele><time>2026-04-18T16:35:14Z</time></trkpt><trkpt lat="42.516294290649434" lon="-8.126485543017845"><ele>553.0</ele><time>2026-04-18T16:35:15Z</time></trkpt><trkpt lat="42.516250920956836" lon="-8.126367618816507"><ele>553.0</ele><time>2026-04-18T16:35:16Z</time></trkpt><trkpt lat="42.51621638672305" lon="-8.126234902340041"><ele>550.1999999999999</ele><time>2026-04-18T16:35:17Z</time></trkpt><trkpt lat="42.516156664558515" lon="-8.126114216809247"><ele>547.4</ele><time>2026-04-18T16:35:18Z</time></trkpt><trkpt lat="42.516070152695065" lon="-8.126027308246456"><ele>544.5999999999999</ele><time>2026-04-18T16:35:19Z</time></trkpt><trkpt lat="42.51600401767984" lon="-8.12591187811801"><ele>541.8</ele><time>2026-04-18T16:35:20Z</time></trkpt><trkpt lat="42.51593132057473" lon="-8.12581584156282"><ele>539.0</ele><time>2026-04-18T16:35:21Z</time></trkpt><trkpt lat="42.51586345246238" lon="-8.12571006135558"><ele>539.0</ele><time>2026-04-18T16:35:22Z</time></trkpt><trkpt lat="42.51578830623782" lon="-8.125609193810673"><ele>539.0</ele><time>2026-04-18T16:35:23Z</time></trkpt><trkpt lat="42.5157214875043" lon="-8.125501905642187"><ele>539.0</ele><time>2026-04-18T16:35:24Z</time></trkpt><trkpt lat="42.51566614339304" lon="-8.125399142552833"><ele>539.0</ele><time>2026-04-18T16:35:25Z</time></trkpt><trkpt lat="42.5156276034407" lon="-8.125282715337093"><ele>539.0</ele><time>2026-04-18T16:35:26Z</time></trkpt><trkpt lat="42.515581267351116" lon="-8.125167236763216"><ele>539.0</ele><time>2026-04-18T16:35:27Z</time></trkpt><trkpt lat="42.51558599868091" lon="-8.125051821935738"><ele>539.0</ele><time>2026-04-18T16:35:28Z</time></trkpt><trkpt lat="42.515581490134096" lon="-8.124919617498486"><ele>539.0</ele><time>2026-04-18T16:35:29Z</time></trkpt><trkpt lat="42.51558919861708" lon="-8.124819710059493"><ele>539.0</ele><time>2026-04-18T16:35:30Z</time></trkpt><trkpt lat="42.51561992161757" lon="-8.124713911353211"><ele>539.0</ele><time>2026-04-18T16:35:31Z</time></trkpt><trkpt lat="42.515651112528474" lon="-8.124595157096058"><ele>539.0</ele><time>2026-04-18T16:35:32Z</time></trkpt><trkpt lat="42.51567794427193" lon="-8.124474738482744"><ele>539.2</ele><time>2026-04-18T16:35:33Z</time></trkpt><trkpt lat="42.51571298163098" lon="-8.124351940626276"><ele>539.4</ele><time>2026-04-18T16:35:34Z</time></trkpt><trkpt lat="42.51569675282326" lon="-8.124204952426659"><ele>539.6</ele><time>2026-04-18T16:35:35Z</time></trkpt><trkpt lat="42.51566456045863" lon="-8.124080124761722"><ele>539.8</ele><time>2026-04-18T16:35:36Z</time></trkpt><trkpt lat="42.515655337874925" lon="-8.123960354796585"><ele>540.0</ele><time>2026-04-18T16:35:37Z</time></trkpt><trkpt lat="42.51562494803739" lon="-8.123843953554058"><ele>539.1666666666666</ele><time>2026-04-18T16:35:38Z</time></trkpt><trkpt lat="42.51560865338733" lon="-8.123733154242291"><ele>538.3333333333334</ele><time>2026-04-18T16:35:39Z</time></trkpt><trkpt lat="42.51559274584772" lon="-8.12361438541632"><ele>537.5</ele><time>2026-04-18T16:35:40Z</time></trkpt><trkpt lat="42.51558884818772" lon="-8.12350587432304"><ele>536.6666666666667</ele><time>2026-04-18T16:35:41Z</time></trkpt><trkpt lat="42.515592586126424" lon="-8.12339677188828"><ele>535.8333333333334</ele><time>2026-04-18T16:35:42Z</time></trkpt><trkpt lat="42.51561757398102" lon="-8.123279505085117"><ele>535.0</ele><time>2026-04-18T16:35:43Z</time></trkpt><trkpt lat="42.515673187486996" lon="-8.123176543604071"><ele>533.6666666666667</ele><time>2026-04-18T16:35:44Z</time></trkpt><trkpt lat="42.51572161099642" lon="-8.123095294060409"><ele>532.3333333333334</ele><time>2026-04-18T16:35:45Z</time></trkpt><trkpt lat="42.51579816802867" lon="-8.123026287426727"><ele>531.0</ele><time>2026-04-18T16:35:46Z</time></trkpt><trkpt lat="42.515878871317916" lon="-8.122954529966632"><ele>529.6666666666666</ele><time>2026-04-18T16:35:47Z</time></trkpt><trkpt lat="42.515952792598945" lon="-8.122894932837802"><ele>528.3333333333333</ele><time>2026-04-18T16:35:48Z</time></trkpt><trkpt lat="42.51602512812752" lon="-8.122832623817102"><ele>527.0</ele><time>2026-04-18T16:35:49Z</time></trkpt><trkpt lat="42.51608407797665" lon="-8.122789030602338"><ele>527.0</ele><time>2026-04-18T16:35:50Z</time></trkpt><trkpt lat="42.51613524257161" lon="-8.122718547086922"><ele>527.0</ele><time>2026-04-18T16:35:51Z</time></trkpt><trkpt lat="42.51616956738025" lon="-8.122633386658228"><ele>527.0</ele><time>2026-04-18T16:35:52Z</time></trkpt><trkpt lat="42.51616031609538" lon="-8.12254066223867"><ele>527.0</ele><time>2026-04-18T16:35:53Z</time></trkpt><trkpt lat="42.5161258342198" lon="-8.122434262565807"><ele>527.0</ele><time>2026-04-18T16:35:54Z</time></trkpt><trkpt lat="42.51608442373975" lon="-8.122328810885156"><ele>527.0</ele><time>2026-04-18T16:35:55Z</time></trkpt><trkpt lat="42.516031430336575" lon="-8.12222343829045"><ele>526.4</ele><time>2026-04-18T16:35:56Z</time></trkpt><trkpt lat="42.51597991000743" lon="-8.122115495954255"><ele>525.8000000000001</ele><time>2026-04-18T16:35:57Z</time></trkpt><trkpt lat="42.51593204774503" lon="-8.122016098971372"><ele>525.2</ele><time>2026-04-18T16:35:58Z</time></trkpt><trkpt lat="42.51588407565116" lon="-8.121919545356672"><ele>524.6</ele><time>2026-04-18T16:35:59Z</time></trkpt><trkpt lat="42.51583103081191" lon="-8.121819185134779"><ele>524.0</ele><time>2026-04-18T16:36:00Z</time></trkpt><trkpt lat="42.515772554895776" lon="-8.121724671271176"><ele>524.0</ele><time>2026-04-18T16:36:01Z</time></trkpt><trkpt lat="42.51570359743947" lon="-8.121632705754422"><ele>524.0</ele><time>2026-04-18T16:36:02Z</time></trkpt><trkpt lat="42.5156174973813" lon="-8.121547650027651"><ele>524.0</ele><time>2026-04-18T16:36:03Z</time></trkpt><trkpt lat="42.51550865337172" lon="-8.12148233271826"><ele>524.0</ele><time>2026-04-18T16:36:04Z</time></trkpt><trkpt lat="42.51538492256912" lon="-8.121410273077151"><ele>522.0</ele><time>2026-04-18T16:36:05Z</time></trkpt><trkpt lat="42.515265134792884" lon="-8.12135442418937"><ele>520.0</ele><time>2026-04-18T16:36:06Z</time></trkpt><trkpt lat="42.51515882295547" lon="-8.121310934017599"><ele>518.0</ele><time>2026-04-18T16:36:07Z</time></trkpt><trkpt lat="42.51504699192598" lon="-8.121267374117744"><ele>516.0</ele><time>2026-04-18T16:36:08Z</time></trkpt><trkpt lat="42.514933675123835" lon="-8.121223749095696"><ele>516.0</ele><time>2026-04-18T16:36:09Z</time></trkpt><trkpt lat="42.51482860826618" lon="-8.12117788835366"><ele>516.0</ele><time>2026-04-18T16:36:10Z</time></trkpt><trkpt lat="42.514722837492045" lon="-8.12112681712164"><ele>516.0</ele><time>2026-04-18T16:36:11Z</time></trkpt><trkpt lat="42.51462481968686" lon="-8.121082757543471"><ele>516.0</ele><time>2026-04-18T16:36:12Z</time></trkpt><trkpt lat="42.51452139372246" lon="-8.121034520616398"><ele>516.0</ele><time>2026-04-18T16:36:13Z</time></trkpt><trkpt lat="42.514424439468925" lon="-8.120997962952337"><ele>515.8</ele><time>2026-04-18T16:36:14Z</time></trkpt><trkpt lat="42.51432026860312" lon="-8.12096284684125"><ele>515.6</ele><time>2026-04-18T16:36:15Z</time></trkpt><trkpt lat="42.51421883549665" lon="-8.120925441079883"><ele>515.4</ele><time>2026-04-18T16:36:16Z</time></trkpt><trkpt lat="42.5141174001118" lon="-8.12089455509841"><ele>515.2</ele><time>2026-04-18T16:36:17Z</time></trkpt><trkpt lat="42.514014681172384" lon="-8.12087035324278"><ele>515.0</ele><time>2026-04-18T16:36:18Z</time></trkpt><trkpt lat="42.51391951379471" lon="-8.120844450540902"><ele>515.0</ele><time>2026-04-18T16:36:19Z</time></trkpt><trkpt lat="42.51382186836527" lon="-8.120828124469766"><ele>515.0</ele><time>2026-04-18T16:36:20Z</time></trkpt><trkpt lat="42.51373112762607" lon="-8.120790591869051"><ele>515.0</ele><time>2026-04-18T16:36:21Z</time></trkpt><trkpt lat="42.513645006485866" lon="-8.120760823012796"><ele>515.0</ele><time>2026-04-18T16:36:22Z</time></trkpt><trkpt lat="42.513558884692216" lon="-8.120732136410945"><ele>515.0</ele><time>2026-04-18T16:36:23Z</time></trkpt><trkpt lat="42.51346880833682" lon="-8.12071058019695"><ele>513.8</ele><time>2026-04-18T16:36:24Z</time></trkpt><trkpt lat="42.51337452969451" lon="-8.120680207341875"><ele>512.6</ele><time>2026-04-18T16:36:25Z</time></trkpt><trkpt lat="42.51329111354946" lon="-8.120654521777332"><ele>511.4</ele><time>2026-04-18T16:36:26Z</time></trkpt><trkpt lat="42.51320205943064" lon="-8.12061592496903"><ele>510.2</ele><time>2026-04-18T16:36:27Z</time></trkpt><trkpt lat="42.51311439258984" lon="-8.120580394821653"><ele>509.0</ele><time>2026-04-18T16:36:28Z</time></trkpt><trkpt lat="42.51303422972223" lon="-8.120544436322357"><ele>509.0</ele><time>2026-04-18T16:36:29Z</time></trkpt><trkpt lat="42.51295115428966" lon="-8.120484534295784"><ele>509.0</ele><time>2026-04-18T16:36:30Z</time></trkpt><trkpt lat="42.51287592257945" lon="-8.120399423803578"><ele>509.0</ele><time>2026-04-18T16:36:31Z</time></trkpt><trkpt lat="42.51281963110614" lon="-8.120304431019335"><ele>509.0</ele><time>2026-04-18T16:36:32Z</time></trkpt><trkpt lat="42.512780101313616" lon="-8.120191607287925"><ele>509.0</ele><time>2026-04-18T16:36:33Z</time></trkpt><trkpt lat="42.512757070137695" lon="-8.120035512353065"><ele>509.75</ele><time>2026-04-18T16:36:34Z</time></trkpt><trkpt lat="42.5127361369611" lon="-8.11986072224678"><ele>510.5</ele><time>2026-04-18T16:36:35Z</time></trkpt><trkpt lat="42.51269242065033" lon="-8.119693685127597"><ele>511.25</ele><time>2026-04-18T16:36:36Z</time></trkpt><trkpt lat="42.512649418867426" lon="-8.119511387421788"><ele>512.0</ele><time>2026-04-18T16:36:37Z</time></trkpt><trkpt lat="42.512614527722164" lon="-8.119323571922886"><ele>512.0</ele><time>2026-04-18T16:36:38Z</time></trkpt><trkpt lat="42.512572678142654" lon="-8.1191312629593"><ele>512.0</ele><time>2026-04-18T16:36:39Z</time></trkpt><trkpt lat="42.512516110116636" lon="-8.118944979895032"><ele>512.0</ele><time>2026-04-18T16:36:40Z</time></trkpt><trkpt lat="42.512454090416504" lon="-8.118768882890453"><ele>512.0</ele><time>2026-04-18T16:36:41Z</time></trkpt><trkpt lat="42.51239183868492" lon="-8.118603934302746"><ele>512.4</ele><time>2026-04-18T16:36:42Z</time></trkpt><trkpt lat="42.51233683479588" lon="-8.118456293744606"><ele>512.8000000000001</ele><time>2026-04-18T16:36:43Z</time></trkpt><trkpt lat="42.512285594435724" lon="-8.118334765327175"><ele>513.2</ele><time>2026-04-18T16:36:44Z</time></trkpt><trkpt lat="42.512242736978195" lon="-8.118250487854597"><ele>513.6</ele><time>2026-04-18T16:36:45Z</time></trkpt><trkpt lat="42.51219164853883" lon="-8.118191789097219"><ele>514.0</ele><time>2026-04-18T16:36:47Z</time></trkpt><trkpt lat="42.51204129913304" lon="-8.118178698013853"><ele>515.0</ele><time>2026-04-18T16:36:49Z</time></trkpt><trkpt lat="42.51193776043111" lon="-8.11817814543406"><ele>516.0</ele><time>2026-04-18T16:36:50Z</time></trkpt><trkpt lat="42.511824894415405" lon="-8.118167686300099"><ele>517.0</ele><time>2026-04-18T16:36:51Z</time></trkpt><trkpt lat="42.511702154801995" lon="-8.118143067672019"><ele>518.0</ele><time>2026-04-18T16:36:52Z</time></trkpt><trkpt lat="42.51157208667617" lon="-8.118117156058416"><ele>518.0</ele><time>2026-04-18T16:36:53Z</time></trkpt><trkpt lat="42.51143938921631" lon="-8.118062593009657"><ele>518.0</ele><time>2026-04-18T16:36:54Z</time></trkpt><trkpt lat="42.51130901932836" lon="-8.117976009613567"><ele>518.0</ele><time>2026-04-18T16:36:55Z</time></trkpt><trkpt lat="42.51117137496598" lon="-8.11787874612365"><ele>518.0</ele><time>2026-04-18T16:36:56Z</time></trkpt><trkpt lat="42.51103612088693" lon="-8.117772482066812"><ele>518.0</ele><time>2026-04-18T16:36:57Z</time></trkpt><trkpt lat="42.51088994886399" lon="-8.117675611345877"><ele>518.0</ele><time>2026-04-18T16:36:58Z</time></trkpt><trkpt lat="42.51073586162055" lon="-8.117593212024117"><ele>518.0</ele><time>2026-04-18T16:36:59Z</time></trkpt><trkpt lat="42.51057508457714" lon="-8.117519646585894"><ele>518.0</ele><time>2026-04-18T16:37:00Z</time></trkpt><trkpt lat="42.51040624239025" lon="-8.117536867835456"><ele>518.0</ele><time>2026-04-18T16:37:01Z</time></trkpt><trkpt lat="42.51023693995348" lon="-8.117522277375334"><ele>518.0</ele><time>2026-04-18T16:37:02Z</time></trkpt><trkpt lat="42.51006512673918" lon="-8.11754969505784"><ele>518.0</ele><time>2026-04-18T16:37:03Z</time></trkpt><trkpt lat="42.50989619415634" lon="-8.117558994010652"><ele>518.0</ele><time>2026-04-18T16:37:04Z</time></trkpt><trkpt lat="42.50972767619803" lon="-8.117547436518572"><ele>518.0</ele><time>2026-04-18T16:37:05Z</time></trkpt><trkpt lat="42.50955998551963" lon="-8.117526646125846"><ele>519.0</ele><time>2026-04-18T16:37:06Z</time></trkpt><trkpt lat="42.509391921133535" lon="-8.117488345453767"><ele>520.0</ele><time>2026-04-18T16:37:07Z</time></trkpt><trkpt lat="42.509219032492226" lon="-8.117441899574812"><ele>521.0</ele><time>2026-04-18T16:37:08Z</time></trkpt><trkpt lat="42.50904373172335" lon="-8.1174010270088"><ele>521.6666666666666</ele><time>2026-04-18T16:37:09Z</time></trkpt><trkpt lat="42.50886812186343" lon="-8.117367034248755"><ele>522.3333333333334</ele><time>2026-04-18T16:37:10Z</time></trkpt><trkpt lat="42.50868590920383" lon="-8.1173155886457"><ele>523.0</ele><time>2026-04-18T16:37:11Z</time></trkpt><trkpt lat="42.508499209102766" lon="-8.117262735915416"><ele>523.0</ele><time>2026-04-18T16:37:12Z</time></trkpt><trkpt lat="42.50830413402372" lon="-8.11721045986826"><ele>523.0</ele><time>2026-04-18T16:37:13Z</time></trkpt><trkpt lat="42.50810897685562" lon="-8.117167731386456"><ele>523.0</ele><time>2026-04-18T16:37:14Z</time></trkpt><trkpt lat="42.507910855005704" lon="-8.117114712949196"><ele>520.3333333333334</ele><time>2026-04-18T16:37:15Z</time></trkpt><trkpt lat="42.50771007581564" lon="-8.117048280840923"><ele>517.6666666666666</ele><time>2026-04-18T16:37:16Z</time></trkpt><trkpt lat="42.507510516966875" lon="-8.116985506971998"><ele>515.0</ele><time>2026-04-18T16:37:17Z</time></trkpt><trkpt lat="42.50730393419432" lon="-8.116950234540393"><ele>515.0</ele><time>2026-04-18T16:37:18Z</time></trkpt><trkpt lat="42.50709287185025" lon="-8.1169177845547"><ele>515.0</ele><time>2026-04-18T16:37:19Z</time></trkpt><trkpt lat="42.50688725056083" lon="-8.116849928779942"><ele>515.0</ele><time>2026-04-18T16:37:20Z</time></trkpt><trkpt lat="42.506681164998184" lon="-8.1167923494972"><ele>515.3333333333333</ele><time>2026-04-18T16:37:21Z</time></trkpt><trkpt lat="42.506473524773504" lon="-8.116725920309694"><ele>515.6666666666666</ele><time>2026-04-18T16:37:22Z</time></trkpt><trkpt lat="42.50626382173187" lon="-8.116695682336797"><ele>516.0</ele><time>2026-04-18T16:37:23Z</time></trkpt><trkpt lat="42.50605897746301" lon="-8.116638543386197"><ele>517.3333333333334</ele><time>2026-04-18T16:37:24Z</time></trkpt><trkpt lat="42.5058598408681" lon="-8.116571453617242"><ele>518.6666666666667</ele><time>2026-04-18T16:37:25Z</time></trkpt><trkpt lat="42.505653218863294" lon="-8.11655901758454"><ele>520.0</ele><time>2026-04-18T16:37:26Z</time></trkpt><trkpt lat="42.505451051953635" lon="-8.116563669933617"><ele>521.3333333333334</ele><time>2026-04-18T16:37:27Z</time></trkpt><trkpt lat="42.50525102694552" lon="-8.116588694395453"><ele>522.6666666666666</ele><time>2026-04-18T16:37:28Z</time></trkpt><trkpt lat="42.505067603745125" lon="-8.116655845153511"><ele>524.0</ele><time>2026-04-18T16:37:29Z</time></trkpt><trkpt lat="42.50489755096939" lon="-8.11672908755605"><ele>524.0</ele><time>2026-04-18T16:37:30Z</time></trkpt><trkpt lat="42.50474207649695" lon="-8.116780119038316"><ele>524.0</ele><time>2026-04-18T16:37:31Z</time></trkpt><trkpt lat="42.50459541524892" lon="-8.11679097611014"><ele>524.0</ele><time>2026-04-18T16:37:32Z</time></trkpt><trkpt lat="42.50445248671632" lon="-8.116762605857078"><ele>524.0</ele><time>2026-04-18T16:37:33Z</time></trkpt><trkpt lat="42.50431571465376" lon="-8.11668001589461"><ele>524.0</ele><time>2026-04-18T16:37:34Z</time></trkpt><trkpt lat="42.504175408191855" lon="-8.11655394027389"><ele>524.0</ele><time>2026-04-18T16:37:35Z</time></trkpt><trkpt lat="42.504053891181364" lon="-8.11639807628312"><ele>525.6666666666666</ele><time>2026-04-18T16:37:36Z</time></trkpt><trkpt lat="42.50393759228464" lon="-8.116234822769758"><ele>527.3333333333334</ele><time>2026-04-18T16:37:37Z</time></trkpt><trkpt lat="42.503810934677674" lon="-8.116083246693139"><ele>529.0</ele><time>2026-04-18T16:37:38Z</time></trkpt><trkpt lat="42.503682353829866" lon="-8.115943312943791"><ele>530.0</ele><time>2026-04-18T16:37:39Z</time></trkpt><trkpt lat="42.5035311677401" lon="-8.115853116093206"><ele>531.0</ele><time>2026-04-18T16:37:40Z</time></trkpt><trkpt lat="42.50337077293044" lon="-8.115830610220614"><ele>532.0</ele><time>2026-04-18T16:37:41Z</time></trkpt><trkpt lat="42.503207441008925" lon="-8.115881378366078"><ele>532.0</ele><time>2026-04-18T16:37:42Z</time></trkpt><trkpt lat="42.5030443046214" lon="-8.1159139134289"><ele>532.0</ele><time>2026-04-18T16:37:43Z</time></trkpt><trkpt lat="42.50288984477827" lon="-8.115968070936438"><ele>532.0</ele><time>2026-04-18T16:37:44Z</time></trkpt><trkpt lat="42.50273112131471" lon="-8.116005742346056"><ele>533.0</ele><time>2026-04-18T16:37:45Z</time></trkpt><trkpt lat="42.502561312548956" lon="-8.11604116468568"><ele>534.0</ele><time>2026-04-18T16:37:46Z</time></trkpt><trkpt lat="42.50239044799568" lon="-8.116083008193577"><ele>535.0</ele><time>2026-04-18T16:37:47Z</time></trkpt><trkpt lat="42.50221889102528" lon="-8.116125185330347"><ele>535.6666666666667</ele><time>2026-04-18T16:37:48Z</time></trkpt><trkpt lat="42.502037108987544" lon="-8.11617010427846"><ele>536.3333333333334</ele><time>2026-04-18T16:37:49Z</time></trkpt><trkpt lat="42.50186336932472" lon="-8.116203999074521"><ele>537.0</ele><time>2026-04-18T16:37:50Z</time></trkpt><trkpt lat="42.50169982563466" lon="-8.116236843768712"><ele>537.0</ele><time>2026-04-18T16:37:51Z</time></trkpt><trkpt lat="42.5015409612781" lon="-8.116274616342427"><ele>537.0</ele><time>2026-04-18T16:37:52Z</time></trkpt><trkpt lat="42.50139536816242" lon="-8.116313722719566"><ele>537.0</ele><time>2026-04-18T16:37:53Z</time></trkpt><trkpt lat="42.50125220793327" lon="-8.11634041534821"><ele>536.6666666666666</ele><time>2026-04-18T16:37:54Z</time></trkpt><trkpt lat="42.50111399675344" lon="-8.116343221551347"><ele>536.3333333333333</ele><time>2026-04-18T16:37:55Z</time></trkpt><trkpt lat="42.50096551385897" lon="-8.11632723834501"><ele>536.0</ele><time>2026-04-18T16:37:56Z</time></trkpt><trkpt lat="42.500817977039354" lon="-8.11623192211628"><ele>536.0</ele><time>2026-04-18T16:37:57Z</time></trkpt><trkpt lat="42.50065398542045" lon="-8.116171847153243"><ele>536.0</ele><time>2026-04-18T16:37:58Z</time></trkpt><trkpt lat="42.50049125147971" lon="-8.116140330135845"><ele>536.0</ele><time>2026-04-18T16:37:59Z</time></trkpt><trkpt lat="42.50032344781355" lon="-8.116114657221145"><ele>535.3333333333333</ele><time>2026-04-18T16:38:00Z</time></trkpt><trkpt lat="42.50015061694448" lon="-8.116076351461079"><ele>534.6666666666666</ele><time>2026-04-18T16:38:01Z</time></trkpt><trkpt lat="42.49997877646196" lon="-8.11603297990641"><ele>534.0</ele><time>2026-04-18T16:38:02Z</time></trkpt><trkpt lat="42.49980478708196" lon="-8.116006827531288"><ele>534.0</ele><time>2026-04-18T16:38:03Z</time></trkpt><trkpt lat="42.49962591563219" lon="-8.115969156949"><ele>534.0</ele><time>2026-04-18T16:38:04Z</time></trkpt><trkpt lat="42.49943955300303" lon="-8.115929908715877"><ele>534.0</ele><time>2026-04-18T16:38:05Z</time></trkpt><trkpt lat="42.49925660246943" lon="-8.115892888265222"><ele>534.0</ele><time>2026-04-18T16:38:06Z</time></trkpt><trkpt lat="42.499072742806646" lon="-8.1158567218492"><ele>534.0</ele><time>2026-04-18T16:38:07Z</time></trkpt><trkpt lat="42.49888207695374" lon="-8.115819216613446"><ele>534.0</ele><time>2026-04-18T16:38:08Z</time></trkpt><trkpt lat="42.49869536437984" lon="-8.115788323124685"><ele>534.0</ele><time>2026-04-18T16:38:09Z</time></trkpt><trkpt lat="42.498501360500775" lon="-8.115769210498648"><ele>534.0</ele><time>2026-04-18T16:38:10Z</time></trkpt><trkpt lat="42.49830920334157" lon="-8.115735742004365"><ele>534.0</ele><time>2026-04-18T16:38:11Z</time></trkpt><trkpt lat="42.49811552011617" lon="-8.115703443032386"><ele>539.0</ele><time>2026-04-18T16:38:12Z</time></trkpt><trkpt lat="42.49792544632877" lon="-8.115669639530733"><ele>544.0</ele><time>2026-04-18T16:38:13Z</time></trkpt><trkpt lat="42.49773186070074" lon="-8.115644939349526"><ele>549.0</ele><time>2026-04-18T16:38:14Z</time></trkpt><trkpt lat="42.497544146724046" lon="-8.115624140801122"><ele>549.0</ele><time>2026-04-18T16:38:15Z</time></trkpt><trkpt lat="42.49734425931543" lon="-8.115599887910227"><ele>549.0</ele><time>2026-04-18T16:38:16Z</time></trkpt><trkpt lat="42.497145567409746" lon="-8.115578420799002"><ele>549.0</ele><time>2026-04-18T16:38:17Z</time></trkpt><trkpt lat="42.49695019261379" lon="-8.11555788086376"><ele>548.0</ele><time>2026-04-18T16:38:18Z</time></trkpt><trkpt lat="42.49675575285217" lon="-8.11553189627456"><ele>547.0</ele><time>2026-04-18T16:38:19Z</time></trkpt><trkpt lat="42.49656190035829" lon="-8.115501044140924"><ele>546.0</ele><time>2026-04-18T16:38:20Z</time></trkpt><trkpt lat="42.496365339745125" lon="-8.11548407876304"><ele>547.0</ele><time>2026-04-18T16:38:21Z</time></trkpt><trkpt lat="42.496174882744356" lon="-8.115460341978475"><ele>548.0</ele><time>2026-04-18T16:38:22Z</time></trkpt><trkpt lat="42.495991699959056" lon="-8.115416581527896"><ele>549.0</ele><time>2026-04-18T16:38:23Z</time></trkpt><trkpt lat="42.4958056274844" lon="-8.115396005678322"><ele>549.0</ele><time>2026-04-18T16:38:23.999Z</time></trkpt><trkpt lat="42.495622720245635" lon="-8.11537967953575"><ele>549.0</ele><time>2026-04-18T16:38:24.999Z</time></trkpt><trkpt lat="42.495445197922955" lon="-8.115334053789034"><ele>549.0</ele><time>2026-04-18T16:38:25.999Z</time></trkpt><trkpt lat="42.49526353618085" lon="-8.115317034635117"><ele>549.6666666666666</ele><time>2026-04-18T16:38:26.999Z</time></trkpt><trkpt lat="42.49508815724344" lon="-8.115279045481065"><ele>550.3333333333333</ele><time>2026-04-18T16:38:27.999Z</time></trkpt><trkpt lat="42.49492563962151" lon="-8.115198740900839"><ele>551.0</ele><time>2026-04-18T16:38:28.999Z</time></trkpt><trkpt lat="42.494756241802776" lon="-8.115130244276392"><ele>551.0</ele><time>2026-04-18T16:38:29.999Z</time></trkpt><trkpt lat="42.49459275752268" lon="-8.115047676415065"><ele>551.0</ele><time>2026-04-18T16:38:30.999Z</time></trkpt><trkpt lat="42.4944405488486" lon="-8.114927841338043"><ele>551.0</ele><time>2026-04-18T16:38:31.999Z</time></trkpt><trkpt lat="42.4942836590146" lon="-8.114819723707596"><ele>553.3333333333333</ele><time>2026-04-18T16:38:32.999Z</time></trkpt><trkpt lat="42.494138052588035" lon="-8.114698980147633"><ele>555.6666666666666</ele><time>2026-04-18T16:38:33.999Z</time></trkpt><trkpt lat="42.493997194804315" lon="-8.114563680044526"><ele>558.0</ele><time>2026-04-18T16:38:34.999Z</time></trkpt><trkpt lat="42.49385531740565" lon="-8.114439839228314"><ele>559.0</ele><time>2026-04-18T16:38:35.999Z</time></trkpt><trkpt lat="42.49370952503716" lon="-8.114313327378095"><ele>560.0</ele><time>2026-04-18T16:38:37Z</time></trkpt><trkpt lat="42.49356927170886" lon="-8.114169609614954"><ele>561.0</ele><time>2026-04-18T16:38:38Z</time></trkpt><trkpt lat="42.4934281871101" lon="-8.114035366291061"><ele>561.0</ele><time>2026-04-18T16:38:39Z</time></trkpt><trkpt lat="42.49327762042072" lon="-8.113908901672488"><ele>561.0</ele><time>2026-04-18T16:38:40Z</time></trkpt><trkpt lat="42.49314088174399" lon="-8.113786988093011"><ele>561.0</ele><time>2026-04-18T16:38:41Z</time></trkpt><trkpt lat="42.49300050730503" lon="-8.113663356110132"><ele>561.0</ele><time>2026-04-18T16:38:42Z</time></trkpt><trkpt lat="42.49286191979968" lon="-8.11353658328296"><ele>561.0</ele><time>2026-04-18T16:38:43Z</time></trkpt><trkpt lat="42.49272278873471" lon="-8.113414767688585"><ele>561.0</ele><time>2026-04-18T16:38:44Z</time></trkpt><trkpt lat="42.492584320808305" lon="-8.113283192446527"><ele>565.6666666666666</ele><time>2026-04-18T16:38:45Z</time></trkpt><trkpt lat="42.49243991161993" lon="-8.113173393492941"><ele>570.3333333333333</ele><time>2026-04-18T16:38:46Z</time></trkpt><trkpt lat="42.492303421934814" lon="-8.11303749593771"><ele>575.0</ele><time>2026-04-18T16:38:47Z</time></trkpt><trkpt lat="42.49215774508853" lon="-8.11292194131216"><ele>573.3333333333333</ele><time>2026-04-18T16:38:48Z</time></trkpt><trkpt lat="42.492023246931424" lon="-8.112780608525764"><ele>571.6666666666666</ele><time>2026-04-18T16:38:49Z</time></trkpt><trkpt lat="42.491875497723335" lon="-8.112668226571559"><ele>570.0</ele><time>2026-04-18T16:38:50Z</time></trkpt><trkpt lat="42.49173816827135" lon="-8.112535098548074"><ele>570.0</ele><time>2026-04-18T16:38:51Z</time></trkpt><trkpt lat="42.491599278530636" lon="-8.112412247906686"><ele>570.0</ele><time>2026-04-18T16:38:52Z</time></trkpt><trkpt lat="42.49146388426685" lon="-8.112279602211755"><ele>570.0</ele><time>2026-04-18T16:38:53Z</time></trkpt><trkpt lat="42.491312018473096" lon="-8.112166702482464"><ele>572.6666666666666</ele><time>2026-04-18T16:38:54Z</time></trkpt><trkpt lat="42.491174590683904" lon="-8.112023656278996"><ele>575.3333333333333</ele><time>2026-04-18T16:38:55Z</time></trkpt><trkpt lat="42.49102617661366" lon="-8.111912356172615"><ele>578.0</ele><time>2026-04-18T16:38:56Z</time></trkpt><trkpt lat="42.49088413284096" lon="-8.111793836056655"><ele>578.0</ele><time>2026-04-18T16:38:57Z</time></trkpt><trkpt lat="42.49073111335633" lon="-8.111694069784804"><ele>578.0</ele><time>2026-04-18T16:38:58Z</time></trkpt><trkpt lat="42.49059362671129" lon="-8.111566632259187"><ele>578.0</ele><time>2026-04-18T16:38:59Z</time></trkpt><trkpt lat="42.49043612653526" lon="-8.111469141397784"><ele>580.3333333333333</ele><time>2026-04-18T16:39:00Z</time></trkpt><trkpt lat="42.490288487204275" lon="-8.111358658585429"><ele>582.6666666666666</ele><time>2026-04-18T16:39:01Z</time></trkpt><trkpt lat="42.49014004414619" lon="-8.11123035488546"><ele>585.0</ele><time>2026-04-18T16:39:02Z</time></trkpt><trkpt lat="42.489988057994886" lon="-8.111120800202173"><ele>585.0</ele><time>2026-04-18T16:39:03Z</time></trkpt><trkpt lat="42.48982562318605" lon="-8.111023659856796"><ele>585.0</ele><time>2026-04-18T16:39:04Z</time></trkpt><trkpt lat="42.48967073506954" lon="-8.110908733735505"><ele>585.0</ele><time>2026-04-18T16:39:05Z</time></trkpt><trkpt lat="42.48952292088653" lon="-8.110802305391896"><ele>587.0</ele><time>2026-04-18T16:39:06Z</time></trkpt><trkpt lat="42.48938599766198" lon="-8.1106822910068"><ele>589.0</ele><time>2026-04-18T16:39:07Z</time></trkpt><trkpt lat="42.48923392557124" lon="-8.110600154056247"><ele>591.0</ele><time>2026-04-18T16:39:08Z</time></trkpt><trkpt lat="42.48910741165178" lon="-8.110494760069443"><ele>591.0</ele><time>2026-04-18T16:39:09Z</time></trkpt><trkpt lat="42.488976196338974" lon="-8.11042736667876"><ele>591.0</ele><time>2026-04-18T16:39:10Z</time></trkpt><trkpt lat="42.48885179555881" lon="-8.110372829453594"><ele>591.0</ele><time>2026-04-18T16:39:11Z</time></trkpt><trkpt lat="42.488723154956055" lon="-8.110325641168574"><ele>591.0</ele><time>2026-04-18T16:39:12Z</time></trkpt><trkpt lat="42.48859231740808" lon="-8.110276624688744"><ele>590.25</ele><time>2026-04-18T16:39:13Z</time></trkpt><trkpt lat="42.4884515599222" lon="-8.110261548698036"><ele>589.5</ele><time>2026-04-18T16:39:14Z</time></trkpt><trkpt lat="42.48831001155328" lon="-8.11024579982133"><ele>588.75</ele><time>2026-04-18T16:39:15Z</time></trkpt><trkpt lat="42.48816398055382" lon="-8.110234480368986"><ele>588.0</ele><time>2026-04-18T16:39:16Z</time></trkpt><trkpt lat="42.48801124023283" lon="-8.110213533769985"><ele>588.25</ele><time>2026-04-18T16:39:17Z</time></trkpt><trkpt lat="42.48786467428314" lon="-8.110215691367175"><ele>588.5</ele><time>2026-04-18T16:39:18Z</time></trkpt><trkpt lat="42.48772066496399" lon="-8.11020898328315"><ele>588.75</ele><time>2026-04-18T16:39:19Z</time></trkpt><trkpt lat="42.48756922301822" lon="-8.110201390216558"><ele>589.0</ele><time>2026-04-18T16:39:20Z</time></trkpt><trkpt lat="42.48741314894075" lon="-8.11019480948442"><ele>589.0</ele><time>2026-04-18T16:39:21Z</time></trkpt><trkpt lat="42.48725795477179" lon="-8.110190698380421"><ele>589.0</ele><time>2026-04-18T16:39:22Z</time></trkpt><trkpt lat="42.487087680316264" lon="-8.1101965604021"><ele>589.0</ele><time>2026-04-18T16:39:23Z</time></trkpt><trkpt lat="42.48691880562602" lon="-8.11019293641772"><ele>589.0</ele><time>2026-04-18T16:39:24Z</time></trkpt><trkpt lat="42.486744437317824" lon="-8.110192842477357"><ele>589.0</ele><time>2026-04-18T16:39:25Z</time></trkpt><trkpt lat="42.486574220152775" lon="-8.110183052271177"><ele>589.0</ele><time>2026-04-18T16:39:26Z</time></trkpt><trkpt lat="42.48639641215764" lon="-8.110163737176903"><ele>589.0</ele><time>2026-04-18T16:39:27Z</time></trkpt><trkpt lat="42.48621081761082" lon="-8.11012803031866"><ele>589.0</ele><time>2026-04-18T16:39:28Z</time></trkpt><trkpt lat="42.4860278164293" lon="-8.110079584035299"><ele>589.0</ele><time>2026-04-18T16:39:29Z</time></trkpt><trkpt lat="42.48584431917134" lon="-8.110010741823338"><ele>589.0</ele><time>2026-04-18T16:39:30Z</time></trkpt><trkpt lat="42.485665920644955" lon="-8.109918539929598"><ele>589.0</ele><time>2026-04-18T16:39:31Z</time></trkpt><trkpt lat="42.4854864047652" lon="-8.10980684764085"><ele>589.0</ele><time>2026-04-18T16:39:32Z</time></trkpt><trkpt lat="42.485306150686746" lon="-8.109694197278246"><ele>586.3333333333334</ele><time>2026-04-18T16:39:33Z</time></trkpt><trkpt lat="42.48512446499076" lon="-8.109577888935057"><ele>583.6666666666666</ele><time>2026-04-18T16:39:34Z</time></trkpt><trkpt lat="42.48493940102704" lon="-8.10945695744055"><ele>581.0</ele><time>2026-04-18T16:39:35Z</time></trkpt><trkpt lat="42.484747718508885" lon="-8.109337179571213"><ele>581.3333333333333</ele><time>2026-04-18T16:39:36Z</time></trkpt><trkpt lat="42.48455313987075" lon="-8.109217765230241"><ele>581.6666666666666</ele><time>2026-04-18T16:39:37Z</time></trkpt><trkpt lat="42.48436026303681" lon="-8.109099797027813"><ele>582.0</ele><time>2026-04-18T16:39:38Z</time></trkpt><trkpt lat="42.484164302949246" lon="-8.108975862563868"><ele>581.6666666666666</ele><time>2026-04-18T16:39:39Z</time></trkpt><trkpt lat="42.48397287771734" lon="-8.108845036027468"><ele>581.3333333333333</ele><time>2026-04-18T16:39:40Z</time></trkpt><trkpt lat="42.48377753476268" lon="-8.108712179239372"><ele>581.0</ele><time>2026-04-18T16:39:41Z</time></trkpt><trkpt lat="42.48357796362512" lon="-8.108592111200226"><ele>581.0</ele><time>2026-04-18T16:39:42Z</time></trkpt><trkpt lat="42.48336734449768" lon="-8.108466768664165"><ele>581.0</ele><time>2026-04-18T16:39:43Z</time></trkpt><trkpt lat="42.483161713979236" lon="-8.108347954092666"><ele>581.0</ele><time>2026-04-18T16:39:44Z</time></trkpt><trkpt lat="42.48294816340821" lon="-8.108214026871668"><ele>581.0</ele><time>2026-04-18T16:39:45Z</time></trkpt><trkpt lat="42.48273680386955" lon="-8.108073062866106"><ele>581.0</ele><time>2026-04-18T16:39:46Z</time></trkpt><trkpt lat="42.482531096779404" lon="-8.10793164751226"><ele>581.0</ele><time>2026-04-18T16:39:47Z</time></trkpt><trkpt lat="42.48231740921903" lon="-8.107796831041451"><ele>577.0</ele><time>2026-04-18T16:39:48Z</time></trkpt><trkpt lat="42.48209437600488" lon="-8.107657276564492"><ele>573.0</ele><time>2026-04-18T16:39:49Z</time></trkpt><trkpt lat="42.481868983921125" lon="-8.107516626559182"><ele>571.0</ele><time>2026-04-18T16:39:50Z</time></trkpt><trkpt lat="42.48164088420506" lon="-8.107379147848803"><ele>569.0</ele><time>2026-04-18T16:39:51Z</time></trkpt><trkpt lat="42.4814080754022" lon="-8.10723882805995"><ele>565.5</ele><time>2026-04-18T16:39:52Z</time></trkpt><trkpt lat="42.48117366284859" lon="-8.107074837519695"><ele>562.0</ele><time>2026-04-18T16:39:53Z</time></trkpt><trkpt lat="42.48094826959163" lon="-8.106922543113818"><ele>562.0</ele><time>2026-04-18T16:39:54Z</time></trkpt><trkpt lat="42.48070549563443" lon="-8.106764137505586"><ele>562.0</ele><time>2026-04-18T16:39:55Z</time></trkpt><trkpt lat="42.48046856058914" lon="-8.106619755791245"><ele>560.0</ele><time>2026-04-18T16:39:56Z</time></trkpt><trkpt lat="42.48022595882876" lon="-8.106473045885942"><ele>558.0</ele><time>2026-04-18T16:39:57Z</time></trkpt><trkpt lat="42.479981071397596" lon="-8.106321778844364"><ele>558.0</ele><time>2026-04-18T16:39:58Z</time></trkpt><trkpt lat="42.47973739817609" lon="-8.106167031209447"><ele>558.0</ele><time>2026-04-18T16:39:59Z</time></trkpt><trkpt lat="42.479488541066026" lon="-8.106003075288584"><ele>556.0</ele><time>2026-04-18T16:40:00Z</time></trkpt><trkpt lat="42.479250431816176" lon="-8.105842021812567"><ele>554.0</ele><time>2026-04-18T16:40:01Z</time></trkpt><trkpt lat="42.47900888194658" lon="-8.105688791261668"><ele>549.5</ele><time>2026-04-18T16:40:02Z</time></trkpt><trkpt lat="42.47875709298435" lon="-8.105537593850693"><ele>545.0</ele><time>2026-04-18T16:40:03Z</time></trkpt><trkpt lat="42.47850689766483" lon="-8.10539023470176"><ele>545.0</ele><time>2026-04-18T16:40:04Z</time></trkpt><trkpt lat="42.478268675698814" lon="-8.105233164750278"><ele>545.0</ele><time>2026-04-18T16:40:05Z</time></trkpt><trkpt lat="42.478018281586216" lon="-8.105066719015877"><ele>542.5</ele><time>2026-04-18T16:40:05.999Z</time></trkpt><trkpt lat="42.47776260867029" lon="-8.104902965197997"><ele>540.0</ele><time>2026-04-18T16:40:06.999Z</time></trkpt><trkpt lat="42.47751642861664" lon="-8.10474191474847"><ele>540.0</ele><time>2026-04-18T16:40:07.999Z</time></trkpt><trkpt lat="42.47726982657628" lon="-8.104587210161112"><ele>540.0</ele><time>2026-04-18T16:40:08.999Z</time></trkpt><trkpt lat="42.477023693737074" lon="-8.104425605244478"><ele>538.5</ele><time>2026-04-18T16:40:09.999Z</time></trkpt><trkpt lat="42.47678443710196" lon="-8.104272806973519"><ele>537.0</ele><time>2026-04-18T16:40:10.999Z</time></trkpt><trkpt lat="42.476538946584206" lon="-8.104114409634942"><ele>536.0</ele><time>2026-04-18T16:40:11.999Z</time></trkpt><trkpt lat="42.47628754228685" lon="-8.103951927232966"><ele>535.0</ele><time>2026-04-18T16:40:12.999Z</time></trkpt><trkpt lat="42.47603943203003" lon="-8.103795877192558"><ele>534.0</ele><time>2026-04-18T16:40:13.999Z</time></trkpt><trkpt lat="42.47578923970612" lon="-8.103638592754857"><ele>533.0</ele><time>2026-04-18T16:40:14.999Z</time></trkpt><trkpt lat="42.4755497500579" lon="-8.103487898045701"><ele>532.5</ele><time>2026-04-18T16:40:15.999Z</time></trkpt><trkpt lat="42.47530418706493" lon="-8.10332823477137"><ele>532.0</ele><time>2026-04-18T16:40:16.999Z</time></trkpt><trkpt lat="42.475060530939146" lon="-8.103172935840593"><ele>530.5</ele><time>2026-04-18T16:40:17.999Z</time></trkpt><trkpt lat="42.474816133315386" lon="-8.103016899690097"><ele>529.0</ele><time>2026-04-18T16:40:18.999Z</time></trkpt><trkpt lat="42.4745731451288" lon="-8.102869069075348"><ele>528.0</ele><time>2026-04-18T16:40:19.999Z</time></trkpt><trkpt lat="42.47433285323376" lon="-8.102714213983324"><ele>527.0</ele><time>2026-04-18T16:40:20.999Z</time></trkpt><trkpt lat="42.474097000806715" lon="-8.102555818695024"><ele>526.5</ele><time>2026-04-18T16:40:21.999Z</time></trkpt><trkpt lat="42.47386214575233" lon="-8.102400413972418"><ele>526.0</ele><time>2026-04-18T16:40:22.999Z</time></trkpt><trkpt lat="42.47362616716153" lon="-8.10224665088094"><ele>526.0</ele><time>2026-04-18T16:40:23.999Z</time></trkpt><trkpt lat="42.47339140454124" lon="-8.102096009585132"><ele>526.0</ele><time>2026-04-18T16:40:24.999Z</time></trkpt><trkpt lat="42.473149119278936" lon="-8.101946121232"><ele>525.5</ele><time>2026-04-18T16:40:25.999Z</time></trkpt><trkpt lat="42.47291497305203" lon="-8.101796012242918"><ele>525.0</ele><time>2026-04-18T16:40:26.999Z</time></trkpt><trkpt lat="42.472672623518726" lon="-8.101640175978096"><ele>524.0</ele><time>2026-04-18T16:40:27.999Z</time></trkpt><trkpt lat="42.472451989194234" lon="-8.101490715479702"><ele>523.0</ele><time>2026-04-18T16:40:28.999Z</time></trkpt><trkpt lat="42.472221866394605" lon="-8.101334373477577"><ele>523.5</ele><time>2026-04-18T16:40:29.999Z</time></trkpt><trkpt lat="42.47199028299021" lon="-8.101193010454457"><ele>524.0</ele><time>2026-04-18T16:40:30.999Z</time></trkpt><trkpt lat="42.47176594325558" lon="-8.10105860803487"><ele>524.0</ele><time>2026-04-18T16:40:31.999Z</time></trkpt><trkpt lat="42.471521312382166" lon="-8.10089565632746"><ele>524.0</ele><time>2026-04-18T16:40:32.999Z</time></trkpt><trkpt lat="42.47129640442488" lon="-8.10075845415053"><ele>521.0</ele><time>2026-04-18T16:40:33.999Z</time></trkpt><trkpt lat="42.47106957504833" lon="-8.10061403697365"><ele>518.0</ele><time>2026-04-18T16:40:34.999Z</time></trkpt><trkpt lat="42.47083253469444" lon="-8.100464467709442"><ele>518.0</ele><time>2026-04-18T16:40:35.999Z</time></trkpt><trkpt lat="42.47060071907444" lon="-8.100326152414873"><ele>518.0</ele><time>2026-04-18T16:40:36.999Z</time></trkpt><trkpt lat="42.47037710974906" lon="-8.10019557579995"><ele>516.5</ele><time>2026-04-18T16:40:37.999Z</time></trkpt><trkpt lat="42.47014527213229" lon="-8.100058298515982"><ele>515.0</ele><time>2026-04-18T16:40:38.999Z</time></trkpt><trkpt lat="42.46991014819517" lon="-8.099938225079088"><ele>521.0</ele><time>2026-04-18T16:40:39.999Z</time></trkpt><trkpt lat="42.46967390068196" lon="-8.099823178364833"><ele>527.0</ele><time>2026-04-18T16:40:40.999Z</time></trkpt><trkpt lat="42.46944232200637" lon="-8.099726535948092"><ele>531.0</ele><time>2026-04-18T16:40:41.999Z</time></trkpt><trkpt lat="42.46921113161451" lon="-8.09966661230235"><ele>535.0</ele><time>2026-04-18T16:40:43Z</time></trkpt><trkpt lat="42.46897879446963" lon="-8.09965485772796"><ele>535.5</ele><time>2026-04-18T16:40:44Z</time></trkpt><trkpt lat="42.468743105403256" lon="-8.099658289026172"><ele>536.0</ele><time>2026-04-18T16:40:45Z</time></trkpt><trkpt lat="42.4685194738141" lon="-8.099657661008402"><ele>536.0</ele><time>2026-04-18T16:40:46Z</time></trkpt><trkpt lat="42.468297572413036" lon="-8.099639336801431"><ele>536.0</ele><time>2026-04-18T16:40:47Z</time></trkpt><trkpt lat="42.468102980150476" lon="-8.09961240474006"><ele>536.0</ele><time>2026-04-18T16:40:48Z</time></trkpt><trkpt lat="42.467916272278266" lon="-8.099577717450403"><ele>536.6666666666666</ele><time>2026-04-18T16:40:49Z</time></trkpt><trkpt lat="42.46775116880782" lon="-8.099519556931865"><ele>537.3333333333334</ele><time>2026-04-18T16:40:50Z</time></trkpt><trkpt lat="42.46759941915309" lon="-8.099446071950952"><ele>538.0</ele><time>2026-04-18T16:40:51Z</time></trkpt><trkpt lat="42.46745821293573" lon="-8.099358176598221"><ele>538.0</ele><time>2026-04-18T16:40:52Z</time></trkpt><trkpt lat="42.46731512707976" lon="-8.099265044675354"><ele>538.0</ele><time>2026-04-18T16:40:53Z</time></trkpt><trkpt lat="42.46719176973752" lon="-8.099166214957682"><ele>538.0</ele><time>2026-04-18T16:40:54Z</time></trkpt><trkpt lat="42.46706936322751" lon="-8.09905683342408"><ele>538.0</ele><time>2026-04-18T16:40:55Z</time></trkpt><trkpt lat="42.46696114317949" lon="-8.098944396124393"><ele>540.5</ele><time>2026-04-18T16:40:56Z</time></trkpt><trkpt lat="42.466846537481935" lon="-8.098839938460214"><ele>543.0</ele><time>2026-04-18T16:40:57Z</time></trkpt><trkpt lat="42.466739084095146" lon="-8.098737131875502"><ele>545.5</ele><time>2026-04-18T16:40:58Z</time></trkpt><trkpt lat="42.46662006934201" lon="-8.098618340030283"><ele>548.0</ele><time>2026-04-18T16:40:59Z</time></trkpt><trkpt lat="42.46650886580105" lon="-8.098507150277586"><ele>548.0</ele><time>2026-04-18T16:41:00Z</time></trkpt><trkpt lat="42.466408905373434" lon="-8.098419459921272"><ele>548.0</ele><time>2026-04-18T16:41:01Z</time></trkpt><trkpt lat="42.46628503800636" lon="-8.098306709552023"><ele>548.0</ele><time>2026-04-18T16:41:02Z</time></trkpt><trkpt lat="42.46615997628125" lon="-8.098213001836127"><ele>548.0</ele><time>2026-04-18T16:41:03Z</time></trkpt><trkpt lat="42.46602876273291" lon="-8.098134587992899"><ele>549.5</ele><time>2026-04-18T16:41:04Z</time></trkpt><trkpt lat="42.46589183845191" lon="-8.098071869579178"><ele>551.0</ele><time>2026-04-18T16:41:05Z</time></trkpt><trkpt lat="42.46575191357345" lon="-8.098024810403365"><ele>552.5</ele><time>2026-04-18T16:41:06Z</time></trkpt><trkpt lat="42.46561048475106" lon="-8.097992154711987"><ele>554.0</ele><time>2026-04-18T16:41:07Z</time></trkpt><trkpt lat="42.46546506674009" lon="-8.097976597739459"><ele>556.25</ele><time>2026-04-18T16:41:08Z</time></trkpt><trkpt lat="42.46531815625041" lon="-8.097979546840044"><ele>558.5</ele><time>2026-04-18T16:41:09Z</time></trkpt><trkpt lat="42.465170305726176" lon="-8.098000078814291"><ele>560.75</ele><time>2026-04-18T16:41:10Z</time></trkpt><trkpt lat="42.46502668941384" lon="-8.098028334631891"><ele>563.0</ele><time>2026-04-18T16:41:11Z</time></trkpt><trkpt lat="42.464872526030284" lon="-8.098050064231147"><ele>563.0</ele><time>2026-04-18T16:41:12Z</time></trkpt><trkpt lat="42.464720372954105" lon="-8.098061100481816"><ele>563.0</ele><time>2026-04-18T16:41:13Z</time></trkpt><trkpt lat="42.464574297978515" lon="-8.09807457609786"><ele>563.0</ele><time>2026-04-18T16:41:14Z</time></trkpt><trkpt lat="42.4644166383579" lon="-8.098087782482947"><ele>564.6666666666666</ele><time>2026-04-18T16:41:15Z</time></trkpt><trkpt lat="42.46426402709493" lon="-8.098088364365028"><ele>566.3333333333334</ele><time>2026-04-18T16:41:16Z</time></trkpt><trkpt lat="42.464110604167495" lon="-8.098072138811283"><ele>568.0</ele><time>2026-04-18T16:41:17Z</time></trkpt><trkpt lat="42.46396134792111" lon="-8.09803660528074"><ele>568.0</ele><time>2026-04-18T16:41:18Z</time></trkpt><trkpt lat="42.46381138146449" lon="-8.097981013977083"><ele>568.0</ele><time>2026-04-18T16:41:19Z</time></trkpt><trkpt lat="42.46366663875553" lon="-8.097908461167227"><ele>568.0</ele><time>2026-04-18T16:41:20Z</time></trkpt><trkpt lat="42.463525788709994" lon="-8.0978067831169"><ele>567.0</ele><time>2026-04-18T16:41:21Z</time></trkpt><trkpt lat="42.46339413266136" lon="-8.097689462703096"><ele>566.0</ele><time>2026-04-18T16:41:22Z</time></trkpt><trkpt lat="42.463263564100224" lon="-8.097560307245468"><ele>565.0</ele><time>2026-04-18T16:41:23Z</time></trkpt><trkpt lat="42.463144490469524" lon="-8.097414593328697"><ele>565.6666666666667</ele><time>2026-04-18T16:41:24Z</time></trkpt><trkpt lat="42.46303609210855" lon="-8.097245710964154"><ele>566.3333333333334</ele><time>2026-04-18T16:41:25Z</time></trkpt><trkpt lat="42.46293704285956" lon="-8.09705800263334"><ele>567.0</ele><time>2026-04-18T16:41:26Z</time></trkpt><trkpt lat="42.46285734538178" lon="-8.096847939257318"><ele>567.0</ele><time>2026-04-18T16:41:27Z</time></trkpt><trkpt lat="42.46278172958845" lon="-8.096628155338463"><ele>567.0</ele><time>2026-04-18T16:41:28Z</time></trkpt><trkpt lat="42.462710300479195" lon="-8.09641314289443"><ele>567.0</ele><time>2026-04-18T16:41:29Z</time></trkpt><trkpt lat="42.46263537494826" lon="-8.096175635018321"><ele>567.6666666666666</ele><time>2026-04-18T16:41:30Z</time></trkpt><trkpt lat="42.46256447935143" lon="-8.095958975709577"><ele>568.3333333333333</ele><time>2026-04-18T16:41:31Z</time></trkpt><trkpt lat="42.46249601691594" lon="-8.095749382542841"><ele>569.0</ele><time>2026-04-18T16:41:32Z</time></trkpt><trkpt lat="42.46242819167376" lon="-8.095550194801572"><ele>569.0</ele><time>2026-04-18T16:41:33Z</time></trkpt><trkpt lat="42.462360323078386" lon="-8.095354948790948"><ele>569.0</ele><time>2026-04-18T16:41:34Z</time></trkpt><trkpt lat="42.462296303462324" lon="-8.095164035242574"><ele>569.0</ele><time>2026-04-18T16:41:35Z</time></trkpt><trkpt lat="42.462223583848065" lon="-8.09496874188921"><ele>569.0</ele><time>2026-04-18T16:41:36Z</time></trkpt><trkpt lat="42.46214925873739" lon="-8.094772202499644"><ele>569.0</ele><time>2026-04-18T16:41:37Z</time></trkpt><trkpt lat="42.46206697584463" lon="-8.094574495973474"><ele>569.0</ele><time>2026-04-18T16:41:38Z</time></trkpt><trkpt lat="42.461980532421435" lon="-8.094376611499325"><ele>565.0</ele><time>2026-04-18T16:41:39Z</time></trkpt><trkpt lat="42.46187763280009" lon="-8.094174738658214"><ele>561.0</ele><time>2026-04-18T16:41:40Z</time></trkpt><trkpt lat="42.46176161844532" lon="-8.093973687948427"><ele>557.0</ele><time>2026-04-18T16:41:41Z</time></trkpt><trkpt lat="42.46163177405864" lon="-8.093777057872742"><ele>557.0</ele><time>2026-04-18T16:41:42Z</time></trkpt><trkpt lat="42.461491565676624" lon="-8.093602734025662"><ele>557.0</ele><time>2026-04-18T16:41:43Z</time></trkpt><trkpt lat="42.46132808310479" lon="-8.0934362922922"><ele>557.0</ele><time>2026-04-18T16:41:44Z</time></trkpt><trkpt lat="42.46115051313927" lon="-8.093290016434674"><ele>556.3333333333333</ele><time>2026-04-18T16:41:45Z</time></trkpt><trkpt lat="42.46095237067703" lon="-8.093169019427442"><ele>555.6666666666666</ele><time>2026-04-18T16:41:46Z</time></trkpt><trkpt lat="42.46074033667242" lon="-8.093067836138209"><ele>555.0</ele><time>2026-04-18T16:41:47Z</time></trkpt><trkpt lat="42.46052036051257" lon="-8.092995114669618"><ele>553.0</ele><time>2026-04-18T16:41:48Z</time></trkpt><trkpt lat="42.460287348032054" lon="-8.092977705510272"><ele>551.0</ele><time>2026-04-18T16:41:49Z</time></trkpt><trkpt lat="42.46005519958453" lon="-8.092970790864324"><ele>551.0</ele><time>2026-04-18T16:41:50Z</time></trkpt><trkpt lat="42.45981271723066" lon="-8.092986868025875"><ele>551.0</ele><time>2026-04-18T16:41:51Z</time></trkpt><trkpt lat="42.45957499712167" lon="-8.093092163438934"><ele>552.5</ele><time>2026-04-18T16:41:52Z</time></trkpt><trkpt lat="42.459326045802854" lon="-8.09318484416742"><ele>554.0</ele><time>2026-04-18T16:41:53Z</time></trkpt><trkpt lat="42.45909689212527" lon="-8.093319927003947"><ele>547.0</ele><time>2026-04-18T16:41:54Z</time></trkpt><trkpt lat="42.4588647940728" lon="-8.093482846956688"><ele>540.0</ele><time>2026-04-18T16:41:55Z</time></trkpt><trkpt lat="42.458638282431934" lon="-8.09364585664796"><ele>538.5</ele><time>2026-04-18T16:41:56Z</time></trkpt><trkpt lat="42.45841593474367" lon="-8.093814366666281"><ele>537.0</ele><time>2026-04-18T16:41:57Z</time></trkpt><trkpt lat="42.45820107940916" lon="-8.09398796296946"><ele>534.0</ele><time>2026-04-18T16:41:58Z</time></trkpt><trkpt lat="42.45799764906202" lon="-8.094141005691586"><ele>531.0</ele><time>2026-04-18T16:41:59Z</time></trkpt><trkpt lat="42.45780004003857" lon="-8.094283366830178"><ele>530.3333333333334</ele><time>2026-04-18T16:42:00Z</time></trkpt><trkpt lat="42.457601408690955" lon="-8.094405421925064"><ele>529.6666666666667</ele><time>2026-04-18T16:42:01Z</time></trkpt><trkpt lat="42.45740325304872" lon="-8.09450491943026"><ele>529.0</ele><time>2026-04-18T16:42:02Z</time></trkpt><trkpt lat="42.457206239110526" lon="-8.094564556247903"><ele>529.3333333333334</ele><time>2026-04-18T16:42:03Z</time></trkpt><trkpt lat="42.45699718724465" lon="-8.094586349295177"><ele>529.6666666666666</ele><time>2026-04-18T16:42:04Z</time></trkpt><trkpt lat="42.4567821705941" lon="-8.094576662344178"><ele>530.0</ele><time>2026-04-18T16:42:05Z</time></trkpt><trkpt lat="42.45656979906772" lon="-8.094529412620174"><ele>530.0</ele><time>2026-04-18T16:42:06Z</time></trkpt><trkpt lat="42.45634846116624" lon="-8.094450092896762"><ele>530.0</ele><time>2026-04-18T16:42:07Z</time></trkpt><trkpt lat="42.45614604440022" lon="-8.094343076901092"><ele>530.0</ele><time>2026-04-18T16:42:08Z</time></trkpt><trkpt lat="42.45595918015768" lon="-8.094203301447237"><ele>530.0</ele><time>2026-04-18T16:42:09Z</time></trkpt><trkpt lat="42.455780778748014" lon="-8.094029387827256"><ele>530.0</ele><time>2026-04-18T16:42:10Z</time></trkpt><trkpt lat="42.45561497700952" lon="-8.093826725827823"><ele>530.0</ele><time>2026-04-18T16:42:11Z</time></trkpt><trkpt lat="42.45545602584272" lon="-8.093594316521411"><ele>526.5</ele><time>2026-04-18T16:42:12Z</time></trkpt><trkpt lat="42.45530033552541" lon="-8.093348517254633"><ele>523.0</ele><time>2026-04-18T16:42:13Z</time></trkpt><trkpt lat="42.45514033395306" lon="-8.093104572943947"><ele>520.5</ele><time>2026-04-18T16:42:14Z</time></trkpt><trkpt lat="42.45499273064268" lon="-8.092857855596822"><ele>518.0</ele><time>2026-04-18T16:42:15Z</time></trkpt><trkpt lat="42.45484087491337" lon="-8.092623998362695"><ele>518.3333333333333</ele><time>2026-04-18T16:42:16Z</time></trkpt><trkpt lat="42.454680995184944" lon="-8.092405873148644"><ele>518.6666666666666</ele><time>2026-04-18T16:42:17Z</time></trkpt><trkpt lat="42.454518376883954" lon="-8.092224764225548"><ele>519.0</ele><time>2026-04-18T16:42:18Z</time></trkpt><trkpt lat="42.45433700630802" lon="-8.09206609144365"><ele>515.6666666666666</ele><time>2026-04-18T16:42:19Z</time></trkpt><trkpt lat="42.45413882250533" lon="-8.091948980169004"><ele>512.3333333333333</ele><time>2026-04-18T16:42:20Z</time></trkpt><trkpt lat="42.4539389533821" lon="-8.091864827538185"><ele>509.0</ele><time>2026-04-18T16:42:20.999Z</time></trkpt><trkpt lat="42.45374135910329" lon="-8.091813570148657"><ele>506.3333333333333</ele><time>2026-04-18T16:42:21.999Z</time></trkpt><trkpt lat="42.453530604235624" lon="-8.09182719020348"><ele>503.66666666666663</ele><time>2026-04-18T16:42:22.999Z</time></trkpt><trkpt lat="42.45332346561547" lon="-8.091847309923251"><ele>501.0</ele><time>2026-04-18T16:42:23.999Z</time></trkpt><trkpt lat="42.45311200658822" lon="-8.09191117242526"><ele>500.0</ele><time>2026-04-18T16:42:24.999Z</time></trkpt><trkpt lat="42.45289505682539" lon="-8.091984923644906"><ele>499.0</ele><time>2026-04-18T16:42:25.999Z</time></trkpt><trkpt lat="42.45269154588659" lon="-8.092123713757186"><ele>499.0</ele><time>2026-04-18T16:42:26.999Z</time></trkpt><trkpt lat="42.452488989167456" lon="-8.092269821165717"><ele>499.0</ele><time>2026-04-18T16:42:27.999Z</time></trkpt><trkpt lat="42.45228202835798" lon="-8.092407533052587"><ele>493.5</ele><time>2026-04-18T16:42:28.999Z</time></trkpt><trkpt lat="42.452071541605825" lon="-8.092536912896442"><ele>488.0</ele><time>2026-04-18T16:42:29.999Z</time></trkpt><trkpt lat="42.451867565031016" lon="-8.092658093007532"><ele>488.0</ele><time>2026-04-18T16:42:30.999Z</time></trkpt><trkpt lat="42.45166848579122" lon="-8.092769556268939"><ele>488.0</ele><time>2026-04-18T16:42:31.999Z</time></trkpt><trkpt lat="42.45147893438091" lon="-8.092853545337183"><ele>488.0</ele><time>2026-04-18T16:42:32.999Z</time></trkpt><trkpt lat="42.451280235863706" lon="-8.092920081011087"><ele>485.0</ele><time>2026-04-18T16:42:33.999Z</time></trkpt><trkpt lat="42.45108366929609" lon="-8.092956812758453"><ele>482.0</ele><time>2026-04-18T16:42:34.999Z</time></trkpt><trkpt lat="42.45088931701198" lon="-8.092960784958898"><ele>479.0</ele><time>2026-04-18T16:42:35.999Z</time></trkpt><trkpt lat="42.45069396689972" lon="-8.092932418697771"><ele>479.0</ele><time>2026-04-18T16:42:36.999Z</time></trkpt><trkpt lat="42.450500731186764" lon="-8.092865813799392"><ele>479.0</ele><time>2026-04-18T16:42:37.999Z</time></trkpt><trkpt lat="42.450328665262816" lon="-8.092770500655297"><ele>479.0</ele><time>2026-04-18T16:42:38.999Z</time></trkpt><trkpt lat="42.45016065611332" lon="-8.092655290369768"><ele>475.66666666666663</ele><time>2026-04-18T16:42:39.999Z</time></trkpt><trkpt lat="42.44999576475487" lon="-8.09251483974019"><ele>472.33333333333337</ele><time>2026-04-18T16:42:40.999Z</time></trkpt><trkpt lat="42.44984529369177" lon="-8.092336414824583"><ele>469.0</ele><time>2026-04-18T16:42:41.999Z</time></trkpt><trkpt lat="42.449708823550026" lon="-8.092133518716542"><ele>466.33333333333337</ele><time>2026-04-18T16:42:42.999Z</time></trkpt><trkpt lat="42.44959360287201" lon="-8.091902009525002"><ele>463.66666666666663</ele><time>2026-04-18T16:42:43.999Z</time></trkpt><trkpt lat="42.44949527129098" lon="-8.091653391001426"><ele>461.0</ele><time>2026-04-18T16:42:44.999Z</time></trkpt><trkpt lat="42.44941239603087" lon="-8.091380574311257"><ele>458.0</ele><time>2026-04-18T16:42:45.999Z</time></trkpt><trkpt lat="42.44933809587818" lon="-8.091097970705842"><ele>455.0</ele><time>2026-04-18T16:42:46.999Z</time></trkpt><trkpt lat="42.449268549136534" lon="-8.090802915808561"><ele>453.5</ele><time>2026-04-18T16:42:47.999Z</time></trkpt><trkpt lat="42.449194138856626" lon="-8.090497828353238"><ele>452.0</ele><time>2026-04-18T16:42:49Z</time></trkpt><trkpt lat="42.449119671238414" lon="-8.090191152668732"><ele>451.0</ele><time>2026-04-18T16:42:50Z</time></trkpt><trkpt lat="42.449039004023255" lon="-8.089874339269947"><ele>450.0</ele><time>2026-04-18T16:42:51Z</time></trkpt><trkpt lat="42.448957053419925" lon="-8.089555432780267"><ele>450.0</ele><time>2026-04-18T16:42:52Z</time></trkpt><trkpt lat="42.44887348022211" lon="-8.089227363264875"><ele>450.0</ele><time>2026-04-18T16:42:53Z</time></trkpt><trkpt lat="42.44879757853796" lon="-8.088894140627147"><ele>446.0</ele><time>2026-04-18T16:42:54Z</time></trkpt><trkpt lat="42.448724831280494" lon="-8.088555501763539"><ele>442.0</ele><time>2026-04-18T16:42:55Z</time></trkpt><trkpt lat="42.44866340493548" lon="-8.0882124909144"><ele>438.5</ele><time>2026-04-18T16:42:56Z</time></trkpt><trkpt lat="42.44861444578194" lon="-8.087871492174365"><ele>435.0</ele><time>2026-04-18T16:42:57Z</time></trkpt><trkpt lat="42.448571734280634" lon="-8.087530588641105"><ele>433.5</ele><time>2026-04-18T16:42:58Z</time></trkpt><trkpt lat="42.448527026148916" lon="-8.087213863288422"><ele>432.0</ele><time>2026-04-18T16:42:59Z</time></trkpt><trkpt lat="42.44848165118377" lon="-8.086896604609143"><ele>430.5</ele><time>2026-04-18T16:43:00Z</time></trkpt><trkpt lat="42.44842643765495" lon="-8.086588784358405"><ele>429.0</ele><time>2026-04-18T16:43:01Z</time></trkpt><trkpt lat="42.44835807777562" lon="-8.08629270949211"><ele>429.0</ele><time>2026-04-18T16:43:02Z</time></trkpt><trkpt lat="42.44827034933202" lon="-8.086009469678922"><ele>429.0</ele><time>2026-04-18T16:43:03Z</time></trkpt><trkpt lat="42.448159798277246" lon="-8.08574394361968"><ele>429.0</ele><time>2026-04-18T16:43:04Z</time></trkpt><trkpt lat="42.448009901541816" lon="-8.085534722832525"><ele>429.0</ele><time>2026-04-18T16:43:05Z</time></trkpt><trkpt lat="42.44787066626362" lon="-8.085290947225937"><ele>429.0</ele><time>2026-04-18T16:43:06Z</time></trkpt><trkpt lat="42.44768502980406" lon="-8.085071374533747"><ele>424.5</ele><time>2026-04-18T16:43:07Z</time></trkpt><trkpt lat="42.44749286428789" lon="-8.084886500191763"><ele>420.0</ele><time>2026-04-18T16:43:08Z</time></trkpt><trkpt lat="42.447284677941184" lon="-8.084726464919656"><ele>418.0</ele><time>2026-04-18T16:43:09Z</time></trkpt><trkpt lat="42.44704835455334" lon="-8.084599098706368"><ele>416.0</ele><time>2026-04-18T16:43:10Z</time></trkpt><trkpt lat="42.446808605598974" lon="-8.084494541568645"><ele>416.0</ele><time>2026-04-18T16:43:11Z</time></trkpt><trkpt lat="42.44655391063785" lon="-8.08441563522648"><ele>416.0</ele><time>2026-04-18T16:43:12Z</time></trkpt><trkpt lat="42.44629428702076" lon="-8.0843411660392"><ele>413.5</ele><time>2026-04-18T16:43:13Z</time></trkpt><trkpt lat="42.446037692676214" lon="-8.084257029406807"><ele>411.0</ele><time>2026-04-18T16:43:14Z</time></trkpt><trkpt lat="42.44578182639459" lon="-8.08417090958349"><ele>412.0</ele><time>2026-04-18T16:43:15Z</time></trkpt><trkpt lat="42.44552342872323" lon="-8.084084220221564"><ele>413.0</ele><time>2026-04-18T16:43:16Z</time></trkpt><trkpt lat="42.44526961494697" lon="-8.08399796853397"><ele>410.0</ele><time>2026-04-18T16:43:17Z</time></trkpt><trkpt lat="42.44502680359264" lon="-8.083922030168754"><ele>407.0</ele><time>2026-04-18T16:43:18Z</time></trkpt><trkpt lat="42.44478644115362" lon="-8.08385940325663"><ele>404.3333333333333</ele><time>2026-04-18T16:43:19Z</time></trkpt><trkpt lat="42.44456148506748" lon="-8.083813206535805"><ele>401.66666666666663</ele><time>2026-04-18T16:43:20Z</time></trkpt><trkpt lat="42.44434473877321" lon="-8.083796900929023"><ele>399.0</ele><time>2026-04-18T16:43:21Z</time></trkpt><trkpt lat="42.44412442820135" lon="-8.083806729310625"><ele>399.0</ele><time>2026-04-18T16:43:22Z</time></trkpt><trkpt lat="42.44391899463421" lon="-8.083824378388105"><ele>399.0</ele><time>2026-04-18T16:43:23Z</time></trkpt><trkpt lat="42.44372225782071" lon="-8.08383031601938"><ele>399.0</ele><time>2026-04-18T16:43:24Z</time></trkpt><trkpt lat="42.443520958398274" lon="-8.08382992231007"><ele>398.66666666666663</ele><time>2026-04-18T16:43:25Z</time></trkpt><trkpt lat="42.44334052325856" lon="-8.083799635100181"><ele>398.3333333333333</ele><time>2026-04-18T16:43:26Z</time></trkpt><trkpt lat="42.44315979959861" lon="-8.083754260413668"><ele>398.0</ele><time>2026-04-18T16:43:27Z</time></trkpt><trkpt lat="42.4429851298948" lon="-8.083693823265643"><ele>398.0</ele><time>2026-04-18T16:43:28Z</time></trkpt><trkpt lat="42.442824336079916" lon="-8.083615576986318"><ele>398.0</ele><time>2026-04-18T16:43:29Z</time></trkpt><trkpt lat="42.44267724940764" lon="-8.083508798569003"><ele>398.0</ele><time>2026-04-18T16:43:30Z</time></trkpt><trkpt lat="42.442538541250904" lon="-8.08339495155763"><ele>398.0</ele><time>2026-04-18T16:43:31Z</time></trkpt><trkpt lat="42.44241570782267" lon="-8.08328394000116"><ele>398.0</ele><time>2026-04-18T16:43:32Z</time></trkpt><trkpt lat="42.4422934675035" lon="-8.083168983202901"><ele>398.0</ele><time>2026-04-18T16:43:33Z</time></trkpt><trkpt lat="42.44218006531959" lon="-8.083063889118954"><ele>398.0</ele><time>2026-04-18T16:43:34Z</time></trkpt><trkpt lat="42.4420591566471" lon="-8.082954603554558"><ele>397.25</ele><time>2026-04-18T16:43:35Z</time></trkpt><trkpt lat="42.44194881992105" lon="-8.08284401419445"><ele>396.5</ele><time>2026-04-18T16:43:36Z</time></trkpt><trkpt lat="42.441842171602495" lon="-8.082727511254825"><ele>395.75</ele><time>2026-04-18T16:43:37Z</time></trkpt><trkpt lat="42.441739491693305" lon="-8.082615460273386"><ele>395.0</ele><time>2026-04-18T16:43:38Z</time></trkpt><trkpt lat="42.44164677583232" lon="-8.082482789989268"><ele>394.5</ele><time>2026-04-18T16:43:39Z</time></trkpt><trkpt lat="42.44157160579511" lon="-8.08234501045214"><ele>394.0</ele><time>2026-04-18T16:43:40Z</time></trkpt><trkpt lat="42.44151096891928" lon="-8.082203197573971"><ele>393.5</ele><time>2026-04-18T16:43:41Z</time></trkpt><trkpt lat="42.44145905528628" lon="-8.08204635569765"><ele>393.0</ele><time>2026-04-18T16:43:42Z</time></trkpt><trkpt lat="42.44142476214281" lon="-8.081897610161198"><ele>393.0</ele><time>2026-04-18T16:43:43Z</time></trkpt><trkpt lat="42.441401987945774" lon="-8.08172708399762"><ele>393.0</ele><time>2026-04-18T16:43:44Z</time></trkpt><trkpt lat="42.44137616751084" lon="-8.081549839124355"><ele>393.0</ele><time>2026-04-18T16:43:45Z</time></trkpt><trkpt lat="42.44136006381938" lon="-8.081393570337957"><ele>393.0</ele><time>2026-04-18T16:43:46Z</time></trkpt><trkpt lat="42.441337610271745" lon="-8.08123809295686"><ele>392.79999999999995</ele><time>2026-04-18T16:43:47Z</time></trkpt><trkpt lat="42.44132129593242" lon="-8.081090879051638"><ele>392.6</ele><time>2026-04-18T16:43:48Z</time></trkpt><trkpt lat="42.44130889806133" lon="-8.080931032570119"><ele>392.4</ele><time>2026-04-18T16:43:49Z</time></trkpt><trkpt lat="42.4412965260411" lon="-8.080794061763514"><ele>392.20000000000005</ele><time>2026-04-18T16:43:50Z</time></trkpt><trkpt lat="42.441282456133365" lon="-8.080644931690973"><ele>392.0</ele><time>2026-04-18T16:43:51Z</time></trkpt><trkpt lat="42.44125049654004" lon="-8.08050730565886"><ele>392.0</ele><time>2026-04-18T16:43:52Z</time></trkpt><trkpt lat="42.44122931745377" lon="-8.08035931360605"><ele>392.0</ele><time>2026-04-18T16:43:53Z</time></trkpt><trkpt lat="42.441183370000445" lon="-8.080225210779622"><ele>392.0</ele><time>2026-04-18T16:43:54Z</time></trkpt><trkpt lat="42.44113933154541" lon="-8.080095928239972"><ele>392.0</ele><time>2026-04-18T16:43:55Z</time></trkpt><trkpt lat="42.44107453614238" lon="-8.079981815630749"><ele>392.0</ele><time>2026-04-18T16:43:56Z</time></trkpt><trkpt lat="42.441017700773315" lon="-8.079842421340098"><ele>390.0</ele><time>2026-04-18T16:43:57Z</time></trkpt><trkpt lat="42.440930338817665" lon="-8.079716972339453"><ele>388.0</ele><time>2026-04-18T16:43:58Z</time></trkpt><trkpt lat="42.44082626383306" lon="-8.079600744345148"><ele>386.0</ele><time>2026-04-18T16:43:59Z</time></trkpt><trkpt lat="42.4407264434132" lon="-8.079516357543913"><ele>384.0</ele><time>2026-04-18T16:44:00Z</time></trkpt><trkpt lat="42.440615634734726" lon="-8.079442869130855"><ele>384.0</ele><time>2026-04-18T16:44:01Z</time></trkpt><trkpt lat="42.44049654190209" lon="-8.079385531494525"><ele>384.0</ele><time>2026-04-18T16:44:02Z</time></trkpt><trkpt lat="42.440385146434174" lon="-8.07934243741309"><ele>384.0</ele><time>2026-04-18T16:44:03Z</time></trkpt><trkpt lat="42.44026784422527" lon="-8.07931184627177"><ele>384.0</ele><time>2026-04-18T16:44:04Z</time></trkpt><trkpt lat="42.44015586998604" lon="-8.079294368578868"><ele>384.4</ele><time>2026-04-18T16:44:05Z</time></trkpt><trkpt lat="42.440042847575654" lon="-8.079286321606919"><ele>384.79999999999995</ele><time>2026-04-18T16:44:06Z</time></trkpt><trkpt lat="42.4399419756945" lon="-8.079280757234642"><ele>385.20000000000005</ele><time>2026-04-18T16:44:07Z</time></trkpt><trkpt lat="42.439853967550675" lon="-8.079286580550546"><ele>385.6</ele><time>2026-04-18T16:44:08Z</time></trkpt><trkpt lat="42.43975854223713" lon="-8.079296679695117"><ele>386.0</ele><time>2026-04-18T16:44:09Z</time></trkpt><trkpt lat="42.4396735363332" lon="-8.079299863179065"><ele>385.4</ele><time>2026-04-18T16:44:10Z</time></trkpt><trkpt lat="42.43957077019693" lon="-8.079308309087093"><ele>384.8</ele><time>2026-04-18T16:44:11Z</time></trkpt><trkpt lat="42.439477219856805" lon="-8.079322025942346"><ele>384.2</ele><time>2026-04-18T16:44:12Z</time></trkpt><trkpt lat="42.43937652798461" lon="-8.079335870290253"><ele>383.59999999999997</ele><time>2026-04-18T16:44:13Z</time></trkpt><trkpt lat="42.43928636452988" lon="-8.079362950477936"><ele>383.0</ele><time>2026-04-18T16:44:14Z</time></trkpt><trkpt lat="42.439187298496584" lon="-8.079399507190645"><ele>383.0</ele><time>2026-04-18T16:44:15Z</time></trkpt><trkpt lat="42.439098648043625" lon="-8.079455211414313"><ele>383.0</ele><time>2026-04-18T16:44:16Z</time></trkpt><trkpt lat="42.43900123307998" lon="-8.07952780589757"><ele>383.0</ele><time>2026-04-18T16:44:17Z</time></trkpt><trkpt lat="42.43890921253391" lon="-8.079620227808952"><ele>383.0</ele><time>2026-04-18T16:44:18Z</time></trkpt><trkpt lat="42.43882462540174" lon="-8.079724090591895"><ele>383.0</ele><time>2026-04-18T16:44:19Z</time></trkpt><trkpt lat="42.43875056392649" lon="-8.079835149371444"><ele>383.2</ele><time>2026-04-18T16:44:20Z</time></trkpt><trkpt lat="42.43868316570174" lon="-8.079952595141362"><ele>383.4</ele><time>2026-04-18T16:44:21Z</time></trkpt><trkpt lat="42.4386178174608" lon="-8.080073090885247"><ele>383.59999999999997</ele><time>2026-04-18T16:44:21.999Z</time></trkpt><trkpt lat="42.43855000714969" lon="-8.080192946568028"><ele>383.79999999999995</ele><time>2026-04-18T16:44:22.999Z</time></trkpt><trkpt lat="42.438478309728985" lon="-8.080299676678372"><ele>384.0</ele><time>2026-04-18T16:44:23.999Z</time></trkpt><trkpt lat="42.4384108599317" lon="-8.080405856895222"><ele>384.0</ele><time>2026-04-18T16:44:24.999Z</time></trkpt><trkpt lat="42.4383280200174" lon="-8.08050288397738"><ele>384.0</ele><time>2026-04-18T16:44:25.999Z</time></trkpt><trkpt lat="42.4382349296238" lon="-8.080588197018148"><ele>384.0</ele><time>2026-04-18T16:44:26.999Z</time></trkpt><trkpt lat="42.43813798803372" lon="-8.080669040443775"><ele>384.0</ele><time>2026-04-18T16:44:27.999Z</time></trkpt><trkpt lat="42.43804387502194" lon="-8.080742997371217"><ele>384.0</ele><time>2026-04-18T16:44:28.999Z</time></trkpt><trkpt lat="42.43795135934638" lon="-8.080812154135623"><ele>383.0</ele><time>2026-04-18T16:44:29.999Z</time></trkpt><trkpt lat="42.43786299246986" lon="-8.080877987933073"><ele>382.0</ele><time>2026-04-18T16:44:30.999Z</time></trkpt><trkpt lat="42.43777172700937" lon="-8.0809496483984"><ele>381.0</ele><time>2026-04-18T16:44:31.999Z</time></trkpt><trkpt lat="42.437665400268735" lon="-8.081048314213652"><ele>380.0</ele><time>2026-04-18T16:44:32.999Z</time></trkpt><trkpt lat="42.43754014226974" lon="-8.081131669849423"><ele>380.0</ele><time>2026-04-18T16:44:33.999Z</time></trkpt><trkpt lat="42.437428639811536" lon="-8.08122130220398"><ele>380.0</ele><time>2026-04-18T16:44:34.999Z</time></trkpt><trkpt lat="42.43732105334166" lon="-8.081303035921605"><ele>380.0</ele><time>2026-04-18T16:44:35.999Z</time></trkpt><trkpt lat="42.43721300022845" lon="-8.081370822803082"><ele>380.0</ele><time>2026-04-18T16:44:36.999Z</time></trkpt><trkpt lat="42.43710247953622" lon="-8.081454330958033"><ele>379.75</ele><time>2026-04-18T16:44:37.999Z</time></trkpt><trkpt lat="42.43697859527596" lon="-8.081531188459028"><ele>379.5</ele><time>2026-04-18T16:44:38.999Z</time></trkpt><trkpt lat="42.43684580493658" lon="-8.08161034447034"><ele>379.25</ele><time>2026-04-18T16:44:39.999Z</time></trkpt><trkpt lat="42.436712832989045" lon="-8.081683692113986"><ele>379.0</ele><time>2026-04-18T16:44:40.999Z</time></trkpt><trkpt lat="42.436591518539466" lon="-8.081754772915474"><ele>379.0</ele><time>2026-04-18T16:44:41.999Z</time></trkpt><trkpt lat="42.43651710719774" lon="-8.081806710696332"><ele>379.0</ele><time>2026-04-18T16:44:42.999Z</time></trkpt><trkpt lat="42.43650159021054" lon="-8.081961726736374"><ele>379.0</ele><time>2026-04-18T16:44:44.999Z</time></trkpt><trkpt lat="42.43659976596384" lon="-8.082056212421"><ele>379.0</ele><time>2026-04-18T16:44:46.999Z</time></trkpt><trkpt lat="42.43666683338153" lon="-8.08204942578518"><ele>379.0</ele><time>2026-04-18T16:44:47.999Z</time></trkpt><trkpt lat="42.43672217315839" lon="-8.081974562746748"><ele>379.0</ele><time>2026-04-18T16:44:49.999Z</time></trkpt><trkpt lat="42.436789204578496" lon="-8.081911941819877"><ele>379.0</ele><time>2026-04-18T16:45:10Z</time></trkpt><trkpt lat="42.43679883301731" lon="-8.08179268879959"><ele>379.0</ele><time>2026-04-18T16:45:11Z</time></trkpt><trkpt lat="42.43680533288405" lon="-8.081672578421047"><ele>379.0</ele><time>2026-04-18T16:45:12Z</time></trkpt><trkpt lat="42.43680974368071" lon="-8.081548897726869"><ele>379.0</ele><time>2026-04-18T16:45:13Z</time></trkpt><trkpt lat="42.43681564854466" lon="-8.081402231970733"><ele>378.75</ele><time>2026-04-18T16:45:14Z</time></trkpt><trkpt lat="42.43681988836475" lon="-8.081244192634822"><ele>378.5</ele><time>2026-04-18T16:45:15Z</time></trkpt><trkpt lat="42.43681521129293" lon="-8.081072108318684"><ele>378.25</ele><time>2026-04-18T16:45:16Z</time></trkpt><trkpt lat="42.43680617062933" lon="-8.080897114213979"><ele>378.0</ele><time>2026-04-18T16:45:17Z</time></trkpt><trkpt lat="42.436777552659365" lon="-8.080708524337556"><ele>379.25</ele><time>2026-04-18T16:45:18Z</time></trkpt><trkpt lat="42.436742877793606" lon="-8.08051528738479"><ele>380.5</ele><time>2026-04-18T16:45:19Z</time></trkpt><trkpt lat="42.43671013546624" lon="-8.080324412415774"><ele>381.75</ele><time>2026-04-18T16:45:20Z</time></trkpt><trkpt lat="42.43664749945711" lon="-8.080139185477867"><ele>383.0</ele><time>2026-04-18T16:45:21Z</time></trkpt><trkpt lat="42.43660486655732" lon="-8.07995676028374"><ele>384.0</ele><time>2026-04-18T16:45:22Z</time></trkpt><trkpt lat="42.436543076983725" lon="-8.079803009718836"><ele>385.0</ele><time>2026-04-18T16:45:23Z</time></trkpt><trkpt lat="42.436480042536225" lon="-8.07966400597407"><ele>386.0</ele><time>2026-04-18T16:45:24Z</time></trkpt><trkpt lat="42.436417980591365" lon="-8.07954171359433"><ele>387.0</ele><time>2026-04-18T16:45:25Z</time></trkpt><trkpt lat="42.43636249362385" lon="-8.079439575489506"><ele>387.0</ele><time>2026-04-18T16:45:26Z</time></trkpt><trkpt lat="42.43631443879918" lon="-8.07935319828066"><ele>387.0</ele><time>2026-04-18T16:45:27Z</time></trkpt><trkpt lat="42.43627170118438" lon="-8.079285906527094"><ele>387.0</ele><time>2026-04-18T16:45:28Z</time></trkpt><trkpt lat="42.436193335305376" lon="-8.079177154841672"><ele>387.0</ele><time>2026-04-18T16:45:30Z</time></trkpt><trkpt lat="42.43611609102976" lon="-8.079086801148389"><ele>387.0</ele><time>2026-04-18T16:45:32Z</time></trkpt><trkpt lat="42.43602730426123" lon="-8.078963632102068"><ele>388.3333333333333</ele><time>2026-04-18T16:45:34Z</time></trkpt><trkpt lat="42.43597509760375" lon="-8.078898939512062"><ele>389.66666666666663</ele><time>2026-04-18T16:45:35Z</time></trkpt><trkpt lat="42.43591746390653" lon="-8.07883393107092"><ele>391.0</ele><time>2026-04-18T16:45:36Z</time></trkpt><trkpt lat="42.43585322025851" lon="-8.07875918921551"><ele>392.3333333333333</ele><time>2026-04-18T16:45:37Z</time></trkpt><trkpt lat="42.435783963654586" lon="-8.078692575584123"><ele>393.66666666666663</ele><time>2026-04-18T16:45:38Z</time></trkpt><trkpt lat="42.43571075726897" lon="-8.078626248157747"><ele>395.0</ele><time>2026-04-18T16:45:39Z</time></trkpt><trkpt lat="42.435634450579926" lon="-8.078554184774298"><ele>395.0</ele><time>2026-04-18T16:45:40Z</time></trkpt><trkpt lat="42.435559885598686" lon="-8.078478327403426"><ele>395.0</ele><time>2026-04-18T16:45:41Z</time></trkpt><trkpt lat="42.43547878196925" lon="-8.078389893437148"><ele>395.0</ele><time>2026-04-18T16:45:42Z</time></trkpt><trkpt lat="42.43539286710231" lon="-8.078311438319886"><ele>395.0</ele><time>2026-04-18T16:45:43Z</time></trkpt><trkpt lat="42.43531735621899" lon="-8.078232746649565"><ele>395.0</ele><time>2026-04-18T16:45:44Z</time></trkpt><trkpt lat="42.43524691292344" lon="-8.078164293358563"><ele>396.49999999999994</ele><time>2026-04-18T16:45:45Z</time></trkpt><trkpt lat="42.435182545723215" lon="-8.078107609349189"><ele>398.0</ele><time>2026-04-18T16:45:46Z</time></trkpt><trkpt lat="42.435120830730135" lon="-8.078055035205615"><ele>399.5</ele><time>2026-04-18T16:45:47Z</time></trkpt><trkpt lat="42.43504595758818" lon="-8.078005362852092"><ele>401.0</ele><time>2026-04-18T16:45:48Z</time></trkpt><trkpt lat="42.43496289105725" lon="-8.077971897593178"><ele>402.49999999999994</ele><time>2026-04-18T16:45:49Z</time></trkpt><trkpt lat="42.43488125204102" lon="-8.077940515929754"><ele>404.0</ele><time>2026-04-18T16:45:50Z</time></trkpt><trkpt lat="42.43480282695998" lon="-8.077891027802618"><ele>404.0</ele><time>2026-04-18T16:45:51Z</time></trkpt><trkpt lat="42.43473914904121" lon="-8.077810474372214"><ele>404.0</ele><time>2026-04-18T16:45:52Z</time></trkpt><trkpt lat="42.43469996644121" lon="-8.077713864582472"><ele>404.0</ele><time>2026-04-18T16:45:53Z</time></trkpt><trkpt lat="42.43469650894298" lon="-8.077586614417202"><ele>404.0</ele><time>2026-04-18T16:45:54Z</time></trkpt><trkpt lat="42.434757250340574" lon="-8.077505107970756"><ele>404.0</ele><time>2026-04-18T16:45:55Z</time></trkpt><trkpt lat="42.43468988956659" lon="-8.077346378450539"><ele>404.49999999999994</ele><time>2026-04-18T16:45:56Z</time></trkpt><trkpt lat="42.434604806755935" lon="-8.07725073367069"><ele>405.0</ele><time>2026-04-18T16:45:58Z</time></trkpt><trkpt lat="42.43458798957948" lon="-8.077166791946388"><ele>405.5</ele><time>2026-04-18T16:46:01Z</time></trkpt><trkpt lat="42.434579320238775" lon="-8.077080067743022"><ele>406.0</ele><time>2026-04-18T16:46:06Z</time></trkpt><trkpt lat="42.43455067603232" lon="-8.076988228599324"><ele>406.49999999999994</ele><time>2026-04-18T16:46:07Z</time></trkpt><trkpt lat="42.43450029194726" lon="-8.076893387858092"><ele>407.0</ele><time>2026-04-18T16:46:08Z</time></trkpt><trkpt lat="42.43445135140755" lon="-8.076779809185636"><ele>407.0</ele><time>2026-04-18T16:46:09Z</time></trkpt><trkpt lat="42.43440017960654" lon="-8.076667508798115"><ele>407.0</ele><time>2026-04-18T16:46:10Z</time></trkpt><trkpt lat="42.434347580640996" lon="-8.076542844098233"><ele>407.0</ele><time>2026-04-18T16:46:11Z</time></trkpt><trkpt lat="42.43429288118787" lon="-8.076412330590143"><ele>407.0</ele><time>2026-04-18T16:46:12Z</time></trkpt><trkpt lat="42.43423610246916" lon="-8.076283222503527"><ele>407.0</ele><time>2026-04-18T16:46:13Z</time></trkpt><trkpt lat="42.43417794292398" lon="-8.076162582395284"><ele>407.16666666666663</ele><time>2026-04-18T16:46:14Z</time></trkpt><trkpt lat="42.43412114950137" lon="-8.076048713557439"><ele>407.3333333333333</ele><time>2026-04-18T16:46:15Z</time></trkpt><trkpt lat="42.43407153232863" lon="-8.075943742447398"><ele>407.5</ele><time>2026-04-18T16:46:16Z</time></trkpt><trkpt lat="42.43403179726016" lon="-8.075854487800468"><ele>407.66666666666663</ele><time>2026-04-18T16:46:17Z</time></trkpt><trkpt lat="42.433988694931955" lon="-8.07576103615832"><ele>407.8333333333333</ele><time>2026-04-18T16:46:18Z</time></trkpt><trkpt lat="42.43394546194417" lon="-8.075678321900496"><ele>408.0</ele><time>2026-04-18T16:46:19Z</time></trkpt><trkpt lat="42.43390697676775" lon="-8.075601122186747"><ele>408.0</ele><time>2026-04-18T16:46:20Z</time></trkpt><trkpt lat="42.43384438589983" lon="-8.07547437961405"><ele>408.0</ele><time>2026-04-18T16:46:22Z</time></trkpt><trkpt lat="42.433803647437045" lon="-8.075375628426775"><ele>408.0</ele><time>2026-04-18T16:46:24Z</time></trkpt><trkpt lat="42.433769939590555" lon="-8.075301453011466"><ele>408.0</ele><time>2026-04-18T16:46:28Z</time></trkpt><trkpt lat="42.43371347889862" lon="-8.075175957609815"><ele>408.0</ele><time>2026-04-18T16:46:42.999Z</time></trkpt><trkpt lat="42.43367147030726" lon="-8.075084236131318"><ele>408.0</ele><time>2026-04-18T16:46:43.999Z</time></trkpt><trkpt lat="42.433627062135265" lon="-8.074987656373464"><ele>408.0</ele><time>2026-04-18T16:46:44.999Z</time></trkpt><trkpt lat="42.43358224254822" lon="-8.074887395782575"><ele>408.0</ele><time>2026-04-18T16:46:45.999Z</time></trkpt><trkpt lat="42.43353513266047" lon="-8.074781013984039"><ele>408.0</ele><time>2026-04-18T16:46:46.999Z</time></trkpt><trkpt lat="42.43348783468463" lon="-8.07467420749098"><ele>408.0</ele><time>2026-04-18T16:46:47.999Z</time></trkpt><trkpt lat="42.43344056965562" lon="-8.074567475326651"><ele>408.0</ele><time>2026-04-18T16:46:48.999Z</time></trkpt><trkpt lat="42.43339464656294" lon="-8.074464125622217"><ele>408.0</ele><time>2026-04-18T16:46:49.999Z</time></trkpt><trkpt lat="42.43334790326027" lon="-8.074359229885735"><ele>408.0</ele><time>2026-04-18T16:46:50.999Z</time></trkpt><trkpt lat="42.43330075813946" lon="-8.074253433468554"><ele>408.0</ele><time>2026-04-18T16:46:51.999Z</time></trkpt><trkpt lat="42.433254074828426" lon="-8.074148673303569"><ele>408.0</ele><time>2026-04-18T16:46:52.999Z</time></trkpt><trkpt lat="42.43320741291651" lon="-8.07404396121988"><ele>408.0</ele><time>2026-04-18T16:46:53.999Z</time></trkpt><trkpt lat="42.433160792118855" lon="-8.07393934134933"><ele>407.1666666666667</ele><time>2026-04-18T16:46:54.999Z</time></trkpt><trkpt lat="42.433115629607656" lon="-8.073837993884775"><ele>406.33333333333337</ele><time>2026-04-18T16:46:55.999Z</time></trkpt><trkpt lat="42.43307218266664" lon="-8.073740496297393"><ele>405.5</ele><time>2026-04-18T16:46:56.999Z</time></trkpt><trkpt lat="42.43303098605277" lon="-8.07364804860992"><ele>404.6666666666667</ele><time>2026-04-18T16:46:57.999Z</time></trkpt><trkpt lat="42.43299307275673" lon="-8.073562968876793"><ele>403.83333333333337</ele><time>2026-04-18T16:46:58.999Z</time></trkpt><trkpt lat="42.43295384931611" lon="-8.07347494905884"><ele>403.0</ele><time>2026-04-18T16:46:59.999Z</time></trkpt><trkpt lat="42.432914245569435" lon="-8.073386075903551"><ele>402.8571428571429</ele><time>2026-04-18T16:47:01Z</time></trkpt><trkpt lat="42.43287644470314" lon="-8.073301248700956"><ele>402.71428571428567</ele><time>2026-04-18T16:47:02Z</time></trkpt><trkpt lat="42.4328392974036" lon="-8.073217887585168"><ele>402.57142857142856</ele><time>2026-04-18T16:47:03Z</time></trkpt><trkpt lat="42.432801779592815" lon="-8.073133697560058"><ele>402.42857142857144</ele><time>2026-04-18T16:47:04Z</time></trkpt><trkpt lat="42.432763660069824" lon="-8.07304908191825"><ele>402.28571428571433</ele><time>2026-04-18T16:47:05Z</time></trkpt><trkpt lat="42.43272271221167" lon="-8.07295789589442"><ele>402.1428571428571</ele><time>2026-04-18T16:47:06Z</time></trkpt><trkpt lat="42.43268203536937" lon="-8.072867313287826"><ele>402.0</ele><time>2026-04-18T16:47:07Z</time></trkpt><trkpt lat="42.432638810682306" lon="-8.072771056933155"><ele>401.6666666666667</ele><time>2026-04-18T16:47:08Z</time></trkpt><trkpt lat="42.43259612995831" lon="-8.072676011953222"><ele>401.33333333333337</ele><time>2026-04-18T16:47:09Z</time></trkpt><trkpt lat="42.43255197959642" lon="-8.072577694301069"><ele>401.0</ele><time>2026-04-18T16:47:10Z</time></trkpt><trkpt lat="42.43250974558844" lon="-8.072483644077463"><ele>400.6666666666667</ele><time>2026-04-18T16:47:11Z</time></trkpt><trkpt lat="42.43246650528213" lon="-8.0723875190311"><ele>400.33333333333337</ele><time>2026-04-18T16:47:12Z</time></trkpt><trkpt lat="42.432427214496826" lon="-8.072300534381668"><ele>400.0</ele><time>2026-04-18T16:47:13Z</time></trkpt><trkpt lat="42.432389380986876" lon="-8.072216775729753"><ele>399.6</ele><time>2026-04-18T16:47:14Z</time></trkpt><trkpt lat="42.43235503475991" lon="-8.072140737714966"><ele>399.2</ele><time>2026-04-18T16:47:15Z</time></trkpt><trkpt lat="42.43230943703993" lon="-8.072039790102917"><ele>398.79999999999995</ele><time>2026-04-18T16:47:17Z</time></trkpt><trkpt lat="42.43241729771137" lon="-8.072023369603048"><ele>398.4</ele><time>2026-04-18T16:47:23Z</time></trkpt><trkpt lat="42.43244946763329" lon="-8.072208623969662"><ele>398.0</ele><time>2026-04-18T16:47:26Z</time></trkpt><trkpt lat="42.432509173229946" lon="-8.072302857278315"><ele>398.0</ele><time>2026-04-18T16:47:27Z</time></trkpt><trkpt lat="42.43256299945446" lon="-8.072414539652243"><ele>398.0</ele><time>2026-04-18T16:47:28Z</time></trkpt><trkpt lat="42.43261746706982" lon="-8.072529601750482"><ele>398.0</ele><time>2026-04-18T16:47:29Z</time></trkpt><trkpt lat="42.4326711539089" lon="-8.072653017347962"><ele>398.0</ele><time>2026-04-18T16:47:30Z</time></trkpt><trkpt lat="42.432725361539774" lon="-8.07278106584454"><ele>398.0</ele><time>2026-04-18T16:47:31Z</time></trkpt><trkpt lat="42.43277522803037" lon="-8.072896134267145"><ele>397.99999999999994</ele><time>2026-04-18T16:47:32Z</time></trkpt><trkpt lat="42.4328172472925" lon="-8.072997476510054"><ele>398.0</ele><time>2026-04-18T16:47:33Z</time></trkpt><trkpt lat="42.432849998979265" lon="-8.073088343183558"><ele>398.0</ele><time>2026-04-18T16:47:34Z</time></trkpt><trkpt lat="42.43288280897115" lon="-8.073167066662194"><ele>398.0</ele><time>2026-04-18T16:47:35Z</time></trkpt><trkpt lat="42.43293377885002" lon="-8.073271144446108"><ele>397.99999999999994</ele><time>2026-04-18T16:47:37Z</time></trkpt><trkpt lat="42.43300140223445" lon="-8.073249052637568"><ele>398.0</ele><time>2026-04-18T16:47:42Z</time></trkpt><trkpt lat="42.43293745051343" lon="-8.073230402659783"><ele>398.2857142857143</ele><time>2026-04-18T16:47:45Z</time></trkpt><trkpt lat="42.43288051150199" lon="-8.073190539259919"><ele>398.57142857142856</ele><time>2026-04-18T16:47:48Z</time></trkpt><trkpt lat="42.43282009255493" lon="-8.073139464416696"><ele>398.8571428571429</ele><time>2026-04-18T16:47:51Z</time></trkpt><trkpt lat="42.43283553769751" lon="-8.073231590736654"><ele>399.1428571428571</ele><time>2026-04-18T16:47:59Z</time></trkpt><trkpt lat="42.432843845216254" lon="-8.073328623138423"><ele>399.42857142857144</ele><time>2026-04-18T16:48:07Z</time></trkpt><trkpt lat="42.432785302223316" lon="-8.073372508932785"><ele>399.7142857142857</ele><time>2026-04-18T16:48:16Z</time></trkpt><trkpt lat="42.43270418023866" lon="-8.073412646103575"><ele>400.0</ele><time>2026-04-18T16:56:55Z</time></trkpt><trkpt lat="42.432655907044435" lon="-8.0734737594538"><ele>400.33333333333337</ele><time>2026-04-18T16:57:15.999Z</time></trkpt><trkpt lat="42.43270004458876" lon="-8.073411244780155"><ele>400.6666666666667</ele><time>2026-04-18T16:57:22.999Z</time></trkpt><trkpt lat="42.43276809195451" lon="-8.073361976502651"><ele>401.0</ele><time>2026-04-18T16:57:40Z</time></trkpt><trkpt lat="42.43283279561102" lon="-8.073320561501806"><ele>401.33333333333337</ele><time>2026-04-18T16:57:54Z</time></trkpt><trkpt lat="42.4328921510988" lon="-8.073440803675219"><ele>401.6666666666667</ele><time>2026-04-18T16:57:58Z</time></trkpt><trkpt lat="42.43295404353422" lon="-8.073519081313812"><ele>402.0</ele><time>2026-04-18T16:57:59Z</time></trkpt><trkpt lat="42.43300464617943" lon="-8.073629514630781"><ele>402.20000000000005</ele><time>2026-04-18T16:58:00Z</time></trkpt><trkpt lat="42.433074287908795" lon="-8.07374765687575"><ele>402.4</ele><time>2026-04-18T16:58:01Z</time></trkpt><trkpt lat="42.43315903317258" lon="-8.073848170292552"><ele>402.6</ele><time>2026-04-18T16:58:02Z</time></trkpt><trkpt lat="42.43320973048739" lon="-8.073961938322732"><ele>402.79999999999995</ele><time>2026-04-18T16:58:03Z</time></trkpt><trkpt lat="42.43325024257895" lon="-8.07405284972789"><ele>403.0</ele><time>2026-04-18T16:58:04Z</time></trkpt><trkpt lat="42.433286923620074" lon="-8.074135164289219"><ele>403.7142857142857</ele><time>2026-04-18T16:58:05Z</time></trkpt><trkpt lat="42.43331327212885" lon="-8.074217163566558"><ele>404.4285714285714</ele><time>2026-04-18T16:58:06Z</time></trkpt><trkpt lat="42.43335245372448" lon="-8.074289504534159"><ele>405.1428571428571</ele><time>2026-04-18T16:58:07Z</time></trkpt><trkpt lat="42.43338978346793" lon="-8.074367398043172"><ele>405.8571428571429</ele><time>2026-04-18T16:58:08Z</time></trkpt><trkpt lat="42.43342727318949" lon="-8.07443938075466"><ele>406.57142857142856</ele><time>2026-04-18T16:58:09Z</time></trkpt><trkpt lat="42.43345679695253" lon="-8.07451580232959"><ele>407.2857142857143</ele><time>2026-04-18T16:58:10Z</time></trkpt><trkpt lat="42.433519374925325" lon="-8.074641315196937"><ele>408.0</ele><time>2026-04-18T16:58:12Z</time></trkpt><trkpt lat="42.43356993043253" lon="-8.07473961747203"><ele>408.0</ele><time>2026-04-18T16:58:14Z</time></trkpt><trkpt lat="42.4336155831543" lon="-8.07482616465697"><ele>408.0</ele><time>2026-04-18T16:58:17Z</time></trkpt><trkpt lat="42.433720281475836" lon="-8.07492168576999"><ele>408.0</ele><time>2026-04-18T16:58:35Z</time></trkpt><trkpt lat="42.43380669955087" lon="-8.074938517390049"><ele>408.0</ele><time>2026-04-18T16:58:36Z</time></trkpt><trkpt lat="42.433902705194626" lon="-8.07488788844618"><ele>408.0</ele><time>2026-04-18T16:58:37Z</time></trkpt><trkpt lat="42.43400188042307" lon="-8.074825342668495"><ele>408.4</ele><time>2026-04-18T16:58:38Z</time></trkpt><trkpt lat="42.43409433884954" lon="-8.074725261097552"><ele>408.79999999999995</ele><time>2026-04-18T16:58:39Z</time></trkpt><trkpt lat="42.43419279741049" lon="-8.07465794079636"><ele>409.2</ele><time>2026-04-18T16:58:40Z</time></trkpt><trkpt lat="42.43427236262861" lon="-8.074579446607947"><ele>409.6</ele><time>2026-04-18T16:58:41Z</time></trkpt><trkpt lat="42.43435345447696" lon="-8.07450894184099"><ele>410.0</ele><time>2026-04-18T16:58:41.999Z</time></trkpt><trkpt lat="42.43442890550553" lon="-8.074424202355218"><ele>410.0</ele><time>2026-04-18T16:58:42.999Z</time></trkpt><trkpt lat="42.43449017849285" lon="-8.074327157805477"><ele>410.0</ele><time>2026-04-18T16:58:43.999Z</time></trkpt><trkpt lat="42.434537895800815" lon="-8.074235058145774"><ele>410.0</ele><time>2026-04-18T16:58:44.999Z</time></trkpt><trkpt lat="42.43459510816936" lon="-8.07413536740012"><ele>410.0</ele><time>2026-04-18T16:58:45.999Z</time></trkpt><trkpt lat="42.43462980000541" lon="-8.074019767460376"><ele>410.0</ele><time>2026-04-18T16:58:46.999Z</time></trkpt><trkpt lat="42.43468757257675" lon="-8.07392415403827"><ele>410.8333333333333</ele><time>2026-04-18T16:58:47.999Z</time></trkpt><trkpt lat="42.43473747621429" lon="-8.073824055632487"><ele>411.66666666666663</ele><time>2026-04-18T16:58:48.999Z</time></trkpt><trkpt lat="42.43478117729556" lon="-8.073719383071026"><ele>412.5</ele><time>2026-04-18T16:58:49.999Z</time></trkpt><trkpt lat="42.43482473164924" lon="-8.073612147925651"><ele>413.33333333333337</ele><time>2026-04-18T16:58:50.999Z</time></trkpt><trkpt lat="42.43486839561525" lon="-8.073510520218273"><ele>414.1666666666667</ele><time>2026-04-18T16:58:51.999Z</time></trkpt><trkpt lat="42.434893216309" lon="-8.073395022644515"><ele>415.0</ele><time>2026-04-18T16:58:52.999Z</time></trkpt><trkpt lat="42.43493655423123" lon="-8.073290879179117"><ele>414.50000000000006</ele><time>2026-04-18T16:58:53.999Z</time></trkpt><trkpt lat="42.434980335184285" lon="-8.073185673151153"><ele>414.0</ele><time>2026-04-18T16:58:54.999Z</time></trkpt><trkpt lat="42.43502336789966" lon="-8.073082682981303"><ele>413.5</ele><time>2026-04-18T16:58:55.999Z</time></trkpt><trkpt lat="42.43506621329259" lon="-8.07298003117633"><ele>413.0</ele><time>2026-04-18T16:58:56.999Z</time></trkpt><trkpt lat="42.43510856644811" lon="-8.072878558730158"><ele>412.50000000000006</ele><time>2026-04-18T16:58:57.999Z</time></trkpt><trkpt lat="42.43515137861581" lon="-8.072775986416989"><ele>412.0</ele><time>2026-04-18T16:58:58.999Z</time></trkpt><trkpt lat="42.43519515283857" lon="-8.072671109294209"><ele>412.0</ele><time>2026-04-18T16:58:59.999Z</time></trkpt><trkpt lat="42.435238192510624" lon="-8.072567994328345"><ele>412.0</ele><time>2026-04-18T16:59:00.999Z</time></trkpt><trkpt lat="42.435281215747786" lon="-8.072464055345913"><ele>412.0</ele><time>2026-04-18T16:59:01.999Z</time></trkpt><trkpt lat="42.435324956298345" lon="-8.072358634209609"><ele>412.0</ele><time>2026-04-18T16:59:02.999Z</time></trkpt><trkpt lat="42.43537036372271" lon="-8.072249195772637"><ele>412.0</ele><time>2026-04-18T16:59:03.999Z</time></trkpt><trkpt lat="42.43541579643807" lon="-8.07213969625841"><ele>412.0</ele><time>2026-04-18T16:59:04.999Z</time></trkpt><trkpt lat="42.43546430301461" lon="-8.072022789707942"><ele>412.0</ele><time>2026-04-18T16:59:05.999Z</time></trkpt><trkpt lat="42.435512822490324" lon="-8.07190793432739"><ele>412.0</ele><time>2026-04-18T16:59:06.999Z</time></trkpt><trkpt lat="42.43555870684371" lon="-8.071798964284909"><ele>412.0</ele><time>2026-04-18T16:59:07.999Z</time></trkpt><trkpt lat="42.43561496911623" lon="-8.071698713666805"><ele>412.0</ele><time>2026-04-18T16:59:08.999Z</time></trkpt><trkpt lat="42.43564757278148" lon="-8.071587918291248"><ele>412.0</ele><time>2026-04-18T16:59:09.999Z</time></trkpt><trkpt lat="42.43569229119691" lon="-8.071483088659601"><ele>412.0</ele><time>2026-04-18T16:59:10.999Z</time></trkpt><trkpt lat="42.435739839587136" lon="-8.071372606096602"><ele>412.0</ele><time>2026-04-18T16:59:11.999Z</time></trkpt><trkpt lat="42.43578491512968" lon="-8.071267869345322"><ele>412.0</ele><time>2026-04-18T16:59:12.999Z</time></trkpt><trkpt lat="42.435830667885426" lon="-8.071161559342292"><ele>412.0</ele><time>2026-04-18T16:59:13.999Z</time></trkpt><trkpt lat="42.43588105115011" lon="-8.07104278523961"><ele>412.0</ele><time>2026-04-18T16:59:14.999Z</time></trkpt><trkpt lat="42.43594209361063" lon="-8.070936518745514"><ele>412.0</ele><time>2026-04-18T16:59:15.999Z</time></trkpt><trkpt lat="42.4359933541192" lon="-8.07081249472746"><ele>412.0</ele><time>2026-04-18T16:59:16.999Z</time></trkpt><trkpt lat="42.43604450706545" lon="-8.07068690405324"><ele>412.0</ele><time>2026-04-18T16:59:17.999Z</time></trkpt><trkpt lat="42.436083135723706" lon="-8.070548547959476"><ele>412.0</ele><time>2026-04-18T16:59:18.999Z</time></trkpt><trkpt lat="42.436135397021815" lon="-8.070419697897941"><ele>411.6</ele><time>2026-04-18T16:59:19.999Z</time></trkpt><trkpt lat="42.43618818148911" lon="-8.070289558018489"><ele>411.20000000000005</ele><time>2026-04-18T16:59:20.999Z</time></trkpt><trkpt lat="42.43624186756469" lon="-8.070157286577025"><ele>410.8</ele><time>2026-04-18T16:59:21.999Z</time></trkpt><trkpt lat="42.43629671173098" lon="-8.070024298674953"><ele>410.4</ele><time>2026-04-18T16:59:22.999Z</time></trkpt><trkpt lat="42.436348812069475" lon="-8.069897964156882"><ele>410.0</ele><time>2026-04-18T16:59:23.999Z</time></trkpt><trkpt lat="42.436401624127825" lon="-8.06976990362055"><ele>411.0</ele><time>2026-04-18T16:59:24.999Z</time></trkpt><trkpt lat="42.43645875736017" lon="-8.069631494532858"><ele>412.0</ele><time>2026-04-18T16:59:25.999Z</time></trkpt><trkpt lat="42.436510321481116" lon="-8.069499028733254"><ele>413.0</ele><time>2026-04-18T16:59:26.999Z</time></trkpt><trkpt lat="42.436559015154934" lon="-8.069363970335102"><ele>414.0</ele><time>2026-04-18T16:59:27.999Z</time></trkpt><trkpt lat="42.43659811317407" lon="-8.06922184280197"><ele>413.75</ele><time>2026-04-18T16:59:28.999Z</time></trkpt><trkpt lat="42.436629719412956" lon="-8.069072472173106"><ele>413.5</ele><time>2026-04-18T16:59:29.999Z</time></trkpt><trkpt lat="42.436674961664075" lon="-8.068925735075606"><ele>413.25</ele><time>2026-04-18T16:59:30.999Z</time></trkpt><trkpt lat="42.436701489083966" lon="-8.06876035836709"><ele>413.0</ele><time>2026-04-18T16:59:31.999Z</time></trkpt><trkpt lat="42.43673337460237" lon="-8.068596773669453"><ele>413.0</ele><time>2026-04-18T16:59:32.999Z</time></trkpt><trkpt lat="42.43676848282898" lon="-8.068425900399543"><ele>413.0</ele><time>2026-04-18T16:59:33.999Z</time></trkpt><trkpt lat="42.43679963831121" lon="-8.068255731584252"><ele>413.0</ele><time>2026-04-18T16:59:34.999Z</time></trkpt><trkpt lat="42.43683286500393" lon="-8.068079538323248"><ele>413.0</ele><time>2026-04-18T16:59:35.999Z</time></trkpt><trkpt lat="42.436867390638476" lon="-8.067900224045205"><ele>412.75</ele><time>2026-04-18T16:59:36.999Z</time></trkpt><trkpt lat="42.436903860007625" lon="-8.067719322618514"><ele>412.5</ele><time>2026-04-18T16:59:37.999Z</time></trkpt><trkpt lat="42.436940198161835" lon="-8.067538035218574"><ele>412.25</ele><time>2026-04-18T16:59:38.999Z</time></trkpt><trkpt lat="42.43697276689143" lon="-8.067358068166582"><ele>412.0</ele><time>2026-04-18T16:59:39.999Z</time></trkpt><trkpt lat="42.437007658820825" lon="-8.067179010972099"><ele>413.0</ele><time>2026-04-18T16:59:40.999Z</time></trkpt><trkpt lat="42.437039950778846" lon="-8.067004434211059"><ele>414.0</ele><time>2026-04-18T16:59:41.999Z</time></trkpt><trkpt lat="42.43707115770787" lon="-8.0668313110342"><ele>415.0</ele><time>2026-04-18T16:59:42.999Z</time></trkpt><trkpt lat="42.437113028108946" lon="-8.066661507385708"><ele>416.0</ele><time>2026-04-18T16:59:43.999Z</time></trkpt><trkpt lat="42.43715464887957" lon="-8.066490349619349"><ele>417.25</ele><time>2026-04-18T16:59:44.999Z</time></trkpt><trkpt lat="42.437205555365786" lon="-8.066325130027277"><ele>418.5</ele><time>2026-04-18T16:59:45.999Z</time></trkpt><trkpt lat="42.43725305064389" lon="-8.066173437042659"><ele>419.75</ele><time>2026-04-18T16:59:46.999Z</time></trkpt><trkpt lat="42.437313701971874" lon="-8.06602073963016"><ele>421.0</ele><time>2026-04-18T16:59:47.999Z</time></trkpt><trkpt lat="42.437388546581616" lon="-8.065878447097091"><ele>421.25</ele><time>2026-04-18T16:59:48.999Z</time></trkpt><trkpt lat="42.43746404820929" lon="-8.0657219352387"><ele>421.5</ele><time>2026-04-18T16:59:49.999Z</time></trkpt><trkpt lat="42.43752996790925" lon="-8.065579000575156"><ele>421.75</ele><time>2026-04-18T16:59:50.999Z</time></trkpt><trkpt lat="42.43759662054885" lon="-8.065444635465226"><ele>422.0</ele><time>2026-04-18T16:59:51.999Z</time></trkpt><trkpt lat="42.437675510047605" lon="-8.06529802991212"><ele>422.0</ele><time>2026-04-18T16:59:52.999Z</time></trkpt><trkpt lat="42.43775752228216" lon="-8.065141788560197"><ele>422.0</ele><time>2026-04-18T16:59:53.999Z</time></trkpt><trkpt lat="42.43784007762288" lon="-8.064973667261917"><ele>422.0</ele><time>2026-04-18T16:59:54.999Z</time></trkpt><trkpt lat="42.43792221660044" lon="-8.064804482757111"><ele>422.0</ele><time>2026-04-18T16:59:55.999Z</time></trkpt><trkpt lat="42.43801349939668" lon="-8.064632961815592"><ele>424.0</ele><time>2026-04-18T16:59:56.999Z</time></trkpt><trkpt lat="42.438105445663915" lon="-8.064453539869488"><ele>426.0</ele><time>2026-04-18T16:59:57.999Z</time></trkpt><trkpt lat="42.43819961000371" lon="-8.06426886549951"><ele>428.0</ele><time>2026-04-18T16:59:58.999Z</time></trkpt><trkpt lat="42.43828933664509" lon="-8.064081883128607"><ele>428.66666666666663</ele><time>2026-04-18T16:59:59.999Z</time></trkpt><trkpt lat="42.4383755485043" lon="-8.063898640085545"><ele>429.33333333333337</ele><time>2026-04-18T17:00:00.999Z</time></trkpt><trkpt lat="42.43846045888079" lon="-8.063723112643169"><ele>430.0</ele><time>2026-04-18T17:00:01.999Z</time></trkpt><trkpt lat="42.43854282911497" lon="-8.063552948183023"><ele>430.0</ele><time>2026-04-18T17:00:02.999Z</time></trkpt><trkpt lat="42.43862108145503" lon="-8.063390566334965"><ele>430.0</ele><time>2026-04-18T17:00:03.999Z</time></trkpt><trkpt lat="42.43869724518795" lon="-8.063231425419168"><ele>430.0</ele><time>2026-04-18T17:00:04.999Z</time></trkpt><trkpt lat="42.4387697765536" lon="-8.063082444814539"><ele>430.0</ele><time>2026-04-18T17:00:05.999Z</time></trkpt><trkpt lat="42.43884389178816" lon="-8.062941895514166"><ele>431.25</ele><time>2026-04-18T17:00:06.999Z</time></trkpt><trkpt lat="42.43891063088046" lon="-8.062804665252994"><ele>432.5</ele><time>2026-04-18T17:00:07.999Z</time></trkpt><trkpt lat="42.43897621421249" lon="-8.062675125625118"><ele>433.75</ele><time>2026-04-18T17:00:08.999Z</time></trkpt><trkpt lat="42.43903998910052" lon="-8.062554834837607"><ele>435.0</ele><time>2026-04-18T17:00:09.999Z</time></trkpt><trkpt lat="42.43910092984628" lon="-8.062436936746236"><ele>435.0</ele><time>2026-04-18T17:00:10.999Z</time></trkpt><trkpt lat="42.439158711586416" lon="-8.062326206724961"><ele>435.0</ele><time>2026-04-18T17:00:11.999Z</time></trkpt><trkpt lat="42.439213321345825" lon="-8.062220776873428"><ele>435.0</ele><time>2026-04-18T17:00:12.999Z</time></trkpt><trkpt lat="42.439267328845915" lon="-8.062114935063759"><ele>435.0</ele><time>2026-04-18T17:00:13.999Z</time></trkpt><trkpt lat="42.43931920846812" lon="-8.062000877947625"><ele>435.0</ele><time>2026-04-18T17:00:14.999Z</time></trkpt><trkpt lat="42.43938471109465" lon="-8.06187358532557"><ele>435.0</ele><time>2026-04-18T17:00:15.999Z</time></trkpt><trkpt lat="42.43944399785953" lon="-8.061751671637907"><ele>435.0</ele><time>2026-04-18T17:00:16.999Z</time></trkpt><trkpt lat="42.43950000212963" lon="-8.061628780671835"><ele>435.0</ele><time>2026-04-18T17:00:17.999Z</time></trkpt><trkpt lat="42.439555935384696" lon="-8.06151040132332"><ele>435.0</ele><time>2026-04-18T17:00:18.999Z</time></trkpt><trkpt lat="42.43961225967177" lon="-8.061393719545164"><ele>435.0</ele><time>2026-04-18T17:00:19.999Z</time></trkpt><trkpt lat="42.43967110913447" lon="-8.061282890462213"><ele>435.6</ele><time>2026-04-18T17:00:20.999Z</time></trkpt><trkpt lat="42.43972451574568" lon="-8.061167359502113"><ele>436.2</ele><time>2026-04-18T17:00:21.999Z</time></trkpt><trkpt lat="42.43977694093077" lon="-8.06105773857932"><ele>436.79999999999995</ele><time>2026-04-18T17:00:22.999Z</time></trkpt><trkpt lat="42.43985913897204" lon="-8.060921112874468"><ele>437.4</ele><time>2026-04-18T17:00:23.999Z</time></trkpt><trkpt lat="42.43992395173533" lon="-8.06078112796495"><ele>438.0</ele><time>2026-04-18T17:00:24.999Z</time></trkpt><trkpt lat="42.43999545393624" lon="-8.060644506326227"><ele>438.5</ele><time>2026-04-18T17:00:25.999Z</time></trkpt><trkpt lat="42.44006465461875" lon="-8.060501089010417"><ele>439.0</ele><time>2026-04-18T17:00:26.999Z</time></trkpt><trkpt lat="42.44012589159504" lon="-8.060371984510237"><ele>439.5</ele><time>2026-04-18T17:00:27.999Z</time></trkpt><trkpt lat="42.44018665368195" lon="-8.060252130073524"><ele>440.0</ele><time>2026-04-18T17:00:28.999Z</time></trkpt><trkpt lat="42.44025022184288" lon="-8.060136440703223"><ele>440.0</ele><time>2026-04-18T17:00:29.999Z</time></trkpt><trkpt lat="42.440298166078115" lon="-8.060019005299264"><ele>440.0</ele><time>2026-04-18T17:00:30.999Z</time></trkpt><trkpt lat="42.44035184502291" lon="-8.059904068613696"><ele>440.0</ele><time>2026-04-18T17:00:31.999Z</time></trkpt><trkpt lat="42.440412656508826" lon="-8.059789930415901"><ele>440.0</ele><time>2026-04-18T17:00:32.999Z</time></trkpt><trkpt lat="42.44046856174843" lon="-8.05968123488387"><ele>440.0</ele><time>2026-04-18T17:00:33.999Z</time></trkpt><trkpt lat="42.440528520611544" lon="-8.059570596230627"><ele>441.5</ele><time>2026-04-18T17:00:34.999Z</time></trkpt><trkpt lat="42.44059082319574" lon="-8.059454539950673"><ele>443.0</ele><time>2026-04-18T17:00:35.999Z</time></trkpt><trkpt lat="42.440659576732635" lon="-8.059333316889168"><ele>444.5</ele><time>2026-04-18T17:00:36.999Z</time></trkpt><trkpt lat="42.44072430150081" lon="-8.059206484185127"><ele>446.0</ele><time>2026-04-18T17:00:37.999Z</time></trkpt><trkpt lat="42.44079118362675" lon="-8.059063786598745"><ele>446.0</ele><time>2026-04-18T17:00:38.999Z</time></trkpt><trkpt lat="42.440861858704025" lon="-8.058914623758673"><ele>446.0</ele><time>2026-04-18T17:00:39.999Z</time></trkpt><trkpt lat="42.440933334028756" lon="-8.05876974935947"><ele>446.0</ele><time>2026-04-18T17:00:40.999Z</time></trkpt><trkpt lat="42.44100224007853" lon="-8.058642902611279"><ele>446.0</ele><time>2026-04-18T17:00:41.999Z</time></trkpt><trkpt lat="42.441062116175175" lon="-8.058517810013615"><ele>446.0</ele><time>2026-04-18T17:00:42.999Z</time></trkpt><trkpt lat="42.44112088908788" lon="-8.05840085837226"><ele>446.0</ele><time>2026-04-18T17:00:43.999Z</time></trkpt><trkpt lat="42.441176551609644" lon="-8.058281906598742"><ele>446.0</ele><time>2026-04-18T17:00:44.999Z</time></trkpt><trkpt lat="42.44123443361084" lon="-8.058155285298866"><ele>446.0</ele><time>2026-04-18T17:00:45.999Z</time></trkpt><trkpt lat="42.44130160640755" lon="-8.058010251605193"><ele>446.0</ele><time>2026-04-18T17:00:46.999Z</time></trkpt><trkpt lat="42.44136581261206" lon="-8.057860711479812"><ele>447.25</ele><time>2026-04-18T17:00:47.999Z</time></trkpt><trkpt lat="42.441437856111385" lon="-8.057707597513666"><ele>448.5</ele><time>2026-04-18T17:00:48.999Z</time></trkpt><trkpt lat="42.44152115260095" lon="-8.057552378172755"><ele>449.75</ele><time>2026-04-18T17:00:49.999Z</time></trkpt><trkpt lat="42.44160598860788" lon="-8.057394274010605"><ele>451.0</ele><time>2026-04-18T17:00:50.999Z</time></trkpt><trkpt lat="42.44169239156296" lon="-8.057231425145483"><ele>452.0</ele><time>2026-04-18T17:00:51.999Z</time></trkpt><trkpt lat="42.44178290086094" lon="-8.057060538050303"><ele>453.0</ele><time>2026-04-18T17:00:52.999Z</time></trkpt><trkpt lat="42.441870173920684" lon="-8.056877846008621"><ele>454.0</ele><time>2026-04-18T17:00:53.999Z</time></trkpt><trkpt lat="42.441959610300096" lon="-8.056693681155556"><ele>455.0</ele><time>2026-04-18T17:00:54.999Z</time></trkpt><trkpt lat="42.44205241422977" lon="-8.056510343365263"><ele>456.0</ele><time>2026-04-18T17:00:55.999Z</time></trkpt><trkpt lat="42.44214611878123" lon="-8.05631538856381"><ele>457.0</ele><time>2026-04-18T17:00:56.999Z</time></trkpt><trkpt lat="42.44224612040112" lon="-8.056116381680875"><ele>457.0</ele><time>2026-04-18T17:00:57.999Z</time></trkpt><trkpt lat="42.44234569783824" lon="-8.055912724256899"><ele>457.0</ele><time>2026-04-18T17:00:58.999Z</time></trkpt><trkpt lat="42.44244506988579" lon="-8.055707399176374"><ele>457.0</ele><time>2026-04-18T17:00:59.999Z</time></trkpt><trkpt lat="42.44254910504064" lon="-8.055500088648156"><ele>459.6666666666667</ele><time>2026-04-18T17:01:00.999Z</time></trkpt><trkpt lat="42.442656222324175" lon="-8.055288345278129"><ele>462.33333333333337</ele><time>2026-04-18T17:01:01.999Z</time></trkpt><trkpt lat="42.44275876657676" lon="-8.055076518861807"><ele>465.0</ele><time>2026-04-18T17:01:02.999Z</time></trkpt><trkpt lat="42.44287026251884" lon="-8.054867745775523"><ele>464.0</ele><time>2026-04-18T17:01:03.999Z</time></trkpt><trkpt lat="42.44297476683349" lon="-8.054664001490597"><ele>463.0</ele><time>2026-04-18T17:01:04.999Z</time></trkpt><trkpt lat="42.443077235067975" lon="-8.054460955037444"><ele>462.0</ele><time>2026-04-18T17:01:05.999Z</time></trkpt><trkpt lat="42.44317195755736" lon="-8.054258408326517"><ele>462.66666666666663</ele><time>2026-04-18T17:01:06.999Z</time></trkpt><trkpt lat="42.44324784643528" lon="-8.054062155741496"><ele>463.3333333333333</ele><time>2026-04-18T17:01:07.999Z</time></trkpt><trkpt lat="42.44327979449114" lon="-8.053857717524496"><ele>464.0</ele><time>2026-04-18T17:01:08.999Z</time></trkpt><trkpt lat="42.443306738348916" lon="-8.053648778322684"><ele>464.0</ele><time>2026-04-18T17:01:09.999Z</time></trkpt><trkpt lat="42.4433275409223" lon="-8.05344347369603"><ele>464.0</ele><time>2026-04-18T17:01:10.999Z</time></trkpt><trkpt lat="42.44334848353514" lon="-8.053234440647062"><ele>464.0</ele><time>2026-04-18T17:01:11.999Z</time></trkpt><trkpt lat="42.44338666700676" lon="-8.053038617655112"><ele>463.5</ele><time>2026-04-18T17:01:12.999Z</time></trkpt><trkpt lat="42.44340249030253" lon="-8.05284306316199"><ele>463.0</ele><time>2026-04-18T17:01:13.999Z</time></trkpt><trkpt lat="42.44342318802091" lon="-8.052656994703362"><ele>462.5</ele><time>2026-04-18T17:01:14.999Z</time></trkpt><trkpt lat="42.44344579183103" lon="-8.052470977519869"><ele>462.0</ele><time>2026-04-18T17:01:15.999Z</time></trkpt><trkpt lat="42.44346925419687" lon="-8.052288959402958"><ele>461.0</ele><time>2026-04-18T17:01:16.999Z</time></trkpt><trkpt lat="42.44349305487322" lon="-8.052106745380044"><ele>460.0</ele><time>2026-04-18T17:01:17.999Z</time></trkpt><trkpt lat="42.44352387100479" lon="-8.051921970302775"><ele>459.0</ele><time>2026-04-18T17:01:18.999Z</time></trkpt><trkpt lat="42.44357134647853" lon="-8.051733898650602"><ele>458.0</ele><time>2026-04-18T17:01:19.999Z</time></trkpt><trkpt lat="42.44363007075888" lon="-8.051545768986413"><ele>457.66666666666663</ele><time>2026-04-18T17:01:20.999Z</time></trkpt><trkpt lat="42.44369967810903" lon="-8.051346061012264"><ele>457.33333333333337</ele><time>2026-04-18T17:01:21.999Z</time></trkpt><trkpt lat="42.44377886315995" lon="-8.051142653054574"><ele>457.0</ele><time>2026-04-18T17:01:22.999Z</time></trkpt><trkpt lat="42.443857691458355" lon="-8.050933089584284"><ele>456.33333333333337</ele><time>2026-04-18T17:01:23.999Z</time></trkpt><trkpt lat="42.443940549260255" lon="-8.050714394315943"><ele>455.66666666666663</ele><time>2026-04-18T17:01:24.999Z</time></trkpt><trkpt lat="42.444017360489205" lon="-8.050491081866578"><ele>455.0</ele><time>2026-04-18T17:01:25.999Z</time></trkpt><trkpt lat="42.444101263284324" lon="-8.050265023573106"><ele>455.0</ele><time>2026-04-18T17:01:26.999Z</time></trkpt><trkpt lat="42.44420248825965" lon="-8.050032082327647"><ele>455.0</ele><time>2026-04-18T17:01:27.999Z</time></trkpt><trkpt lat="42.44428582300793" lon="-8.049797448422046"><ele>455.0</ele><time>2026-04-18T17:01:28.999Z</time></trkpt><trkpt lat="42.444367528810695" lon="-8.049549461935301"><ele>454.66666666666663</ele><time>2026-04-18T17:01:29.999Z</time></trkpt><trkpt lat="42.44445964694119" lon="-8.049304877408844"><ele>454.33333333333337</ele><time>2026-04-18T17:01:30.999Z</time></trkpt><trkpt lat="42.44452644119043" lon="-8.049051493504848"><ele>454.0</ele><time>2026-04-18T17:01:31.999Z</time></trkpt><trkpt lat="42.44460831869784" lon="-8.048791193675893"><ele>454.33333333333337</ele><time>2026-04-18T17:01:32.999Z</time></trkpt><trkpt lat="42.44469220809032" lon="-8.048540244438135"><ele>454.66666666666663</ele><time>2026-04-18T17:01:33.999Z</time></trkpt><trkpt lat="42.44476969804005" lon="-8.048272937701343"><ele>455.0</ele><time>2026-04-18T17:01:34.999Z</time></trkpt><trkpt lat="42.44486308727002" lon="-8.048001857163833"><ele>455.3333333333333</ele><time>2026-04-18T17:01:35.999Z</time></trkpt><trkpt lat="42.44494696357903" lon="-8.047734904719816"><ele>455.66666666666663</ele><time>2026-04-18T17:01:36.999Z</time></trkpt><trkpt lat="42.44502876048248" lon="-8.047464919668592"><ele>456.0</ele><time>2026-04-18T17:01:37.999Z</time></trkpt><trkpt lat="42.44511147939848" lon="-8.04719016376851"><ele>456.0</ele><time>2026-04-18T17:01:38.999Z</time></trkpt><trkpt lat="42.44519876961598" lon="-8.04691231370978"><ele>456.0</ele><time>2026-04-18T17:01:39.999Z</time></trkpt><trkpt lat="42.44528048075459" lon="-8.046625333269281"><ele>456.0</ele><time>2026-04-18T17:01:40.999Z</time></trkpt><trkpt lat="42.445371188243" lon="-8.04633617801505"><ele>456.0</ele><time>2026-04-18T17:01:41.999Z</time></trkpt><trkpt lat="42.44546444555567" lon="-8.046056953071181"><ele>455.0</ele><time>2026-04-18T17:01:42.998Z</time></trkpt><trkpt lat="42.44555630158234" lon="-8.04575266573813"><ele>454.0</ele><time>2026-04-18T17:01:43.998Z</time></trkpt><trkpt lat="42.445644958541365" lon="-8.045457926744334"><ele>454.0</ele><time>2026-04-18T17:01:44.998Z</time></trkpt><trkpt lat="42.44573806190034" lon="-8.045151783066963"><ele>454.0</ele><time>2026-04-18T17:01:45.998Z</time></trkpt><trkpt lat="42.445831261032005" lon="-8.044850325195116"><ele>455.0</ele><time>2026-04-18T17:01:46.998Z</time></trkpt><trkpt lat="42.44592964979202" lon="-8.04454251136779"><ele>456.0</ele><time>2026-04-18T17:01:47.998Z</time></trkpt><trkpt lat="42.44602718142507" lon="-8.044241953114609"><ele>456.0</ele><time>2026-04-18T17:01:48.998Z</time></trkpt><trkpt lat="42.44611666847906" lon="-8.043943545322731"><ele>456.0</ele><time>2026-04-18T17:01:49.998Z</time></trkpt><trkpt lat="42.44621008406066" lon="-8.043639129275661"><ele>456.0</ele><time>2026-04-18T17:01:50.998Z</time></trkpt><trkpt lat="42.4462945423044" lon="-8.043367335820898"><ele>456.0</ele><time>2026-04-18T17:01:51.998Z</time></trkpt><trkpt lat="42.44637156686149" lon="-8.043114828287711"><ele>456.0</ele><time>2026-04-18T17:01:52.998Z</time></trkpt><trkpt lat="42.44644565709301" lon="-8.042869462379475"><ele>456.33333333333337</ele><time>2026-04-18T17:01:53.998Z</time></trkpt><trkpt lat="42.44651922162856" lon="-8.042621849965577"><ele>456.6666666666667</ele><time>2026-04-18T17:01:54.998Z</time></trkpt><trkpt lat="42.44659283244177" lon="-8.042372037354834"><ele>457.0</ele><time>2026-04-18T17:01:55.998Z</time></trkpt><trkpt lat="42.44666839992057" lon="-8.042126391284379"><ele>457.6666666666667</ele><time>2026-04-18T17:01:56.998Z</time></trkpt><trkpt lat="42.44674248526405" lon="-8.04188138614637"><ele>458.33333333333337</ele><time>2026-04-18T17:01:57.998Z</time></trkpt><trkpt lat="42.44681602927083" lon="-8.041636924169758"><ele>459.0</ele><time>2026-04-18T17:01:58.998Z</time></trkpt><trkpt lat="42.44689036885826" lon="-8.041394312174605"><ele>460.33333333333337</ele><time>2026-04-18T17:01:59.998Z</time></trkpt><trkpt lat="42.44696411691249" lon="-8.041152901023096"><ele>461.6666666666667</ele><time>2026-04-18T17:02:00.998Z</time></trkpt><trkpt lat="42.44703491590522" lon="-8.040913370605146"><ele>463.0</ele><time>2026-04-18T17:02:01.998Z</time></trkpt><trkpt lat="42.44710219155096" lon="-8.040675886918335"><ele>463.33333333333337</ele><time>2026-04-18T17:02:02.999Z</time></trkpt><trkpt lat="42.44715902558053" lon="-8.040436647470322"><ele>463.66666666666663</ele><time>2026-04-18T17:02:03.999Z</time></trkpt><trkpt lat="42.44720948887021" lon="-8.040195710567787"><ele>464.0</ele><time>2026-04-18T17:02:04.999Z</time></trkpt><trkpt lat="42.447245477750286" lon="-8.039948370242712"><ele>465.66666666666663</ele><time>2026-04-18T17:02:05.999Z</time></trkpt><trkpt lat="42.44727305695141" lon="-8.039710058780415"><ele>467.33333333333337</ele><time>2026-04-18T17:02:06.999Z</time></trkpt><trkpt lat="42.447297158139335" lon="-8.039474783918585"><ele>469.0</ele><time>2026-04-18T17:02:07.999Z</time></trkpt><trkpt lat="42.4473284668949" lon="-8.039247005818357"><ele>469.6666666666667</ele><time>2026-04-18T17:02:08.999Z</time></trkpt><trkpt lat="42.44736046055022" lon="-8.039027948422811"><ele>470.33333333333337</ele><time>2026-04-18T17:02:09.999Z</time></trkpt><trkpt lat="42.447395620074964" lon="-8.038815388768453"><ele>471.0</ele><time>2026-04-18T17:02:10.999Z</time></trkpt><trkpt lat="42.44743439054645" lon="-8.038612869387785"><ele>471.0</ele><time>2026-04-18T17:02:11.999Z</time></trkpt><trkpt lat="42.447480791281194" lon="-8.038412655100588"><ele>471.0</ele><time>2026-04-18T17:02:12.999Z</time></trkpt><trkpt lat="42.44753334509721" lon="-8.038212112719513"><ele>471.0</ele><time>2026-04-18T17:02:13.999Z</time></trkpt><trkpt lat="42.44759568726393" lon="-8.038011008849331"><ele>471.33333333333337</ele><time>2026-04-18T17:02:14.999Z</time></trkpt><trkpt lat="42.447664477363695" lon="-8.037812474048229"><ele>471.6666666666667</ele><time>2026-04-18T17:02:15.999Z</time></trkpt><trkpt lat="42.447733113117096" lon="-8.037608621822303"><ele>472.0</ele><time>2026-04-18T17:02:16.999Z</time></trkpt><trkpt lat="42.44780355720457" lon="-8.037410686409759"><ele>472.0</ele><time>2026-04-18T17:02:17.999Z</time></trkpt><trkpt lat="42.44787037683646" lon="-8.037208310133867"><ele>472.0</ele><time>2026-04-18T17:02:18.999Z</time></trkpt><trkpt lat="42.44794199082191" lon="-8.037009960383688"><ele>472.0</ele><time>2026-04-18T17:02:19.999Z</time></trkpt><trkpt lat="42.44802036695919" lon="-8.036802213273019"><ele>473.5</ele><time>2026-04-18T17:02:20.999Z</time></trkpt><trkpt lat="42.44808131990723" lon="-8.036624028364843"><ele>475.0</ele><time>2026-04-18T17:02:21.999Z</time></trkpt><trkpt lat="42.44813973746236" lon="-8.036460735927069"><ele>476.5</ele><time>2026-04-18T17:02:22.999Z</time></trkpt><trkpt lat="42.448199667829925" lon="-8.036288849248555"><ele>478.0</ele><time>2026-04-18T17:02:23.999Z</time></trkpt><trkpt lat="42.448251648504886" lon="-8.036141007851212"><ele>478.0</ele><time>2026-04-18T17:02:24.999Z</time></trkpt><trkpt lat="42.44829362886232" lon="-8.035994605332652"><ele>477.99999999999994</ele><time>2026-04-18T17:02:25.999Z</time></trkpt><trkpt lat="42.448334432098726" lon="-8.035859134557159"><ele>477.99999999999994</ele><time>2026-04-18T17:02:26.999Z</time></trkpt><trkpt lat="42.448373223338564" lon="-8.035742296578361"><ele>478.0</ele><time>2026-04-18T17:02:27.999Z</time></trkpt><trkpt lat="42.448399248929796" lon="-8.03560951610771"><ele>478.0</ele><time>2026-04-18T17:02:28.999Z</time></trkpt><trkpt lat="42.44841748165617" lon="-8.0355000365338"><ele>478.6666666666667</ele><time>2026-04-18T17:02:29.999Z</time></trkpt><trkpt lat="42.44842069559741" lon="-8.035389584372023"><ele>479.33333333333337</ele><time>2026-04-18T17:02:30.999Z</time></trkpt><trkpt lat="42.448415391343396" lon="-8.03528607739764"><ele>480.0</ele><time>2026-04-18T17:02:31.999Z</time></trkpt><trkpt lat="42.4483474458983" lon="-8.035185796105377"><ele>480.66666666666663</ele><time>2026-04-18T17:02:32.999Z</time></trkpt><trkpt lat="42.44828120446045" lon="-8.035120160698295"><ele>481.3333333333333</ele><time>2026-04-18T17:02:33.999Z</time></trkpt><trkpt lat="42.448196935538526" lon="-8.035082940013499"><ele>482.0</ele><time>2026-04-18T17:02:34.999Z</time></trkpt><trkpt lat="42.44811085294967" lon="-8.035076852172937"><ele>482.0</ele><time>2026-04-18T17:02:35.999Z</time></trkpt><trkpt lat="42.448020116139666" lon="-8.035116426365166"><ele>482.0</ele><time>2026-04-18T17:02:36.999Z</time></trkpt><trkpt lat="42.447911145750375" lon="-8.035146427951892"><ele>482.0</ele><time>2026-04-18T17:02:37.999Z</time></trkpt><trkpt lat="42.44780167414611" lon="-8.035287058669304"><ele>482.0</ele><time>2026-04-18T17:02:38.999Z</time></trkpt><trkpt lat="42.447677989972696" lon="-8.035380333363753"><ele>483.0</ele><time>2026-04-18T17:02:39.999Z</time></trkpt><trkpt lat="42.44753980323857" lon="-8.035476017689955"><ele>484.0</ele><time>2026-04-18T17:02:40.999Z</time></trkpt><trkpt lat="42.4473881507772" lon="-8.03557447043869"><ele>485.0</ele><time>2026-04-18T17:02:41.999Z</time></trkpt><trkpt lat="42.44722902514742" lon="-8.035704755593532"><ele>482.3333333333333</ele><time>2026-04-18T17:02:42.999Z</time></trkpt><trkpt lat="42.44706748014382" lon="-8.035854990902186"><ele>479.66666666666663</ele><time>2026-04-18T17:02:43.999Z</time></trkpt><trkpt lat="42.44691546785664" lon="-8.035956950835244"><ele>477.0</ele><time>2026-04-18T17:02:44.999Z</time></trkpt><trkpt lat="42.44674376316028" lon="-8.036082631573118"><ele>477.0</ele><time>2026-04-18T17:02:45.999Z</time></trkpt><trkpt lat="42.44656434328374" lon="-8.036222677024888"><ele>477.0</ele><time>2026-04-18T17:02:46.999Z</time></trkpt><trkpt lat="42.44638350151846" lon="-8.036377157095762"><ele>477.0</ele><time>2026-04-18T17:02:47.999Z</time></trkpt><trkpt lat="42.44623154762892" lon="-8.036546706019529"><ele>471.5</ele><time>2026-04-18T17:02:48.999Z</time></trkpt><trkpt lat="42.44604711099476" lon="-8.03672994212852"><ele>466.0</ele><time>2026-04-18T17:02:49.999Z</time></trkpt><trkpt lat="42.44587836400253" lon="-8.036924575549962"><ele>466.0</ele><time>2026-04-18T17:02:50.999Z</time></trkpt><trkpt lat="42.44570064066088" lon="-8.037133102246726"><ele>466.0</ele><time>2026-04-18T17:02:51.999Z</time></trkpt><trkpt lat="42.44552578304191" lon="-8.037342355859078"><ele>462.0</ele><time>2026-04-18T17:02:52.999Z</time></trkpt><trkpt lat="42.44535131281008" lon="-8.037568063344443"><ele>458.0</ele><time>2026-04-18T17:02:53.999Z</time></trkpt><trkpt lat="42.445172498972894" lon="-8.037810633248178"><ele>458.0</ele><time>2026-04-18T17:02:54.999Z</time></trkpt><trkpt lat="42.44502552783234" lon="-8.038062570656043"><ele>458.0</ele><time>2026-04-18T17:02:55.999Z</time></trkpt><trkpt lat="42.44483408194253" lon="-8.038323254573593"><ele>458.5</ele><time>2026-04-18T17:02:56.999Z</time></trkpt><trkpt lat="42.44466596688841" lon="-8.03857510143033"><ele>459.0</ele><time>2026-04-18T17:02:57.999Z</time></trkpt><trkpt lat="42.444496392251686" lon="-8.038852246828302"><ele>455.0</ele><time>2026-04-18T17:02:58.999Z</time></trkpt><trkpt lat="42.44433685993153" lon="-8.039136170905195"><ele>451.0</ele><time>2026-04-18T17:02:59.999Z</time></trkpt><trkpt lat="42.4441795302195" lon="-8.039425073602226"><ele>451.0</ele><time>2026-04-18T17:03:00.999Z</time></trkpt><trkpt lat="42.44401749477671" lon="-8.039718431377295"><ele>451.0</ele><time>2026-04-18T17:03:01.999Z</time></trkpt><trkpt lat="42.44384986775179" lon="-8.040006915683454"><ele>451.5</ele><time>2026-04-18T17:03:02.999Z</time></trkpt><trkpt lat="42.44367866235794" lon="-8.040288228363325"><ele>452.0</ele><time>2026-04-18T17:03:03.999Z</time></trkpt><trkpt lat="42.443494060271675" lon="-8.040565805148736"><ele>450.0</ele><time>2026-04-18T17:03:04.999Z</time></trkpt><trkpt lat="42.44330350725256" lon="-8.04083390645959"><ele>448.0</ele><time>2026-04-18T17:03:05.999Z</time></trkpt><trkpt lat="42.443101703344986" lon="-8.041092059367724"><ele>449.0</ele><time>2026-04-18T17:03:06.999Z</time></trkpt><trkpt lat="42.4428933950442" lon="-8.041350129371612"><ele>450.0</ele><time>2026-04-18T17:03:07.999Z</time></trkpt><trkpt lat="42.44267892523178" lon="-8.041591037772298"><ele>446.5</ele><time>2026-04-18T17:03:08.999Z</time></trkpt><trkpt lat="42.44245928598205" lon="-8.041826013368587"><ele>443.0</ele><time>2026-04-18T17:03:09.999Z</time></trkpt><trkpt lat="42.44224680699478" lon="-8.042046657897206"><ele>442.0</ele><time>2026-04-18T17:03:10.999Z</time></trkpt><trkpt lat="42.44199657261721" lon="-8.042237547540312"><ele>441.0</ele><time>2026-04-18T17:03:11.999Z</time></trkpt><trkpt lat="42.44176648321169" lon="-8.042414013185633"><ele>438.5</ele><time>2026-04-18T17:03:12.999Z</time></trkpt><trkpt lat="42.44153548590632" lon="-8.042575104560758"><ele>436.0</ele><time>2026-04-18T17:03:13.999Z</time></trkpt><trkpt lat="42.44130005708385" lon="-8.04273897686616"><ele>434.5</ele><time>2026-04-18T17:03:14.999Z</time></trkpt><trkpt lat="42.44106517621047" lon="-8.042897315852672"><ele>433.0</ele><time>2026-04-18T17:03:15.999Z</time></trkpt><trkpt lat="42.44082780217524" lon="-8.04306032477536"><ele>433.0</ele><time>2026-04-18T17:03:16.999Z</time></trkpt><trkpt lat="42.44058067335668" lon="-8.043228070191175"><ele>433.0</ele><time>2026-04-18T17:03:17.999Z</time></trkpt><trkpt lat="42.44034121072745" lon="-8.04341918748513"><ele>431.5</ele><time>2026-04-18T17:03:18.999Z</time></trkpt><trkpt lat="42.44011780853447" lon="-8.043577995474893"><ele>430.0</ele><time>2026-04-18T17:03:19.999Z</time></trkpt><trkpt lat="42.43988241622054" lon="-8.043745326765439"><ele>430.0</ele><time>2026-04-18T17:03:20.999Z</time></trkpt><trkpt lat="42.43966724964627" lon="-8.04389201632839"><ele>430.0</ele><time>2026-04-18T17:03:21.999Z</time></trkpt><trkpt lat="42.439429261396015" lon="-8.044083809803132"><ele>428.0</ele><time>2026-04-18T17:03:22.999Z</time></trkpt><trkpt lat="42.4392086623075" lon="-8.044289212504545"><ele>426.0</ele><time>2026-04-18T17:03:23.999Z</time></trkpt><trkpt lat="42.43899156072497" lon="-8.044495816531363"><ele>425.0</ele><time>2026-04-18T17:03:24.999Z</time></trkpt><trkpt lat="42.43878167037549" lon="-8.044713353558821"><ele>424.0</ele><time>2026-04-18T17:03:25.999Z</time></trkpt><trkpt lat="42.43857391615946" lon="-8.044931066850715"><ele>425.5</ele><time>2026-04-18T17:03:26.999Z</time></trkpt><trkpt lat="42.43837168754787" lon="-8.045165744025788"><ele>427.0</ele><time>2026-04-18T17:03:27.999Z</time></trkpt><trkpt lat="42.43818943403029" lon="-8.045413986404418"><ele>427.0</ele><time>2026-04-18T17:03:28.999Z</time></trkpt><trkpt lat="42.43797755507282" lon="-8.045636223627712"><ele>427.0</ele><time>2026-04-18T17:03:29.999Z</time></trkpt><trkpt lat="42.43778856640238" lon="-8.045881967412567"><ele>426.0</ele><time>2026-04-18T17:03:30.999Z</time></trkpt><trkpt lat="42.43759628737512" lon="-8.046144643043332"><ele>425.0</ele><time>2026-04-18T17:03:31.999Z</time></trkpt><trkpt lat="42.437410975485" lon="-8.046407466219003"><ele>424.5</ele><time>2026-04-18T17:03:32.999Z</time></trkpt><trkpt lat="42.437229110373835" lon="-8.046667039574139"><ele>424.0</ele><time>2026-04-18T17:03:33.999Z</time></trkpt><trkpt lat="42.43705818574992" lon="-8.046924549801757"><ele>424.0</ele><time>2026-04-18T17:03:34.999Z</time></trkpt><trkpt lat="42.43688268300586" lon="-8.047189108782442"><ele>424.0</ele><time>2026-04-18T17:03:35.999Z</time></trkpt><trkpt lat="42.43670203036046" lon="-8.047452093654199"><ele>424.5</ele><time>2026-04-18T17:03:36.999Z</time></trkpt><trkpt lat="42.436518940117175" lon="-8.047697271655114"><ele>425.0</ele><time>2026-04-18T17:03:37.999Z</time></trkpt><trkpt lat="42.43633614460378" lon="-8.047958596556184"><ele>424.0</ele><time>2026-04-18T17:03:38.999Z</time></trkpt><trkpt lat="42.43615995887669" lon="-8.048202631216705"><ele>423.0</ele><time>2026-04-18T17:03:39.999Z</time></trkpt><trkpt lat="42.43597706346185" lon="-8.048467092666998"><ele>421.5</ele><time>2026-04-18T17:03:40.999Z</time></trkpt><trkpt lat="42.43578070234709" lon="-8.048704671465401"><ele>420.0</ele><time>2026-04-18T17:03:41.999Z</time></trkpt><trkpt lat="42.435601000586544" lon="-8.048955554724657"><ele>417.5</ele><time>2026-04-18T17:03:42.999Z</time></trkpt><trkpt lat="42.43541757651719" lon="-8.049197680858505"><ele>415.0</ele><time>2026-04-18T17:03:43.999Z</time></trkpt><trkpt lat="42.43522914649758" lon="-8.049453176106887"><ele>415.0</ele><time>2026-04-18T17:03:44.999Z</time></trkpt><trkpt lat="42.43503889531817" lon="-8.049691449323445"><ele>415.0</ele><time>2026-04-18T17:03:45.999Z</time></trkpt><trkpt lat="42.43484835868471" lon="-8.04993182307868"><ele>416.0</ele><time>2026-04-18T17:03:46.999Z</time></trkpt><trkpt lat="42.434678864071785" lon="-8.050197809448642"><ele>417.0</ele><time>2026-04-18T17:03:47.999Z</time></trkpt><trkpt lat="42.434484735241845" lon="-8.050441766934068"><ele>415.5</ele><time>2026-04-18T17:03:48.998Z</time></trkpt><trkpt lat="42.434292758229574" lon="-8.050680212757705"><ele>414.0</ele><time>2026-04-18T17:03:49.998Z</time></trkpt><trkpt lat="42.434097566192776" lon="-8.050915788325455"><ele>414.0</ele><time>2026-04-18T17:03:50.998Z</time></trkpt><trkpt lat="42.43391267648512" lon="-8.051137474823362"><ele>414.0</ele><time>2026-04-18T17:03:51.998Z</time></trkpt><trkpt lat="42.43373517927239" lon="-8.051361025249236"><ele>411.5</ele><time>2026-04-18T17:03:52.998Z</time></trkpt><trkpt lat="42.43355714367635" lon="-8.051589175563668"><ele>409.0</ele><time>2026-04-18T17:03:53.998Z</time></trkpt><trkpt lat="42.43335768225895" lon="-8.051824100139946"><ele>409.5</ele><time>2026-04-18T17:03:54.999Z</time></trkpt><trkpt lat="42.43316497554523" lon="-8.052045572108389"><ele>410.0</ele><time>2026-04-18T17:03:55.999Z</time></trkpt><trkpt lat="42.43296784269734" lon="-8.052269226737158"><ele>408.0</ele><time>2026-04-18T17:03:56.999Z</time></trkpt><trkpt lat="42.43277001742572" lon="-8.052491517147525"><ele>406.0</ele><time>2026-04-18T17:03:57.999Z</time></trkpt><trkpt lat="42.43256796322972" lon="-8.052717592467593"><ele>406.0</ele><time>2026-04-18T17:03:58.999Z</time></trkpt><trkpt lat="42.432365689093466" lon="-8.052912181602034"><ele>406.0</ele><time>2026-04-18T17:03:59.999Z</time></trkpt><trkpt lat="42.432151679788284" lon="-8.05313766933139"><ele>408.5</ele><time>2026-04-18T17:04:00.999Z</time></trkpt><trkpt lat="42.431953138405426" lon="-8.053378778118661"><ele>411.0</ele><time>2026-04-18T17:04:01.999Z</time></trkpt><trkpt lat="42.43175247247212" lon="-8.053605072906072"><ele>411.0</ele><time>2026-04-18T17:04:02.999Z</time></trkpt><trkpt lat="42.43154408089085" lon="-8.05380568155294"><ele>411.0</ele><time>2026-04-18T17:04:03.999Z</time></trkpt><trkpt lat="42.431337993367976" lon="-8.054028570303025"><ele>409.5</ele><time>2026-04-18T17:04:04.999Z</time></trkpt><trkpt lat="42.43114475414537" lon="-8.054272335880377"><ele>408.0</ele><time>2026-04-18T17:04:05.999Z</time></trkpt><trkpt lat="42.43094303515252" lon="-8.05450748613659"><ele>408.0</ele><time>2026-04-18T17:04:06.999Z</time></trkpt><trkpt lat="42.430749516951785" lon="-8.054739786202319"><ele>408.0</ele><time>2026-04-18T17:04:07.999Z</time></trkpt><trkpt lat="42.43054393852048" lon="-8.05496212093423"><ele>407.0</ele><time>2026-04-18T17:04:08.999Z</time></trkpt><trkpt lat="42.43034770643493" lon="-8.055192462994535"><ele>406.0</ele><time>2026-04-18T17:04:09.999Z</time></trkpt><trkpt lat="42.43015144920216" lon="-8.055413986640547"><ele>406.0</ele><time>2026-04-18T17:04:10.999Z</time></trkpt><trkpt lat="42.42995994011918" lon="-8.055646563616735"><ele>406.0</ele><time>2026-04-18T17:04:11.999Z</time></trkpt><trkpt lat="42.429771087418864" lon="-8.055881516790356"><ele>409.0</ele><time>2026-04-18T17:04:12.999Z</time></trkpt><trkpt lat="42.42958027949512" lon="-8.05610146261661"><ele>412.0</ele><time>2026-04-18T17:04:13.999Z</time></trkpt><trkpt lat="42.42941857920972" lon="-8.056304573507942"><ele>412.0</ele><time>2026-04-18T17:04:14.999Z</time></trkpt><trkpt lat="42.42926551083951" lon="-8.056502853124158"><ele>412.0</ele><time>2026-04-18T17:04:15.999Z</time></trkpt><trkpt lat="42.42912193485429" lon="-8.05668285242753"><ele>412.0</ele><time>2026-04-18T17:04:16.999Z</time></trkpt><trkpt lat="42.42898324027808" lon="-8.056851556441975"><ele>409.33333333333337</ele><time>2026-04-18T17:04:17.999Z</time></trkpt><trkpt lat="42.4288491171617" lon="-8.057017362928624"><ele>406.66666666666663</ele><time>2026-04-18T17:04:18.999Z</time></trkpt><trkpt lat="42.428726020013706" lon="-8.057168193701955"><ele>404.0</ele><time>2026-04-18T17:04:19.999Z</time></trkpt><trkpt lat="42.42860683232883" lon="-8.057321177063951"><ele>402.5</ele><time>2026-04-18T17:04:20.999Z</time></trkpt><trkpt lat="42.42848892714152" lon="-8.057461365300297"><ele>401.0</ele><time>2026-04-18T17:04:21.999Z</time></trkpt><trkpt lat="42.42837456321993" lon="-8.057592832354489"><ele>399.5</ele><time>2026-04-18T17:04:22.999Z</time></trkpt><trkpt lat="42.428281136283694" lon="-8.057718241034054"><ele>398.0</ele><time>2026-04-18T17:04:23.999Z</time></trkpt><trkpt lat="42.42818171591674" lon="-8.057833545846762"><ele>398.0</ele><time>2026-04-18T17:04:24.999Z</time></trkpt><trkpt lat="42.428092920563465" lon="-8.057950968976359"><ele>398.0</ele><time>2026-04-18T17:04:25.999Z</time></trkpt><trkpt lat="42.42800879290389" lon="-8.058061101974376"><ele>398.0</ele><time>2026-04-18T17:04:26.999Z</time></trkpt><trkpt lat="42.427936569164146" lon="-8.058166386640071"><ele>398.0</ele><time>2026-04-18T17:04:27.999Z</time></trkpt><trkpt lat="42.427859275492175" lon="-8.058259499213507"><ele>398.4</ele><time>2026-04-18T17:04:28.999Z</time></trkpt><trkpt lat="42.42778509168161" lon="-8.058349825128177"><ele>398.79999999999995</ele><time>2026-04-18T17:04:29.999Z</time></trkpt><trkpt lat="42.42771556950276" lon="-8.05843799818515"><ele>399.2</ele><time>2026-04-18T17:04:30.999Z</time></trkpt><trkpt lat="42.42765609805672" lon="-8.058530040183477"><ele>399.6</ele><time>2026-04-18T17:04:31.999Z</time></trkpt><trkpt lat="42.42757715008835" lon="-8.058617801006163"><ele>400.0</ele><time>2026-04-18T17:04:32.999Z</time></trkpt><trkpt lat="42.42750537408742" lon="-8.05871380270996"><ele>400.0</ele><time>2026-04-18T17:04:33.999Z</time></trkpt><trkpt lat="42.427437326462325" lon="-8.058804237898073"><ele>400.0</ele><time>2026-04-18T17:04:34.999Z</time></trkpt><trkpt lat="42.427371792193" lon="-8.058885150656623"><ele>400.0</ele><time>2026-04-18T17:04:36Z</time></trkpt><trkpt lat="42.42729435610032" lon="-8.058979572691175"><ele>400.0</ele><time>2026-04-18T17:04:37Z</time></trkpt><trkpt lat="42.427226556707" lon="-8.059068993359494"><ele>400.0</ele><time>2026-04-18T17:04:38Z</time></trkpt><trkpt lat="42.427144192981835" lon="-8.059154321171379"><ele>400.4</ele><time>2026-04-18T17:04:39Z</time></trkpt><trkpt lat="42.427096523500786" lon="-8.05926659433621"><ele>400.8</ele><time>2026-04-18T17:04:40Z</time></trkpt><trkpt lat="42.427061829545174" lon="-8.059387150870078"><ele>401.20000000000005</ele><time>2026-04-18T17:04:41Z</time></trkpt><trkpt lat="42.42704475872362" lon="-8.059516257182255"><ele>401.6</ele><time>2026-04-18T17:04:42Z</time></trkpt><trkpt lat="42.427056409832936" lon="-8.059648874020255"><ele>402.0</ele><time>2026-04-18T17:04:43Z</time></trkpt><trkpt lat="42.42709493427371" lon="-8.05977658114451"><ele>402.0</ele><time>2026-04-18T17:04:44Z</time></trkpt><trkpt lat="42.4271379288881" lon="-8.059894109270374"><ele>402.0</ele><time>2026-04-18T17:04:45Z</time></trkpt><trkpt lat="42.42716414856135" lon="-8.060018678905912"><ele>402.0</ele><time>2026-04-18T17:04:46Z</time></trkpt><trkpt lat="42.427161256906665" lon="-8.060150371199715"><ele>402.0</ele><time>2026-04-18T17:04:47Z</time></trkpt><trkpt lat="42.42712137865842" lon="-8.060287139919147"><ele>402.0</ele><time>2026-04-18T17:04:48Z</time></trkpt><trkpt lat="42.42706305034204" lon="-8.060388734448697"><ele>402.1666666666667</ele><time>2026-04-18T17:04:49Z</time></trkpt><trkpt lat="42.426979337691826" lon="-8.060470582279633"><ele>402.33333333333337</ele><time>2026-04-18T17:04:50Z</time></trkpt><trkpt lat="42.426896773827586" lon="-8.060521878681621"><ele>402.5</ele><time>2026-04-18T17:04:51Z</time></trkpt><trkpt lat="42.42681952293243" lon="-8.060590210628359"><ele>402.6666666666667</ele><time>2026-04-18T17:04:52Z</time></trkpt><trkpt lat="42.42676466907281" lon="-8.060679310167876"><ele>402.83333333333337</ele><time>2026-04-18T17:04:53Z</time></trkpt><trkpt lat="42.426750252650386" lon="-8.060774936157944"><ele>403.0</ele><time>2026-04-18T17:04:54Z</time></trkpt><trkpt lat="42.426764719068835" lon="-8.060880545889002"><ele>402.0</ele><time>2026-04-18T17:04:55Z</time></trkpt><trkpt lat="42.42680804959074" lon="-8.060968152510647"><ele>401.0</ele><time>2026-04-18T17:04:56Z</time></trkpt><trkpt lat="42.426816337021265" lon="-8.061074567735742"><ele>400.0</ele><time>2026-04-18T17:04:57Z</time></trkpt><trkpt lat="42.42691840172403" lon="-8.061180610658663"><ele>399.0</ele><time>2026-04-18T17:04:58Z</time></trkpt><trkpt lat="42.42696157068265" lon="-8.061293603122234"><ele>398.0</ele><time>2026-04-18T17:04:59Z</time></trkpt><trkpt lat="42.4270074791255" lon="-8.061444610139663"><ele>398.0</ele><time>2026-04-18T17:05:00Z</time></trkpt><trkpt lat="42.42707223252995" lon="-8.061591496416664"><ele>398.0</ele><time>2026-04-18T17:05:01Z</time></trkpt><trkpt lat="42.427140942286634" lon="-8.061733922765189"><ele>398.0</ele><time>2026-04-18T17:05:02Z</time></trkpt><trkpt lat="42.4271993791761" lon="-8.061878547766272"><ele>398.0</ele><time>2026-04-18T17:05:03Z</time></trkpt><trkpt lat="42.42726174042367" lon="-8.061996658843785"><ele>396.0</ele><time>2026-04-18T17:05:04Z</time></trkpt><trkpt lat="42.42733302068987" lon="-8.062125029760022"><ele>394.0</ele><time>2026-04-18T17:05:05Z</time></trkpt><trkpt lat="42.427404064558196" lon="-8.062256728397612"><ele>392.0</ele><time>2026-04-18T17:05:06Z</time></trkpt><trkpt lat="42.427481274396015" lon="-8.062378331496689"><ele>390.0</ele><time>2026-04-18T17:05:07Z</time></trkpt><trkpt lat="42.42756600733946" lon="-8.06248454834615"><ele>390.0</ele><time>2026-04-18T17:05:08Z</time></trkpt><trkpt lat="42.42763783600758" lon="-8.062595510268714"><ele>390.0</ele><time>2026-04-18T17:05:09Z</time></trkpt><trkpt lat="42.42770289184363" lon="-8.062694817566603"><ele>390.0</ele><time>2026-04-18T17:05:10Z</time></trkpt><trkpt lat="42.42779508451148" lon="-8.062780928264525"><ele>390.0</ele><time>2026-04-18T17:05:11Z</time></trkpt><trkpt lat="42.42790691434725" lon="-8.062850415215106"><ele>390.0</ele><time>2026-04-18T17:05:12Z</time></trkpt><trkpt lat="42.4279893195059" lon="-8.062927708874415"><ele>390.0</ele><time>2026-04-18T17:05:13Z</time></trkpt><trkpt lat="42.42817437322906" lon="-8.062886728041953"><ele>390.0</ele><time>2026-04-18T17:05:14Z</time></trkpt><trkpt lat="42.428290920118016" lon="-8.062900602121271"><ele>390.0</ele><time>2026-04-18T17:05:15Z</time></trkpt><trkpt lat="42.42837597192116" lon="-8.062982004967278"><ele>390.0</ele><time>2026-04-18T17:05:16Z</time></trkpt><trkpt lat="42.42843993154041" lon="-8.063095072294558"><ele>390.0</ele><time>2026-04-18T17:05:17Z</time></trkpt><trkpt lat="42.42846084773985" lon="-8.063245214911959"><ele>390.0</ele><time>2026-04-18T17:05:18Z</time></trkpt><trkpt lat="42.428480149284326" lon="-8.06340122277255"><ele>390.0</ele><time>2026-04-18T17:05:19Z</time></trkpt><trkpt lat="42.428531927293655" lon="-8.063559850969133"><ele>390.0</ele><time>2026-04-18T17:05:20Z</time></trkpt><trkpt lat="42.42860226446375" lon="-8.063719372219607"><ele>389.75</ele><time>2026-04-18T17:05:21Z</time></trkpt><trkpt lat="42.428677262015476" lon="-8.063869194527685"><ele>389.5</ele><time>2026-04-18T17:05:22Z</time></trkpt><trkpt lat="42.42875832981558" lon="-8.06402501658697"><ele>389.25</ele><time>2026-04-18T17:05:23Z</time></trkpt><trkpt lat="42.42883244453162" lon="-8.064172578423019"><ele>389.0</ele><time>2026-04-18T17:05:24Z</time></trkpt><trkpt lat="42.42890003056452" lon="-8.064326360837162"><ele>390.25</ele><time>2026-04-18T17:05:25Z</time></trkpt><trkpt lat="42.42896679797562" lon="-8.064479617918828"><ele>391.5</ele><time>2026-04-18T17:05:26Z</time></trkpt><trkpt lat="42.42903367505867" lon="-8.064628766330468"><ele>392.75</ele><time>2026-04-18T17:05:27Z</time></trkpt><trkpt lat="42.42908824877065" lon="-8.064771355713457"><ele>394.0</ele><time>2026-04-18T17:05:28Z</time></trkpt><trkpt lat="42.42915753273762" lon="-8.064912772101914"><ele>393.6</ele><time>2026-04-18T17:05:29Z</time></trkpt><trkpt lat="42.429220387160655" lon="-8.065041018328321"><ele>393.2</ele><time>2026-04-18T17:05:30Z</time></trkpt><trkpt lat="42.42927191160357" lon="-8.065169271014705"><ele>392.8</ele><time>2026-04-18T17:05:31Z</time></trkpt><trkpt lat="42.42933749028871" lon="-8.065305511012854"><ele>392.40000000000003</ele><time>2026-04-18T17:05:32Z</time></trkpt><trkpt lat="42.4293813016478" lon="-8.065413804854238"><ele>392.0</ele><time>2026-04-18T17:05:33Z</time></trkpt><trkpt lat="42.42943192697252" lon="-8.065532825744347"><ele>392.0</ele><time>2026-04-18T17:05:34Z</time></trkpt><trkpt lat="42.429486848717296" lon="-8.065646547673902"><ele>392.0</ele><time>2026-04-18T17:05:35Z</time></trkpt><trkpt lat="42.42954703609604" lon="-8.065749128786404"><ele>392.0</ele><time>2026-04-18T17:05:36Z</time></trkpt><trkpt lat="42.429589440324094" lon="-8.065866283744878"><ele>392.0</ele><time>2026-04-18T17:05:37Z</time></trkpt><trkpt lat="42.42963341499163" lon="-8.065966033666912"><ele>392.0</ele><time>2026-04-18T17:05:38Z</time></trkpt><trkpt lat="42.42967154540169" lon="-8.066060092308442"><ele>392.3333333333333</ele><time>2026-04-18T17:05:39Z</time></trkpt><trkpt lat="42.42971610104557" lon="-8.066150973401198"><ele>392.66666666666663</ele><time>2026-04-18T17:05:40Z</time></trkpt><trkpt lat="42.4297503004919" lon="-8.066222957496871"><ele>393.0</ele><time>2026-04-18T17:05:41Z</time></trkpt><trkpt lat="42.42979254680482" lon="-8.066311719165574"><ele>393.33333333333337</ele><time>2026-04-18T17:05:42Z</time></trkpt><trkpt lat="42.42985599448548" lon="-8.066459876473003"><ele>393.6666666666667</ele><time>2026-04-18T17:05:44Z</time></trkpt><trkpt lat="42.429898162425474" lon="-8.066554734362947"><ele>394.0</ele><time>2026-04-18T17:05:45Z</time></trkpt><trkpt lat="42.42993698006076" lon="-8.066652974015017"><ele>394.0</ele><time>2026-04-18T17:05:46Z</time></trkpt><trkpt lat="42.42997840661301" lon="-8.066747445808728"><ele>394.0</ele><time>2026-04-18T17:05:47Z</time></trkpt><trkpt lat="42.43001756826472" lon="-8.066838544247696"><ele>394.0</ele><time>2026-04-18T17:05:48Z</time></trkpt><trkpt lat="42.43005771402692" lon="-8.066922624098037"><ele>394.0</ele><time>2026-04-18T17:05:49Z</time></trkpt><trkpt lat="42.43009476066197" lon="-8.067007059976486"><ele>394.0</ele><time>2026-04-18T17:05:50Z</time></trkpt><trkpt lat="42.43012896663157" lon="-8.067082855657599"><ele>394.0</ele><time>2026-04-18T17:05:51Z</time></trkpt><trkpt lat="42.43016380141032" lon="-8.06715611950554"><ele>394.0</ele><time>2026-04-18T17:05:52Z</time></trkpt><trkpt lat="42.43019847345633" lon="-8.067228157835704"><ele>394.0</ele><time>2026-04-18T17:05:53Z</time></trkpt><trkpt lat="42.43023280922065" lon="-8.067300756113253"><ele>394.0</ele><time>2026-04-18T17:05:54Z</time></trkpt><trkpt lat="42.4302685782132" lon="-8.06737929064797"><ele>394.0</ele><time>2026-04-18T17:05:54.999Z</time></trkpt><trkpt lat="42.43030610711189" lon="-8.067462968809455"><ele>394.0</ele><time>2026-04-18T17:05:55.999Z</time></trkpt><trkpt lat="42.43034468064557" lon="-8.06754629407122"><ele>394.0</ele><time>2026-04-18T17:05:56.999Z</time></trkpt><trkpt lat="42.43038852788312" lon="-8.067633141728379"><ele>394.0</ele><time>2026-04-18T17:05:57.999Z</time></trkpt><trkpt lat="42.430430833283424" lon="-8.067722823491623"><ele>394.0</ele><time>2026-04-18T17:05:58.999Z</time></trkpt><trkpt lat="42.4304719946291" lon="-8.067819384928152"><ele>394.33333333333337</ele><time>2026-04-18T17:05:59.999Z</time></trkpt><trkpt lat="42.430516646593105" lon="-8.067920632811964"><ele>394.6666666666667</ele><time>2026-04-18T17:06:00.999Z</time></trkpt><trkpt lat="42.4305641020911" lon="-8.06802410657536"><ele>395.0</ele><time>2026-04-18T17:06:01.999Z</time></trkpt><trkpt lat="42.43061112961842" lon="-8.068124189587571"><ele>395.33333333333337</ele><time>2026-04-18T17:06:03Z</time></trkpt><trkpt lat="42.43064813371026" lon="-8.068213180084514"><ele>395.6666666666667</ele><time>2026-04-18T17:06:04Z</time></trkpt><trkpt lat="42.43068597494193" lon="-8.06829812729549"><ele>396.0</ele><time>2026-04-18T17:06:05Z</time></trkpt><trkpt lat="42.43073127373993" lon="-8.068400184672514"><ele>396.0</ele><time>2026-04-18T17:06:07Z</time></trkpt><trkpt lat="42.430785930693524" lon="-8.068526479025142"><ele>396.0</ele><time>2026-04-18T17:06:15Z</time></trkpt><trkpt lat="42.43081890846197" lon="-8.068600984649375"><ele>396.0</ele><time>2026-04-18T17:06:16Z</time></trkpt><trkpt lat="42.43085930708196" lon="-8.068685518014684"><ele>396.0</ele><time>2026-04-18T17:06:17Z</time></trkpt><trkpt lat="42.430900245193676" lon="-8.068773147398884"><ele>396.0</ele><time>2026-04-18T17:06:18Z</time></trkpt><trkpt lat="42.43094535194122" lon="-8.06886839893083"><ele>396.0</ele><time>2026-04-18T17:06:19Z</time></trkpt><trkpt lat="42.43098532303046" lon="-8.068960558674393"><ele>396.0</ele><time>2026-04-18T17:06:20Z</time></trkpt><trkpt lat="42.43102431102399" lon="-8.069049768058854"><ele>396.0</ele><time>2026-04-18T17:06:21Z</time></trkpt><trkpt lat="42.43106241743008" lon="-8.069133111563845"><ele>396.0</ele><time>2026-04-18T17:06:22Z</time></trkpt><trkpt lat="42.431102112255914" lon="-8.069223180922895"><ele>396.0</ele><time>2026-04-18T17:06:23Z</time></trkpt><trkpt lat="42.431144303515005" lon="-8.069317350301656"><ele>396.0</ele><time>2026-04-18T17:06:24Z</time></trkpt><trkpt lat="42.43118486746033" lon="-8.069413907390027"><ele>396.0</ele><time>2026-04-18T17:06:25Z</time></trkpt><trkpt lat="42.43123127830656" lon="-8.06951550295865"><ele>396.0</ele><time>2026-04-18T17:06:26Z</time></trkpt><trkpt lat="42.43127658581354" lon="-8.069614300006647"><ele>396.0</ele><time>2026-04-18T17:06:27Z</time></trkpt><trkpt lat="42.43132332549306" lon="-8.069715939185357"><ele>396.0</ele><time>2026-04-18T17:06:28Z</time></trkpt><trkpt lat="42.43136933288774" lon="-8.069822668410024"><ele>396.0</ele><time>2026-04-18T17:06:29Z</time></trkpt><trkpt lat="42.43141906582157" lon="-8.069936435957157"><ele>396.0</ele><time>2026-04-18T17:06:30Z</time></trkpt><trkpt lat="42.43146987154408" lon="-8.070050517391277"><ele>396.0</ele><time>2026-04-18T17:06:31Z</time></trkpt><trkpt lat="42.431524370071735" lon="-8.070163344716955"><ele>396.0</ele><time>2026-04-18T17:06:32Z</time></trkpt><trkpt lat="42.43157493253135" lon="-8.070278350805568"><ele>396.0</ele><time>2026-04-18T17:06:33Z</time></trkpt><trkpt lat="42.43162493332142" lon="-8.070390056681743"><ele>396.0</ele><time>2026-04-18T17:06:34Z</time></trkpt><trkpt lat="42.431669130535454" lon="-8.070492432457652"><ele>396.0</ele><time>2026-04-18T17:06:35Z</time></trkpt><trkpt lat="42.43171178143641" lon="-8.07059071556737"><ele>396.0</ele><time>2026-04-18T17:06:36Z</time></trkpt><trkpt lat="42.431749674321075" lon="-8.070680093314563"><ele>396.0</ele><time>2026-04-18T17:06:37Z</time></trkpt><trkpt lat="42.43178566618673" lon="-8.070762399003527"><ele>396.0</ele><time>2026-04-18T17:06:38Z</time></trkpt><trkpt lat="42.43184453593354" lon="-8.070892985955664"><ele>396.0</ele><time>2026-04-18T17:06:40Z</time></trkpt><trkpt lat="42.43189225368921" lon="-8.070989545685585"><ele>396.0</ele><time>2026-04-18T17:06:42Z</time></trkpt><trkpt lat="42.43194375200195" lon="-8.071100221078963"><ele>396.0</ele><time>2026-04-18T17:06:44Z</time></trkpt><trkpt lat="42.4320027301396" lon="-8.07122032429577"><ele>396.0</ele><time>2026-04-18T17:06:46Z</time></trkpt><trkpt lat="42.43205099399677" lon="-8.071325035970855"><ele>396.0</ele><time>2026-04-18T17:06:48Z</time></trkpt><trkpt lat="42.43210087023856" lon="-8.071433746108193"><ele>396.0</ele><time>2026-04-18T17:06:51Z</time></trkpt><trkpt lat="42.432140305295796" lon="-8.071509683946827"><ele>396.0</ele><time>2026-04-18T17:06:53Z</time></trkpt><trkpt lat="42.43218045358351" lon="-8.071595141338712"><ele>396.0</ele><time>2026-04-18T17:06:55Z</time></trkpt><trkpt lat="42.43221494949444" lon="-8.071672407770869"><ele>396.0</ele><time>2026-04-18T17:06:56Z</time></trkpt><trkpt lat="42.43225785269912" lon="-8.071765924241522"><ele>396.4</ele><time>2026-04-18T17:06:57Z</time></trkpt><trkpt lat="42.43230631668353" lon="-8.071871987755774"><ele>396.8</ele><time>2026-04-18T17:06:58Z</time></trkpt><trkpt lat="42.43235470042367" lon="-8.071983145443022"><ele>397.2</ele><time>2026-04-18T17:06:59Z</time></trkpt><trkpt lat="42.43240109100586" lon="-8.07209237533561"><ele>397.59999999999997</ele><time>2026-04-18T17:07:00Z</time></trkpt><trkpt lat="42.432448528106846" lon="-8.072200348338615"><ele>398.0</ele><time>2026-04-18T17:07:01Z</time></trkpt><trkpt lat="42.4325080491379" lon="-8.072310808062241"><ele>398.0</ele><time>2026-04-18T17:07:02Z</time></trkpt><trkpt lat="42.43255465140164" lon="-8.072416086266932"><ele>398.0</ele><time>2026-04-18T17:07:03Z</time></trkpt><trkpt lat="42.4325995302347" lon="-8.072529479710157"><ele>398.0</ele><time>2026-04-18T17:07:04Z</time></trkpt><trkpt lat="42.4326478268854" lon="-8.072636984223122"><ele>398.0</ele><time>2026-04-18T17:07:05Z</time></trkpt><trkpt lat="42.432693338932026" lon="-8.07274574248623"><ele>398.0</ele><time>2026-04-18T17:07:06Z</time></trkpt><trkpt lat="42.4327403348616" lon="-8.07285671105336"><ele>398.4</ele><time>2026-04-18T17:07:07Z</time></trkpt><trkpt lat="42.4327893780864" lon="-8.072966590289703"><ele>398.79999999999995</ele><time>2026-04-18T17:07:08Z</time></trkpt><trkpt lat="42.43283780268126" lon="-8.073078461245244"><ele>399.2</ele><time>2026-04-18T17:07:09Z</time></trkpt><trkpt lat="42.43288490646177" lon="-8.073183824413912"><ele>399.6</ele><time>2026-04-18T17:07:10Z</time></trkpt><trkpt lat="42.432932537071416" lon="-8.073284937678805"><ele>400.0</ele><time>2026-04-18T17:07:11Z</time></trkpt><trkpt lat="42.432983386624436" lon="-8.073396257123713"><ele>400.6</ele><time>2026-04-18T17:07:12Z</time></trkpt><trkpt lat="42.433027668013835" lon="-8.073502724331833"><ele>401.2</ele><time>2026-04-18T17:07:13Z</time></trkpt><trkpt lat="42.433073543688565" lon="-8.073616620052272"><ele>401.79999999999995</ele><time>2026-04-18T17:07:14Z</time></trkpt><trkpt lat="42.43312393276851" lon="-8.073731977166895"><ele>402.4</ele><time>2026-04-18T17:07:15Z</time></trkpt><trkpt lat="42.43317087516244" lon="-8.073845458487517"><ele>403.0</ele><time>2026-04-18T17:07:16Z</time></trkpt><trkpt lat="42.43321845985465" lon="-8.073964261540125"><ele>403.0</ele><time>2026-04-18T17:07:17Z</time></trkpt><trkpt lat="42.43326435515734" lon="-8.074078990403223"><ele>403.0</ele><time>2026-04-18T17:07:18Z</time></trkpt><trkpt lat="42.433304179581185" lon="-8.074188553055821"><ele>403.0</ele><time>2026-04-18T17:07:19Z</time></trkpt><trkpt lat="42.433348529112735" lon="-8.074288780166416"><ele>403.0</ele><time>2026-04-18T17:07:20Z</time></trkpt><trkpt lat="42.43339056798991" lon="-8.074392543803759"><ele>403.0</ele><time>2026-04-18T17:07:21Z</time></trkpt><trkpt lat="42.43345964807159" lon="-8.074528200054626"><ele>404.0</ele><time>2026-04-18T17:07:23Z</time></trkpt><trkpt lat="42.43350017978075" lon="-8.07459733150514"><ele>405.0</ele><time>2026-04-18T17:07:25Z</time></trkpt><trkpt lat="42.433542619570595" lon="-8.074684048622506"><ele>406.0</ele><time>2026-04-18T17:07:27Z</time></trkpt><trkpt lat="42.43358808056713" lon="-8.07476996788251"><ele>407.0</ele><time>2026-04-18T17:07:29Z</time></trkpt><trkpt lat="42.43362691057433" lon="-8.074881025594635"><ele>408.0</ele><time>2026-04-18T17:08:05Z</time></trkpt><trkpt lat="42.43370172171205" lon="-8.075047394879057"><ele>408.0</ele><time>2026-04-18T17:08:07Z</time></trkpt><trkpt lat="42.43375732044857" lon="-8.07514772859924"><ele>408.0</ele><time>2026-04-18T17:08:08Z</time></trkpt><trkpt lat="42.43381128714237" lon="-8.075252246537044"><ele>408.0</ele><time>2026-04-18T17:08:09Z</time></trkpt><trkpt lat="42.43386871834717" lon="-8.075375405809234"><ele>408.0</ele><time>2026-04-18T17:08:10Z</time></trkpt><trkpt lat="42.433925847364335" lon="-8.075493242744512"><ele>408.0</ele><time>2026-04-18T17:08:11Z</time></trkpt><trkpt lat="42.433973578134946" lon="-8.075603160544603"><ele>408.0</ele><time>2026-04-18T17:08:12Z</time></trkpt><trkpt lat="42.43401877047053" lon="-8.075712890506598"><ele>408.0</ele><time>2026-04-18T17:08:13Z</time></trkpt><trkpt lat="42.434060787015" lon="-8.07581916744783"><ele>408.0</ele><time>2026-04-18T17:08:14Z</time></trkpt><trkpt lat="42.4341016942603" lon="-8.075922842872904"><ele>408.0</ele><time>2026-04-18T17:08:15Z</time></trkpt><trkpt lat="42.43414773536025" lon="-8.076026191231579"><ele>408.0</ele><time>2026-04-18T17:08:16Z</time></trkpt><trkpt lat="42.43419509682795" lon="-8.076125055965813"><ele>408.0</ele><time>2026-04-18T17:08:17Z</time></trkpt><trkpt lat="42.43424127857903" lon="-8.076227240657985"><ele>408.0</ele><time>2026-04-18T17:08:18Z</time></trkpt><trkpt lat="42.43428811238639" lon="-8.076324976828136"><ele>408.0</ele><time>2026-04-18T17:08:19Z</time></trkpt><trkpt lat="42.43433338869554" lon="-8.07642256996716"><ele>408.0</ele><time>2026-04-18T17:08:20Z</time></trkpt><trkpt lat="42.43437734537411" lon="-8.076519424918251"><ele>408.0</ele><time>2026-04-18T17:08:21Z</time></trkpt><trkpt lat="42.43442078187236" lon="-8.076610365901365"><ele>408.0</ele><time>2026-04-18T17:08:22Z</time></trkpt><trkpt lat="42.43446668193679" lon="-8.076710679708944"><ele>408.0</ele><time>2026-04-18T17:08:23Z</time></trkpt><trkpt lat="42.4345088802643" lon="-8.076805317245581"><ele>407.8333333333333</ele><time>2026-04-18T17:08:24Z</time></trkpt><trkpt lat="42.43455362354869" lon="-8.07689846257187"><ele>407.66666666666663</ele><time>2026-04-18T17:08:25Z</time></trkpt><trkpt lat="42.434598160278654" lon="-8.076993520818752"><ele>407.5</ele><time>2026-04-18T17:08:26Z</time></trkpt><trkpt lat="42.43464373316159" lon="-8.077085047275117"><ele>407.3333333333333</ele><time>2026-04-18T17:08:27Z</time></trkpt><trkpt lat="42.43469779179588" lon="-8.077173637657731"><ele>407.16666666666663</ele><time>2026-04-18T17:08:28Z</time></trkpt><trkpt lat="42.43474345940522" lon="-8.07727302605752"><ele>407.0</ele><time>2026-04-18T17:08:29Z</time></trkpt><trkpt lat="42.43479781986727" lon="-8.077368568787046"><ele>406.49999999999994</ele><time>2026-04-18T17:08:30Z</time></trkpt><trkpt lat="42.4348532000923" lon="-8.07746029822178"><ele>406.0</ele><time>2026-04-18T17:08:31Z</time></trkpt><trkpt lat="42.43491733885022" lon="-8.077538947525168"><ele>405.5</ele><time>2026-04-18T17:08:32Z</time></trkpt><trkpt lat="42.43497265715946" lon="-8.077627398669167"><ele>405.0</ele><time>2026-04-18T17:08:33Z</time></trkpt><trkpt lat="42.435000256749184" lon="-8.077732419596483"><ele>404.49999999999994</ele><time>2026-04-18T17:08:34Z</time></trkpt><trkpt lat="42.4350217511442" lon="-8.077831087396548"><ele>404.0</ele><time>2026-04-18T17:08:35Z</time></trkpt><trkpt lat="42.43499924841995" lon="-8.077916379892093"><ele>404.0</ele><time>2026-04-18T17:08:36Z</time></trkpt><trkpt lat="42.43511995029851" lon="-8.078007524831897"><ele>404.0</ele><time>2026-04-18T17:08:37Z</time></trkpt><trkpt lat="42.4351956893611" lon="-8.078081313459675"><ele>404.0</ele><time>2026-04-18T17:08:38Z</time></trkpt><trkpt lat="42.43527851035939" lon="-8.078161228972258"><ele>404.0</ele><time>2026-04-18T17:08:39Z</time></trkpt><trkpt lat="42.435361221202186" lon="-8.078241038195815"><ele>404.0</ele><time>2026-04-18T17:08:40Z</time></trkpt><trkpt lat="42.43544400672253" lon="-8.078320919595214"><ele>402.2</ele><time>2026-04-18T17:08:41Z</time></trkpt><trkpt lat="42.43552472443741" lon="-8.078398731063418"><ele>400.4</ele><time>2026-04-18T17:08:42Z</time></trkpt><trkpt lat="42.435602116371705" lon="-8.078473352121398"><ele>398.6</ele><time>2026-04-18T17:08:43Z</time></trkpt><trkpt lat="42.4356785370545" lon="-8.078548078907994"><ele>396.8</ele><time>2026-04-18T17:08:44Z</time></trkpt><trkpt lat="42.43574702035771" lon="-8.0786403264037"><ele>395.0</ele><time>2026-04-18T17:08:45Z</time></trkpt><trkpt lat="42.43582917909817" lon="-8.078703232880398"><ele>394.99999999999994</ele><time>2026-04-18T17:08:46Z</time></trkpt><trkpt lat="42.43591058548732" lon="-8.078742663335838"><ele>395.0</ele><time>2026-04-18T17:08:47Z</time></trkpt><trkpt lat="42.43599310319491" lon="-8.078753800822964"><ele>395.0</ele><time>2026-04-18T17:08:48Z</time></trkpt><trkpt lat="42.436073760805705" lon="-8.07873511385869"><ele>395.0</ele><time>2026-04-18T17:08:49Z</time></trkpt><trkpt lat="42.436148603841666" lon="-8.078687261998123"><ele>394.99999999999994</ele><time>2026-04-18T17:08:50Z</time></trkpt><trkpt lat="42.436221573745165" lon="-8.078621643389923"><ele>395.0</ele><time>2026-04-18T17:08:51Z</time></trkpt><trkpt lat="42.43629655508719" lon="-8.078547274268287"><ele>394.16666666666663</ele><time>2026-04-18T17:08:52Z</time></trkpt><trkpt lat="42.43637359055403" lon="-8.078479682762872"><ele>393.3333333333333</ele><time>2026-04-18T17:08:53Z</time></trkpt><trkpt lat="42.436447685724694" lon="-8.078414199313505"><ele>392.5</ele><time>2026-04-18T17:08:54Z</time></trkpt><trkpt lat="42.43651926514784" lon="-8.078344693118053"><ele>391.66666666666663</ele><time>2026-04-18T17:08:55Z</time></trkpt><trkpt lat="42.436591798393444" lon="-8.078265956674011"><ele>390.8333333333333</ele><time>2026-04-18T17:08:56Z</time></trkpt><trkpt lat="42.43665739284542" lon="-8.078198761345385"><ele>390.0</ele><time>2026-04-18T17:08:57Z</time></trkpt><trkpt lat="42.43672366678693" lon="-8.078127842002532"><ele>389.8333333333333</ele><time>2026-04-18T17:08:58Z</time></trkpt><trkpt lat="42.43679202755828" lon="-8.078057668153457"><ele>389.66666666666663</ele><time>2026-04-18T17:08:59Z</time></trkpt><trkpt lat="42.43686322036046" lon="-8.077992955938578"><ele>389.5</ele><time>2026-04-18T17:09:00Z</time></trkpt><trkpt lat="42.436932569996266" lon="-8.077936671809764"><ele>389.3333333333333</ele><time>2026-04-18T17:09:01Z</time></trkpt><trkpt lat="42.43700426601527" lon="-8.077861533439235"><ele>389.16666666666663</ele><time>2026-04-18T17:09:02Z</time></trkpt><trkpt lat="42.43707995414486" lon="-8.077785912035825"><ele>389.0</ele><time>2026-04-18T17:09:03Z</time></trkpt><trkpt lat="42.437146532205794" lon="-8.077701683295036"><ele>388.0</ele><time>2026-04-18T17:09:04Z</time></trkpt><trkpt lat="42.437226741946986" lon="-8.077632576621712"><ele>387.0</ele><time>2026-04-18T17:09:05Z</time></trkpt><trkpt lat="42.43730735694953" lon="-8.077565643456998"><ele>386.0</ele><time>2026-04-18T17:09:06Z</time></trkpt><trkpt lat="42.437398387706" lon="-8.07752442542279"><ele>385.0</ele><time>2026-04-18T17:09:07Z</time></trkpt><trkpt lat="42.43748914214181" lon="-8.077489239161352"><ele>384.0</ele><time>2026-04-18T17:09:08Z</time></trkpt><trkpt lat="42.43758253790487" lon="-8.077483372077555"><ele>384.0</ele><time>2026-04-18T17:09:09Z</time></trkpt><trkpt lat="42.43767318360082" lon="-8.077458579750752"><ele>384.0</ele><time>2026-04-18T17:09:10Z</time></trkpt><trkpt lat="42.43776165187863" lon="-8.077439549369021"><ele>384.0</ele><time>2026-04-18T17:09:11Z</time></trkpt><trkpt lat="42.43784943769654" lon="-8.077416227174478"><ele>384.0</ele><time>2026-04-18T17:09:12Z</time></trkpt><trkpt lat="42.437932536587006" lon="-8.077387688557472"><ele>384.0</ele><time>2026-04-18T17:09:13Z</time></trkpt><trkpt lat="42.438017861971396" lon="-8.077369383287271"><ele>384.0</ele><time>2026-04-18T17:09:14Z</time></trkpt><trkpt lat="42.43810153753436" lon="-8.077351864341955"><ele>384.5</ele><time>2026-04-18T17:09:15Z</time></trkpt><trkpt lat="42.43817819586173" lon="-8.077308027274382"><ele>385.0</ele><time>2026-04-18T17:09:16Z</time></trkpt><trkpt lat="42.438257655963106" lon="-8.077287345175932"><ele>385.5</ele><time>2026-04-18T17:09:17Z</time></trkpt><trkpt lat="42.43832915448136" lon="-8.077270398894388"><ele>386.0</ele><time>2026-04-18T17:09:18.001Z</time></trkpt><trkpt lat="42.43840285148482" lon="-8.077252931535183"><ele>386.5</ele><time>2026-04-18T17:09:19.001Z</time></trkpt><trkpt lat="42.43847499700748" lon="-8.077235831900014"><ele>387.0</ele><time>2026-04-18T17:09:20.001Z</time></trkpt><trkpt lat="42.43854893360783" lon="-8.077218307751373"><ele>387.0</ele><time>2026-04-18T17:09:21.001Z</time></trkpt><trkpt lat="42.438625768203245" lon="-8.0772000967306"><ele>387.0</ele><time>2026-04-18T17:09:22.001Z</time></trkpt><trkpt lat="42.43870191191204" lon="-8.077182049464565"><ele>387.0</ele><time>2026-04-18T17:09:23.001Z</time></trkpt><trkpt lat="42.43877893230719" lon="-8.077163794403253"><ele>387.0</ele><time>2026-04-18T17:09:24.001Z</time></trkpt><trkpt lat="42.438858037722454" lon="-8.077152998113286"><ele>387.0</ele><time>2026-04-18T17:09:25.001Z</time></trkpt><trkpt lat="42.43893712339942" lon="-8.077156068018676"><ele>387.0</ele><time>2026-04-18T17:09:26.001Z</time></trkpt><trkpt lat="42.43901403309447" lon="-8.077190065315188"><ele>388.20000000000005</ele><time>2026-04-18T17:09:27.001Z</time></trkpt><trkpt lat="42.43910068227345" lon="-8.077185961306464"><ele>389.4</ele><time>2026-04-18T17:09:28.001Z</time></trkpt><trkpt lat="42.43918957567353" lon="-8.077208551498641"><ele>390.6</ele><time>2026-04-18T17:09:29.001Z</time></trkpt><trkpt lat="42.43928301545996" lon="-8.077251819750078"><ele>391.79999999999995</ele><time>2026-04-18T17:09:30.001Z</time></trkpt><trkpt lat="42.439371138807275" lon="-8.077317613215437"><ele>393.0</ele><time>2026-04-18T17:09:31.001Z</time></trkpt><trkpt lat="42.43944821160062" lon="-8.077433075137325"><ele>391.79999999999995</ele><time>2026-04-18T17:09:32.001Z</time></trkpt><trkpt lat="42.43949524446317" lon="-8.077554653079114"><ele>390.6</ele><time>2026-04-18T17:09:33.001Z</time></trkpt><trkpt lat="42.43954682428801" lon="-8.077670784413774"><ele>389.4</ele><time>2026-04-18T17:09:34.001Z</time></trkpt><trkpt lat="42.43956542261897" lon="-8.077806412839085"><ele>388.20000000000005</ele><time>2026-04-18T17:09:35.001Z</time></trkpt><trkpt lat="42.439637007885686" lon="-8.077901846413097"><ele>387.0</ele><time>2026-04-18T17:09:36.001Z</time></trkpt><trkpt lat="42.43970241183223" lon="-8.077988694827711"><ele>387.0</ele><time>2026-04-18T17:09:37.001Z</time></trkpt><trkpt lat="42.43977853214318" lon="-8.078070391450574"><ele>387.0</ele><time>2026-04-18T17:09:38.001Z</time></trkpt><trkpt lat="42.43987388441898" lon="-8.078121291065303"><ele>387.0</ele><time>2026-04-18T17:09:39.001Z</time></trkpt><trkpt lat="42.43997212811638" lon="-8.078168464517098"><ele>387.0</ele><time>2026-04-18T17:09:40.001Z</time></trkpt><trkpt lat="42.44007278625146" lon="-8.078214419743002"><ele>387.0</ele><time>2026-04-18T17:09:41.001Z</time></trkpt><trkpt lat="42.4401736086513" lon="-8.078266059142504"><ele>386.8</ele><time>2026-04-18T17:09:42.001Z</time></trkpt><trkpt lat="42.44027053029923" lon="-8.078314600521852"><ele>386.6</ele><time>2026-04-18T17:09:43.001Z</time></trkpt><trkpt lat="42.44036514694076" lon="-8.078367172992957"><ele>386.40000000000003</ele><time>2026-04-18T17:09:44.001Z</time></trkpt><trkpt lat="42.44044718245437" lon="-8.078423120220394"><ele>386.20000000000005</ele><time>2026-04-18T17:09:45.001Z</time></trkpt><trkpt lat="42.44052698432389" lon="-8.07849189363196"><ele>386.0</ele><time>2026-04-18T17:09:46.001Z</time></trkpt><trkpt lat="42.44059386879566" lon="-8.078581205650611"><ele>386.0</ele><time>2026-04-18T17:09:47.001Z</time></trkpt><trkpt lat="42.44066058847815" lon="-8.0786798042745"><ele>386.0</ele><time>2026-04-18T17:09:48.001Z</time></trkpt><trkpt lat="42.44064732633718" lon="-8.07884093887186"><ele>386.0</ele><time>2026-04-18T17:09:49.001Z</time></trkpt><trkpt lat="42.44063107594621" lon="-8.078984829260646"><ele>386.0</ele><time>2026-04-18T17:09:50.001Z</time></trkpt><trkpt lat="42.44064007999698" lon="-8.0791213973721"><ele>386.0</ele><time>2026-04-18T17:09:51.001Z</time></trkpt><trkpt lat="42.44064520786936" lon="-8.079242382980215"><ele>385.6</ele><time>2026-04-18T17:09:52.001Z</time></trkpt><trkpt lat="42.4406869718851" lon="-8.079337589695903"><ele>385.20000000000005</ele><time>2026-04-18T17:09:53.001Z</time></trkpt><trkpt lat="42.440779558230574" lon="-8.079374807561896"><ele>384.79999999999995</ele><time>2026-04-18T17:09:54.001Z</time></trkpt><trkpt lat="42.440875267500935" lon="-8.079395983372093"><ele>384.4</ele><time>2026-04-18T17:09:55.001Z</time></trkpt><trkpt lat="42.4409701143153" lon="-8.079445979196771"><ele>384.0</ele><time>2026-04-18T17:09:56.001Z</time></trkpt><trkpt lat="42.44107729207326" lon="-8.079473257598144"><ele>384.0</ele><time>2026-04-18T17:09:57.001Z</time></trkpt><trkpt lat="42.44116714659539" lon="-8.079535648428386"><ele>384.0</ele><time>2026-04-18T17:09:58.001Z</time></trkpt><trkpt lat="42.44122883716821" lon="-8.07964514634999"><ele>384.0</ele><time>2026-04-18T17:09:59.001Z</time></trkpt><trkpt lat="42.44125903548113" lon="-8.079788413175596"><ele>384.0</ele><time>2026-04-18T17:10:00.001Z</time></trkpt><trkpt lat="42.44126322834421" lon="-8.079944894838528"><ele>384.0</ele><time>2026-04-18T17:10:01.001Z</time></trkpt><trkpt lat="42.4412545005316" lon="-8.080096779093267"><ele>385.75</ele><time>2026-04-18T17:10:02.001Z</time></trkpt><trkpt lat="42.44125625297575" lon="-8.080256922352843"><ele>387.5</ele><time>2026-04-18T17:10:03.001Z</time></trkpt><trkpt lat="42.44127263178678" lon="-8.080418512100993"><ele>389.25</ele><time>2026-04-18T17:10:04.001Z</time></trkpt><trkpt lat="42.44129750855375" lon="-8.080590323007534"><ele>391.0</ele><time>2026-04-18T17:10:05.001Z</time></trkpt><trkpt lat="42.441318658703956" lon="-8.080774231223002"><ele>391.0</ele><time>2026-04-18T17:10:06.001Z</time></trkpt><trkpt lat="42.44133860824726" lon="-8.08095650618646"><ele>391.0</ele><time>2026-04-18T17:10:07.001Z</time></trkpt><trkpt lat="42.44135665042967" lon="-8.081145157308935"><ele>391.0</ele><time>2026-04-18T17:10:08.001Z</time></trkpt><trkpt lat="42.44137484913263" lon="-8.08134561450851"><ele>391.0</ele><time>2026-04-18T17:10:09.001Z</time></trkpt><trkpt lat="42.44139607166251" lon="-8.081546944004605"><ele>391.6666666666667</ele><time>2026-04-18T17:10:10.001Z</time></trkpt><trkpt lat="42.4414267390716" lon="-8.08175186693316"><ele>392.33333333333337</ele><time>2026-04-18T17:10:11.001Z</time></trkpt><trkpt lat="42.44147105739585" lon="-8.081953520801994"><ele>393.0</ele><time>2026-04-18T17:10:12.001Z</time></trkpt><trkpt lat="42.44153482204505" lon="-8.082149528864383"><ele>393.0</ele><time>2026-04-18T17:10:13.001Z</time></trkpt><trkpt lat="42.44161622690299" lon="-8.082332099252108"><ele>393.0</ele><time>2026-04-18T17:10:14.001Z</time></trkpt><trkpt lat="42.441724307738106" lon="-8.082494896530429"><ele>393.0</ele><time>2026-04-18T17:10:15.001Z</time></trkpt><trkpt lat="42.44184377547802" lon="-8.082652264798467"><ele>393.33333333333337</ele><time>2026-04-18T17:10:16.001Z</time></trkpt><trkpt lat="42.44196978740382" lon="-8.082794680445504"><ele>393.6666666666667</ele><time>2026-04-18T17:10:17.001Z</time></trkpt><trkpt lat="42.442103427708375" lon="-8.082929902332744"><ele>394.0</ele><time>2026-04-18T17:10:18.001Z</time></trkpt><trkpt lat="42.44224597581173" lon="-8.083064546650549"><ele>394.0</ele><time>2026-04-18T17:10:19.001Z</time></trkpt><trkpt lat="42.4423871420677" lon="-8.083191185889076"><ele>394.0</ele><time>2026-04-18T17:10:20.001Z</time></trkpt><trkpt lat="42.44253688258292" lon="-8.083318009224136"><ele>394.0</ele><time>2026-04-18T17:10:21.001Z</time></trkpt><trkpt lat="42.44269183887598" lon="-8.083442096347476"><ele>395.33333333333337</ele><time>2026-04-18T17:10:22.001Z</time></trkpt><trkpt lat="42.44285522252584" lon="-8.083556737330056"><ele>396.66666666666663</ele><time>2026-04-18T17:10:23.001Z</time></trkpt><trkpt lat="42.44302791592228" lon="-8.083642575920345"><ele>398.0</ele><time>2026-04-18T17:10:24.001Z</time></trkpt><trkpt lat="42.44321331524457" lon="-8.083704627859321"><ele>398.0</ele><time>2026-04-18T17:10:25.001Z</time></trkpt><trkpt lat="42.443399658246726" lon="-8.083744753414937"><ele>398.0</ele><time>2026-04-18T17:10:26.001Z</time></trkpt><trkpt lat="42.443590052059136" lon="-8.083769958935584"><ele>398.0</ele><time>2026-04-18T17:10:27.001Z</time></trkpt><trkpt lat="42.443782399919364" lon="-8.08377318341239"><ele>398.3333333333333</ele><time>2026-04-18T17:10:28.001Z</time></trkpt><trkpt lat="42.4439780721727" lon="-8.083767268498548"><ele>398.66666666666663</ele><time>2026-04-18T17:10:29.001Z</time></trkpt><trkpt lat="42.44417134201421" lon="-8.083762976747762"><ele>399.0</ele><time>2026-04-18T17:10:30.001Z</time></trkpt><trkpt lat="42.444367830467" lon="-8.083757219953897"><ele>399.0</ele><time>2026-04-18T17:10:31.001Z</time></trkpt><trkpt lat="42.44456546782538" lon="-8.083760353347502"><ele>399.0</ele><time>2026-04-18T17:10:32.001Z</time></trkpt><trkpt lat="42.44476515851998" lon="-8.083786809496676"><ele>399.0</ele><time>2026-04-18T17:10:33.001Z</time></trkpt><trkpt lat="42.444966806843006" lon="-8.083832946001367"><ele>401.66666666666663</ele><time>2026-04-18T17:10:34.001Z</time></trkpt><trkpt lat="42.445162904488726" lon="-8.083888968430452"><ele>404.3333333333333</ele><time>2026-04-18T17:10:35.001Z</time></trkpt><trkpt lat="42.4453558033039" lon="-8.083957654627463"><ele>407.0</ele><time>2026-04-18T17:10:36.001Z</time></trkpt><trkpt lat="42.44555708984814" lon="-8.084015710572434"><ele>408.3333333333333</ele><time>2026-04-18T17:10:37.001Z</time></trkpt><trkpt lat="42.445752464809516" lon="-8.084085260097858"><ele>409.66666666666663</ele><time>2026-04-18T17:10:38.001Z</time></trkpt><trkpt lat="42.44594933814925" lon="-8.084149034264824"><ele>411.0</ele><time>2026-04-18T17:10:39.001Z</time></trkpt><trkpt lat="42.446139564749465" lon="-8.084211976089783"><ele>412.66666666666663</ele><time>2026-04-18T17:10:40.001Z</time></trkpt><trkpt lat="42.44632806528149" lon="-8.084269582582781"><ele>414.3333333333333</ele><time>2026-04-18T17:10:41.001Z</time></trkpt><trkpt lat="42.446520577997866" lon="-8.084325199970648"><ele>416.0</ele><time>2026-04-18T17:10:42.001Z</time></trkpt><trkpt lat="42.44670479859484" lon="-8.084381622931295"><ele>416.0</ele><time>2026-04-18T17:10:43.001Z</time></trkpt><trkpt lat="42.446890994337906" lon="-8.084447314421558"><ele>416.0</ele><time>2026-04-18T17:10:44.001Z</time></trkpt><trkpt lat="42.44707164128561" lon="-8.08451856366138"><ele>416.0</ele><time>2026-04-18T17:10:45.001Z</time></trkpt><trkpt lat="42.44724681425373" lon="-8.084604999701078"><ele>417.3333333333333</ele><time>2026-04-18T17:10:46.001Z</time></trkpt><trkpt lat="42.44741628716519" lon="-8.084713915207201"><ele>418.66666666666663</ele><time>2026-04-18T17:10:47.001Z</time></trkpt><trkpt lat="42.447577603682845" lon="-8.084836306972509"><ele>420.0</ele><time>2026-04-18T17:10:48.001Z</time></trkpt><trkpt lat="42.44772739723055" lon="-8.084981696202165"><ele>422.0</ele><time>2026-04-18T17:10:49.001Z</time></trkpt><trkpt lat="42.44786565492571" lon="-8.085153606249031"><ele>424.0</ele><time>2026-04-18T17:10:50.001Z</time></trkpt><trkpt lat="42.44799062167857" lon="-8.085325875120716"><ele>426.0</ele><time>2026-04-18T17:10:51.001Z</time></trkpt><trkpt lat="42.448107653557905" lon="-8.085513728501573"><ele>427.0</ele><time>2026-04-18T17:10:52.001Z</time></trkpt><trkpt lat="42.44821346110504" lon="-8.085710448073778"><ele>428.0</ele><time>2026-04-18T17:10:53.001Z</time></trkpt><trkpt lat="42.44830319544357" lon="-8.085926369444"><ele>429.0</ele><time>2026-04-18T17:10:54.001Z</time></trkpt><trkpt lat="42.44837885751185" lon="-8.086143643394745"><ele>429.0</ele><time>2026-04-18T17:10:55.001Z</time></trkpt><trkpt lat="42.448445525611525" lon="-8.086367969245703"><ele>429.0</ele><time>2026-04-18T17:10:56.001Z</time></trkpt><trkpt lat="42.448498935283695" lon="-8.086600177461039"><ele>429.0</ele><time>2026-04-18T17:10:57.001Z</time></trkpt><trkpt lat="42.448541355739046" lon="-8.08683710728272"><ele>430.0</ele><time>2026-04-18T17:10:58.001Z</time></trkpt><trkpt lat="42.448575145325044" lon="-8.087076841525606"><ele>431.0</ele><time>2026-04-18T17:10:59.001Z</time></trkpt><trkpt lat="42.448608340827725" lon="-8.087311814178594"><ele>432.0</ele><time>2026-04-18T17:11:00.001Z</time></trkpt><trkpt lat="42.44864189129644" lon="-8.08754874598639"><ele>433.0</ele><time>2026-04-18T17:11:01.001Z</time></trkpt><trkpt lat="42.44867257282431" lon="-8.087787219597466"><ele>434.0</ele><time>2026-04-18T17:11:02.001Z</time></trkpt><trkpt lat="42.44870373185845" lon="-8.088020707739746"><ele>435.0</ele><time>2026-04-18T17:11:03.001Z</time></trkpt><trkpt lat="42.44873647718317" lon="-8.088251872546898"><ele>437.33333333333337</ele><time>2026-04-18T17:11:04.001Z</time></trkpt><trkpt lat="42.44877479478498" lon="-8.088476889735242"><ele>439.6666666666667</ele><time>2026-04-18T17:11:05.001Z</time></trkpt><trkpt lat="42.44881549882075" lon="-8.088685397165182"><ele>442.0</ele><time>2026-04-18T17:11:06.001Z</time></trkpt><trkpt lat="42.44885796195753" lon="-8.08889174069411"><ele>444.6666666666667</ele><time>2026-04-18T17:11:07.001Z</time></trkpt><trkpt lat="42.44890801716546" lon="-8.089100920648072"><ele>447.33333333333337</ele><time>2026-04-18T17:11:08.001Z</time></trkpt><trkpt lat="42.44895908702387" lon="-8.089304408270344"><ele>450.0</ele><time>2026-04-18T17:11:09.001Z</time></trkpt><trkpt lat="42.44900430027478" lon="-8.089479297839604"><ele>450.0</ele><time>2026-04-18T17:11:10.001Z</time></trkpt><trkpt lat="42.449039786446306" lon="-8.08963456679839"><ele>450.0</ele><time>2026-04-18T17:11:11.001Z</time></trkpt><trkpt lat="42.449072159905974" lon="-8.089771338421645"><ele>450.0</ele><time>2026-04-18T17:11:12.001Z</time></trkpt><trkpt lat="42.449105929714285" lon="-8.089875986365183"><ele>450.0</ele><time>2026-04-18T17:11:13.001Z</time></trkpt><trkpt lat="42.44915096229386" lon="-8.089953342393777"><ele>450.0</ele><time>2026-04-18T17:11:14.001Z</time></trkpt><trkpt lat="42.449197458553954" lon="-8.090081554516127"><ele>450.4</ele><time>2026-04-18T17:11:16.001Z</time></trkpt><trkpt lat="42.4492258315936" lon="-8.090193702730575"><ele>450.8</ele><time>2026-04-18T17:11:17.001Z</time></trkpt><trkpt lat="42.44925786254405" lon="-8.090320309386081"><ele>451.20000000000005</ele><time>2026-04-18T17:11:18.001Z</time></trkpt><trkpt lat="42.44929282914677" lon="-8.090458517249905"><ele>451.6</ele><time>2026-04-18T17:11:19.001Z</time></trkpt><trkpt lat="42.449368522531344" lon="-8.090606332078291"><ele>452.0</ele><time>2026-04-18T17:11:20.001Z</time></trkpt><trkpt lat="42.44941178364548" lon="-8.090756032483927"><ele>452.75</ele><time>2026-04-18T17:11:21.001Z</time></trkpt><trkpt lat="42.44945668315804" lon="-8.09092715594345"><ele>453.5</ele><time>2026-04-18T17:11:22.001Z</time></trkpt><trkpt lat="42.4494954064087" lon="-8.091094513617053"><ele>454.25</ele><time>2026-04-18T17:11:23.001Z</time></trkpt><trkpt lat="42.4495321174516" lon="-8.091260277038861"><ele>455.0</ele><time>2026-04-18T17:11:24.001Z</time></trkpt><trkpt lat="42.44958424159589" lon="-8.091439125252098"><ele>458.5</ele><time>2026-04-18T17:11:25.001Z</time></trkpt><trkpt lat="42.44963834852241" lon="-8.091615898624843"><ele>462.0</ele><time>2026-04-18T17:11:26.001Z</time></trkpt><trkpt lat="42.449714135505054" lon="-8.09178719501967"><ele>465.5</ele><time>2026-04-18T17:11:27.001Z</time></trkpt><trkpt lat="42.44978919941779" lon="-8.091918893099491"><ele>469.0</ele><time>2026-04-18T17:11:28.001Z</time></trkpt><trkpt lat="42.44986580883808" lon="-8.092034339334603"><ele>469.0</ele><time>2026-04-18T17:11:29.001Z</time></trkpt><trkpt lat="42.44995643364294" lon="-8.092154469610024"><ele>469.0</ele><time>2026-04-18T17:11:30.001Z</time></trkpt><trkpt lat="42.45004198036438" lon="-8.092267842444684"><ele>469.0</ele><time>2026-04-18T17:11:31.001Z</time></trkpt><trkpt lat="42.450130423444406" lon="-8.092373835989989"><ele>469.0</ele><time>2026-04-18T17:11:32.001Z</time></trkpt><trkpt lat="42.45022689260742" lon="-8.09246658888486"><ele>468.75</ele><time>2026-04-18T17:11:33.001Z</time></trkpt><trkpt lat="42.45030399625297" lon="-8.092601694212874"><ele>468.5</ele><time>2026-04-18T17:11:34.001Z</time></trkpt><trkpt lat="42.450443921898206" lon="-8.092624324235262"><ele>468.25</ele><time>2026-04-18T17:11:35.001Z</time></trkpt><trkpt lat="42.45056724215204" lon="-8.092682085615422"><ele>468.0</ele><time>2026-04-18T17:11:36.001Z</time></trkpt><trkpt lat="42.45069540228456" lon="-8.092724621748296"><ele>470.75</ele><time>2026-04-18T17:11:37.001Z</time></trkpt><trkpt lat="42.450825433833245" lon="-8.092740694347269"><ele>473.5</ele><time>2026-04-18T17:11:38.001Z</time></trkpt><trkpt lat="42.450976230538636" lon="-8.09275380776561"><ele>476.25</ele><time>2026-04-18T17:11:39.001Z</time></trkpt><trkpt lat="42.45110971546855" lon="-8.092748214308248"><ele>479.0</ele><time>2026-04-18T17:11:40.001Z</time></trkpt><trkpt lat="42.45124978358881" lon="-8.09272219117139"><ele>481.25</ele><time>2026-04-18T17:11:41.001Z</time></trkpt><trkpt lat="42.451374996729804" lon="-8.092678086053857"><ele>483.5</ele><time>2026-04-18T17:11:42.001Z</time></trkpt><trkpt lat="42.451497519326786" lon="-8.092618673751998"><ele>485.75</ele><time>2026-04-18T17:11:43.001Z</time></trkpt><trkpt lat="42.45162390622597" lon="-8.092551088373199"><ele>488.0</ele><time>2026-04-18T17:11:44.001Z</time></trkpt><trkpt lat="42.451754978515496" lon="-8.092482721636697"><ele>489.5</ele><time>2026-04-18T17:11:45.001Z</time></trkpt><trkpt lat="42.45188985666971" lon="-8.092409004353557"><ele>491.0</ele><time>2026-04-18T17:11:46.001Z</time></trkpt><trkpt lat="42.45201218994387" lon="-8.092333239992547"><ele>492.5</ele><time>2026-04-18T17:11:47.001Z</time></trkpt><trkpt lat="42.452129160182885" lon="-8.092226152015076"><ele>494.0</ele><time>2026-04-18T17:11:48.001Z</time></trkpt><trkpt lat="42.45225623879177" lon="-8.092152119640495"><ele>495.25</ele><time>2026-04-18T17:11:49.001Z</time></trkpt><trkpt lat="42.45236633920859" lon="-8.092070722206804"><ele>496.5</ele><time>2026-04-18T17:11:50.001Z</time></trkpt><trkpt lat="42.4524855100288" lon="-8.092008401200065"><ele>497.75</ele><time>2026-04-18T17:11:51.001Z</time></trkpt><trkpt lat="42.45261220221928" lon="-8.09193287133614"><ele>499.0</ele><time>2026-04-18T17:11:52.001Z</time></trkpt><trkpt lat="42.45272651261331" lon="-8.09187805541939"><ele>499.0</ele><time>2026-04-18T17:11:53.001Z</time></trkpt><trkpt lat="42.452832137047864" lon="-8.091812161455229"><ele>499.0</ele><time>2026-04-18T17:11:54.001Z</time></trkpt><trkpt lat="42.45295743256574" lon="-8.091720334538683"><ele>499.0</ele><time>2026-04-18T17:11:55.001Z</time></trkpt><trkpt lat="42.45306620337539" lon="-8.091669409357355"><ele>499.0</ele><time>2026-04-18T17:11:56.001Z</time></trkpt><trkpt lat="42.453203979537506" lon="-8.091639301907644"><ele>499.5</ele><time>2026-04-18T17:11:57.001Z</time></trkpt><trkpt lat="42.453342949158326" lon="-8.091615856704497"><ele>500.0</ele><time>2026-04-18T17:11:58.001Z</time></trkpt><trkpt lat="42.453476716452585" lon="-8.091598560649556"><ele>500.5</ele><time>2026-04-18T17:11:59.001Z</time></trkpt><trkpt lat="42.45361939083144" lon="-8.091600303165778"><ele>501.0</ele><time>2026-04-18T17:12:00.001Z</time></trkpt><trkpt lat="42.45375682088132" lon="-8.091613175663184"><ele>503.0</ele><time>2026-04-18T17:12:01.001Z</time></trkpt><trkpt lat="42.453888061134386" lon="-8.091635107968843"><ele>505.0</ele><time>2026-04-18T17:12:02.001Z</time></trkpt><trkpt lat="42.45400740656602" lon="-8.091653650571926"><ele>507.0</ele><time>2026-04-18T17:12:03.001Z</time></trkpt><trkpt lat="42.4541182539486" lon="-8.091664736747738"><ele>509.0</ele><time>2026-04-18T17:12:04.001Z</time></trkpt><trkpt lat="42.454208528887676" lon="-8.09167985740675"><ele>508.99999999999994</ele><time>2026-04-18T17:12:05.001Z</time></trkpt><trkpt lat="42.4542775010174" lon="-8.091664787025417"><ele>509.0</ele><time>2026-04-18T17:12:06.001Z</time></trkpt><trkpt lat="42.4543527534213" lon="-8.091690446471004"><ele>509.0</ele><time>2026-04-18T17:12:07.001Z</time></trkpt><trkpt lat="42.45441548225261" lon="-8.091703316621214"><ele>509.0</ele><time>2026-04-18T17:12:08.001Z</time></trkpt><trkpt lat="42.45449431511555" lon="-8.091740526632524"><ele>508.99999999999994</ele><time>2026-04-18T17:12:10.001Z</time></trkpt><trkpt lat="42.454619859945986" lon="-8.091795151632317"><ele>509.0</ele><time>2026-04-18T17:12:13.001Z</time></trkpt><trkpt lat="42.454495752570296" lon="-8.091936487263196"><ele>509.0</ele><time>2026-04-18T17:12:14.001Z</time></trkpt><trkpt lat="42.454522761341174" lon="-8.092115600295486"><ele>509.0</ele><time>2026-04-18T17:12:16.001Z</time></trkpt><trkpt lat="42.45457667477995" lon="-8.092221888117127"><ele>509.0</ele><time>2026-04-18T17:12:17.001Z</time></trkpt><trkpt lat="42.45466372149757" lon="-8.092326476974847"><ele>509.0</ele><time>2026-04-18T17:12:18.001Z</time></trkpt><trkpt lat="42.45477597474289" lon="-8.092420767261473"><ele>511.25</ele><time>2026-04-18T17:12:19.001Z</time></trkpt><trkpt lat="42.45485405329406" lon="-8.09252591987873"><ele>513.5</ele><time>2026-04-18T17:12:20.001Z</time></trkpt><trkpt lat="42.45494130907609" lon="-8.092653873564965"><ele>515.75</ele><time>2026-04-18T17:12:21.001Z</time></trkpt><trkpt lat="42.45502488175527" lon="-8.09279456289062"><ele>518.0</ele><time>2026-04-18T17:12:22.001Z</time></trkpt><trkpt lat="42.45511985154646" lon="-8.092932681031304"><ele>518.0</ele><time>2026-04-18T17:12:23.001Z</time></trkpt><trkpt lat="42.45521520094467" lon="-8.093073896060128"><ele>518.0</ele><time>2026-04-18T17:12:24.001Z</time></trkpt><trkpt lat="42.45530750934521" lon="-8.093216262911593"><ele>518.0</ele><time>2026-04-18T17:12:25.001Z</time></trkpt><trkpt lat="42.45540030554146" lon="-8.093362751201362"><ele>518.0</ele><time>2026-04-18T17:12:26.001Z</time></trkpt><trkpt lat="42.45549955009032" lon="-8.09351232338983"><ele>522.0</ele><time>2026-04-18T17:12:27.001Z</time></trkpt><trkpt lat="42.45561314860884" lon="-8.093676883338695"><ele>526.0</ele><time>2026-04-18T17:12:28.001Z</time></trkpt><trkpt lat="42.45571678191818" lon="-8.093830990458857"><ele>530.0</ele><time>2026-04-18T17:12:29.001Z</time></trkpt><trkpt lat="42.45582145551472" lon="-8.093965355781643"><ele>527.0</ele><time>2026-04-18T17:12:30.001Z</time></trkpt><trkpt lat="42.45595141365804" lon="-8.094103171389307"><ele>524.0</ele><time>2026-04-18T17:12:31.001Z</time></trkpt><trkpt lat="42.456082251602815" lon="-8.094227719202857"><ele>521.0</ele><time>2026-04-18T17:12:32.001Z</time></trkpt><trkpt lat="42.45623230913573" lon="-8.094322695184484"><ele>524.0</ele><time>2026-04-18T17:12:33.001Z</time></trkpt><trkpt lat="42.45640313674327" lon="-8.094424539605008"><ele>527.0</ele><time>2026-04-18T17:12:34.001Z</time></trkpt><trkpt lat="42.456554122607066" lon="-8.094455337175038"><ele>530.0</ele><time>2026-04-18T17:12:35.001Z</time></trkpt><trkpt lat="42.45672375426056" lon="-8.094497693406465"><ele>530.0</ele><time>2026-04-18T17:12:36.001Z</time></trkpt><trkpt lat="42.45689047978767" lon="-8.094516968789037"><ele>530.0</ele><time>2026-04-18T17:12:37.001Z</time></trkpt><trkpt lat="42.45705836953071" lon="-8.094511619468411"><ele>530.0</ele><time>2026-04-18T17:12:38.001Z</time></trkpt><trkpt lat="42.457231987160704" lon="-8.094485364712996"><ele>529.6666666666666</ele><time>2026-04-18T17:12:39.001Z</time></trkpt><trkpt lat="42.45740067261925" lon="-8.094441178577522"><ele>529.3333333333334</ele><time>2026-04-18T17:12:40.001Z</time></trkpt><trkpt lat="42.45756870265061" lon="-8.094363393001329"><ele>529.0</ele><time>2026-04-18T17:12:41.001Z</time></trkpt><trkpt lat="42.45773683270393" lon="-8.09426717709532"><ele>529.0</ele><time>2026-04-18T17:12:42.001Z</time></trkpt><trkpt lat="42.457896570114194" lon="-8.094155373099056"><ele>529.0</ele><time>2026-04-18T17:12:43.001Z</time></trkpt><trkpt lat="42.45805687186124" lon="-8.094044662163816"><ele>529.0</ele><time>2026-04-18T17:12:44.001Z</time></trkpt><trkpt lat="42.45822210364035" lon="-8.093907970784617"><ele>531.6666666666667</ele><time>2026-04-18T17:12:45.001Z</time></trkpt><trkpt lat="42.45837834138084" lon="-8.09378720406061"><ele>534.3333333333334</ele><time>2026-04-18T17:12:46.001Z</time></trkpt><trkpt lat="42.45855362598847" lon="-8.09367536530624"><ele>537.0</ele><time>2026-04-18T17:12:47.001Z</time></trkpt><trkpt lat="42.45871613164059" lon="-8.093545242140294"><ele>538.0</ele><time>2026-04-18T17:12:48.001Z</time></trkpt><trkpt lat="42.45888319443977" lon="-8.093421056927232"><ele>539.0</ele><time>2026-04-18T17:12:49.001Z</time></trkpt><trkpt lat="42.45905203258539" lon="-8.093313977359108"><ele>540.0</ele><time>2026-04-18T17:12:50Z</time></trkpt><trkpt lat="42.4592168226312" lon="-8.093219199368342"><ele>543.6666666666666</ele><time>2026-04-18T17:12:51Z</time></trkpt><trkpt lat="42.459395399578916" lon="-8.093128163748862"><ele>547.3333333333333</ele><time>2026-04-18T17:12:52Z</time></trkpt><trkpt lat="42.45957830476819" lon="-8.093054408327935"><ele>551.0</ele><time>2026-04-18T17:12:53Z</time></trkpt><trkpt lat="42.45974617272797" lon="-8.092983030891272"><ele>551.0</ele><time>2026-04-18T17:12:54Z</time></trkpt><trkpt lat="42.45991984869748" lon="-8.092940019851847"><ele>551.0</ele><time>2026-04-18T17:12:55Z</time></trkpt><trkpt lat="42.460098369100216" lon="-8.092924265798025"><ele>551.0</ele><time>2026-04-18T17:12:56Z</time></trkpt><trkpt lat="42.46027305132153" lon="-8.092931613565865"><ele>551.0</ele><time>2026-04-18T17:12:57Z</time></trkpt><trkpt lat="42.460444321956736" lon="-8.092949067300934"><ele>551.0</ele><time>2026-04-18T17:12:58Z</time></trkpt><trkpt lat="42.460618068687296" lon="-8.092985445788782"><ele>551.0</ele><time>2026-04-18T17:12:59Z</time></trkpt><trkpt lat="42.46078194614031" lon="-8.093044943207287"><ele>550.0</ele><time>2026-04-18T17:13:00Z</time></trkpt><trkpt lat="42.460941373819445" lon="-8.093120654753474"><ele>549.0</ele><time>2026-04-18T17:13:01Z</time></trkpt><trkpt lat="42.4610933137526" lon="-8.093208824524723"><ele>548.0</ele><time>2026-04-18T17:13:02Z</time></trkpt><trkpt lat="42.46122716147293" lon="-8.093303268200176"><ele>550.25</ele><time>2026-04-18T17:13:03Z</time></trkpt><trkpt lat="42.461343485567355" lon="-8.09340630810089"><ele>552.5</ele><time>2026-04-18T17:13:04Z</time></trkpt><trkpt lat="42.46143355605097" lon="-8.093522240425056"><ele>554.75</ele><time>2026-04-18T17:13:05Z</time></trkpt><trkpt lat="42.46151874038318" lon="-8.093605607708914"><ele>557.0</ele><time>2026-04-18T17:13:06Z</time></trkpt><trkpt lat="42.461608587179185" lon="-8.09369419288094"><ele>557.0</ele><time>2026-04-18T17:13:07Z</time></trkpt><trkpt lat="42.461699834967845" lon="-8.093807056016557"><ele>557.0</ele><time>2026-04-18T17:13:08Z</time></trkpt><trkpt lat="42.46178879468601" lon="-8.09393430253027"><ele>557.0</ele><time>2026-04-18T17:13:09Z</time></trkpt><trkpt lat="42.461874719343854" lon="-8.094077291273134"><ele>557.0</ele><time>2026-04-18T17:13:10Z</time></trkpt><trkpt lat="42.461954365561766" lon="-8.09422454899627"><ele>557.0</ele><time>2026-04-18T17:13:11Z</time></trkpt><trkpt lat="42.46202550635678" lon="-8.0943683476911"><ele>557.0</ele><time>2026-04-18T17:13:12Z</time></trkpt><trkpt lat="42.462105867896305" lon="-8.094545270296686"><ele>557.0</ele><time>2026-04-18T17:13:13Z</time></trkpt><trkpt lat="42.462177845947934" lon="-8.094734961995929"><ele>557.0</ele><time>2026-04-18T17:13:14Z</time></trkpt><trkpt lat="42.462257353836996" lon="-8.094926349775463"><ele>560.0</ele><time>2026-04-18T17:13:15Z</time></trkpt><trkpt lat="42.46234714999569" lon="-8.095123646722069"><ele>563.0</ele><time>2026-04-18T17:13:16Z</time></trkpt><trkpt lat="42.46240885086113" lon="-8.095299520882945"><ele>566.0</ele><time>2026-04-18T17:13:17Z</time></trkpt><trkpt lat="42.462462306125886" lon="-8.095459773259632"><ele>569.0</ele><time>2026-04-18T17:13:18Z</time></trkpt><trkpt lat="42.462543667328326" lon="-8.095696037934266"><ele>569.0</ele><time>2026-04-18T17:13:19Z</time></trkpt><trkpt lat="42.462617908416306" lon="-8.095913968218563"><ele>569.0</ele><time>2026-04-18T17:13:20Z</time></trkpt><trkpt lat="42.46269491495484" lon="-8.096123409696196"><ele>569.0</ele><time>2026-04-18T17:13:21Z</time></trkpt><trkpt lat="42.4627734538169" lon="-8.096353671816983"><ele>569.0</ele><time>2026-04-18T17:13:22Z</time></trkpt><trkpt lat="42.46284396246823" lon="-8.096576917042487"><ele>569.0</ele><time>2026-04-18T17:13:23Z</time></trkpt><trkpt lat="42.46292725360687" lon="-8.096801312871705"><ele>569.0</ele><time>2026-04-18T17:13:24Z</time></trkpt><trkpt lat="42.46301671660223" lon="-8.097023977219251"><ele>567.6666666666666</ele><time>2026-04-18T17:13:25Z</time></trkpt><trkpt lat="42.46311569379458" lon="-8.097235564996318"><ele>566.3333333333334</ele><time>2026-04-18T17:13:26Z</time></trkpt><trkpt lat="42.46323377695213" lon="-8.09742471898821"><ele>565.0</ele><time>2026-04-18T17:13:27Z</time></trkpt><trkpt lat="42.46337511664004" lon="-8.097589789488003"><ele>565.0</ele><time>2026-04-18T17:13:28Z</time></trkpt><trkpt lat="42.463537714780124" lon="-8.0977313725844"><ele>565.0</ele><time>2026-04-18T17:13:29Z</time></trkpt><trkpt lat="42.46371697277825" lon="-8.097851143351235"><ele>565.0</ele><time>2026-04-18T17:13:30Z</time></trkpt><trkpt lat="42.46390734685514" lon="-8.097945597479262"><ele>566.0</ele><time>2026-04-18T17:13:31Z</time></trkpt><trkpt lat="42.46411485366536" lon="-8.098008884508523"><ele>567.0</ele><time>2026-04-18T17:13:32Z</time></trkpt><trkpt lat="42.464327095394765" lon="-8.098029373441069"><ele>568.0</ele><time>2026-04-18T17:13:33Z</time></trkpt><trkpt lat="42.46454178921887" lon="-8.098015178076272"><ele>566.3333333333334</ele><time>2026-04-18T17:13:34Z</time></trkpt><trkpt lat="42.464762339205784" lon="-8.097978234115592"><ele>564.6666666666666</ele><time>2026-04-18T17:13:35Z</time></trkpt><trkpt lat="42.464982512834325" lon="-8.097935214979673"><ele>563.0</ele><time>2026-04-18T17:13:36Z</time></trkpt><trkpt lat="42.46519028748144" lon="-8.097907302788327"><ele>563.0</ele><time>2026-04-18T17:13:37Z</time></trkpt><trkpt lat="42.46539647429819" lon="-8.097896260729732"><ele>563.0</ele><time>2026-04-18T17:13:38Z</time></trkpt><trkpt lat="42.46560076804013" lon="-8.097908144067615"><ele>563.0</ele><time>2026-04-18T17:13:39Z</time></trkpt><trkpt lat="42.46580618702577" lon="-8.097956883099288"><ele>560.0</ele><time>2026-04-18T17:13:40Z</time></trkpt><trkpt lat="42.46601077272734" lon="-8.098042834113548"><ele>557.0</ele><time>2026-04-18T17:13:41.001Z</time></trkpt><trkpt lat="42.46620880884315" lon="-8.098160431361968"><ele>554.0</ele><time>2026-04-18T17:13:42.001Z</time></trkpt><trkpt lat="42.46639754733798" lon="-8.098311545019625"><ele>552.0</ele><time>2026-04-18T17:13:43.001Z</time></trkpt><trkpt lat="42.46656929703033" lon="-8.09848116665687"><ele>550.0</ele><time>2026-04-18T17:13:44.001Z</time></trkpt><trkpt lat="42.46674115025802" lon="-8.098661826957214"><ele>548.0</ele><time>2026-04-18T17:13:45.001Z</time></trkpt><trkpt lat="42.4669188284399" lon="-8.098836251635527"><ele>548.0</ele><time>2026-04-18T17:13:46.001Z</time></trkpt><trkpt lat="42.467095511526786" lon="-8.099008334188392"><ele>548.0</ele><time>2026-04-18T17:13:47.001Z</time></trkpt><trkpt lat="42.46727642308395" lon="-8.099168084451405"><ele>548.0</ele><time>2026-04-18T17:13:48.001Z</time></trkpt><trkpt lat="42.46747850783884" lon="-8.099308504168025"><ele>543.0</ele><time>2026-04-18T17:13:49.001Z</time></trkpt><trkpt lat="42.467689118331684" lon="-8.099415165494426"><ele>538.0</ele><time>2026-04-18T17:13:50.001Z</time></trkpt><trkpt lat="42.467916316914284" lon="-8.0995023099138"><ele>537.0</ele><time>2026-04-18T17:13:51.001Z</time></trkpt><trkpt lat="42.46814504871469" lon="-8.099556954327278"><ele>536.0</ele><time>2026-04-18T17:13:52.001Z</time></trkpt><trkpt lat="42.46838914402612" lon="-8.099576357613977"><ele>536.0</ele><time>2026-04-18T17:13:53.001Z</time></trkpt><trkpt lat="42.46863525749591" lon="-8.09958332014028"><ele>536.0</ele><time>2026-04-18T17:13:54.001Z</time></trkpt><trkpt lat="42.468883577018346" lon="-8.09958522204276"><ele>535.5</ele><time>2026-04-18T17:13:55.001Z</time></trkpt><trkpt lat="42.46913720878139" lon="-8.099594712327837"><ele>535.0</ele><time>2026-04-18T17:13:56.001Z</time></trkpt><trkpt lat="42.46938815747308" lon="-8.099637686697736"><ele>531.0</ele><time>2026-04-18T17:13:57.001Z</time></trkpt><trkpt lat="42.46963731227872" lon="-8.09971909066092"><ele>527.0</ele><time>2026-04-18T17:13:58.001Z</time></trkpt><trkpt lat="42.46987960193961" lon="-8.099833270021357"><ele>521.0</ele><time>2026-04-18T17:13:59.001Z</time></trkpt><trkpt lat="42.47011079768722" lon="-8.09996481234803"><ele>515.0</ele><time>2026-04-18T17:14:00.001Z</time></trkpt><trkpt lat="42.47034230177822" lon="-8.10011476807654"><ele>516.5</ele><time>2026-04-18T17:14:01.001Z</time></trkpt><trkpt lat="42.47056825293682" lon="-8.100258943221858"><ele>518.0</ele><time>2026-04-18T17:14:02.001Z</time></trkpt><trkpt lat="42.47080887787698" lon="-8.100386200602038"><ele>518.0</ele><time>2026-04-18T17:14:03.001Z</time></trkpt><trkpt lat="42.47102474136476" lon="-8.1005654056947"><ele>518.0</ele><time>2026-04-18T17:14:04.001Z</time></trkpt><trkpt lat="42.471247512548246" lon="-8.1007113400099"><ele>521.0</ele><time>2026-04-18T17:14:05.001Z</time></trkpt><trkpt lat="42.47146505100328" lon="-8.100850632569607"><ele>524.0</ele><time>2026-04-18T17:14:06.001Z</time></trkpt><trkpt lat="42.47169154796824" lon="-8.100993519667403"><ele>524.0</ele><time>2026-04-18T17:14:07.001Z</time></trkpt><trkpt lat="42.47190462853927" lon="-8.101129174230957"><ele>524.0</ele><time>2026-04-18T17:14:08.001Z</time></trkpt><trkpt lat="42.47211155635355" lon="-8.10126291450253"><ele>523.6666666666666</ele><time>2026-04-18T17:14:09.001Z</time></trkpt><trkpt lat="42.472299818497255" lon="-8.101382750573487"><ele>523.3333333333334</ele><time>2026-04-18T17:14:10.001Z</time></trkpt><trkpt lat="42.47247403027974" lon="-8.101489811399015"><ele>523.0</ele><time>2026-04-18T17:14:11.001Z</time></trkpt><trkpt lat="42.472647544160786" lon="-8.101589425203583"><ele>523.6666666666667</ele><time>2026-04-18T17:14:12.001Z</time></trkpt><trkpt lat="42.47280608161262" lon="-8.101680864837201"><ele>524.3333333333334</ele><time>2026-04-18T17:14:13.001Z</time></trkpt><trkpt lat="42.47295534532669" lon="-8.101773367780677"><ele>525.0</ele><time>2026-04-18T17:14:14.001Z</time></trkpt><trkpt lat="42.473095574927505" lon="-8.101863220237712"><ele>525.25</ele><time>2026-04-18T17:14:15.001Z</time></trkpt><trkpt lat="42.4732240298273" lon="-8.101925364933908"><ele>525.5</ele><time>2026-04-18T17:14:16.001Z</time></trkpt><trkpt lat="42.4733508060106" lon="-8.10201953300217"><ele>525.75</ele><time>2026-04-18T17:14:17.001Z</time></trkpt><trkpt lat="42.473469386064416" lon="-8.10209427683526"><ele>526.0</ele><time>2026-04-18T17:14:18.001Z</time></trkpt><trkpt lat="42.47358052328625" lon="-8.102165491247899"><ele>526.0</ele><time>2026-04-18T17:14:19Z</time></trkpt><trkpt lat="42.47368914988349" lon="-8.102235064277258"><ele>526.0</ele><time>2026-04-18T17:14:20Z</time></trkpt><trkpt lat="42.47377538229098" lon="-8.102295276737841"><ele>526.0</ele><time>2026-04-18T17:14:21Z</time></trkpt><trkpt lat="42.473865285759395" lon="-8.102345802875165"><ele>526.0</ele><time>2026-04-18T17:14:22Z</time></trkpt><trkpt lat="42.47394819674119" lon="-8.102395933995838"><ele>526.0</ele><time>2026-04-18T17:14:23Z</time></trkpt><trkpt lat="42.47400685543815" lon="-8.102431646983872"><ele>526.0</ele><time>2026-04-18T17:14:24Z</time></trkpt><trkpt lat="42.473989367114626" lon="-8.102527486002002"><ele>526.0</ele><time>2026-04-18T17:14:27Z</time></trkpt><trkpt lat="42.473933745182144" lon="-8.10248466688115"><ele>526.0</ele><time>2026-04-18T17:14:29Z</time></trkpt><trkpt lat="42.47387210521512" lon="-8.10243860214804"><ele>526.0</ele><time>2026-04-18T17:14:30Z</time></trkpt><trkpt lat="42.47379785216236" lon="-8.102366709287368"><ele>526.0</ele><time>2026-04-18T17:14:31Z</time></trkpt><trkpt lat="42.47371584779078" lon="-8.102316817368619"><ele>526.0</ele><time>2026-04-18T17:14:32Z</time></trkpt><trkpt lat="42.473649884172055" lon="-8.102250081790983"><ele>526.0</ele><time>2026-04-18T17:14:33Z</time></trkpt><trkpt lat="42.4735905416763" lon="-8.102187985777567"><ele>526.0</ele><time>2026-04-18T17:14:34Z</time></trkpt><trkpt lat="42.473486453805506" lon="-8.102149169502322"><ele>526.0</ele><time>2026-04-18T17:14:35Z</time></trkpt><trkpt lat="42.47340548295111" lon="-8.102108023498808"><ele>526.0</ele><time>2026-04-18T17:14:36Z</time></trkpt><trkpt lat="42.47332755426369" lon="-8.102063370947297"><ele>526.0</ele><time>2026-04-18T17:14:37Z</time></trkpt><trkpt lat="42.47325081573442" lon="-8.102011473341177"><ele>526.0</ele><time>2026-04-18T17:14:38Z</time></trkpt><trkpt lat="42.47317667421397" lon="-8.101963810813174"><ele>526.0</ele><time>2026-04-18T17:14:39Z</time></trkpt><trkpt lat="42.473111893040596" lon="-8.10190808134019"><ele>526.0</ele><time>2026-04-18T17:14:40Z</time></trkpt><trkpt lat="42.47302887472604" lon="-8.10186227372444"><ele>526.0</ele><time>2026-04-18T17:14:41Z</time></trkpt><trkpt lat="42.47294055047889" lon="-8.101809307637415"><ele>526.0</ele><time>2026-04-18T17:14:42Z</time></trkpt><trkpt lat="42.47286201891626" lon="-8.101775090866667"><ele>526.0</ele><time>2026-04-18T17:14:43Z</time></trkpt><trkpt lat="42.47279160221739" lon="-8.101731716859636"><ele>526.0</ele><time>2026-04-18T17:14:44Z</time></trkpt><trkpt lat="42.472724094210804" lon="-8.101678995314906"><ele>525.8333333333334</ele><time>2026-04-18T17:14:45Z</time></trkpt><trkpt lat="42.472649934889944" lon="-8.101638775718097"><ele>525.6666666666667</ele><time>2026-04-18T17:14:46Z</time></trkpt><trkpt lat="42.472585332530414" lon="-8.101590095198734"><ele>525.5</ele><time>2026-04-18T17:14:47Z</time></trkpt><trkpt lat="42.47252233223609" lon="-8.10154939029602"><ele>525.3333333333334</ele><time>2026-04-18T17:14:48Z</time></trkpt><trkpt lat="42.472461517464026" lon="-8.101506901187284"><ele>525.1666666666666</ele><time>2026-04-18T17:14:49Z</time></trkpt><trkpt lat="42.47240124486982" lon="-8.101468994819502"><ele>525.0</ele><time>2026-04-18T17:14:50Z</time></trkpt><trkpt lat="42.472299137949" lon="-8.101412586635627"><ele>524.8333333333334</ele><time>2026-04-18T17:14:52Z</time></trkpt><trkpt lat="42.472208151869324" lon="-8.101366229773213"><ele>524.6666666666666</ele><time>2026-04-18T17:14:54Z</time></trkpt><trkpt lat="42.47213678707504" lon="-8.101329511602128"><ele>524.5</ele><time>2026-04-18T17:14:56Z</time></trkpt><trkpt lat="42.47207726454879" lon="-8.101292237676288"><ele>524.3333333333333</ele><time>2026-04-18T17:14:58Z</time></trkpt><trkpt lat="42.47201135148624" lon="-8.10124732009939"><ele>524.1666666666666</ele><time>2026-04-18T17:15:00Z</time></trkpt><trkpt lat="42.47192878329163" lon="-8.101183015226077"><ele>524.0</ele><time>2026-04-18T17:15:02Z</time></trkpt><trkpt lat="42.47186826431849" lon="-8.101138290442062"><ele>524.0</ele><time>2026-04-18T17:15:05Z</time></trkpt><trkpt lat="42.471808110876324" lon="-8.101101677924893"><ele>524.0</ele><time>2026-04-18T17:15:09Z</time></trkpt></trkseg><trkseg><trkpt lat="42.47172649253284" lon="-8.101021622240207"><ele>524.0</ele><time>2026-04-18T17:44:12Z</time></trkpt><trkpt lat="42.47165388712748" lon="-8.100968754104777"><ele>524.0</ele><time>2026-04-18T17:44:13Z</time></trkpt><trkpt lat="42.47155834919406" lon="-8.100910312847143"><ele>524.0</ele><time>2026-04-18T17:44:14Z</time></trkpt><trkpt lat="42.47144719417827" lon="-8.10081904061301"><ele>524.0</ele><time>2026-04-18T17:44:15Z</time></trkpt><trkpt lat="42.471305184290685" lon="-8.100785831197083"><ele>522.0</ele><time>2026-04-18T17:44:16Z</time></trkpt><trkpt lat="42.47116821625381" lon="-8.100696427703923"><ele>520.0</ele><time>2026-04-18T17:44:17Z</time></trkpt><trkpt lat="42.471023638128" lon="-8.100602056922853"><ele>518.0</ele><time>2026-04-18T17:44:18Z</time></trkpt><trkpt lat="42.47086193646009" lon="-8.100496509120429"><ele>518.0</ele><time>2026-04-18T17:44:19Z</time></trkpt><trkpt lat="42.47071507951757" lon="-8.100401655071067"><ele>518.0</ele><time>2026-04-18T17:44:20Z</time></trkpt><trkpt lat="42.470555292172364" lon="-8.100303123395134"><ele>518.0</ele><time>2026-04-18T17:44:21Z</time></trkpt><trkpt lat="42.47036753427547" lon="-8.100178389651095"><ele>517.0</ele><time>2026-04-18T17:44:22Z</time></trkpt><trkpt lat="42.47019891437945" lon="-8.100088367523652"><ele>516.0</ele><time>2026-04-18T17:44:23Z</time></trkpt><trkpt lat="42.47001493028128" lon="-8.099997499925866"><ele>515.0</ele><time>2026-04-18T17:44:24Z</time></trkpt><trkpt lat="42.46982950937849" lon="-8.099905508209051"><ele>519.0</ele><time>2026-04-18T17:44:25Z</time></trkpt><trkpt lat="42.46964255244628" lon="-8.099795217214083"><ele>523.0</ele><time>2026-04-18T17:44:26Z</time></trkpt><trkpt lat="42.46946469218674" lon="-8.09972010881749"><ele>527.0</ele><time>2026-04-18T17:44:27Z</time></trkpt><trkpt lat="42.46927017218356" lon="-8.099695480533258"><ele>529.6666666666666</ele><time>2026-04-18T17:44:28Z</time></trkpt><trkpt lat="42.46907856980226" lon="-8.099639917211745"><ele>532.3333333333334</ele><time>2026-04-18T17:44:29Z</time></trkpt><trkpt lat="42.46888850818352" lon="-8.099621436063222"><ele>535.0</ele><time>2026-04-18T17:44:30Z</time></trkpt><trkpt lat="42.46868767013475" lon="-8.099621193187032"><ele>535.3333333333334</ele><time>2026-04-18T17:44:31Z</time></trkpt><trkpt lat="42.46850744166668" lon="-8.09959197868887"><ele>535.6666666666666</ele><time>2026-04-18T17:44:32Z</time></trkpt><trkpt lat="42.468310846375246" lon="-8.099590843356921"><ele>536.0</ele><time>2026-04-18T17:44:33Z</time></trkpt><trkpt lat="42.46813800447927" lon="-8.09957971851387"><ele>536.0</ele><time>2026-04-18T17:44:34Z</time></trkpt><trkpt lat="42.46797073193286" lon="-8.099553840171499"><ele>536.0</ele><time>2026-04-18T17:44:35Z</time></trkpt><trkpt lat="42.46780399886296" lon="-8.099507201823718"><ele>536.0</ele><time>2026-04-18T17:44:36Z</time></trkpt><trkpt lat="42.46765407949445" lon="-8.099449754034033"><ele>536.6666666666666</ele><time>2026-04-18T17:44:37Z</time></trkpt><trkpt lat="42.46752053032131" lon="-8.099390315072158"><ele>537.3333333333334</ele><time>2026-04-18T17:44:38Z</time></trkpt><trkpt lat="42.467359804912036" lon="-8.099295048218355"><ele>538.0</ele><time>2026-04-18T17:44:39Z</time></trkpt><trkpt lat="42.467208029593124" lon="-8.099183942089336"><ele>541.3333333333334</ele><time>2026-04-18T17:44:40Z</time></trkpt><trkpt lat="42.4670653577534" lon="-8.099066472005141"><ele>544.6666666666666</ele><time>2026-04-18T17:44:41Z</time></trkpt><trkpt lat="42.46693382963157" lon="-8.09893498556557"><ele>548.0</ele><time>2026-04-18T17:44:42Z</time></trkpt><trkpt lat="42.4668131040803" lon="-8.098821277260713"><ele>548.0</ele><time>2026-04-18T17:44:43Z</time></trkpt><trkpt lat="42.466664457157826" lon="-8.098678659242584"><ele>548.0</ele><time>2026-04-18T17:44:44Z</time></trkpt><trkpt lat="42.46653563130873" lon="-8.098533046802066"><ele>548.0</ele><time>2026-04-18T17:44:45Z</time></trkpt><trkpt lat="42.46635732103024" lon="-8.09836910985051"><ele>546.3333333333333</ele><time>2026-04-18T17:44:46Z</time></trkpt><trkpt lat="42.466228833850806" lon="-8.098265984601579"><ele>544.6666666666666</ele><time>2026-04-18T17:44:47Z</time></trkpt><trkpt lat="42.466104152660186" lon="-8.098175072205704"><ele>543.0</ele><time>2026-04-18T17:44:48Z</time></trkpt><trkpt lat="42.46594217078744" lon="-8.09809631630285"><ele>546.6666666666666</ele><time>2026-04-18T17:44:49Z</time></trkpt><trkpt lat="42.46577310550377" lon="-8.09802333512344"><ele>550.3333333333333</ele><time>2026-04-18T17:44:50Z</time></trkpt><trkpt lat="42.4656195716994" lon="-8.09792390836216"><ele>554.0</ele><time>2026-04-18T17:44:51Z</time></trkpt><trkpt lat="42.46545434098995" lon="-8.097936301216114"><ele>557.0</ele><time>2026-04-18T17:44:52Z</time></trkpt><trkpt lat="42.46529259947529" lon="-8.097955814786388"><ele>560.0</ele><time>2026-04-18T17:44:53Z</time></trkpt><trkpt lat="42.46512006622207" lon="-8.097960004947389"><ele>563.0</ele><time>2026-04-18T17:44:54Z</time></trkpt><trkpt lat="42.46495680288575" lon="-8.098034745653118"><ele>563.0</ele><time>2026-04-18T17:44:55Z</time></trkpt><trkpt lat="42.46478866221272" lon="-8.09805811426222"><ele>563.0</ele><time>2026-04-18T17:44:56Z</time></trkpt><trkpt lat="42.464621809732954" lon="-8.098076630109627"><ele>563.0</ele><time>2026-04-18T17:44:57Z</time></trkpt><trkpt lat="42.46443709226079" lon="-8.09808656241248"><ele>564.6666666666666</ele><time>2026-04-18T17:44:58Z</time></trkpt><trkpt lat="42.46426822346484" lon="-8.098083799017948"><ele>566.3333333333334</ele><time>2026-04-18T17:44:59Z</time></trkpt><trkpt lat="42.46410764445548" lon="-8.098047207510977"><ele>568.0</ele><time>2026-04-18T17:45:00Z</time></trkpt><trkpt lat="42.46394234320536" lon="-8.098020591715095"><ele>567.0</ele><time>2026-04-18T17:45:01Z</time></trkpt><trkpt lat="42.46377719782448" lon="-8.097968685598389"><ele>566.0</ele><time>2026-04-18T17:45:01.999Z</time></trkpt><trkpt lat="42.46361892829767" lon="-8.097883675122613"><ele>565.0</ele><time>2026-04-18T17:45:02.999Z</time></trkpt><trkpt lat="42.4634629455585" lon="-8.097775803374798"><ele>565.0</ele><time>2026-04-18T17:45:03.999Z</time></trkpt><trkpt lat="42.46332433650231" lon="-8.097638608873716"><ele>565.0</ele><time>2026-04-18T17:45:04.999Z</time></trkpt><trkpt lat="42.4631839043664" lon="-8.097481890613311"><ele>565.0</ele><time>2026-04-18T17:45:05.999Z</time></trkpt><trkpt lat="42.46304650615697" lon="-8.0972853900695"><ele>565.6666666666667</ele><time>2026-04-18T17:45:06.999Z</time></trkpt><trkpt lat="42.46293767676701" lon="-8.097100342280633"><ele>566.3333333333334</ele><time>2026-04-18T17:45:07.999Z</time></trkpt><trkpt lat="42.46284998382728" lon="-8.096890738980562"><ele>567.0</ele><time>2026-04-18T17:45:08.999Z</time></trkpt><trkpt lat="42.46279320778781" lon="-8.096720616127849"><ele>567.6666666666666</ele><time>2026-04-18T17:45:09.999Z</time></trkpt><trkpt lat="42.46270405852299" lon="-8.096505371061673"><ele>568.3333333333333</ele><time>2026-04-18T17:45:10.999Z</time></trkpt><trkpt lat="42.4626588770589" lon="-8.096312559137992"><ele>569.0</ele><time>2026-04-18T17:45:11.999Z</time></trkpt><trkpt lat="42.46258208722342" lon="-8.096139143977185"><ele>569.0</ele><time>2026-04-18T17:45:12.999Z</time></trkpt><trkpt lat="42.462545378599806" lon="-8.095961453366037"><ele>569.0</ele><time>2026-04-18T17:45:13.999Z</time></trkpt><trkpt lat="42.462510956622474" lon="-8.095739533355943"><ele>569.0</ele><time>2026-04-18T17:45:14.999Z</time></trkpt><trkpt lat="42.462439518942304" lon="-8.095596565430958"><ele>569.0</ele><time>2026-04-18T17:45:16Z</time></trkpt><trkpt lat="42.46238132258568" lon="-8.09544688423239"><ele>569.0</ele><time>2026-04-18T17:45:17Z</time></trkpt><trkpt lat="42.46231520292788" lon="-8.095300366752795"><ele>569.0</ele><time>2026-04-18T17:45:18Z</time></trkpt><trkpt lat="42.46227881049177" lon="-8.095150117451615"><ele>569.0</ele><time>2026-04-18T17:45:19Z</time></trkpt><trkpt lat="42.462230871908965" lon="-8.095007386717654"><ele>569.0</ele><time>2026-04-18T17:45:20Z</time></trkpt><trkpt lat="42.46218219084886" lon="-8.094874566706189"><ele>569.0</ele><time>2026-04-18T17:45:21Z</time></trkpt><trkpt lat="42.46214244707529" lon="-8.09476182356085"><ele>569.0</ele><time>2026-04-18T17:45:22Z</time></trkpt><trkpt lat="42.462087403554115" lon="-8.094629599329606"><ele>569.0</ele><time>2026-04-18T17:45:23Z</time></trkpt><trkpt lat="42.462034146961585" lon="-8.094525424714604"><ele>569.0</ele><time>2026-04-18T17:45:24Z</time></trkpt><trkpt lat="42.46197503434211" lon="-8.094464956320401"><ele>569.0</ele><time>2026-04-18T17:45:25Z</time></trkpt><trkpt lat="42.461907616150064" lon="-8.094411695915651"><ele>567.0</ele><time>2026-04-18T17:45:26Z</time></trkpt><trkpt lat="42.46179604148122" lon="-8.094384134124597"><ele>565.0</ele><time>2026-04-18T17:45:28Z</time></trkpt><trkpt lat="42.46175729413785" lon="-8.094297898549586"><ele>563.0</ele><time>2026-04-18T17:45:29Z</time></trkpt><trkpt lat="42.4617392556452" lon="-8.094181579804676"><ele>561.0</ele><time>2026-04-18T17:45:30Z</time></trkpt><trkpt lat="42.4617059152237" lon="-8.094066620081596"><ele>559.0</ele><time>2026-04-18T17:45:32Z</time></trkpt><trkpt lat="42.46169692154693" lon="-8.093958709363573"><ele>557.0</ele><time>2026-04-18T17:45:35Z</time></trkpt><trkpt lat="42.461660661144315" lon="-8.093885506986675"><ele>557.0</ele><time>2026-04-18T17:45:37Z</time></trkpt><trkpt lat="42.46162284698576" lon="-8.093740720089123"><ele>557.0</ele><time>2026-04-18T17:45:57Z</time></trkpt><trkpt lat="42.461531789527555" lon="-8.093696623882039"><ele>557.0</ele><time>2026-04-18T17:45:58Z</time></trkpt><trkpt lat="42.46148142671604" lon="-8.093612056653921"><ele>557.0</ele><time>2026-04-18T17:45:59Z</time></trkpt><trkpt lat="42.46142689376369" lon="-8.093558291835015"><ele>557.0</ele><time>2026-04-18T17:46:00Z</time></trkpt><trkpt lat="42.46136440527223" lon="-8.093502733538626"><ele>557.0</ele><time>2026-04-18T17:46:01Z</time></trkpt><trkpt lat="42.46130482780948" lon="-8.09344172256835"><ele>556.6666666666666</ele><time>2026-04-18T17:46:02Z</time></trkpt><trkpt lat="42.461241225461315" lon="-8.093385959773377"><ele>556.3333333333333</ele><time>2026-04-18T17:46:03Z</time></trkpt><trkpt lat="42.461161226728905" lon="-8.093324547268155"><ele>556.0</ele><time>2026-04-18T17:46:04Z</time></trkpt><trkpt lat="42.46109489611083" lon="-8.093292360308267"><ele>555.6666666666666</ele><time>2026-04-18T17:46:05Z</time></trkpt><trkpt lat="42.461000383232324" lon="-8.093226908859862"><ele>555.3333333333334</ele><time>2026-04-18T17:46:06Z</time></trkpt><trkpt lat="42.46092861127877" lon="-8.09318432408574"><ele>555.0</ele><time>2026-04-18T17:46:07Z</time></trkpt><trkpt lat="42.460845556723896" lon="-8.093142195097931"><ele>555.0</ele><time>2026-04-18T17:46:08Z</time></trkpt><trkpt lat="42.46076088106841" lon="-8.093106201913786"><ele>555.0</ele><time>2026-04-18T17:46:09Z</time></trkpt><trkpt lat="42.46068117717287" lon="-8.093074256010388"><ele>555.0</ele><time>2026-04-18T17:46:10Z</time></trkpt><trkpt lat="42.460594145808685" lon="-8.093079891268424"><ele>555.0</ele><time>2026-04-18T17:46:11Z</time></trkpt><trkpt lat="42.46051612293477" lon="-8.09305086827405"><ele>555.0</ele><time>2026-04-18T17:46:12Z</time></trkpt><trkpt lat="42.4604382018076" lon="-8.093075765419039"><ele>555.0</ele><time>2026-04-18T17:46:13Z</time></trkpt><trkpt lat="42.46036258260454" lon="-8.093063904569762"><ele>554.3333333333334</ele><time>2026-04-18T17:46:14Z</time></trkpt><trkpt lat="42.460289885995046" lon="-8.093056722497627"><ele>553.6666666666666</ele><time>2026-04-18T17:46:15Z</time></trkpt><trkpt lat="42.4602199469051" lon="-8.093049507136284"><ele>553.0</ele><time>2026-04-18T17:46:16Z</time></trkpt><trkpt lat="42.46015449510297" lon="-8.0930495071843"><ele>552.3333333333333</ele><time>2026-04-18T17:46:17Z</time></trkpt><trkpt lat="42.4600429491923" lon="-8.09304950718463"><ele>551.6666666666666</ele><time>2026-04-18T17:46:18Z</time></trkpt><trkpt lat="42.45997354801242" lon="-8.093056018316208"><ele>551.0</ele><time>2026-04-18T17:46:20Z</time></trkpt><trkpt lat="42.45990468961984" lon="-8.093066939546626"><ele>551.0</ele><time>2026-04-18T17:46:22Z</time></trkpt><trkpt lat="42.45982858613048" lon="-8.093084779265425"><ele>551.0</ele><time>2026-04-18T17:46:24Z</time></trkpt><trkpt lat="42.459776343634445" lon="-8.09301497429937"><ele>551.0</ele><time>2026-04-18T17:46:28Z</time></trkpt><trkpt lat="42.45970784418083" lon="-8.093045109677437"><ele>551.0</ele><time>2026-04-18T17:46:29Z</time></trkpt><trkpt lat="42.459622971896415" lon="-8.093069154038682"><ele>551.0</ele><time>2026-04-18T17:46:30Z</time></trkpt><trkpt lat="42.45952868195374" lon="-8.093104403939726"><ele>551.0</ele><time>2026-04-18T17:46:31Z</time></trkpt><trkpt lat="42.459425679522106" lon="-8.093150592368826"><ele>551.75</ele><time>2026-04-18T17:46:32Z</time></trkpt><trkpt lat="42.459313875542435" lon="-8.093202532268"><ele>552.5</ele><time>2026-04-18T17:46:33Z</time></trkpt><trkpt lat="42.459197308073506" lon="-8.093261539681418"><ele>553.25</ele><time>2026-04-18T17:46:34Z</time></trkpt><trkpt lat="42.45907643340333" lon="-8.093339172854996"><ele>554.0</ele><time>2026-04-18T17:46:35Z</time></trkpt><trkpt lat="42.458954669256784" lon="-8.093419106944737"><ele>550.5</ele><time>2026-04-18T17:46:35.999Z</time></trkpt><trkpt lat="42.45882881768939" lon="-8.093499565126523"><ele>547.0</ele><time>2026-04-18T17:46:36.999Z</time></trkpt><trkpt lat="42.4587000650879" lon="-8.093585389240788"><ele>543.5</ele><time>2026-04-18T17:46:37.999Z</time></trkpt><trkpt lat="42.45857520692279" lon="-8.093685634958575"><ele>540.0</ele><time>2026-04-18T17:46:38.999Z</time></trkpt><trkpt lat="42.45845053062465" lon="-8.093783684805764"><ele>539.25</ele><time>2026-04-18T17:46:39.999Z</time></trkpt><trkpt lat="42.458326206713764" lon="-8.093887524929656"><ele>538.5</ele><time>2026-04-18T17:46:40.999Z</time></trkpt><trkpt lat="42.45820391639658" lon="-8.093993035956686"><ele>537.75</ele><time>2026-04-18T17:46:41.999Z</time></trkpt><trkpt lat="42.458076166686595" lon="-8.094095198835545"><ele>537.0</ele><time>2026-04-18T17:46:42.999Z</time></trkpt><trkpt lat="42.45795171325129" lon="-8.0941803734797"><ele>534.3333333333334</ele><time>2026-04-18T17:46:43.999Z</time></trkpt><trkpt lat="42.4578192033762" lon="-8.094288872983585"><ele>531.6666666666667</ele><time>2026-04-18T17:46:44.999Z</time></trkpt><trkpt lat="42.45768512054943" lon="-8.094376851476621"><ele>529.0</ele><time>2026-04-18T17:46:45.999Z</time></trkpt><trkpt lat="42.45754957696944" lon="-8.094453729539245"><ele>529.0</ele><time>2026-04-18T17:46:46.999Z</time></trkpt><trkpt lat="42.457400198091335" lon="-8.094510834242644"><ele>529.0</ele><time>2026-04-18T17:46:47.999Z</time></trkpt><trkpt lat="42.457250497109044" lon="-8.094548553572203"><ele>529.0</ele><time>2026-04-18T17:46:48.999Z</time></trkpt><trkpt lat="42.45709945716525" lon="-8.094590309820685"><ele>529.3333333333334</ele><time>2026-04-18T17:46:49.999Z</time></trkpt><trkpt lat="42.45694704763493" lon="-8.094601583308505"><ele>529.6666666666666</ele><time>2026-04-18T17:46:50.999Z</time></trkpt><trkpt lat="42.45679083438258" lon="-8.094592979025109"><ele>530.0</ele><time>2026-04-18T17:46:51.999Z</time></trkpt><trkpt lat="42.45663947435365" lon="-8.094553477136614"><ele>530.0</ele><time>2026-04-18T17:46:52.999Z</time></trkpt><trkpt lat="42.45643528054783" lon="-8.094463623142033"><ele>530.0</ele><time>2026-04-18T17:46:53.999Z</time></trkpt><trkpt lat="42.45630591537153" lon="-8.094421422921299"><ele>530.0</ele><time>2026-04-18T17:46:54.999Z</time></trkpt><trkpt lat="42.456155240123685" lon="-8.094346030096073"><ele>530.0</ele><time>2026-04-18T17:46:55.999Z</time></trkpt><trkpt lat="42.45601950497441" lon="-8.094218517206448"><ele>530.0</ele><time>2026-04-18T17:46:56.999Z</time></trkpt><trkpt lat="42.45589090021594" lon="-8.09409950266058"><ele>530.0</ele><time>2026-04-18T17:46:57.999Z</time></trkpt><trkpt lat="42.45575462961596" lon="-8.093960232569678"><ele>530.0</ele><time>2026-04-18T17:46:58.999Z</time></trkpt><trkpt lat="42.45563574305105" lon="-8.093802970373861"><ele>530.0</ele><time>2026-04-18T17:46:59.999Z</time></trkpt><trkpt lat="42.45551005383602" lon="-8.093648922354932"><ele>530.0</ele><time>2026-04-18T17:47:00.999Z</time></trkpt><trkpt lat="42.45539366165072" lon="-8.093480030353769"><ele>527.6666666666666</ele><time>2026-04-18T17:47:01.999Z</time></trkpt><trkpt lat="42.45529356182006" lon="-8.093313256754389"><ele>525.3333333333334</ele><time>2026-04-18T17:47:02.999Z</time></trkpt><trkpt lat="42.45517876610747" lon="-8.093144447707"><ele>523.0</ele><time>2026-04-18T17:47:03.999Z</time></trkpt><trkpt lat="42.455065628130974" lon="-8.092950615806052"><ele>521.6666666666667</ele><time>2026-04-18T17:47:04.999Z</time></trkpt><trkpt lat="42.454948812823055" lon="-8.092770801662857"><ele>520.3333333333334</ele><time>2026-04-18T17:47:05.999Z</time></trkpt><trkpt lat="42.45482804542243" lon="-8.092590591488495"><ele>519.0</ele><time>2026-04-18T17:47:06.999Z</time></trkpt><trkpt lat="42.454712891413166" lon="-8.09241916078659"><ele>515.6666666666666</ele><time>2026-04-18T17:47:07.999Z</time></trkpt><trkpt lat="42.45458047661211" lon="-8.092282034941986"><ele>512.3333333333333</ele><time>2026-04-18T17:47:08.999Z</time></trkpt><trkpt lat="42.45444125016059" lon="-8.09214501879922"><ele>509.0</ele><time>2026-04-18T17:47:09.999Z</time></trkpt><trkpt lat="42.45428571539497" lon="-8.09203337570044"><ele>509.0</ele><time>2026-04-18T17:47:10.999Z</time></trkpt><trkpt lat="42.454112615476504" lon="-8.09194080823623"><ele>509.0</ele><time>2026-04-18T17:47:11.999Z</time></trkpt><trkpt lat="42.45392409359248" lon="-8.091869342126522"><ele>509.0</ele><time>2026-04-18T17:47:12.999Z</time></trkpt><trkpt lat="42.453728950999334" lon="-8.09183136488379"><ele>506.3333333333333</ele><time>2026-04-18T17:47:13.999Z</time></trkpt><trkpt lat="42.453522756856394" lon="-8.09182745342105"><ele>503.66666666666663</ele><time>2026-04-18T17:47:14.999Z</time></trkpt><trkpt lat="42.45332235177932" lon="-8.091824992550926"><ele>501.0</ele><time>2026-04-18T17:47:15.999Z</time></trkpt><trkpt lat="42.453132684738144" lon="-8.091890740335057"><ele>500.33333333333337</ele><time>2026-04-18T17:47:16.999Z</time></trkpt><trkpt lat="42.45295271279864" lon="-8.09197786919277"><ele>499.6666666666667</ele><time>2026-04-18T17:47:17.999Z</time></trkpt><trkpt lat="42.45278443344955" lon="-8.092085547625741"><ele>499.0</ele><time>2026-04-18T17:47:18.999Z</time></trkpt><trkpt lat="42.45262417149225" lon="-8.092200200715363"><ele>499.0</ele><time>2026-04-18T17:47:19.999Z</time></trkpt><trkpt lat="42.4524628421682" lon="-8.09231092997042"><ele>499.0</ele><time>2026-04-18T17:47:20.999Z</time></trkpt><trkpt lat="42.4523057655637" lon="-8.092408775037295"><ele>499.0</ele><time>2026-04-18T17:47:21.999Z</time></trkpt><trkpt lat="42.452147490863545" lon="-8.092505199955841"><ele>495.33333333333337</ele><time>2026-04-18T17:47:22.999Z</time></trkpt><trkpt lat="42.451994139300126" lon="-8.092599313104133"><ele>491.66666666666663</ele><time>2026-04-18T17:47:23.999Z</time></trkpt><trkpt lat="42.45183971008299" lon="-8.092689036767847"><ele>488.0</ele><time>2026-04-18T17:47:24.999Z</time></trkpt><trkpt lat="42.451685501065086" lon="-8.092762480910682"><ele>488.0</ele><time>2026-04-18T17:47:25.999Z</time></trkpt><trkpt lat="42.45153017010427" lon="-8.092839978636974"><ele>488.0</ele><time>2026-04-18T17:47:26.999Z</time></trkpt><trkpt lat="42.4513778585978" lon="-8.092893563672103"><ele>488.0</ele><time>2026-04-18T17:47:27.999Z</time></trkpt><trkpt lat="42.45121856826746" lon="-8.092934492530782"><ele>485.0</ele><time>2026-04-18T17:47:28.999Z</time></trkpt><trkpt lat="42.4510590308705" lon="-8.092957430507342"><ele>482.0</ele><time>2026-04-18T17:47:29.999Z</time></trkpt><trkpt lat="42.45090794041732" lon="-8.092945834768457"><ele>479.0</ele><time>2026-04-18T17:47:30.999Z</time></trkpt><trkpt lat="42.45075293913632" lon="-8.092917608123459"><ele>479.0</ele><time>2026-04-18T17:47:31.999Z</time></trkpt><trkpt lat="42.45060245841439" lon="-8.092868851122873"><ele>479.0</ele><time>2026-04-18T17:47:32.999Z</time></trkpt><trkpt lat="42.45045678644773" lon="-8.092801110301332"><ele>479.0</ele><time>2026-04-18T17:47:33.999Z</time></trkpt><trkpt lat="42.45031388720212" lon="-8.092720176766122"><ele>475.66666666666663</ele><time>2026-04-18T17:47:34.999Z</time></trkpt><trkpt lat="42.450175494202725" lon="-8.09262553721954"><ele>472.33333333333337</ele><time>2026-04-18T17:47:35.999Z</time></trkpt><trkpt lat="42.450046578369914" lon="-8.0925189734286"><ele>469.0</ele><time>2026-04-18T17:47:36.999Z</time></trkpt><trkpt lat="42.44992766149792" lon="-8.092394700242219"><ele>469.0</ele><time>2026-04-18T17:47:37.999Z</time></trkpt><trkpt lat="42.44982696131166" lon="-8.092273140017106"><ele>469.0</ele><time>2026-04-18T17:47:38.999Z</time></trkpt><trkpt lat="42.44973421288772" lon="-8.092128497047597"><ele>469.0</ele><time>2026-04-18T17:47:39.999Z</time></trkpt><trkpt lat="42.44966313635432" lon="-8.092007156254038"><ele>469.0</ele><time>2026-04-18T17:47:40.999Z</time></trkpt><trkpt lat="42.44959859749154" lon="-8.09189998209398"><ele>467.8571428571429</ele><time>2026-04-18T17:47:41.999Z</time></trkpt><trkpt lat="42.44956355967983" lon="-8.091824962072108"><ele>466.7142857142857</ele><time>2026-04-18T17:47:42.999Z</time></trkpt><trkpt lat="42.4494991007025" lon="-8.091758654755974"><ele>465.57142857142856</ele><time>2026-04-18T17:47:44.999Z</time></trkpt><trkpt lat="42.44946871057843" lon="-8.091671947040906"><ele>464.42857142857144</ele><time>2026-04-18T17:47:47Z</time></trkpt><trkpt lat="42.44941002217297" lon="-8.091614154127996"><ele>463.28571428571433</ele><time>2026-04-18T17:47:48Z</time></trkpt><trkpt lat="42.449384413105776" lon="-8.091533841621668"><ele>462.14285714285717</ele><time>2026-04-18T17:47:49Z</time></trkpt><trkpt lat="42.44935553163032" lon="-8.091440620191001"><ele>461.0</ele><time>2026-04-18T17:47:50Z</time></trkpt><trkpt lat="42.44932763018659" lon="-8.091352561095437"><ele>459.8</ele><time>2026-04-18T17:47:51Z</time></trkpt><trkpt lat="42.44929718891521" lon="-8.091255293509246"><ele>458.6</ele><time>2026-04-18T17:47:52Z</time></trkpt><trkpt lat="42.449261160099944" lon="-8.091144520000308"><ele>457.4</ele><time>2026-04-18T17:47:53Z</time></trkpt><trkpt lat="42.44922865228622" lon="-8.091031807525411"><ele>456.2</ele><time>2026-04-18T17:47:54Z</time></trkpt><trkpt lat="42.44919714994224" lon="-8.090911562410083"><ele>455.0</ele><time>2026-04-18T17:47:55Z</time></trkpt><trkpt lat="42.44917044103793" lon="-8.090776150165992"><ele>454.4</ele><time>2026-04-18T17:47:56Z</time></trkpt><trkpt lat="42.44913989713225" lon="-8.090644014768655"><ele>453.8</ele><time>2026-04-18T17:47:57Z</time></trkpt><trkpt lat="42.449113275928774" lon="-8.090508925074998"><ele>453.20000000000005</ele><time>2026-04-18T17:47:58Z</time></trkpt><trkpt lat="42.449087202687444" lon="-8.090381417073019"><ele>452.6</ele><time>2026-04-18T17:47:59Z</time></trkpt><trkpt lat="42.44906102187153" lon="-8.09026261684839"><ele>452.0</ele><time>2026-04-18T17:48:00Z</time></trkpt><trkpt lat="42.449036644180744" lon="-8.090144609767275"><ele>451.99999999999994</ele><time>2026-04-18T17:48:01Z</time></trkpt><trkpt lat="42.449008815191576" lon="-8.090036082944188"><ele>452.0</ele><time>2026-04-18T17:48:02Z</time></trkpt><trkpt lat="42.448974367212266" lon="-8.089927472973129"><ele>452.0</ele><time>2026-04-18T17:48:03Z</time></trkpt><trkpt lat="42.448941342441074" lon="-8.089836181548023"><ele>452.0</ele><time>2026-04-18T17:48:04Z</time></trkpt><trkpt lat="42.4489075301502" lon="-8.089722303039993"><ele>451.99999999999994</ele><time>2026-04-18T17:48:05Z</time></trkpt><trkpt lat="42.44889047753924" lon="-8.089608008031028"><ele>452.0</ele><time>2026-04-18T17:48:06Z</time></trkpt><trkpt lat="42.44888362565145" lon="-8.089517026626583"><ele>451.66666666666663</ele><time>2026-04-18T17:48:07Z</time></trkpt><trkpt lat="42.44889905207501" lon="-8.08941225127772"><ele>451.3333333333333</ele><time>2026-04-18T17:48:09Z</time></trkpt><trkpt lat="42.4488982541834" lon="-8.089304962094715"><ele>451.0</ele><time>2026-04-18T17:48:11Z</time></trkpt><trkpt lat="42.44887849579343" lon="-8.08920593354304"><ele>450.66666666666663</ele><time>2026-04-18T17:48:12Z</time></trkpt><trkpt lat="42.448848279829846" lon="-8.089083223708444"><ele>450.3333333333333</ele><time>2026-04-18T17:48:13Z</time></trkpt><trkpt lat="42.44881482086998" lon="-8.088953334601351"><ele>450.0</ele><time>2026-04-18T17:48:14Z</time></trkpt><trkpt lat="42.44878656498747" lon="-8.088822006263536"><ele>448.4</ele><time>2026-04-18T17:48:15Z</time></trkpt><trkpt lat="42.44875787076685" lon="-8.088685025006923"><ele>446.8</ele><time>2026-04-18T17:48:16Z</time></trkpt><trkpt lat="42.44873079217912" lon="-8.08854905172869"><ele>445.20000000000005</ele><time>2026-04-18T17:48:17Z</time></trkpt><trkpt lat="42.44870284635399" lon="-8.088414970193668"><ele>443.6</ele><time>2026-04-18T17:48:18Z</time></trkpt><trkpt lat="42.44865799080533" lon="-8.088298649268905"><ele>442.0</ele><time>2026-04-18T17:48:19Z</time></trkpt><trkpt lat="42.44857323241891" lon="-8.088234443325476"><ele>440.6</ele><time>2026-04-18T17:48:20Z</time></trkpt><trkpt lat="42.44849030126985" lon="-8.088161955151016"><ele>439.20000000000005</ele><time>2026-04-18T17:48:21Z</time></trkpt><trkpt lat="42.44841235769187" lon="-8.088091909765831"><ele>437.8</ele><time>2026-04-18T17:48:22Z</time></trkpt><trkpt lat="42.44832426828077" lon="-8.08803874435115"><ele>436.4</ele><time>2026-04-18T17:48:23Z</time></trkpt><trkpt lat="42.448245356402566" lon="-8.087972975470452"><ele>435.0</ele><time>2026-04-18T17:48:24Z</time></trkpt><trkpt lat="42.44816376246054" lon="-8.08790079831893"><ele>435.0</ele><time>2026-04-18T17:48:25Z</time></trkpt><trkpt lat="42.44808366235762" lon="-8.087835218500416"><ele>435.0</ele><time>2026-04-18T17:48:26Z</time></trkpt><trkpt lat="42.447996240330816" lon="-8.087772393392546"><ele>435.0</ele><time>2026-04-18T17:48:27Z</time></trkpt><trkpt lat="42.44791170336001" lon="-8.087711623697075"><ele>435.0</ele><time>2026-04-18T17:48:28Z</time></trkpt><trkpt lat="42.44782359850662" lon="-8.087648905578646"><ele>435.0</ele><time>2026-04-18T17:48:29Z</time></trkpt><trkpt lat="42.44774721976143" lon="-8.087581002075598"><ele>434.8</ele><time>2026-04-18T17:48:30Z</time></trkpt><trkpt lat="42.44767090468657" lon="-8.08751555618604"><ele>434.6</ele><time>2026-04-18T17:48:31Z</time></trkpt><trkpt lat="42.447600186311526" lon="-8.0874270150267"><ele>434.4</ele><time>2026-04-18T17:48:32Z</time></trkpt><trkpt lat="42.447533675924575" lon="-8.087335035591758"><ele>434.2</ele><time>2026-04-18T17:48:33Z</time></trkpt><trkpt lat="42.44747374026905" lon="-8.087247163186174"><ele>434.0</ele><time>2026-04-18T17:48:34Z</time></trkpt><trkpt lat="42.447415152667276" lon="-8.087149374139685"><ele>432.79999999999995</ele><time>2026-04-18T17:48:35Z</time></trkpt><trkpt lat="42.44735574894506" lon="-8.087052758743047"><ele>431.59999999999997</ele><time>2026-04-18T17:48:36Z</time></trkpt><trkpt lat="42.447293571731784" lon="-8.086965022294608"><ele>430.4</ele><time>2026-04-18T17:48:37Z</time></trkpt><trkpt lat="42.447253751473696" lon="-8.086854561288355"><ele>429.2</ele><time>2026-04-18T17:48:38Z</time></trkpt><trkpt lat="42.447187436936076" lon="-8.086765740013844"><ele>428.0</ele><time>2026-04-18T17:48:39Z</time></trkpt><trkpt lat="42.44713822477034" lon="-8.086671013458982"><ele>427.49999999999994</ele><time>2026-04-18T17:48:40Z</time></trkpt><trkpt lat="42.44708434090875" lon="-8.086571948785384"><ele>427.0</ele><time>2026-04-18T17:48:41Z</time></trkpt><trkpt lat="42.44703721367241" lon="-8.086478017185021"><ele>426.5</ele><time>2026-04-18T17:48:42Z</time></trkpt><trkpt lat="42.44699330073456" lon="-8.086386745047681"><ele>426.0</ele><time>2026-04-18T17:48:43Z</time></trkpt><trkpt lat="42.44693910441805" lon="-8.08628977568975"><ele>425.49999999999994</ele><time>2026-04-18T17:48:43.999Z</time></trkpt><trkpt lat="42.44688999214921" lon="-8.086205923270294"><ele>425.0</ele><time>2026-04-18T17:48:44.999Z</time></trkpt><trkpt lat="42.4468447151097" lon="-8.086115719640567"><ele>424.99999999999994</ele><time>2026-04-18T17:48:45.999Z</time></trkpt><trkpt lat="42.44679249327889" lon="-8.086026247594626"><ele>425.0</ele><time>2026-04-18T17:48:46.999Z</time></trkpt><trkpt lat="42.44674751822482" lon="-8.085942206311154"><ele>425.0</ele><time>2026-04-18T17:48:47.999Z</time></trkpt><trkpt lat="42.44669964412505" lon="-8.085859003146668"><ele>425.0</ele><time>2026-04-18T17:48:48.999Z</time></trkpt><trkpt lat="42.44664976184894" lon="-8.085776361010254"><ele>424.99999999999994</ele><time>2026-04-18T17:48:49.999Z</time></trkpt><trkpt lat="42.44660482865548" lon="-8.085697511753745"><ele>425.0</ele><time>2026-04-18T17:48:50.999Z</time></trkpt><trkpt lat="42.446562579070644" lon="-8.085616174091847"><ele>424.16666666666663</ele><time>2026-04-18T17:48:51.999Z</time></trkpt><trkpt lat="42.446519114590764" lon="-8.085535570240207"><ele>423.3333333333333</ele><time>2026-04-18T17:48:52.999Z</time></trkpt><trkpt lat="42.44646726856932" lon="-8.085454798699583"><ele>422.5</ele><time>2026-04-18T17:48:53.999Z</time></trkpt><trkpt lat="42.44638414381608" lon="-8.085349727736006"><ele>421.66666666666663</ele><time>2026-04-18T17:48:55.999Z</time></trkpt><trkpt lat="42.44631997347489" lon="-8.085289891335826"><ele>420.8333333333333</ele><time>2026-04-18T17:48:56.999Z</time></trkpt><trkpt lat="42.446260255392204" lon="-8.085255873874784"><ele>420.0</ele><time>2026-04-18T17:48:57.999Z</time></trkpt><trkpt lat="42.446163016951694" lon="-8.0852457371721"><ele>419.4</ele><time>2026-04-18T17:48:58.999Z</time></trkpt><trkpt lat="42.446070690196215" lon="-8.085183480092384"><ele>418.8</ele><time>2026-04-18T17:49:00.999Z</time></trkpt><trkpt lat="42.445997629171956" lon="-8.085165602838881"><ele>418.20000000000005</ele><time>2026-04-18T17:49:01.999Z</time></trkpt><trkpt lat="42.44588650547663" lon="-8.085155797321823"><ele>417.6</ele><time>2026-04-18T17:49:03.999Z</time></trkpt><trkpt lat="42.44581512412492" lon="-8.085147199907668"><ele>417.0</ele><time>2026-04-18T17:49:04.999Z</time></trkpt><trkpt lat="42.44571989848259" lon="-8.085132090560199"><ele>417.0</ele><time>2026-04-18T17:49:06.999Z</time></trkpt><trkpt lat="42.445613327511005" lon="-8.085112807449432"><ele>417.0</ele><time>2026-04-18T17:49:08.999Z</time></trkpt><trkpt lat="42.4455072207411" lon="-8.08509375347722"><ele>417.0</ele><time>2026-04-18T17:49:10.999Z</time></trkpt><trkpt lat="42.44539484519338" lon="-8.085073573795269"><ele>417.0</ele><time>2026-04-18T17:49:12.999Z</time></trkpt><trkpt lat="42.44527530689141" lon="-8.085052107880628"><ele>417.0</ele><time>2026-04-18T17:49:14.999Z</time></trkpt><trkpt lat="42.44517414884156" lon="-8.085033942554366"><ele>416.6</ele><time>2026-04-18T17:49:16.999Z</time></trkpt><trkpt lat="42.4450887796395" lon="-8.085018612489675"><ele>416.20000000000005</ele><time>2026-04-18T17:49:17.999Z</time></trkpt><trkpt lat="42.44501697023965" lon="-8.08500571741325"><ele>415.8</ele><time>2026-04-18T17:49:18.999Z</time></trkpt><trkpt lat="42.4449060550315" lon="-8.084985799964013"><ele>415.4</ele><time>2026-04-18T17:49:19.999Z</time></trkpt><trkpt lat="42.44483554380462" lon="-8.084973138008678"><ele>415.0</ele><time>2026-04-18T17:49:21.999Z</time></trkpt><trkpt lat="42.444709067811644" lon="-8.084950426264212"><ele>412.25</ele><time>2026-04-18T17:49:23.999Z</time></trkpt><trkpt lat="42.44459079899786" lon="-8.084927668756977"><ele>409.5</ele><time>2026-04-18T17:49:25.999Z</time></trkpt><trkpt lat="42.44447793189231" lon="-8.08488088804706"><ele>406.75</ele><time>2026-04-18T17:49:27.999Z</time></trkpt><trkpt lat="42.44436272792107" lon="-8.084878258899165"><ele>404.0</ele><time>2026-04-18T17:49:29.999Z</time></trkpt><trkpt lat="42.444260634826264" lon="-8.0848562732935"><ele>404.0</ele><time>2026-04-18T17:49:31.999Z</time></trkpt><trkpt lat="42.444169809798126" lon="-8.084833227355723"><ele>404.0</ele><time>2026-04-18T17:49:33.999Z</time></trkpt><trkpt lat="42.444089200812925" lon="-8.084806273065515"><ele>404.0</ele><time>2026-04-18T17:49:35.999Z</time></trkpt><trkpt lat="42.44401609119441" lon="-8.084796799984922"><ele>404.0</ele><time>2026-04-18T17:49:37.999Z</time></trkpt><trkpt lat="42.44393083903301" lon="-8.084760956900944"><ele>404.0</ele><time>2026-04-18T17:49:39.999Z</time></trkpt><trkpt lat="42.44379974863356" lon="-8.084678191773087"><ele>403.66666666666663</ele><time>2026-04-18T17:49:41.999Z</time></trkpt><trkpt lat="42.44375365841597" lon="-8.084604009286393"><ele>403.3333333333333</ele><time>2026-04-18T17:49:42.999Z</time></trkpt><trkpt lat="42.443689807934874" lon="-8.08454666116105"><ele>403.0</ele><time>2026-04-18T17:49:44.999Z</time></trkpt><trkpt lat="42.44363031700085" lon="-8.084486617382927"><ele>402.66666666666663</ele><time>2026-04-18T17:49:45.999Z</time></trkpt><trkpt lat="42.44353125722562" lon="-8.084426592112317"><ele>402.3333333333333</ele><time>2026-04-18T17:49:47.999Z</time></trkpt><trkpt lat="42.44343929160684" lon="-8.084332488134303"><ele>402.0</ele><time>2026-04-18T17:49:50Z</time></trkpt><trkpt lat="42.443354339456306" lon="-8.084240976365274"><ele>402.0</ele><time>2026-04-18T17:49:52Z</time></trkpt><trkpt lat="42.44326277717662" lon="-8.084140000193534"><ele>402.0</ele><time>2026-04-18T17:49:54Z</time></trkpt><trkpt lat="42.44322630790312" lon="-8.084068789897032"><ele>402.0</ele><time>2026-04-18T17:49:55Z</time></trkpt><trkpt lat="42.443151437994295" lon="-8.083972366941056"><ele>402.0</ele><time>2026-04-18T17:49:57Z</time></trkpt><trkpt lat="42.44311584532514" lon="-8.083899063136617"><ele>402.0</ele><time>2026-04-18T17:49:58Z</time></trkpt><trkpt lat="42.44303525539563" lon="-8.083859277248743"><ele>402.0</ele><time>2026-04-18T17:49:59Z</time></trkpt><trkpt lat="42.442943895029295" lon="-8.083752632294441"><ele>401.20000000000005</ele><time>2026-04-18T17:50:01Z</time></trkpt><trkpt lat="42.44285345469382" lon="-8.083669284594304"><ele>400.4</ele><time>2026-04-18T17:50:03Z</time></trkpt><trkpt lat="42.442777630449626" lon="-8.083595369846043"><ele>399.6</ele><time>2026-04-18T17:50:05Z</time></trkpt><trkpt lat="42.442697404595314" lon="-8.08350162904123"><ele>398.79999999999995</ele><time>2026-04-18T17:50:07Z</time></trkpt><trkpt lat="42.44263532704962" lon="-8.083444638575143"><ele>398.0</ele><time>2026-04-18T17:50:08Z</time></trkpt><trkpt lat="42.44255569046842" lon="-8.083406576554216"><ele>397.99999999999994</ele><time>2026-04-18T17:50:09Z</time></trkpt><trkpt lat="42.442481406777176" lon="-8.083346005768739"><ele>398.0</ele><time>2026-04-18T17:50:10Z</time></trkpt><trkpt lat="42.44241143364092" lon="-8.083283620205126"><ele>398.0</ele><time>2026-04-18T17:50:11Z</time></trkpt><trkpt lat="42.44234505496081" lon="-8.083223299675533"><ele>398.0</ele><time>2026-04-18T17:50:12Z</time></trkpt><trkpt lat="42.44227840051927" lon="-8.083159829202538"><ele>397.99999999999994</ele><time>2026-04-18T17:50:13Z</time></trkpt><trkpt lat="42.44220897053947" lon="-8.083099038588093"><ele>398.0</ele><time>2026-04-18T17:50:14Z</time></trkpt><trkpt lat="42.442132261238825" lon="-8.08301096340521"><ele>397.49999999999994</ele><time>2026-04-18T17:50:15Z</time></trkpt><trkpt lat="42.44204788169891" lon="-8.082937213568727"><ele>397.0</ele><time>2026-04-18T17:50:16Z</time></trkpt><trkpt lat="42.441972788265595" lon="-8.082861446993933"><ele>396.5</ele><time>2026-04-18T17:50:17Z</time></trkpt><trkpt lat="42.441916796419555" lon="-8.082801111657503"><ele>396.0</ele><time>2026-04-18T17:50:18Z</time></trkpt><trkpt lat="42.44184359336151" lon="-8.082719946702154"><ele>395.49999999999994</ele><time>2026-04-18T17:50:19Z</time></trkpt><trkpt lat="42.44177929770566" lon="-8.08264189437846"><ele>395.0</ele><time>2026-04-18T17:50:20Z</time></trkpt><trkpt lat="42.44170464272226" lon="-8.082517962144017"><ele>394.6</ele><time>2026-04-18T17:50:21Z</time></trkpt><trkpt lat="42.4416272402419" lon="-8.08240802303059"><ele>394.2</ele><time>2026-04-18T17:50:22Z</time></trkpt><trkpt lat="42.441562055467465" lon="-8.08229772324676"><ele>393.79999999999995</ele><time>2026-04-18T17:50:23Z</time></trkpt><trkpt lat="42.441494785415536" lon="-8.08220504449955"><ele>393.4</ele><time>2026-04-18T17:50:24Z</time></trkpt><trkpt lat="42.441460306685876" lon="-8.08206636608391"><ele>393.0</ele><time>2026-04-18T17:50:25Z</time></trkpt><trkpt lat="42.44145087999882" lon="-8.081932042926896"><ele>393.0</ele><time>2026-04-18T17:50:26Z</time></trkpt><trkpt lat="42.44141199079804" lon="-8.081790767893505"><ele>393.0</ele><time>2026-04-18T17:50:27Z</time></trkpt><trkpt lat="42.44139034283585" lon="-8.081649802165744"><ele>393.0</ele><time>2026-04-18T17:50:28Z</time></trkpt><trkpt lat="42.441365916410106" lon="-8.081504277476608"><ele>393.0</ele><time>2026-04-18T17:50:29Z</time></trkpt><trkpt lat="42.44136180965445" lon="-8.081358931630215"><ele>393.0</ele><time>2026-04-18T17:50:30Z</time></trkpt><trkpt lat="42.44134396770288" lon="-8.081217505142895"><ele>392.79999999999995</ele><time>2026-04-18T17:50:31Z</time></trkpt><trkpt lat="42.44133162146845" lon="-8.081076144860315"><ele>392.6</ele><time>2026-04-18T17:50:32Z</time></trkpt><trkpt lat="42.4413179337448" lon="-8.080930455148389"><ele>392.4</ele><time>2026-04-18T17:50:33Z</time></trkpt><trkpt lat="42.44128162430789" lon="-8.080813939777064"><ele>392.20000000000005</ele><time>2026-04-18T17:50:34Z</time></trkpt><trkpt lat="42.44126887889019" lon="-8.080663492499252"><ele>392.0</ele><time>2026-04-18T17:50:35Z</time></trkpt><trkpt lat="42.441248074323546" lon="-8.080502003118225"><ele>392.0</ele><time>2026-04-18T17:50:36Z</time></trkpt><trkpt lat="42.44121894997742" lon="-8.08037677444278"><ele>392.0</ele><time>2026-04-18T17:50:37Z</time></trkpt><trkpt lat="42.44118063105301" lon="-8.080242319722265"><ele>392.0</ele><time>2026-04-18T17:50:38Z</time></trkpt><trkpt lat="42.44115194146755" lon="-8.080151004973317"><ele>392.0</ele><time>2026-04-18T17:50:39Z</time></trkpt><trkpt lat="42.44118902270688" lon="-8.080018441321094"><ele>392.0</ele><time>2026-04-18T17:50:40Z</time></trkpt><trkpt lat="42.441200291870665" lon="-8.079878043758683"><ele>390.40000000000003</ele><time>2026-04-18T17:50:41Z</time></trkpt><trkpt lat="42.441210508692926" lon="-8.079715845762975"><ele>388.8</ele><time>2026-04-18T17:50:43Z</time></trkpt><trkpt lat="42.44118161887355" lon="-8.079589095145481"><ele>387.2</ele><time>2026-04-18T17:50:44Z</time></trkpt><trkpt lat="42.44113253983515" lon="-8.079528250270345"><ele>385.6</ele><time>2026-04-18T17:50:45Z</time></trkpt><trkpt lat="42.441068155873424" lon="-8.079485418841678"><ele>384.0</ele><time>2026-04-18T17:50:46Z</time></trkpt><trkpt lat="42.44095532425414" lon="-8.07941980512982"><ele>384.0</ele><time>2026-04-18T17:50:48Z</time></trkpt><trkpt lat="42.44084473441177" lon="-8.079402100148581"><ele>384.0</ele><time>2026-04-18T17:50:50Z</time></trkpt><trkpt lat="42.44076892490586" lon="-8.079384752821325"><ele>384.0</ele><time>2026-04-18T17:50:52Z</time></trkpt><trkpt lat="42.44066892774892" lon="-8.079351050217063"><ele>384.0</ele><time>2026-04-18T17:50:54Z</time></trkpt><trkpt lat="42.440601282699525" lon="-8.079258839373164"><ele>384.0</ele><time>2026-04-18T17:50:56Z</time></trkpt><trkpt lat="42.44059314314753" lon="-8.0790991961922"><ele>384.3333333333333</ele><time>2026-04-18T17:50:58Z</time></trkpt><trkpt lat="42.44060059211096" lon="-8.079010405800144"><ele>384.66666666666663</ele><time>2026-04-18T17:50:59Z</time></trkpt><trkpt lat="42.440612896117266" lon="-8.078903980026267"><ele>385.0</ele><time>2026-04-18T17:51:00Z</time></trkpt><trkpt lat="42.440603955458954" lon="-8.078804736278776"><ele>385.3333333333333</ele><time>2026-04-18T17:51:01Z</time></trkpt><trkpt lat="42.440609043866814" lon="-8.078634538488073"><ele>385.66666666666663</ele><time>2026-04-18T17:51:03Z</time></trkpt><trkpt lat="42.44056564360372" lon="-8.078540612603755"><ele>386.0</ele><time>2026-04-18T17:51:04Z</time></trkpt><trkpt lat="42.44048028068548" lon="-8.078486486870812"><ele>386.16666666666663</ele><time>2026-04-18T17:51:05Z</time></trkpt><trkpt lat="42.44040936293209" lon="-8.078430195347408"><ele>386.3333333333333</ele><time>2026-04-18T17:51:06Z</time></trkpt><trkpt lat="42.44033623090176" lon="-8.07838728470906"><ele>386.5</ele><time>2026-04-18T17:51:07Z</time></trkpt><trkpt lat="42.44023575226381" lon="-8.07831363180395"><ele>386.66666666666663</ele><time>2026-04-18T17:51:08Z</time></trkpt><trkpt lat="42.44017234600989" lon="-8.078305665560709"><ele>386.8333333333333</ele><time>2026-04-18T17:51:09Z</time></trkpt><trkpt lat="42.44010097898222" lon="-8.078269723741748"><ele>387.0</ele><time>2026-04-18T17:51:10Z</time></trkpt><trkpt lat="42.440026951330736" lon="-8.078231530308484"><ele>387.0</ele><time>2026-04-18T17:51:11Z</time></trkpt><trkpt lat="42.43995879821649" lon="-8.07819636762248"><ele>387.0</ele><time>2026-04-18T17:51:12Z</time></trkpt><trkpt lat="42.4398808452575" lon="-8.078156055895963"><ele>387.0</ele><time>2026-04-18T17:51:13Z</time></trkpt><trkpt lat="42.43980653969034" lon="-8.078115055285306"><ele>387.0</ele><time>2026-04-18T17:51:14Z</time></trkpt><trkpt lat="42.439732846042396" lon="-8.078067435119918"><ele>387.0</ele><time>2026-04-18T17:51:15Z</time></trkpt><trkpt lat="42.439671238990755" lon="-8.077992182052894"><ele>387.0</ele><time>2026-04-18T17:51:16Z</time></trkpt><trkpt lat="42.43960955517487" lon="-8.077917693904693"><ele>386.3333333333333</ele><time>2026-04-18T17:51:17Z</time></trkpt><trkpt lat="42.439560546257724" lon="-8.077823412138207"><ele>385.6666666666667</ele><time>2026-04-18T17:51:18Z</time></trkpt><trkpt lat="42.43952332168591" lon="-8.077720138630921"><ele>385.0</ele><time>2026-04-18T17:51:19Z</time></trkpt><trkpt lat="42.43949501962568" lon="-8.07761908977141"><ele>384.33333333333337</ele><time>2026-04-18T17:51:20Z</time></trkpt><trkpt lat="42.439465141545" lon="-8.077507901355194"><ele>383.6666666666667</ele><time>2026-04-18T17:51:21Z</time></trkpt><trkpt lat="42.439401375348424" lon="-8.07742476055767"><ele>383.0</ele><time>2026-04-18T17:51:22Z</time></trkpt><trkpt lat="42.439337575676966" lon="-8.07733131386163"><ele>385.0</ele><time>2026-04-18T17:51:23Z</time></trkpt><trkpt lat="42.439258273282555" lon="-8.077275106370136"><ele>387.0</ele><time>2026-04-18T17:51:24Z</time></trkpt><trkpt lat="42.439153485447974" lon="-8.077230518285246"><ele>389.0</ele><time>2026-04-18T17:51:25Z</time></trkpt><trkpt lat="42.4390854431229" lon="-8.077225408585873"><ele>391.0</ele><time>2026-04-18T17:51:26Z</time></trkpt><trkpt lat="42.43898087224338" lon="-8.077208428752867"><ele>393.0</ele><time>2026-04-18T17:51:27Z</time></trkpt><trkpt lat="42.438881717017445" lon="-8.077196257648232"><ele>392.0</ele><time>2026-04-18T17:51:28Z</time></trkpt><trkpt lat="42.43878585296391" lon="-8.077186300302088"><ele>391.0</ele><time>2026-04-18T17:51:29Z</time></trkpt><trkpt lat="42.438699321828075" lon="-8.077206911611997"><ele>390.0</ele><time>2026-04-18T17:51:30Z</time></trkpt><trkpt lat="42.43861603396183" lon="-8.077242400758129"><ele>389.0</ele><time>2026-04-18T17:51:31Z</time></trkpt><trkpt lat="42.43852465058916" lon="-8.077248895331385"><ele>388.0</ele><time>2026-04-18T17:51:32Z</time></trkpt><trkpt lat="42.438447579696984" lon="-8.077285236574841"><ele>387.0</ele><time>2026-04-18T17:51:33Z</time></trkpt><trkpt lat="42.438369093438766" lon="-8.077295094495875"><ele>387.0</ele><time>2026-04-18T17:51:33.999Z</time></trkpt><trkpt lat="42.438281847103546" lon="-8.077307506443711"><ele>387.0</ele><time>2026-04-18T17:51:34.999Z</time></trkpt><trkpt lat="42.43821162793088" lon="-8.077326746681234"><ele>387.0</ele><time>2026-04-18T17:51:35.999Z</time></trkpt><trkpt lat="42.43813495038791" lon="-8.077353581099057"><ele>387.0</ele><time>2026-04-18T17:51:36.999Z</time></trkpt><trkpt lat="42.43805495814381" lon="-8.077370449304949"><ele>387.0</ele><time>2026-04-18T17:51:37.999Z</time></trkpt><trkpt lat="42.43798582712239" lon="-8.077395564297321"><ele>387.0</ele><time>2026-04-18T17:51:38.999Z</time></trkpt><trkpt lat="42.4378830122059" lon="-8.07742021423098"><ele>386.40000000000003</ele><time>2026-04-18T17:51:39.999Z</time></trkpt><trkpt lat="42.43779386991928" lon="-8.077437634958589"><ele>385.8</ele><time>2026-04-18T17:51:40.999Z</time></trkpt><trkpt lat="42.43770639684791" lon="-8.07748374012837"><ele>385.2</ele><time>2026-04-18T17:51:42Z</time></trkpt><trkpt lat="42.43761033705638" lon="-8.077506483444822"><ele>384.6</ele><time>2026-04-18T17:51:43Z</time></trkpt><trkpt lat="42.43751393426188" lon="-8.077531025481672"><ele>384.0</ele><time>2026-04-18T17:51:44Z</time></trkpt><trkpt lat="42.43742719185593" lon="-8.077554120573692"><ele>384.0</ele><time>2026-04-18T17:51:45Z</time></trkpt><trkpt lat="42.43733205807149" lon="-8.077597453793896"><ele>384.0</ele><time>2026-04-18T17:51:46Z</time></trkpt><trkpt lat="42.437238566826856" lon="-8.077670349894484"><ele>384.0</ele><time>2026-04-18T17:51:47Z</time></trkpt><trkpt lat="42.43716239861313" lon="-8.077727747791556"><ele>384.0</ele><time>2026-04-18T17:51:48Z</time></trkpt><trkpt lat="42.4370894312069" lon="-8.077812278529898"><ele>384.0</ele><time>2026-04-18T17:51:49Z</time></trkpt><trkpt lat="42.43701694480647" lon="-8.077898474704682"><ele>384.8333333333333</ele><time>2026-04-18T17:51:50Z</time></trkpt><trkpt lat="42.4369385696617" lon="-8.077962406792766"><ele>385.66666666666663</ele><time>2026-04-18T17:51:51Z</time></trkpt><trkpt lat="42.43686182019208" lon="-8.078033431783949"><ele>386.5</ele><time>2026-04-18T17:51:52Z</time></trkpt><trkpt lat="42.436791601195466" lon="-8.078094598790049"><ele>387.3333333333333</ele><time>2026-04-18T17:51:53Z</time></trkpt><trkpt lat="42.43672219439514" lon="-8.078176078205901"><ele>388.16666666666663</ele><time>2026-04-18T17:51:54Z</time></trkpt><trkpt lat="42.43665517505306" lon="-8.078247745007621"><ele>389.0</ele><time>2026-04-18T17:51:55Z</time></trkpt><trkpt lat="42.43658457110521" lon="-8.07832504905513"><ele>389.2</ele><time>2026-04-18T17:51:56Z</time></trkpt><trkpt lat="42.436525393523944" lon="-8.07838984410271"><ele>389.4</ele><time>2026-04-18T17:51:57Z</time></trkpt><trkpt lat="42.436417658313005" lon="-8.078467620183986"><ele>389.6</ele><time>2026-04-18T17:51:59Z</time></trkpt><trkpt lat="42.43632286343799" lon="-8.078579139595766"><ele>389.8</ele><time>2026-04-18T17:52:01Z</time></trkpt><trkpt lat="42.436235609210954" lon="-8.078662989000254"><ele>390.0</ele><time>2026-04-18T17:52:03Z</time></trkpt><trkpt lat="42.436147195599936" lon="-8.078742512007626"><ele>390.8</ele><time>2026-04-18T17:52:05Z</time></trkpt><trkpt lat="42.43610221780868" lon="-8.078814831349542"><ele>391.6</ele><time>2026-04-18T17:52:07Z</time></trkpt><trkpt lat="42.43611646279261" lon="-8.078964657727266"><ele>392.4</ele><time>2026-04-18T17:52:11Z</time></trkpt><trkpt lat="42.436083547791455" lon="-8.079150528985373"><ele>393.2</ele><time>2026-04-18T17:52:14Z</time></trkpt><trkpt lat="42.435988195538755" lon="-8.07919817110438"><ele>394.0</ele><time>2026-04-18T17:52:16Z</time></trkpt><trkpt lat="42.435919077889345" lon="-8.079228935032495"><ele>394.00000000000006</ele><time>2026-04-18T17:52:17Z</time></trkpt><trkpt lat="42.43584734187055" lon="-8.079260864892142"><ele>394.0</ele><time>2026-04-18T17:52:18Z</time></trkpt><trkpt lat="42.4357740174202" lon="-8.0792930117747"><ele>394.0</ele><time>2026-04-18T17:52:19Z</time></trkpt><trkpt lat="42.435707541959786" lon="-8.079322304650558"><ele>394.0</ele><time>2026-04-18T17:52:20Z</time></trkpt><trkpt lat="42.43561811839484" lon="-8.07935117225139"><ele>394.00000000000006</ele><time>2026-04-18T17:52:21Z</time></trkpt><trkpt lat="42.435545971813724" lon="-8.07939386770722"><ele>394.0</ele><time>2026-04-18T17:52:22Z</time></trkpt><trkpt lat="42.43548284753849" lon="-8.079423163644178"><ele>394.0</ele><time>2026-04-18T17:52:23Z</time></trkpt><trkpt lat="42.43539733270357" lon="-8.079455351685619"><ele>394.0</ele><time>2026-04-18T17:52:24Z</time></trkpt><trkpt lat="42.43530213644516" lon="-8.079529071967455"><ele>394.0</ele><time>2026-04-18T17:52:26Z</time></trkpt><trkpt lat="42.435211469512375" lon="-8.07957131006817"><ele>394.0</ele><time>2026-04-18T17:52:27Z</time></trkpt><trkpt lat="42.43514636803972" lon="-8.079612737736477"><ele>394.0</ele><time>2026-04-18T17:52:28Z</time></trkpt><trkpt lat="42.4350153105978" lon="-8.0796592385394"><ele>394.0</ele><time>2026-04-18T17:52:30Z</time></trkpt><trkpt lat="42.434940324693656" lon="-8.079707888975761"><ele>394.0</ele><time>2026-04-18T17:52:31Z</time></trkpt><trkpt lat="42.434869579172755" lon="-8.079746848267833"><ele>394.0</ele><time>2026-04-18T17:52:32Z</time></trkpt><trkpt lat="42.43474868168114" lon="-8.079816941940456"><ele>394.0</ele><time>2026-04-18T17:52:34Z</time></trkpt><trkpt lat="42.4346886527725" lon="-8.079842756227986"><ele>394.0</ele><time>2026-04-18T17:52:35Z</time></trkpt><trkpt lat="42.434560653609225" lon="-8.0798973736618"><ele>394.0</ele><time>2026-04-18T17:52:37Z</time></trkpt><trkpt lat="42.43448859295125" lon="-8.079906323394239"><ele>394.0</ele><time>2026-04-18T17:52:38Z</time></trkpt><trkpt lat="42.434369692927206" lon="-8.079968399561686"><ele>394.0</ele><time>2026-04-18T17:52:40Z</time></trkpt><trkpt lat="42.434300388647635" lon="-8.079989411514234"><ele>394.0</ele><time>2026-04-18T17:52:41Z</time></trkpt><trkpt lat="42.43423776518717" lon="-8.080005116036284"><ele>394.0</ele><time>2026-04-18T17:52:42Z</time></trkpt><trkpt lat="42.43411803601659" lon="-8.0800206220958"><ele>393.2</ele><time>2026-04-18T17:52:44Z</time></trkpt><trkpt lat="42.4340275472342" lon="-8.080043923338781"><ele>392.4</ele><time>2026-04-18T17:52:46Z</time></trkpt><trkpt lat="42.433936810730586" lon="-8.080041667419275"><ele>391.6</ele><time>2026-04-18T17:52:49Z</time></trkpt><trkpt lat="42.43381348492863" lon="-8.080054591758593"><ele>390.8</ele><time>2026-04-18T17:52:51Z</time></trkpt><trkpt lat="42.43373935032568" lon="-8.080063413599706"><ele>390.0</ele><time>2026-04-18T17:52:52Z</time></trkpt><trkpt lat="42.43367040409904" lon="-8.080096649312333"><ele>389.85714285714283</ele><time>2026-04-18T17:52:53Z</time></trkpt><trkpt lat="42.43359844477396" lon="-8.080117796355061"><ele>389.71428571428567</ele><time>2026-04-18T17:52:54Z</time></trkpt><trkpt lat="42.433527838293415" lon="-8.08013771092457"><ele>389.57142857142856</ele><time>2026-04-18T17:52:55Z</time></trkpt><trkpt lat="42.43345928576061" lon="-8.080150662914242"><ele>389.42857142857144</ele><time>2026-04-18T17:52:56Z</time></trkpt><trkpt lat="42.43338862174099" lon="-8.080159543888005"><ele>389.2857142857143</ele><time>2026-04-18T17:52:57Z</time></trkpt><trkpt lat="42.43332466427775" lon="-8.080189516869146"><ele>389.14285714285717</ele><time>2026-04-18T17:52:58Z</time></trkpt><trkpt lat="42.43325593502055" lon="-8.08020664626779"><ele>389.0</ele><time>2026-04-18T17:52:59Z</time></trkpt><trkpt lat="42.433123935849494" lon="-8.08023779218012"><ele>389.0</ele><time>2026-04-18T17:53:01Z</time></trkpt><trkpt lat="42.43299384125838" lon="-8.08029827261355"><ele>389.0</ele><time>2026-04-18T17:53:03Z</time></trkpt><trkpt lat="42.43288071865727" lon="-8.080314082007945"><ele>389.0</ele><time>2026-04-18T17:53:05Z</time></trkpt><trkpt lat="42.43281730981219" lon="-8.080319160262368"><ele>389.0</ele><time>2026-04-18T17:53:06Z</time></trkpt><trkpt lat="42.43271027096924" lon="-8.080353243793656"><ele>389.0</ele><time>2026-04-18T17:53:08Z</time></trkpt><trkpt lat="42.43264256697379" lon="-8.080359006976577"><ele>389.0</ele><time>2026-04-18T17:53:09Z</time></trkpt><trkpt lat="42.43254555416974" lon="-8.080379779226435"><ele>389.0</ele><time>2026-04-18T17:53:11Z</time></trkpt><trkpt lat="42.432432726081416" lon="-8.080402999544559"><ele>389.0</ele><time>2026-04-18T17:53:13Z</time></trkpt><trkpt lat="42.43233933959912" lon="-8.080426723926719"><ele>389.0</ele><time>2026-04-18T17:53:15Z</time></trkpt><trkpt lat="42.43223123725926" lon="-8.080485708108878"><ele>389.0</ele><time>2026-04-18T17:53:17Z</time></trkpt><trkpt lat="42.43213782585886" lon="-8.08048870822302"><ele>389.16666666666663</ele><time>2026-04-18T17:53:18Z</time></trkpt><trkpt lat="42.432074603758096" lon="-8.08053347892006"><ele>389.3333333333333</ele><time>2026-04-18T17:53:19Z</time></trkpt><trkpt lat="42.43198117210457" lon="-8.080628366560727"><ele>389.5</ele><time>2026-04-18T17:53:21Z</time></trkpt><trkpt lat="42.43192169912728" lon="-8.080671316274378"><ele>389.66666666666663</ele><time>2026-04-18T17:53:22Z</time></trkpt><trkpt lat="42.43186807608986" lon="-8.08072513955658"><ele>389.8333333333333</ele><time>2026-04-18T17:53:23Z</time></trkpt><trkpt lat="42.43181125179881" lon="-8.080793736104956"><ele>390.0</ele><time>2026-04-18T17:53:24Z</time></trkpt><trkpt lat="42.431710249468736" lon="-8.080892302008374"><ele>390.0</ele><time>2026-04-18T17:53:26Z</time></trkpt><trkpt lat="42.431661219053865" lon="-8.080952483583328"><ele>390.0</ele><time>2026-04-18T17:53:27Z</time></trkpt><trkpt lat="42.43155806358254" lon="-8.081039892429716"><ele>390.0</ele><time>2026-04-18T17:53:29Z</time></trkpt><trkpt lat="42.431471391484315" lon="-8.081138387989725"><ele>390.0</ele><time>2026-04-18T17:53:31Z</time></trkpt><trkpt lat="42.431378593106544" lon="-8.081235860699495"><ele>390.0</ele><time>2026-04-18T17:53:33Z</time></trkpt><trkpt lat="42.43127391014783" lon="-8.08130548703262"><ele>390.6</ele><time>2026-04-18T17:53:35Z</time></trkpt><trkpt lat="42.43121750526764" lon="-8.081359178990075"><ele>391.2</ele><time>2026-04-18T17:53:36Z</time></trkpt><trkpt lat="42.4311232829031" lon="-8.081421502222334"><ele>391.79999999999995</ele><time>2026-04-18T17:53:38Z</time></trkpt><trkpt lat="42.43105093638748" lon="-8.081447447221608"><ele>392.4</ele><time>2026-04-18T17:53:39Z</time></trkpt><trkpt lat="42.43095378922674" lon="-8.081505383323556"><ele>393.0</ele><time>2026-04-18T17:53:41Z</time></trkpt><trkpt lat="42.4308593385927" lon="-8.081563345887478"><ele>392.1666666666667</ele><time>2026-04-18T17:53:43Z</time></trkpt><trkpt lat="42.43077620944612" lon="-8.081619635295576"><ele>391.33333333333337</ele><time>2026-04-18T17:53:45Z</time></trkpt><trkpt lat="42.4306895401526" lon="-8.081672000827323"><ele>390.5</ele><time>2026-04-18T17:53:47Z</time></trkpt><trkpt lat="42.430608662142966" lon="-8.081720974741375"><ele>389.6666666666667</ele><time>2026-04-18T17:53:49Z</time></trkpt><trkpt lat="42.43054402531287" lon="-8.081767178648693"><ele>388.83333333333337</ele><time>2026-04-18T17:53:51Z</time></trkpt><trkpt lat="42.43046452628586" lon="-8.08180896720444"><ele>388.0</ele><time>2026-04-18T17:53:54Z</time></trkpt><trkpt lat="42.43039899648184" lon="-8.081879210351017"><ele>387.25</ele><time>2026-04-18T17:53:58Z</time></trkpt><trkpt lat="42.43031873336351" lon="-8.081665477555243"><ele>386.5</ele><time>2026-04-18T17:54:00Z</time></trkpt><trkpt lat="42.43026709653916" lon="-8.081527310122764"><ele>385.75</ele><time>2026-04-18T17:54:02Z</time></trkpt><trkpt lat="42.43020341702848" lon="-8.081382358063431"><ele>385.0</ele><time>2026-04-18T17:54:04Z</time></trkpt><trkpt lat="42.430144203709624" lon="-8.081237747276578"><ele>386.33333333333337</ele><time>2026-04-18T17:54:06Z</time></trkpt><trkpt lat="42.43010389806391" lon="-8.08110331482458"><ele>387.6666666666667</ele><time>2026-04-18T17:54:08Z</time></trkpt><trkpt lat="42.43006840639946" lon="-8.081022758034193"><ele>389.0</ele><time>2026-04-18T17:54:09Z</time></trkpt><trkpt lat="42.43003798357845" lon="-8.080943370713426"><ele>390.33333333333337</ele><time>2026-04-18T17:54:10Z</time></trkpt><trkpt lat="42.42998529219966" lon="-8.08080646534873"><ele>391.6666666666667</ele><time>2026-04-18T17:54:12Z</time></trkpt><trkpt lat="42.42995112810712" lon="-8.08072881627139"><ele>393.0</ele><time>2026-04-18T17:54:13Z</time></trkpt><trkpt lat="42.42992385480581" lon="-8.080643738120221"><ele>393.59999999999997</ele><time>2026-04-18T17:54:14Z</time></trkpt><trkpt lat="42.42987316425127" lon="-8.080500940045674"><ele>394.2</ele><time>2026-04-18T17:54:16Z</time></trkpt><trkpt lat="42.429820315923045" lon="-8.080364757714015"><ele>394.8</ele><time>2026-04-18T17:54:18Z</time></trkpt><trkpt lat="42.429774269700296" lon="-8.080239517518743"><ele>395.4</ele><time>2026-04-18T17:54:20Z</time></trkpt><trkpt lat="42.4297207182618" lon="-8.080146077112415"><ele>396.0</ele><time>2026-04-18T17:54:23Z</time></trkpt><trkpt lat="42.42960193838323" lon="-8.080182715274837"><ele>396.0</ele><time>2026-04-18T17:54:28Z</time></trkpt><trkpt lat="42.42952777910541" lon="-8.080262658496325"><ele>396.0</ele><time>2026-04-18T17:54:30Z</time></trkpt><trkpt lat="42.42944093561564" lon="-8.08032461950113"><ele>396.0</ele><time>2026-04-18T17:54:32Z</time></trkpt><trkpt lat="42.42933539883586" lon="-8.080392886596279"><ele>396.0</ele><time>2026-04-18T17:54:34Z</time></trkpt><trkpt lat="42.42923510260871" lon="-8.0804691376396"><ele>396.0</ele><time>2026-04-18T17:54:36Z</time></trkpt><trkpt lat="42.42915044060326" lon="-8.080574279121278"><ele>396.0</ele><time>2026-04-18T17:54:38Z</time></trkpt><trkpt lat="42.429036190949176" lon="-8.080654686895528"><ele>396.0</ele><time>2026-04-18T17:54:40Z</time></trkpt><trkpt lat="42.4289768931862" lon="-8.080717370642581"><ele>396.0</ele><time>2026-04-18T17:54:41Z</time></trkpt><trkpt lat="42.42891300740416" lon="-8.080775324922962"><ele>396.0</ele><time>2026-04-18T17:54:42Z</time></trkpt><trkpt lat="42.42885771333827" lon="-8.080850200219706"><ele>396.0</ele><time>2026-04-18T17:54:43Z</time></trkpt><trkpt lat="42.42879627437195" lon="-8.080898366145675"><ele>396.0</ele><time>2026-04-18T17:54:44Z</time></trkpt><trkpt lat="42.428729631328636" lon="-8.080950149353372"><ele>395.3333333333333</ele><time>2026-04-18T17:54:45Z</time></trkpt><trkpt lat="42.42866583454573" lon="-8.081010828942345"><ele>394.66666666666663</ele><time>2026-04-18T17:54:46Z</time></trkpt><trkpt lat="42.42858243449292" lon="-8.081059684924085"><ele>394.0</ele><time>2026-04-18T17:54:47Z</time></trkpt><trkpt lat="42.428518958246556" lon="-8.081125103799222"><ele>393.3333333333333</ele><time>2026-04-18T17:54:48Z</time></trkpt><trkpt lat="42.428444588055505" lon="-8.08115819475435"><ele>392.66666666666663</ele><time>2026-04-18T17:54:49Z</time></trkpt><trkpt lat="42.42838845219663" lon="-8.081203554884267"><ele>392.0</ele><time>2026-04-18T17:54:50Z</time></trkpt><trkpt lat="42.42829293134765" lon="-8.081309835718496"><ele>391.99999999999994</ele><time>2026-04-18T17:54:52Z</time></trkpt><trkpt lat="42.42817695808266" lon="-8.081409910608944"><ele>392.0</ele><time>2026-04-18T17:54:54Z</time></trkpt><trkpt lat="42.42811596535442" lon="-8.081472411886809"><ele>392.0</ele><time>2026-04-18T17:54:55Z</time></trkpt><trkpt lat="42.428047207498444" lon="-8.08151991278028"><ele>392.0</ele><time>2026-04-18T17:54:56Z</time></trkpt><trkpt lat="42.42798406788624" lon="-8.081591579346487"><ele>391.99999999999994</ele><time>2026-04-18T17:54:57Z</time></trkpt><trkpt lat="42.427928988683675" lon="-8.081641342635553"><ele>392.0</ele><time>2026-04-18T17:54:58Z</time></trkpt><trkpt lat="42.42784864917483" lon="-8.081713592763007"><ele>392.16666666666663</ele><time>2026-04-18T17:55:00Z</time></trkpt><trkpt lat="42.427776536501185" lon="-8.081753207629406"><ele>392.3333333333333</ele><time>2026-04-18T17:55:01Z</time></trkpt><trkpt lat="42.42771384880128" lon="-8.081838308886855"><ele>392.5</ele><time>2026-04-18T17:55:02Z</time></trkpt><trkpt lat="42.4276470673484" lon="-8.081893382347001"><ele>392.66666666666663</ele><time>2026-04-18T17:55:03Z</time></trkpt><trkpt lat="42.4275520293027" lon="-8.081959227730982"><ele>392.8333333333333</ele><time>2026-04-18T17:55:04Z</time></trkpt><trkpt lat="42.42748100146295" lon="-8.082031193336814"><ele>393.0</ele><time>2026-04-18T17:55:05Z</time></trkpt><trkpt lat="42.427420668352546" lon="-8.08206363917404"><ele>393.0</ele><time>2026-04-18T17:55:06Z</time></trkpt><trkpt lat="42.42733289681228" lon="-8.08216824234773"><ele>393.0</ele><time>2026-04-18T17:55:07Z</time></trkpt><trkpt lat="42.42724239945688" lon="-8.082227707683543"><ele>393.0</ele><time>2026-04-18T17:55:08Z</time></trkpt><trkpt lat="42.42716960408833" lon="-8.08229450926969"><ele>393.0</ele><time>2026-04-18T17:55:09Z</time></trkpt><trkpt lat="42.4270933814009" lon="-8.082351629036514"><ele>393.0</ele><time>2026-04-18T17:55:10Z</time></trkpt><trkpt lat="42.427029680233794" lon="-8.082404479728751"><ele>393.3333333333333</ele><time>2026-04-18T17:55:11Z</time></trkpt><trkpt lat="42.42694276149909" lon="-8.082491892201533"><ele>393.66666666666663</ele><time>2026-04-18T17:55:13Z</time></trkpt><trkpt lat="42.426827111522286" lon="-8.082557316099935"><ele>394.0</ele><time>2026-04-18T17:55:15Z</time></trkpt><trkpt lat="42.426802534611674" lon="-8.082642946674014"><ele>394.3333333333333</ele><time>2026-04-18T17:55:16Z</time></trkpt><trkpt lat="42.42679407123708" lon="-8.082737584879153"><ele>394.66666666666663</ele><time>2026-04-18T17:55:17Z</time></trkpt><trkpt lat="42.42681969556489" lon="-8.082834233199751"><ele>395.0</ele><time>2026-04-18T17:55:18Z</time></trkpt><trkpt lat="42.42682879791805" lon="-8.082948068412051"><ele>394.99999999999994</ele><time>2026-04-18T17:55:19Z</time></trkpt><trkpt lat="42.42683650166834" lon="-8.083036619431025"><ele>395.0</ele><time>2026-04-18T17:55:20Z</time></trkpt><trkpt lat="42.426831290255215" lon="-8.08314384393328"><ele>395.0</ele><time>2026-04-18T17:55:21Z</time></trkpt><trkpt lat="42.426829296487064" lon="-8.083267295447332"><ele>395.0</ele><time>2026-04-18T17:55:22Z</time></trkpt><trkpt lat="42.42683383637805" lon="-8.083389330909855"><ele>394.99999999999994</ele><time>2026-04-18T17:55:23Z</time></trkpt><trkpt lat="42.42683115317137" lon="-8.083505421073896"><ele>395.0</ele><time>2026-04-18T17:55:24Z</time></trkpt><trkpt lat="42.42682010375651" lon="-8.083655099675088"><ele>395.66666666666663</ele><time>2026-04-18T17:55:25Z</time></trkpt><trkpt lat="42.426815981377665" lon="-8.083775070217888"><ele>396.3333333333333</ele><time>2026-04-18T17:55:26Z</time></trkpt><trkpt lat="42.426805493043766" lon="-8.083890615855644"><ele>397.0</ele><time>2026-04-18T17:55:27Z</time></trkpt><trkpt lat="42.42677628353738" lon="-8.084016767968746"><ele>397.66666666666663</ele><time>2026-04-18T17:55:28Z</time></trkpt><trkpt lat="42.426756160036454" lon="-8.084128691803478"><ele>398.3333333333333</ele><time>2026-04-18T17:55:29Z</time></trkpt><trkpt lat="42.42675183789436" lon="-8.084253417833928"><ele>399.0</ele><time>2026-04-18T17:55:30Z</time></trkpt><trkpt lat="42.42673494842341" lon="-8.084337832414766"><ele>399.4</ele><time>2026-04-18T17:55:31Z</time></trkpt><trkpt lat="42.42671418444511" lon="-8.084435212479017"><ele>399.79999999999995</ele><time>2026-04-18T17:55:32Z</time></trkpt><trkpt lat="42.426661909535504" lon="-8.084613581423824"><ele>400.20000000000005</ele><time>2026-04-18T17:55:34Z</time></trkpt><trkpt lat="42.42664440831614" lon="-8.084727639891783"><ele>400.6</ele><time>2026-04-18T17:55:36Z</time></trkpt><trkpt lat="42.42662956130562" lon="-8.084835154459629"><ele>401.0</ele><time>2026-04-18T17:55:39Z</time></trkpt><trkpt lat="42.42671088210055" lon="-8.084944773465992"><ele>401.0</ele><time>2026-04-18T17:55:44Z</time></trkpt><trkpt lat="42.42678593839906" lon="-8.084946985912232"><ele>401.0</ele><time>2026-04-18T17:55:47Z</time></trkpt><trkpt lat="42.426963686133696" lon="-8.08497371662783"><ele>401.0</ele><time>2026-04-18T17:55:51Z</time></trkpt><trkpt lat="42.426822232576065" lon="-8.085013439361445"><ele>401.0</ele><time>2026-04-18T17:55:52Z</time></trkpt></trkseg><trkseg><trkpt lat="42.424472873229206" lon="-8.087094289370668"><ele>408.0</ele><time>2026-04-18T18:19:39Z</time></trkpt><trkpt lat="42.42441493009361" lon="-8.087167219412365"><ele>408.0</ele><time>2026-04-18T18:19:40Z</time></trkpt><trkpt lat="42.42436260829928" lon="-8.087241503657966"><ele>408.0</ele><time>2026-04-18T18:19:41Z</time></trkpt><trkpt lat="42.42427327825698" lon="-8.087330480098055"><ele>408.0</ele><time>2026-04-18T18:19:43Z</time></trkpt><trkpt lat="42.42422220517939" lon="-8.087395987564882"><ele>408.0</ele><time>2026-04-18T18:20:36.999Z</time></trkpt><trkpt lat="42.42436136403559" lon="-8.087093794526696"><ele>408.0</ele><time>2026-04-18T18:21:11.999Z</time></trkpt><trkpt lat="42.42444910717497" lon="-8.087050482769875"><ele>408.0</ele><time>2026-04-18T18:21:13.999Z</time></trkpt><trkpt lat="42.424525425722265" lon="-8.086947651230954"><ele>408.0</ele><time>2026-04-18T18:21:14.999Z</time></trkpt><trkpt lat="42.424618649737546" lon="-8.086839905033413"><ele>408.0</ele><time>2026-04-18T18:21:15.999Z</time></trkpt><trkpt lat="42.42471264601926" lon="-8.086720918382785"><ele>407.0</ele><time>2026-04-18T18:21:16.999Z</time></trkpt><trkpt lat="42.42480176347544" lon="-8.086616793859351"><ele>406.0</ele><time>2026-04-18T18:21:17.999Z</time></trkpt><trkpt lat="42.42489668756968" lon="-8.086484737848584"><ele>405.0</ele><time>2026-04-18T18:21:18.999Z</time></trkpt><trkpt lat="42.424984504170816" lon="-8.086380603950564"><ele>404.0</ele><time>2026-04-18T18:21:19.999Z</time></trkpt><trkpt lat="42.42508292389638" lon="-8.086266739821479"><ele>403.75</ele><time>2026-04-18T18:21:20.999Z</time></trkpt><trkpt lat="42.42516175282675" lon="-8.086155815411635"><ele>403.5</ele><time>2026-04-18T18:21:21.999Z</time></trkpt><trkpt lat="42.42524223101412" lon="-8.086040632777802"><ele>403.25</ele><time>2026-04-18T18:21:22.999Z</time></trkpt><trkpt lat="42.42531310180274" lon="-8.085918703700537"><ele>403.0</ele><time>2026-04-18T18:21:23.999Z</time></trkpt><trkpt lat="42.425378972932315" lon="-8.085779236612531"><ele>402.59999999999997</ele><time>2026-04-18T18:21:24.999Z</time></trkpt><trkpt lat="42.42542692610125" lon="-8.085651547782764"><ele>402.2</ele><time>2026-04-18T18:21:25.999Z</time></trkpt><trkpt lat="42.425475698485165" lon="-8.085503413574674"><ele>401.8</ele><time>2026-04-18T18:21:26.999Z</time></trkpt><trkpt lat="42.425519602742085" lon="-8.085380232967706"><ele>401.4</ele><time>2026-04-18T18:21:27.999Z</time></trkpt><trkpt lat="42.42555360419251" lon="-8.085253795236696"><ele>401.0</ele><time>2026-04-18T18:21:28.999Z</time></trkpt><trkpt lat="42.42560856947248" lon="-8.08511606013422"><ele>401.0</ele><time>2026-04-18T18:21:29.999Z</time></trkpt><trkpt lat="42.425649644334676" lon="-8.084985497863338"><ele>401.0</ele><time>2026-04-18T18:21:30.999Z</time></trkpt><trkpt lat="42.42568332862623" lon="-8.08483712415853"><ele>401.0</ele><time>2026-04-18T18:21:31.999Z</time></trkpt><trkpt lat="42.42573048960612" lon="-8.084706838610778"><ele>401.0</ele><time>2026-04-18T18:21:32.999Z</time></trkpt><trkpt lat="42.42577758577988" lon="-8.084591841758098"><ele>401.0</ele><time>2026-04-18T18:21:33.999Z</time></trkpt><trkpt lat="42.425822251717854" lon="-8.084440430210934"><ele>401.0</ele><time>2026-04-18T18:21:34.999Z</time></trkpt><trkpt lat="42.42585849230307" lon="-8.08430283354397"><ele>401.0</ele><time>2026-04-18T18:21:35.999Z</time></trkpt><trkpt lat="42.42590190412151" lon="-8.084183862925956"><ele>401.0</ele><time>2026-04-18T18:21:36.999Z</time></trkpt><trkpt lat="42.42594378947486" lon="-8.084057882102654"><ele>401.0</ele><time>2026-04-18T18:21:37.999Z</time></trkpt><trkpt lat="42.42599858697318" lon="-8.083928767666187"><ele>401.0</ele><time>2026-04-18T18:21:38.999Z</time></trkpt><trkpt lat="42.42603407878597" lon="-8.083788806509698"><ele>401.0</ele><time>2026-04-18T18:21:39.999Z</time></trkpt><trkpt lat="42.42607026125689" lon="-8.083662698273328"><ele>401.0</ele><time>2026-04-18T18:21:40.999Z</time></trkpt><trkpt lat="42.42610690261966" lon="-8.083544300272253"><ele>401.0</ele><time>2026-04-18T18:21:41.999Z</time></trkpt><trkpt lat="42.42614985531267" lon="-8.083397822610127"><ele>401.0</ele><time>2026-04-18T18:21:42.999Z</time></trkpt><trkpt lat="42.42619816153917" lon="-8.083246243525213"><ele>401.0</ele><time>2026-04-18T18:21:43.999Z</time></trkpt><trkpt lat="42.42625007100091" lon="-8.083104413874441"><ele>400.0</ele><time>2026-04-18T18:21:44.999Z</time></trkpt><trkpt lat="42.42630998361021" lon="-8.082973747572792"><ele>399.0</ele><time>2026-04-18T18:21:45.999Z</time></trkpt><trkpt lat="42.42634899570769" lon="-8.082819567141208"><ele>398.0</ele><time>2026-04-18T18:21:46.999Z</time></trkpt><trkpt lat="42.426394588429396" lon="-8.082686724707909"><ele>397.0</ele><time>2026-04-18T18:21:47.999Z</time></trkpt><trkpt lat="42.42643472938896" lon="-8.082568171874767"><ele>396.0</ele><time>2026-04-18T18:21:48.999Z</time></trkpt><trkpt lat="42.42646119772248" lon="-8.082442791099142"><ele>395.8333333333333</ele><time>2026-04-18T18:21:49.999Z</time></trkpt><trkpt lat="42.42650932617132" lon="-8.082341907055504"><ele>395.66666666666663</ele><time>2026-04-18T18:21:50.999Z</time></trkpt><trkpt lat="42.426534750804784" lon="-8.0822235148146"><ele>395.5</ele><time>2026-04-18T18:21:51.999Z</time></trkpt><trkpt lat="42.42658534384213" lon="-8.082124564496567"><ele>395.3333333333333</ele><time>2026-04-18T18:21:52.999Z</time></trkpt><trkpt lat="42.426642082884364" lon="-8.082030899577962"><ele>395.16666666666663</ele><time>2026-04-18T18:21:53.999Z</time></trkpt><trkpt lat="42.42670143002976" lon="-8.081945690565346"><ele>395.0</ele><time>2026-04-18T18:21:54.999Z</time></trkpt><trkpt lat="42.42675988522717" lon="-8.081824254507953"><ele>395.0</ele><time>2026-04-18T18:21:55.999Z</time></trkpt><trkpt lat="42.42682139095628" lon="-8.081681910690019"><ele>395.0</ele><time>2026-04-18T18:21:56.999Z</time></trkpt><trkpt lat="42.42686124212152" lon="-8.081544068924137"><ele>395.0</ele><time>2026-04-18T18:21:57.999Z</time></trkpt><trkpt lat="42.42691427706576" lon="-8.08141947783564"><ele>395.0</ele><time>2026-04-18T18:21:58.999Z</time></trkpt><trkpt lat="42.42697567012153" lon="-8.081314506199327"><ele>395.0</ele><time>2026-04-18T18:21:59.999Z</time></trkpt><trkpt lat="42.42703998954115" lon="-8.08122357301007"><ele>394.5</ele><time>2026-04-18T18:22:00.999Z</time></trkpt><trkpt lat="42.4271041016861" lon="-8.08113333604615"><ele>394.0</ele><time>2026-04-18T18:22:01.999Z</time></trkpt><trkpt lat="42.42717304759105" lon="-8.081020483417177"><ele>393.5</ele><time>2026-04-18T18:22:02.999Z</time></trkpt><trkpt lat="42.42726398318192" lon="-8.08089202748358"><ele>393.0</ele><time>2026-04-18T18:22:03.999Z</time></trkpt><trkpt lat="42.42735561131833" lon="-8.080781697668696"><ele>393.75</ele><time>2026-04-18T18:22:04.999Z</time></trkpt><trkpt lat="42.427450655538614" lon="-8.08067843428509"><ele>394.5</ele><time>2026-04-18T18:22:05.999Z</time></trkpt><trkpt lat="42.42754192715404" lon="-8.080574369991341"><ele>395.25</ele><time>2026-04-18T18:22:06.999Z</time></trkpt><trkpt lat="42.42763295126265" lon="-8.08047405105301"><ele>396.0</ele><time>2026-04-18T18:22:07.999Z</time></trkpt><trkpt lat="42.42771471235984" lon="-8.0803722221066"><ele>396.0</ele><time>2026-04-18T18:22:08.999Z</time></trkpt><trkpt lat="42.42778173459965" lon="-8.080298746015723"><ele>396.0</ele><time>2026-04-18T18:22:09.999Z</time></trkpt><trkpt lat="42.42785803965042" lon="-8.080221461598532"><ele>396.0</ele><time>2026-04-18T18:22:10.999Z</time></trkpt><trkpt lat="42.42793196382826" lon="-8.080155690239083"><ele>396.0</ele><time>2026-04-18T18:22:11.999Z</time></trkpt><trkpt lat="42.42800220734274" lon="-8.080113209842393"><ele>396.0</ele><time>2026-04-18T18:22:12.999Z</time></trkpt><trkpt lat="42.428050446518036" lon="-8.080050742766646"><ele>396.0</ele><time>2026-04-18T18:22:13.999Z</time></trkpt><trkpt lat="42.42813163535865" lon="-8.079977184638286"><ele>395.6</ele><time>2026-04-18T18:22:15.999Z</time></trkpt><trkpt lat="42.42819129053551" lon="-8.079864556605497"><ele>395.20000000000005</ele><time>2026-04-18T18:22:17.999Z</time></trkpt><trkpt lat="42.42810021810764" lon="-8.079739988635177"><ele>394.79999999999995</ele><time>2026-04-18T18:22:19.999Z</time></trkpt><trkpt lat="42.42804062088575" lon="-8.079704189151396"><ele>394.4</ele><time>2026-04-18T18:22:20.999Z</time></trkpt><trkpt lat="42.42795713405356" lon="-8.07968041940007"><ele>394.0</ele><time>2026-04-18T18:22:22.999Z</time></trkpt><trkpt lat="42.42800432509209" lon="-8.079472488484734"><ele>393.6666666666667</ele><time>2026-04-18T18:22:24.999Z</time></trkpt><trkpt lat="42.428036411190746" lon="-8.079374540192859"><ele>393.33333333333337</ele><time>2026-04-18T18:22:25.999Z</time></trkpt><trkpt lat="42.4280697723322" lon="-8.079270132772953"><ele>393.0</ele><time>2026-04-18T18:22:26.999Z</time></trkpt><trkpt lat="42.428092886317124" lon="-8.079175099084974"><ele>392.66666666666663</ele><time>2026-04-18T18:22:27.999Z</time></trkpt><trkpt lat="42.42813635352219" lon="-8.07909418353184"><ele>392.3333333333333</ele><time>2026-04-18T18:22:28.999Z</time></trkpt><trkpt lat="42.4281873544419" lon="-8.079001785736665"><ele>392.0</ele><time>2026-04-18T18:22:29.999Z</time></trkpt><trkpt lat="42.42822219212308" lon="-8.07890926097743"><ele>391.99999999999994</ele><time>2026-04-18T18:22:30.999Z</time></trkpt><trkpt lat="42.42827172582294" lon="-8.078777629722424"><ele>392.0</ele><time>2026-04-18T18:22:32.999Z</time></trkpt><trkpt lat="42.42831371003649" lon="-8.078700186645174"><ele>392.0</ele><time>2026-04-18T18:22:33.999Z</time></trkpt><trkpt lat="42.42834006607129" lon="-8.078620364121829"><ele>392.0</ele><time>2026-04-18T18:22:34.999Z</time></trkpt><trkpt lat="42.42834264903471" lon="-8.078528919092816"><ele>391.99999999999994</ele><time>2026-04-18T18:22:35.999Z</time></trkpt><trkpt lat="42.4283889737977" lon="-8.078451516670956"><ele>392.0</ele><time>2026-04-18T18:22:37.999Z</time></trkpt><trkpt lat="42.42843776770766" lon="-8.078354809183097"><ele>390.75</ele><time>2026-04-18T18:22:46.999Z</time></trkpt><trkpt lat="42.42843918927208" lon="-8.078262653137376"><ele>389.5</ele><time>2026-04-18T18:22:49.999Z</time></trkpt><trkpt lat="42.42848706946242" lon="-8.078165776871174"><ele>388.25</ele><time>2026-04-18T18:22:50.999Z</time></trkpt><trkpt lat="42.42834742091631" lon="-8.07789446291584"><ele>387.0</ele><time>2026-04-18T18:22:52.999Z</time></trkpt><trkpt lat="42.42836285090919" lon="-8.077786749520605"><ele>387.0</ele><time>2026-04-18T18:22:54.999Z</time></trkpt><trkpt lat="42.42830753033428" lon="-8.077662852214148"><ele>387.0</ele><time>2026-04-18T18:22:56.999Z</time></trkpt><trkpt lat="42.4283167063113" lon="-8.077537365541298"><ele>387.0</ele><time>2026-04-18T18:22:58.999Z</time></trkpt><trkpt lat="42.42829617153295" lon="-8.07744130689597"><ele>387.0</ele><time>2026-04-18T18:23:00.999Z</time></trkpt><trkpt lat="42.42826826003995" lon="-8.077335808570135"><ele>387.0</ele><time>2026-04-18T18:23:02.999Z</time></trkpt><trkpt lat="42.4282329685864" lon="-8.07720581080259"><ele>386.5</ele><time>2026-04-18T18:23:04.999Z</time></trkpt><trkpt lat="42.428207382586294" lon="-8.077122553862036"><ele>386.0</ele><time>2026-04-18T18:23:05.999Z</time></trkpt><trkpt lat="42.42817937086744" lon="-8.077034810118548"><ele>385.5</ele><time>2026-04-18T18:23:06.999Z</time></trkpt><trkpt lat="42.42814011725942" lon="-8.076928066261521"><ele>385.0</ele><time>2026-04-18T18:23:07.999Z</time></trkpt><trkpt lat="42.42810812890555" lon="-8.07684896966949"><ele>384.5</ele><time>2026-04-18T18:23:08.999Z</time></trkpt><trkpt lat="42.42806924240202" lon="-8.076751954449563"><ele>384.0</ele><time>2026-04-18T18:23:10.999Z</time></trkpt><trkpt lat="42.42801679403976" lon="-8.076621108275825"><ele>383.4</ele><time>2026-04-18T18:23:13.999Z</time></trkpt><trkpt lat="42.4280913071048" lon="-8.076478068980101"><ele>382.79999999999995</ele><time>2026-04-18T18:23:14.999Z</time></trkpt><trkpt lat="42.428077269164675" lon="-8.076382728419048"><ele>382.20000000000005</ele><time>2026-04-18T18:23:15.999Z</time></trkpt><trkpt lat="42.42808956503199" lon="-8.076261959443753"><ele>381.6</ele><time>2026-04-18T18:23:16.999Z</time></trkpt><trkpt lat="42.42810524190461" lon="-8.076153641167238"><ele>381.0</ele><time>2026-04-18T18:23:17.999Z</time></trkpt><trkpt lat="42.428120395311836" lon="-8.076039023285487"><ele>381.0</ele><time>2026-04-18T18:23:18.999Z</time></trkpt><trkpt lat="42.42813463805912" lon="-8.075915420153827"><ele>381.0</ele><time>2026-04-18T18:23:19.999Z</time></trkpt><trkpt lat="42.428137646568814" lon="-8.075801538551941"><ele>381.0</ele><time>2026-04-18T18:23:20.999Z</time></trkpt><trkpt lat="42.42813221778664" lon="-8.07567330145351"><ele>381.0</ele><time>2026-04-18T18:23:21.999Z</time></trkpt><trkpt lat="42.428121394396" lon="-8.075568147394796"><ele>381.0</ele><time>2026-04-18T18:23:22.999Z</time></trkpt><trkpt lat="42.42812335877298" lon="-8.075464924579665"><ele>381.0</ele><time>2026-04-18T18:23:23.999Z</time></trkpt><trkpt lat="42.42809250865593" lon="-8.075343140942932"><ele>381.20000000000005</ele><time>2026-04-18T18:23:24.999Z</time></trkpt><trkpt lat="42.42807639065902" lon="-8.075226378120078"><ele>381.40000000000003</ele><time>2026-04-18T18:23:25.999Z</time></trkpt><trkpt lat="42.428063983315944" lon="-8.075137291218471"><ele>381.6</ele><time>2026-04-18T18:23:26.999Z</time></trkpt><trkpt lat="42.428036765412415" lon="-8.074977252967443"><ele>381.8</ele><time>2026-04-18T18:23:28.999Z</time></trkpt><trkpt lat="42.42802861915684" lon="-8.074860465332197"><ele>382.0</ele><time>2026-04-18T18:23:32.999Z</time></trkpt><trkpt lat="42.427993497176935" lon="-8.074730754347229"><ele>382.0</ele><time>2026-04-18T18:23:34.999Z</time></trkpt><trkpt lat="42.427986188360194" lon="-8.074643508416935"><ele>382.0</ele><time>2026-04-18T18:23:35.999Z</time></trkpt><trkpt lat="42.42797435569479" lon="-8.074553816211004"><ele>382.0</ele><time>2026-04-18T18:23:36.999Z</time></trkpt><trkpt lat="42.42795676523639" lon="-8.074462075836573"><ele>382.0</ele><time>2026-04-18T18:23:37.999Z</time></trkpt><trkpt lat="42.42794228801244" lon="-8.074362892113848"><ele>382.0</ele><time>2026-04-18T18:23:38.999Z</time></trkpt><trkpt lat="42.42794979246766" lon="-8.074266212873594"><ele>382.0</ele><time>2026-04-18T18:23:39.999Z</time></trkpt><trkpt lat="42.427968646077844" lon="-8.074151233622114"><ele>382.0</ele><time>2026-04-18T18:23:40.999Z</time></trkpt><trkpt lat="42.428001710327884" lon="-8.07403735960614"><ele>381.75</ele><time>2026-04-18T18:23:41.999Z</time></trkpt><trkpt lat="42.428037720002294" lon="-8.073914631800324"><ele>381.5</ele><time>2026-04-18T18:23:42.999Z</time></trkpt><trkpt lat="42.4280816819192" lon="-8.07377544297761"><ele>381.25</ele><time>2026-04-18T18:23:43.999Z</time></trkpt><trkpt lat="42.4281456326996" lon="-8.073636311841566"><ele>381.0</ele><time>2026-04-18T18:23:44.999Z</time></trkpt><trkpt lat="42.42821822629267" lon="-8.07350011824903"><ele>381.0</ele><time>2026-04-18T18:23:45.999Z</time></trkpt><trkpt lat="42.42829732515823" lon="-8.073335241850046"><ele>381.0</ele><time>2026-04-18T18:23:46.999Z</time></trkpt><trkpt lat="42.428374194456225" lon="-8.073186585505308"><ele>381.0</ele><time>2026-04-18T18:23:47.999Z</time></trkpt><trkpt lat="42.42843422468033" lon="-8.0730453144025"><ele>381.0</ele><time>2026-04-18T18:23:48.999Z</time></trkpt><trkpt lat="42.428498039574755" lon="-8.07290919382665"><ele>380.8</ele><time>2026-04-18T18:23:49.999Z</time></trkpt><trkpt lat="42.42855916604379" lon="-8.072798498940974"><ele>380.6</ele><time>2026-04-18T18:23:50.999Z</time></trkpt><trkpt lat="42.42861318885846" lon="-8.072697158933002"><ele>380.4</ele><time>2026-04-18T18:23:51.999Z</time></trkpt><trkpt lat="42.428661630107" lon="-8.07257101154036"><ele>380.2</ele><time>2026-04-18T18:23:52.999Z</time></trkpt><trkpt lat="42.42871657183624" lon="-8.072510585172653"><ele>380.0</ele><time>2026-04-18T18:23:53.999Z</time></trkpt><trkpt lat="42.42877410484317" lon="-8.072425778571485"><ele>381.0</ele><time>2026-04-18T18:23:55.999Z</time></trkpt><trkpt lat="42.4288397707553" lon="-8.072335238536628"><ele>382.0</ele><time>2026-04-18T18:23:59.999Z</time></trkpt><trkpt lat="42.428926469020084" lon="-8.072222362371077"><ele>383.0</ele><time>2026-04-18T18:24:01.999Z</time></trkpt><trkpt lat="42.42898449597735" lon="-8.07216923651711"><ele>384.0</ele><time>2026-04-18T18:24:02.999Z</time></trkpt><trkpt lat="42.429059894530624" lon="-8.072142808955999"><ele>384.99999999999994</ele><time>2026-04-18T18:24:03.999Z</time></trkpt><trkpt lat="42.4291400183171" lon="-8.072135209098107"><ele>386.0</ele><time>2026-04-18T18:24:04.999Z</time></trkpt><trkpt lat="42.42920866326341" lon="-8.072145153019274"><ele>386.0</ele><time>2026-04-18T18:24:05.999Z</time></trkpt><trkpt lat="42.429294580165404" lon="-8.072134730894742"><ele>386.0</ele><time>2026-04-18T18:24:07.999Z</time></trkpt><trkpt lat="42.42928850761463" lon="-8.072009934472998"><ele>386.0</ele><time>2026-04-18T18:24:10.999Z</time></trkpt><trkpt lat="42.42922179628042" lon="-8.07192818525705"><ele>386.0</ele><time>2026-04-18T18:24:11.999Z</time></trkpt><trkpt lat="42.42918095373391" lon="-8.071808420371662"><ele>386.0</ele><time>2026-04-18T18:24:12.999Z</time></trkpt><trkpt lat="42.429139296626126" lon="-8.071705222188427"><ele>385.99999999999994</ele><time>2026-04-18T18:24:13.999Z</time></trkpt><trkpt lat="42.42910598189316" lon="-8.071612341043"><ele>386.0</ele><time>2026-04-18T18:24:14.999Z</time></trkpt><trkpt lat="42.429069856708765" lon="-8.071524505755406"><ele>386.0</ele><time>2026-04-18T18:24:15.999Z</time></trkpt><trkpt lat="42.429031766497346" lon="-8.071445035823329"><ele>386.0</ele><time>2026-04-18T18:24:16.999Z</time></trkpt><trkpt lat="42.42899207929497" lon="-8.071366766731783"><ele>385.99999999999994</ele><time>2026-04-18T18:24:17.999Z</time></trkpt><trkpt lat="42.42897529520735" lon="-8.071246005276857"><ele>386.0</ele><time>2026-04-18T18:24:18.999Z</time></trkpt><trkpt lat="42.42897329000011" lon="-8.071048976154016"><ele>385.7142857142857</ele><time>2026-04-18T18:24:20.999Z</time></trkpt><trkpt lat="42.42899202956931" lon="-8.070942302344424"><ele>385.42857142857144</ele><time>2026-04-18T18:24:21.999Z</time></trkpt><trkpt lat="42.42900507695239" lon="-8.07084917544315"><ele>385.1428571428571</ele><time>2026-04-18T18:24:22.999Z</time></trkpt><trkpt lat="42.42901644005953" lon="-8.070760023056458"><ele>384.8571428571429</ele><time>2026-04-18T18:24:23.999Z</time></trkpt><trkpt lat="42.429017072081386" lon="-8.070666672864773"><ele>384.57142857142856</ele><time>2026-04-18T18:24:24.999Z</time></trkpt><trkpt lat="42.429023098865876" lon="-8.070577025468383"><ele>384.2857142857143</ele><time>2026-04-18T18:24:25.999Z</time></trkpt><trkpt lat="42.42904544875143" lon="-8.070485545978087"><ele>384.0</ele><time>2026-04-18T18:24:26.999Z</time></trkpt><trkpt lat="42.429051924592194" lon="-8.070371870545015"><ele>384.0</ele><time>2026-04-18T18:24:28.999Z</time></trkpt><trkpt lat="42.429096381780774" lon="-8.070241483832085"><ele>384.0</ele><time>2026-04-18T18:24:30.999Z</time></trkpt><trkpt lat="42.42909092158332" lon="-8.070152787357188"><ele>384.0</ele><time>2026-04-18T18:24:32.999Z</time></trkpt><trkpt lat="42.42927274156442" lon="-8.070149593935604"><ele>384.0</ele><time>2026-04-18T18:24:34.999Z</time></trkpt><trkpt lat="42.42935058350679" lon="-8.070132221869475"><ele>384.0</ele><time>2026-04-18T18:24:35.999Z</time></trkpt><trkpt lat="42.429442747952315" lon="-8.070108966427439"><ele>384.0</ele><time>2026-04-18T18:24:37.999Z</time></trkpt><trkpt lat="42.42952359993822" lon="-8.070115148591404"><ele>384.0</ele><time>2026-04-18T18:24:39.999Z</time></trkpt><trkpt lat="42.42956939935279" lon="-8.070047621946012"><ele>384.0</ele><time>2026-04-18T18:24:45.999Z</time></trkpt><trkpt lat="42.42961438735709" lon="-8.069904545196925"><ele>384.0</ele><time>2026-04-18T18:24:47.999Z</time></trkpt><trkpt lat="42.429626161058856" lon="-8.069765828238452"><ele>384.0</ele><time>2026-04-18T18:24:48.999Z</time></trkpt><trkpt lat="42.429617249390276" lon="-8.069633837973049"><ele>383.8333333333333</ele><time>2026-04-18T18:24:49.999Z</time></trkpt><trkpt lat="42.42960878621396" lon="-8.069515171107811"><ele>383.6666666666667</ele><time>2026-04-18T18:24:50.999Z</time></trkpt><trkpt lat="42.429615871073096" lon="-8.069425776681767"><ele>383.5</ele><time>2026-04-18T18:24:51.999Z</time></trkpt><trkpt lat="42.42961459563994" lon="-8.069335687135125"><ele>383.33333333333337</ele><time>2026-04-18T18:24:52.999Z</time></trkpt><trkpt lat="42.429593688945566" lon="-8.069243035780653"><ele>383.1666666666667</ele><time>2026-04-18T18:24:53.999Z</time></trkpt><trkpt lat="42.4295920483472" lon="-8.069076728673714"><ele>383.0</ele><time>2026-04-18T18:24:55.999Z</time></trkpt><trkpt lat="42.42959113667686" lon="-8.06898255310267"><ele>383.0</ele><time>2026-04-18T18:24:56.999Z</time></trkpt><trkpt lat="42.42960653180974" lon="-8.068880730907898"><ele>383.0</ele><time>2026-04-18T18:24:57.999Z</time></trkpt><trkpt lat="42.42960289888465" lon="-8.06879006344809"><ele>383.0</ele><time>2026-04-18T18:24:58.999Z</time></trkpt><trkpt lat="42.42959494351874" lon="-8.068692173177427"><ele>383.0</ele><time>2026-04-18T18:24:59.999Z</time></trkpt><trkpt lat="42.42958697783334" lon="-8.068595377352771"><ele>383.0</ele><time>2026-04-18T18:25:00.999Z</time></trkpt><trkpt lat="42.42958194721895" lon="-8.068434193690642"><ele>383.0</ele><time>2026-04-18T18:25:02.999Z</time></trkpt><trkpt lat="42.429594239258144" lon="-8.06831135781294"><ele>383.0</ele><time>2026-04-18T18:25:04.999Z</time></trkpt><trkpt lat="42.42958757854601" lon="-8.068416278696828"><ele>383.0</ele><time>2026-04-18T18:26:55.999Z</time></trkpt><trkpt lat="42.42964870300899" lon="-8.068536037802199"><ele>383.0</ele><time>2026-04-18T18:26:56.999Z</time></trkpt><trkpt lat="42.42965901868702" lon="-8.068674624565237"><ele>383.0</ele><time>2026-04-18T18:26:57.999Z</time></trkpt><trkpt lat="42.42961971553473" lon="-8.068799847950608"><ele>383.0</ele><time>2026-04-18T18:26:58.999Z</time></trkpt><trkpt lat="42.4296287897121" lon="-8.068928280545215"><ele>383.0</ele><time>2026-04-18T18:26:59.999Z</time></trkpt><trkpt lat="42.42962286521998" lon="-8.069064296969177"><ele>383.0</ele><time>2026-04-18T18:27:00.999Z</time></trkpt><trkpt lat="42.429623623930354" lon="-8.069203591669048"><ele>383.0</ele><time>2026-04-18T18:27:01.999Z</time></trkpt><trkpt lat="42.429618592715045" lon="-8.069341370616673"><ele>383.0</ele><time>2026-04-18T18:27:02.999Z</time></trkpt><trkpt lat="42.42962989350561" lon="-8.069483131795534"><ele>383.0</ele><time>2026-04-18T18:27:03.999Z</time></trkpt><trkpt lat="42.42963052124039" lon="-8.069629054750772"><ele>383.0</ele><time>2026-04-18T18:27:04.999Z</time></trkpt><trkpt lat="42.42963145661296" lon="-8.069766703054048"><ele>383.0</ele><time>2026-04-18T18:27:05.999Z</time></trkpt><trkpt lat="42.42962684905734" lon="-8.069883599767582"><ele>383.0</ele><time>2026-04-18T18:27:06.999Z</time></trkpt><trkpt lat="42.42963644836826" lon="-8.069997058121713"><ele>383.0</ele><time>2026-04-18T18:27:07.999Z</time></trkpt><trkpt lat="42.42962609083187" lon="-8.070125968082342"><ele>383.0</ele><time>2026-04-18T18:27:09.999Z</time></trkpt><trkpt lat="42.42955056338423" lon="-8.070150958389478"><ele>383.0</ele><time>2026-04-18T18:27:15.999Z</time></trkpt><trkpt lat="42.42956013601389" lon="-8.070241467610499"><ele>383.1666666666667</ele><time>2026-04-18T18:27:27Z</time></trkpt><trkpt lat="42.429658975201555" lon="-8.070225655357817"><ele>383.33333333333337</ele><time>2026-04-18T18:28:25Z</time></trkpt><trkpt lat="42.429577574309995" lon="-8.070200532649164"><ele>383.5</ele><time>2026-04-18T18:32:19Z</time></trkpt><trkpt lat="42.42961901197722" lon="-8.07028828021768"><ele>383.6666666666667</ele><time>2026-04-18T18:35:03Z</time></trkpt><trkpt lat="42.42967237516469" lon="-8.070405604211679"><ele>383.8333333333333</ele><time>2026-04-18T18:35:16.999Z</time></trkpt><trkpt lat="42.42969692073737" lon="-8.07051860544226"><ele>384.0</ele><time>2026-04-18T18:35:17.999Z</time></trkpt><trkpt lat="42.42970667151623" lon="-8.070656043103238"><ele>385.25</ele><time>2026-04-18T18:35:18.999Z</time></trkpt><trkpt lat="42.42972014934967" lon="-8.070795405267425"><ele>386.5</ele><time>2026-04-18T18:35:19.999Z</time></trkpt><trkpt lat="42.42974931381387" lon="-8.070953656618896"><ele>387.75</ele><time>2026-04-18T18:35:20.999Z</time></trkpt><trkpt lat="42.42977626993355" lon="-8.071116880035017"><ele>389.0</ele><time>2026-04-18T18:35:21.999Z</time></trkpt><trkpt lat="42.42981526712382" lon="-8.071301037049723"><ele>389.0</ele><time>2026-04-18T18:35:22.999Z</time></trkpt><trkpt lat="42.42984321895332" lon="-8.071465997180578"><ele>389.0</ele><time>2026-04-18T18:35:23.999Z</time></trkpt><trkpt lat="42.42986775341961" lon="-8.07162302324215"><ele>389.0</ele><time>2026-04-18T18:35:24.999Z</time></trkpt><trkpt lat="42.42989653329683" lon="-8.071759699151837"><ele>389.0</ele><time>2026-04-18T18:35:25.999Z</time></trkpt><trkpt lat="42.42992818330275" lon="-8.07189866097442"><ele>389.16666666666663</ele><time>2026-04-18T18:35:26.999Z</time></trkpt><trkpt lat="42.42994509731579" lon="-8.072009257055408"><ele>389.3333333333333</ele><time>2026-04-18T18:35:27.999Z</time></trkpt><trkpt lat="42.429975122662285" lon="-8.072118837374356"><ele>389.5</ele><time>2026-04-18T18:35:28.999Z</time></trkpt><trkpt lat="42.430007551694196" lon="-8.072196611702658"><ele>389.66666666666663</ele><time>2026-04-18T18:35:29.999Z</time></trkpt><trkpt lat="42.43003031080052" lon="-8.072282735875426"><ele>389.8333333333333</ele><time>2026-04-18T18:35:30.999Z</time></trkpt><trkpt lat="42.43003559191041" lon="-8.072452566574071"><ele>390.0</ele><time>2026-04-18T18:35:32.999Z</time></trkpt><trkpt lat="42.430047701240866" lon="-8.072541385175809"><ele>390.8</ele><time>2026-04-18T18:35:33.999Z</time></trkpt><trkpt lat="42.430077684258215" lon="-8.072701239070607"><ele>391.6</ele><time>2026-04-18T18:35:35.999Z</time></trkpt><trkpt lat="42.43011487576775" lon="-8.072872071477407"><ele>392.4</ele><time>2026-04-18T18:35:37.999Z</time></trkpt><trkpt lat="42.430135700853164" lon="-8.072972751001073"><ele>393.2</ele><time>2026-04-18T18:35:38.999Z</time></trkpt><trkpt lat="42.430149515236856" lon="-8.07306878074417"><ele>394.0</ele><time>2026-04-18T18:35:39.999Z</time></trkpt><trkpt lat="42.43017087434547" lon="-8.07316772125843"><ele>394.0</ele><time>2026-04-18T18:35:40.999Z</time></trkpt><trkpt lat="42.430202468017" lon="-8.073262129241721"><ele>394.0</ele><time>2026-04-18T18:35:41.999Z</time></trkpt><trkpt lat="42.430235658123536" lon="-8.073427127597714"><ele>394.0</ele><time>2026-04-18T18:35:43.999Z</time></trkpt><trkpt lat="42.43025239170631" lon="-8.073523795187043"><ele>394.0</ele><time>2026-04-18T18:35:44.999Z</time></trkpt><trkpt lat="42.43028902147483" lon="-8.073703423590594"><ele>394.0</ele><time>2026-04-18T18:35:46.999Z</time></trkpt><trkpt lat="42.43031066103537" lon="-8.07383057893023"><ele>394.75</ele><time>2026-04-18T18:35:47.999Z</time></trkpt><trkpt lat="42.43035317278942" lon="-8.073953440696748"><ele>395.5</ele><time>2026-04-18T18:35:48.999Z</time></trkpt><trkpt lat="42.43036978511149" lon="-8.0741054780689"><ele>396.25</ele><time>2026-04-18T18:35:49.999Z</time></trkpt><trkpt lat="42.43041583120803" lon="-8.074253526120476"><ele>397.0</ele><time>2026-04-18T18:35:51Z</time></trkpt><trkpt lat="42.430452678360865" lon="-8.074421983281146"><ele>397.8</ele><time>2026-04-18T18:35:52Z</time></trkpt><trkpt lat="42.43047654168061" lon="-8.074566562983653"><ele>398.6</ele><time>2026-04-18T18:35:53Z</time></trkpt><trkpt lat="42.430501610126804" lon="-8.074705559571136"><ele>399.40000000000003</ele><time>2026-04-18T18:35:54Z</time></trkpt><trkpt lat="42.430535081329616" lon="-8.074807665778259"><ele>400.20000000000005</ele><time>2026-04-18T18:35:55Z</time></trkpt><trkpt lat="42.43055606723696" lon="-8.074919985644643"><ele>401.0</ele><time>2026-04-18T18:35:56Z</time></trkpt><trkpt lat="42.43057268988618" lon="-8.075022680283128"><ele>400.8</ele><time>2026-04-18T18:35:57Z</time></trkpt><trkpt lat="42.43059441703323" lon="-8.075115449098563"><ele>400.6</ele><time>2026-04-18T18:35:58Z</time></trkpt><trkpt lat="42.430608349992944" lon="-8.075198935159525"><ele>400.4</ele><time>2026-04-18T18:35:59Z</time></trkpt><trkpt lat="42.43064829091381" lon="-8.075319301465418"><ele>400.2</ele><time>2026-04-18T18:36:01Z</time></trkpt><trkpt lat="42.43045645293419" lon="-8.075382857520665"><ele>400.0</ele><time>2026-04-18T18:36:05Z</time></trkpt><trkpt lat="42.430339267624284" lon="-8.07540768093307"><ele>400.00000000000006</ele><time>2026-04-18T18:36:07Z</time></trkpt><trkpt lat="42.430273051360345" lon="-8.075402896847189"><ele>400.0</ele><time>2026-04-18T18:36:09Z</time></trkpt><trkpt lat="42.43020128157961" lon="-8.07541661594654"><ele>400.0</ele><time>2026-04-18T18:36:13Z</time></trkpt><trkpt lat="42.430156718776594" lon="-8.075344958357492"><ele>400.0</ele><time>2026-04-18T18:36:15Z</time></trkpt><trkpt lat="42.43013675162289" lon="-8.075248518474478"><ele>400.00000000000006</ele><time>2026-04-18T18:36:16Z</time></trkpt><trkpt lat="42.430134933174" lon="-8.075113460795263"><ele>400.0</ele><time>2026-04-18T18:36:18Z</time></trkpt><trkpt lat="42.43013041704938" lon="-8.075020548917774"><ele>400.0</ele><time>2026-04-18T18:36:20Z</time></trkpt><trkpt lat="42.43017533957705" lon="-8.074938590702539"><ele>400.0</ele><time>2026-04-18T18:36:22Z</time></trkpt><trkpt lat="42.430258550044904" lon="-8.07492073792575"><ele>397.0</ele><time>2026-04-18T18:36:25Z</time></trkpt><trkpt lat="42.43039958299461" lon="-8.074864625429456"><ele>397.0</ele><time>2026-04-18T18:38:33Z</time></trkpt></trkseg></trk></gpx>